GW5512 Weather Reports


time (UTC)temp
F
wind
direction
speed
knots
gust
knots
rain 1hr
in
rain 24hr
in
rain mn
in
humidity
%
barometer
mb
20260510122847 72 300 0.0 0.0 0.00 0.04 0.00 98 1015.1
20260510122842 73 300 0.0 0.0 0.00 0.04 0.00 98 1015.3
20260510122556 71 300 0.0 0.0 0.00 0.04 0.00 97 1013.1
20260510122551 71 300 0.0 0.0 0.00 0.04 0.00 97 1013.2
20260510122546 71 300 0.0 0.0 0.00 0.04 0.00 97 1013.6
20260510122541 72 300 0.0 0.0 0.00 0.04 0.00 98 1015.0
20260510122416 71 300 0.0 0.0 0.00 0.04 0.00 97 1013.4
20260510122410 71 300 0.0 0.0 0.00 0.04 0.00 97 1013.7
20260510122403 71 300 0.0 0.0 0.00 0.04 0.00 97 1013.8
20260510122358 71 300 0.0 0.0 0.00 0.04 0.00 97 1013.9
20260510122352 71 300 0.0 0.0 0.00 0.04 0.00 97 1013.8
20260510122348 71 300 0.0 0.0 0.00 0.04 0.00 97 1013.9
20260510122342 71 300 0.0 0.0 0.00 0.04 0.00 97 1014.0
20260510122338 72 300 0.0 0.0 0.00 0.04 0.00 98 1015.0
20260510122333 71 300 0.0 0.0 0.00 0.04 0.00 97 1014.4
20260510122327 71 300 0.0 0.0 0.00 0.04 0.00 97 1014.2
20260510122322 73 175 4.3 7.0 0.00 0.04 0.00 97 1013.3
20260510122317 71 300 0.0 0.0 0.00 0.04 0.00 98 1014.7
20260510122312 71 300 0.0 0.0 0.00 0.04 0.00 98 1014.6
20260510122306 73 300 0.0 0.0 0.00 0.04 0.00 98 1015.3
20260510122259 72 300 0.0 0.0 0.00 0.04 0.00 98 1015.1
20260510122134 71 300 0.0 0.0 0.00 0.04 0.00 97 1014.9
20260510122130 73 183 3.5 6.1 0.00 0.04 0.00 97 1013.6
20260510122124 71 300 0.0 0.0 0.00 0.04 0.00 97 1014.3
20260510122119 73 209 2.6 4.3 0.00 0.04 0.00 97 1013.7
20260510121953 71 300 0.0 0.0 0.00 0.04 0.00 97 1012.8
20260510121947 72 300 0.0 0.0 0.00 0.04 0.00 98 1015.0
20260510121942 71 300 0.0 0.0 0.00 0.04 0.00 97 1012.9
20260510121938 71 300 0.0 0.0 0.00 0.04 0.00 97 1013.0
20260510121932 71 300 0.0 0.0 0.00 0.04 0.00 97 1012.8
20260510121928 71 300 0.0 0.0 0.00 0.04 0.00 97 1013.6
20260510121922 71 300 0.0 0.0 0.00 0.04 0.00 97 1013.2
20260510121917 71 300 0.0 0.0 0.00 0.04 0.00 97 1013.1
20260510121913 71 300 0.0 0.0 0.00 0.04 0.00 97 1013.4
20260510121907 71 300 0.0 0.0 0.00 0.04 0.00 97 1013.7
20260510121901 71 300 0.0 0.0 0.00 0.04 0.00 97 1013.8
20260510121854 71 300 0.0 0.0 0.00 0.04 0.00 97 1013.9
20260510121849 71 300 0.0 0.0 0.00 0.04 0.00 97 1013.4
20260510121843 73 209 2.6 4.3 0.00 0.04 0.00 96 1014.1
20260510121838 71 300 0.0 0.0 0.00 0.04 0.00 97 1013.8
20260510121834 72 300 0.0 0.0 0.00 0.04 0.00 98 1015.0
20260510121828 71 300 0.0 0.0 0.00 0.04 0.00 97 1013.9
20260510121823 71 300 0.0 0.0 0.00 0.04 0.00 97 1014.0
20260510121817 71 300 0.0 0.0 0.00 0.04 0.00 97 1014.2
20260510121812 71 300 0.0 0.0 0.00 0.04 0.00 97 1014.4
20260510121807 71 300 0.0 0.0 0.00 0.04 0.00 98 1014.7
20260510121802 72 300 0.0 0.0 0.00 0.04 0.00 98 1015.1
20260510121754 71 300 0.0 0.0 0.00 0.04 0.00 98 1014.6
20260510121630 71 300 0.0 0.0 0.00 0.04 0.00 97 1014.3
20260510121624 73 194 3.5 4.3 0.00 0.04 0.00 96 1014.3
20260510121619 73 191 3.5 5.2 0.00 0.04 0.00 96 1014.4
20260510121615 71 300 0.0 0.0 0.00 0.04 0.00 97 1014.9
20260510121448 72 300 0.0 0.0 0.00 0.04 0.00 98 1015.0
20260510121443 71 300 0.0 0.9 0.00 0.04 0.00 97 1012.8
20260510121437 71 300 0.0 0.0 0.00 0.04 0.00 97 1012.8
20260510121433 71 300 0.0 0.0 0.00 0.04 0.00 97 1012.8
20260510121427 71 300 0.0 0.0 0.00 0.04 0.00 97 1013.0
20260510121422 71 300 0.0 0.0 0.00 0.04 0.00 97 1012.9
20260510121418 71 300 0.0 0.0 0.00 0.04 0.00 97 1013.1
20260510121412 71 300 0.0 0.0 0.00 0.04 0.00 97 1013.2
20260510121407 71 300 0.0 0.0 0.00 0.04 0.00 97 1013.4
20260510121401 71 300 0.0 0.0 0.00 0.04 0.00 97 1013.6
20260510121357 71 300 0.0 0.0 0.00 0.04 0.00 97 1013.4
20260510121350 71 300 0.0 0.0 0.00 0.04 0.00 97 1013.7
20260510121345 71 300 0.0 0.0 0.00 0.04 0.00 97 1013.8
20260510121340 71 300 0.0 0.0 0.00 0.04 0.00 97 1013.9
20260510121335 72 300 0.0 0.0 0.00 0.04 0.00 98 1015.0
20260510121326 72 300 0.0 0.0 0.00 0.04 0.00 98 1015.1
20260510121206 71 300 0.0 0.0 0.00 0.04 0.00 97 1013.9
20260510121200 71 300 0.0 0.0 0.00 0.04 0.00 98 1014.7
20260510121155 71 300 0.0 0.0 0.00 0.04 0.00 97 1014.0
20260510121148 71 300 0.0 0.0 0.00 0.04 0.00 97 1014.2
20260510121143 71 300 0.0 0.0 0.00 0.04 0.00 97 1014.3
20260510121138 71 300 0.0 0.0 0.00 0.04 0.00 97 1014.4
20260510121134 71 300 0.0 0.0 0.00 0.04 0.00 98 1014.6
20260510121008 72 300 0.0 0.0 0.00 0.04 0.00 98 1015.0
20260510120842 71 300 0.0 0.0 0.00 0.04 0.00 97 1013.8
20260510120837 71 300 0.0 0.0 0.00 0.04 0.00 97 1013.9
20260510120554 71 299 1.7 3.5 0.00 0.04 0.00 97 1012.8
20260510120548 71 298 1.7 3.5 0.00 0.04 0.00 96 1012.8
20260510120541 71 300 0.0 0.0 0.00 0.04 0.00 97 1012.8
20260510120537 71 300 0.0 0.0 0.00 0.04 0.00 97 1012.8
20260510120531 71 300 0.0 0.0 0.00 0.04 0.00 97 1013.0
20260510120525 71 300 0.0 0.0 0.00 0.04 0.00 97 1012.9
20260510120521 71 300 0.0 0.0 0.00 0.04 0.00 97 1013.1
20260510120516 71 300 0.0 0.0 0.00 0.04 0.00 97 1013.2
20260510120510 71 300 0.0 0.0 0.00 0.04 0.00 97 1014.0
20260510120505 71 300 0.0 0.0 0.00 0.04 0.00 97 1013.4
20260510120459 71 300 0.0 0.0 0.00 0.04 0.00 97 1013.6
20260510120455 71 300 0.0 0.0 0.00 0.04 0.00 97 1013.4
20260510120450 71 300 0.0 0.0 0.00 0.04 0.00 97 1013.7
20260510120444 71 300 0.0 0.0 0.00 0.04 0.00 97 1014.2
20260510120438 71 300 0.0 0.0 0.00 0.04 0.00 97 1014.3
20260510120433 71 300 0.0 0.0 0.00 0.04 0.00 97 1014.4
20260510120427 71 300 0.0 0.0 0.00 0.04 0.00 98 1014.6
20260510120423 71 300 0.0 0.0 0.00 0.04 0.00 97 1014.9
20260510120418 72 300 0.0 0.0 0.00 0.04 0.00 98 1015.0
20260510120358 72 300 0.0 0.0 0.00 0.04 0.00 98 1015.0
20260510120247 71 300 0.0 0.0 0.00 0.04 0.00 97 1013.8
20260510120241 71 300 0.0 0.0 0.00 0.04 0.00 97 1013.9
20260510120234 71 300 0.0 0.0 0.00 0.04 0.00 98 1014.7
20260510115951 72 199 1.7 3.5 0.00 0.04 0.00 97 1012.8
20260510115947 72 199 1.7 3.5 0.00 0.04 0.00 97 1012.6
20260510115941 71 300 0.0 0.0 0.00 0.04 0.00 97 1012.8
20260510115936 71 300 0.0 0.0 0.00 0.04 0.00 97 1012.8
20260510115930 71 300 0.0 0.0 0.00 0.04 0.00 97 1012.8
20260510115925 71 300 0.0 0.0 0.00 0.04 0.00 97 1013.0
20260510115919 71 300 0.0 0.0 0.00 0.04 0.00 97 1012.9
20260510115915 71 300 0.0 0.0 0.00 0.04 0.00 97 1013.1
20260510115909 71 300 0.0 0.0 0.00 0.04 0.00 97 1013.2
20260510115904 71 300 0.0 0.0 0.00 0.04 0.00 97 1013.4
20260510115900 71 300 0.0 0.0 0.00 0.04 0.00 97 1013.6
20260510115854 71 300 0.0 0.0 0.00 0.04 0.00 97 1013.4
20260510115850 71 300 0.0 0.0 0.00 0.04 0.00 97 1013.7
20260510115844 71 300 0.0 0.0 0.00 0.04 0.00 97 1014.9
20260510115839 71 300 0.0 0.0 0.00 0.04 0.00 97 1014.2
20260510115832 71 300 0.0 0.0 0.00 0.04 0.00 97 1014.3
20260510115828 71 300 0.0 0.0 0.00 0.04 0.00 97 1014.4
20260510115822 72 300 0.0 0.0 0.00 0.04 0.00 98 1015.0
20260510115818 71 300 0.0 0.0 0.00 0.04 0.00 98 1014.6
20260510115652 71 300 0.0 0.0 0.00 0.04 0.00 97 1013.8
20260510115646 71 300 0.0 0.0 0.00 0.04 0.00 97 1013.8
20260510115641 71 300 0.0 0.0 0.00 0.04 0.00 97 1013.9
20260510115514 71 300 0.0 0.0 0.00 0.04 0.00 97 1014.0
20260510115338 72 300 0.0 0.0 0.00 0.04 0.00 98 1015.0
20260510115223 71 300 0.0 0.0 0.00 0.04 0.00 97 1014.2
20260510115218 71 300 0.0 0.0 0.00 0.04 0.00 97 1014.3
20260510115212 71 300 0.0 0.0 0.00 0.04 0.00 97 1014.4
20260510115207 71 300 0.0 0.0 0.00 0.04 0.00 98 1014.7
20260510115041 73 196 2.6 4.3 0.00 0.04 0.00 97 1012.4
20260510115036 73 196 2.6 5.2 0.00 0.04 0.00 97 1012.5
20260510115031 73 196 2.6 5.2 0.00 0.04 0.00 97 1012.7
20260510115026 73 195 3.5 5.2 0.00 0.04 0.00 96 1012.8
20260510115021 73 180 4.3 6.1 0.00 0.04 0.00 97 1012.8
20260510114856 73 180 4.3 6.1 0.00 0.04 0.00 97 1013.1
20260510114850 73 175 4.3 7.0 0.00 0.04 0.00 97 1013.3
20260510114845 73 183 3.5 5.2 0.00 0.04 0.00 97 1013.4
20260510114841 73 183 3.5 6.1 0.00 0.04 0.00 97 1013.6
20260510114835 71 300 0.0 0.0 0.00 0.04 0.00 97 1012.8
20260510114830 71 300 0.0 0.0 0.00 0.04 0.00 97 1012.8
20260510114824 71 300 0.0 0.0 0.00 0.04 0.00 97 1012.9
20260510114820 71 300 0.0 0.0 0.00 0.04 0.00 97 1013.1
20260510114813 71 300 0.0 0.0 0.00 0.04 0.00 97 1013.0
20260510114807 71 300 0.0 0.0 0.00 0.04 0.00 97 1013.2
20260510114802 71 300 0.0 0.0 0.00 0.04 0.00 97 1012.8
20260510114757 71 300 0.0 0.0 0.00 0.04 0.00 97 1013.4
20260510114752 71 300 0.0 0.0 0.00 0.04 0.00 97 1013.6
20260510114747 71 300 0.0 0.0 0.00 0.04 0.00 97 1014.9
20260510114742 71 300 0.0 0.0 0.00 0.04 0.00 97 1013.9
20260510114738 71 300 0.0 0.9 0.00 0.04 0.00 97 1012.8
20260510114732 71 300 0.0 0.0 0.00 0.04 0.00 97 1013.4
20260510114727 71 300 0.0 0.0 0.00 0.04 0.00 98 1014.6
20260510114721 71 300 0.0 0.0 0.00 0.04 0.00 97 1013.7
20260510114714 71 300 0.0 0.0 0.00 0.04 0.00 97 1013.8
20260510114708 71 300 0.0 0.0 0.00 0.04 0.00 97 1013.8
20260510114704 71 300 0.0 0.0 0.00 0.04 0.00 97 1014.2
20260510114659 71 300 0.0 0.0 0.00 0.04 0.00 97 1013.9
20260510114653 71 300 0.0 0.0 0.00 0.04 0.00 97 1014.0
20260510114649 71 300 0.0 0.0 0.00 0.04 0.00 97 1014.3
20260510114643 71 299 1.7 3.5 0.00 0.04 0.00 97 1012.8
20260510114638 71 298 1.7 3.5 0.00 0.04 0.00 96 1012.8
20260510114634 72 199 1.7 3.5 0.00 0.04 0.00 97 1012.8
20260510114628 72 199 1.7 3.5 0.00 0.04 0.00 97 1012.6
20260510114623 71 300 0.0 0.0 0.00 0.04 0.00 97 1014.4
20260510114617 71 300 0.0 0.0 0.00 0.04 0.00 98 1014.7
20260510114331 73 196 2.6 5.2 0.00 0.04 0.00 97 1012.5
20260510114326 71 300 0.0 0.0 0.00 0.04 0.00 97 1012.8
20260510114322 71 300 0.0 0.0 0.00 0.04 0.00 97 1012.8
20260510114316 71 300 0.0 0.0 0.00 0.04 0.00 97 1012.8
20260510114310 71 300 0.0 0.0 0.00 0.04 0.00 97 1013.0
20260510114303 71 300 0.0 0.0 0.00 0.04 0.00 97 1012.9
20260510114258 71 300 0.0 0.0 0.00 0.04 0.00 97 1014.9
20260510114253 71 300 0.0 0.0 0.00 0.04 0.00 97 1013.1
20260510114248 71 300 0.0 0.0 0.00 0.04 0.00 97 1013.2
20260510114243 71 300 0.0 0.0 0.00 0.04 0.00 97 1013.4
20260510114238 71 300 0.0 0.0 0.00 0.04 0.00 97 1013.9
20260510114233 71 300 0.0 0.0 0.00 0.04 0.00 97 1013.6
20260510114229 71 300 0.0 0.0 0.00 0.04 0.00 98 1014.6
20260510114223 71 300 0.0 0.0 0.00 0.04 0.00 97 1013.4
20260510114218 71 300 0.0 0.0 0.00 0.04 0.00 97 1013.7
20260510114212 71 300 0.0 0.0 0.00 0.04 0.00 97 1013.8
20260510114205 71 300 0.0 0.0 0.00 0.04 0.00 97 1013.8
20260510114201 71 300 0.0 0.0 0.00 0.04 0.00 97 1013.9
20260510114155 71 300 0.0 0.0 0.00 0.04 0.00 97 1014.0
20260510114150 71 300 0.0 0.0 0.00 0.04 0.00 97 1014.2
20260510114144 71 300 0.0 0.0 0.00 0.04 0.00 97 1014.3
20260510114020 71 300 0.0 0.0 0.00 0.04 0.00 98 1014.7
20260510113853 73 195 3.5 5.2 0.00 0.04 0.00 96 1012.8
20260510113848 73 180 4.3 6.1 0.00 0.04 0.00 97 1012.8
20260510113842 73 163 3.5 6.1 0.00 0.04 0.00 97 1012.9
20260510113838 73 180 4.3 6.1 0.00 0.04 0.00 97 1013.1
20260510113833 73 175 4.3 7.0 0.00 0.04 0.00 97 1013.3
20260510113827 73 183 3.5 5.2 0.00 0.04 0.00 97 1013.4
20260510113823 73 183 3.5 6.1 0.00 0.04 0.00 97 1013.6
20260510113817 71 300 0.0 0.9 0.00 0.04 0.00 97 1012.8
20260510113812 71 299 1.7 3.5 0.00 0.04 0.00 97 1012.8
20260510113806 71 298 1.7 3.5 0.00 0.04 0.00 96 1012.8
20260510113800 71 300 0.0 0.0 0.00 0.04 0.00 97 1013.9
20260510113755 71 300 0.0 0.0 0.00 0.04 0.00 98 1014.6
20260510113631 71 300 0.0 0.0 0.00 0.04 0.00 97 1013.6
20260510113626 71 300 0.0 0.0 0.00 0.04 0.00 97 1012.8
20260510113622 71 300 0.0 0.0 0.00 0.04 0.00 97 1013.7
20260510113616 71 300 0.0 0.0 0.00 0.04 0.00 97 1012.8
20260510113611 71 300 0.0 0.0 0.00 0.04 0.00 97 1012.8
20260510113604 71 300 0.0 0.0 0.00 0.04 0.00 97 1013.9
20260510113558 71 300 0.0 0.0 0.00 0.04 0.00 97 1013.8
20260510113553 71 300 0.0 0.0 0.00 0.04 0.00 97 1012.9
20260510113548 71 300 0.0 0.0 0.00 0.04 0.00 97 1013.0
20260510113543 71 300 0.0 0.0 0.00 0.04 0.00 97 1013.2
20260510113538 71 300 0.0 0.0 0.00 0.04 0.00 97 1013.8
20260510113533 71 300 0.0 0.0 0.00 0.04 0.00 97 1014.0
20260510113528 71 300 0.0 0.0 0.00 0.04 0.00 97 1013.1
20260510113524 71 300 0.0 0.0 0.00 0.04 0.00 97 1013.4
20260510113518 71 300 0.0 0.0 0.00 0.04 0.00 97 1013.4
20260510113513 71 300 0.0 0.0 0.00 0.04 0.00 97 1014.2
20260510113506 71 300 0.0 0.0 0.00 0.04 0.00 97 1014.4
20260510113501 71 300 0.0 0.0 0.00 0.04 0.00 97 1014.3
20260510113456 71 300 0.0 0.0 0.00 0.04 0.00 98 1014.7
20260510113333 72 196 1.7 4.3 0.00 0.04 0.00 96 1012.4
20260510113328 73 196 2.6 4.3 0.00 0.04 0.00 97 1012.4
20260510113324 73 196 2.6 5.2 0.00 0.04 0.00 97 1012.5
20260510113318 73 196 2.6 5.2 0.00 0.04 0.00 97 1012.7
20260510113314 71 300 0.0 0.0 0.00 0.04 0.00 97 1013.9
20260510113308 73 195 3.5 5.2 0.00 0.04 0.00 96 1012.8
20260510113300 71 300 0.0 0.0 0.00 0.04 0.00 98 1014.6
20260510113136 73 163 3.5 6.1 0.00 0.04 0.00 97 1012.9
20260510113132 73 180 4.3 6.1 0.00 0.04 0.00 97 1013.1
20260510113127 71 300 0.0 0.0 0.00 0.04 0.00 97 1013.7
20260510113121 71 300 0.0 0.9 0.00 0.04 0.00 97 1012.8
20260510113115 71 300 0.0 0.0 0.00 0.04 0.00 97 1013.6
20260510113110 71 300 0.0 0.0 0.00 0.04 0.00 97 1013.8
20260510113106 71 300 0.0 0.0 0.00 0.04 0.00 97 1013.9
20260510113059 71 299 1.7 3.5 0.00 0.04 0.00 97 1012.8
20260510113053 71 300 0.0 0.0 0.00 0.04 0.00 97 1013.8
20260510113048 71 300 0.0 0.0 0.00 0.04 0.00 97 1012.8
20260510113044 71 300 0.0 0.0 0.00 0.04 0.00 97 1012.8
20260510113039 71 300 0.0 0.0 0.00 0.04 0.00 97 1014.0
20260510113033 71 300 0.0 0.0 0.00 0.04 0.00 97 1012.8
20260510113028 71 300 0.0 0.0 0.00 0.04 0.00 97 1013.0
20260510113024 71 300 0.0 0.0 0.00 0.04 0.00 97 1012.9
20260510113018 71 300 0.0 0.0 0.00 0.04 0.00 97 1013.1
20260510113013 71 300 0.0 0.0 0.00 0.04 0.00 97 1013.2
20260510113007 71 300 0.0 0.0 0.00 0.04 0.00 97 1013.4
20260510113000 71 300 0.0 0.0 0.00 0.04 0.00 97 1013.4
20260510112956 71 300 0.0 0.0 0.00 0.04 0.00 97 1014.2
20260510112950 71 300 0.0 0.0 0.00 0.04 0.00 97 1014.3
20260510112946 71 300 0.0 0.0 0.00 0.04 0.00 97 1014.4
20260510112940 71 300 0.0 0.0 0.00 0.04 0.00 98 1014.7
20260510112659 72 199 1.7 3.5 0.00 0.04 0.00 97 1012.8
20260510112652 72 199 1.7 3.5 0.00 0.04 0.00 97 1012.6
20260510112647 72 196 1.7 4.3 0.00 0.04 0.00 96 1012.4
20260510112642 73 196 2.6 4.3 0.00 0.04 0.00 97 1012.4
20260510112638 73 196 2.6 5.2 0.00 0.04 0.00 97 1012.5
20260510112632 71 300 0.0 0.9 0.00 0.04 0.00 97 1012.8
20260510112627 71 300 0.0 0.0 0.00 0.04 0.00 97 1013.6
20260510112621 71 300 0.0 0.0 0.00 0.04 0.00 97 1013.7
20260510112615 71 300 0.0 0.0 0.00 0.04 0.00 97 1013.8
20260510112610 71 300 0.0 0.0 0.00 0.04 0.00 97 1013.8
20260510112606 71 300 0.0 0.0 0.00 0.04 0.00 97 1013.9
20260510112600 71 300 0.0 0.0 0.00 0.04 0.00 97 1014.0
20260510112434 71 300 0.0 0.0 0.00 0.04 0.00 97 1012.8
20260510112429 71 300 0.0 0.0 0.00 0.04 0.00 97 1012.8
20260510112424 71 300 0.0 0.0 0.00 0.04 0.00 97 1014.2
20260510112419 71 300 0.0 0.0 0.00 0.04 0.00 97 1014.3
20260510112413 71 300 0.0 0.0 0.00 0.04 0.00 97 1014.4
20260510112355 71 300 0.0 0.0 0.00 0.04 0.00 98 1014.7
20260510112241 71 300 0.0 0.0 0.00 0.04 0.00 97 1012.9
20260510112235 71 300 0.0 0.0 0.00 0.04 0.00 97 1013.1
20260510112230 71 300 0.0 0.0 0.00 0.04 0.00 97 1013.2
20260510112224 71 300 0.0 0.0 0.00 0.04 0.00 97 1013.4
20260510112220 71 300 0.0 0.0 0.00 0.04 0.00 97 1013.4
20260510112214 71 300 0.0 0.0 0.00 0.04 0.00 97 1013.9
20260510112047 71 300 0.0 0.0 0.00 0.04 0.00 97 1013.7
20260510112041 71 300 0.0 0.0 0.00 0.04 0.00 97 1013.8
20260510112036 71 300 0.0 0.0 0.00 0.04 0.00 97 1013.8
20260510112032 71 300 0.0 0.0 0.00 0.04 0.00 97 1013.9
20260510112027 71 300 0.0 0.0 0.00 0.04 0.00 97 1014.0
20260510111903 73 209 2.6 4.3 0.00 0.04 0.00 96 1013.8
20260510111857 71 300 0.0 0.0 0.00 0.04 0.00 97 1014.2
20260510111851 73 209 2.6 4.3 0.00 0.04 0.00 96 1014.1
20260510111844 73 205 2.6 4.3 0.00 0.04 0.00 96 1014.3
20260510111840 73 194 3.5 4.3 0.00 0.04 0.00 96 1014.3
20260510111835 73 175 4.3 7.0 0.00 0.04 0.00 97 1013.3
20260510111829 71 300 0.0 0.0 0.00 0.04 0.00 97 1014.3
20260510111825 71 300 0.0 0.0 0.00 0.04 0.00 97 1014.4
20260510111700 73 183 3.5 6.1 0.00 0.04 0.00 97 1013.6
20260510111655 73 196 2.6 5.2 0.00 0.04 0.00 97 1012.7
20260510111649 73 195 3.5 5.2 0.00 0.04 0.00 96 1012.8
20260510111642 73 180 4.3 6.1 0.00 0.04 0.00 97 1012.8
20260510111638 73 163 3.5 6.1 0.00 0.04 0.00 97 1012.9
20260510111633 73 180 4.3 6.1 0.00 0.04 0.00 97 1013.1
20260510111627 71 299 1.7 3.5 0.00 0.04 0.00 97 1012.8
20260510111623 71 300 0.0 0.0 0.00 0.04 0.00 97 1013.9
20260510111617 71 298 1.7 3.5 0.00 0.04 0.00 96 1012.8
20260510111612 72 199 1.7 3.5 0.00 0.04 0.00 97 1012.8
20260510111608 72 199 1.7 3.5 0.00 0.04 0.00 97 1012.6
20260510111602 72 196 1.7 4.3 0.00 0.04 0.00 96 1012.4
20260510111557 73 196 2.6 4.3 0.00 0.04 0.00 97 1012.4
20260510111551 73 196 2.6 5.2 0.00 0.04 0.00 97 1012.5
20260510111544 71 300 0.0 0.9 0.00 0.04 0.00 97 1012.8
20260510111540 71 300 0.0 0.0 0.00 0.04 0.00 97 1012.8
20260510111535 71 300 0.0 0.0 0.00 0.04 0.00 97 1012.8
20260510111529 71 300 0.0 0.0 0.00 0.04 0.00 97 1012.8
20260510111525 71 300 0.0 0.0 0.00 0.04 0.00 97 1013.0
20260510111521 71 300 0.0 0.0 0.00 0.04 0.00 97 1012.9
20260510111515 71 300 0.0 0.0 0.00 0.04 0.00 97 1013.1
20260510111510 71 300 0.0 0.0 0.00 0.04 0.00 97 1013.2
20260510111504 71 300 0.0 0.0 0.00 0.04 0.00 97 1013.4
20260510111500 71 300 0.0 0.0 0.00 0.04 0.00 97 1013.4
20260510111455 71 300 0.0 0.0 0.00 0.04 0.00 97 1013.6
20260510111449 71 300 0.0 0.0 0.00 0.04 0.00 97 1013.7
20260510111442 71 300 0.0 0.0 0.00 0.04 0.00 97 1013.8
20260510111436 71 300 0.0 0.0 0.00 0.04 0.00 97 1013.8
20260510111432 71 300 0.0 0.0 0.00 0.04 0.00 97 1013.9
20260510111426 71 300 0.0 0.0 0.00 0.04 0.00 97 1014.2
20260510111421 71 300 0.0 0.0 0.00 0.04 0.00 97 1014.0
20260510111256 71 300 0.0 0.0 0.00 0.04 0.00 97 1014.3
20260510111011 73 195 3.5 5.2 0.00 0.04 0.00 96 1012.8
20260510111006 71 299 1.7 3.5 0.00 0.04 0.00 97 1012.8
20260510111001 71 298 1.7 3.5 0.00 0.04 0.00 96 1012.8
20260510110955 71 300 0.0 0.9 0.00 0.04 0.00 97 1012.8
20260510110951 71 300 0.0 0.0 0.00 0.04 0.00 97 1012.8
20260510110946 71 300 0.0 0.0 0.00 0.04 0.00 97 1012.8
20260510110940 71 300 0.0 0.0 0.00 0.04 0.00 97 1014.2
20260510110934 71 300 0.0 0.0 0.00 0.04 0.00 97 1012.8
20260510110808 71 300 0.0 0.0 0.00 0.04 0.00 97 1013.8
20260510110804 71 300 0.0 0.0 0.00 0.04 0.00 97 1012.9
20260510110758 71 300 0.0 0.0 0.00 0.04 0.00 97 1013.7
20260510110753 71 300 0.0 0.0 0.00 0.04 0.00 97 1013.6
20260510110749 71 300 0.0 0.0 0.00 0.04 0.00 97 1014.3
20260510110743 71 300 0.0 0.0 0.00 0.04 0.00 97 1014.0
20260510110738 71 300 0.0 0.0 0.00 0.04 0.00 97 1013.1
20260510110732 71 300 0.0 0.0 0.00 0.04 0.00 97 1013.2
20260510110727 71 300 0.0 0.0 0.00 0.04 0.00 97 1013.4
20260510110721 71 300 0.0 0.0 0.00 0.04 0.00 97 1013.4
20260510110557 71 300 0.0 0.0 0.00 0.04 0.00 97 1013.9
20260510110552 71 300 0.0 0.0 0.00 0.04 0.00 97 1013.9
20260510110306 71 300 0.0 0.0 0.00 0.04 0.00 97 1013.7
20260510110300 71 300 0.0 0.0 0.00 0.04 0.00 97 1014.3
20260510110256 71 300 0.0 0.0 0.00 0.04 0.00 97 1013.8
20260510110251 71 300 0.0 0.0 0.00 0.04 0.00 97 1014.0
20260510110124 72 196 1.7 4.3 0.00 0.04 0.00 96 1012.4
20260510110119 71 300 0.0 0.0 0.00 0.04 0.00 97 1013.9
20260510105954 73 196 2.6 4.3 0.00 0.04 0.00 97 1012.4
20260510105948 73 192 2.6 6.1 0.00 0.04 0.04 95 1014.4
20260510105944 71 299 1.7 3.5 0.00 0.04 0.00 97 1012.8
20260510105938 71 300 0.0 0.0 0.00 0.04 0.00 97 1013.9
20260510105933 71 300 0.0 0.9 0.00 0.04 0.00 97 1012.8
20260510105927 71 300 0.0 0.0 0.00 0.04 0.00 97 1012.8
20260510105922 71 300 0.0 0.0 0.00 0.04 0.00 97 1012.8
20260510105916 71 300 0.0 0.0 0.00 0.04 0.00 97 1012.8
20260510105911 71 300 0.0 0.0 0.00 0.04 0.00 97 1012.9
20260510105905 71 300 0.0 0.0 0.00 0.04 0.00 97 1013.1
20260510105900 71 300 0.0 0.0 0.00 0.04 0.00 97 1013.8
20260510105856 71 300 0.0 0.0 0.00 0.04 0.00 97 1014.2
20260510105732 73 194 4.3 6.1 0.00 0.04 0.04 95 1014.4
20260510105726 71 300 0.0 0.0 0.00 0.04 0.00 97 1014.0
20260510105719 71 300 0.0 0.0 0.00 0.04 0.00 97 1013.2
20260510105714 71 300 0.0 0.0 0.00 0.04 0.00 97 1013.4
20260510105710 71 300 0.0 0.0 0.00 0.04 0.00 97 1013.4
20260510105704 71 300 0.0 0.0 0.00 0.04 0.00 97 1013.7
20260510105658 71 300 0.0 0.0 0.00 0.04 0.00 97 1013.8
20260510105653 71 300 0.0 0.0 0.00 0.04 0.00 97 1013.6
20260510105647 73 200 4.3 7.0 0.00 0.04 0.04 95 1014.4
20260510105643 73 189 3.5 5.2 0.00 0.04 0.00 96 1014.3
20260510105638 73 191 3.5 5.2 0.00 0.04 0.00 96 1014.4
20260510105633 73 209 2.6 4.3 0.00 0.04 0.00 97 1013.7
20260510105628 73 209 2.6 4.3 0.00 0.04 0.00 96 1013.8
20260510105623 73 209 2.6 4.3 0.00 0.04 0.00 96 1014.1
20260510105616 73 205 2.6 4.3 0.00 0.04 0.00 96 1014.3
20260510105611 73 194 3.5 4.3 0.00 0.04 0.00 96 1014.3
20260510105606 73 175 4.3 7.0 0.00 0.04 0.00 97 1013.3
20260510105602 73 183 3.5 5.2 0.00 0.04 0.00 97 1013.4
20260510105556 73 183 3.5 6.1 0.00 0.04 0.00 97 1013.6
20260510105551 73 180 4.3 6.1 0.00 0.04 0.00 97 1012.8
20260510105546 73 163 3.5 6.1 0.00 0.04 0.00 97 1012.9
20260510105541 73 180 4.3 6.1 0.00 0.04 0.00 97 1013.1
20260510105535 71 300 0.0 0.0 0.00 0.04 0.00 97 1013.9
20260510105531 73 196 2.6 5.2 0.00 0.04 0.00 97 1012.5
20260510105526 73 196 2.6 5.2 0.00 0.04 0.00 97 1012.7
20260510105519 73 195 3.5 5.2 0.00 0.04 0.00 96 1012.8
20260510105514 71 298 1.7 3.5 0.00 0.04 0.00 96 1012.8
20260510105509 72 199 1.7 3.5 0.00 0.04 0.00 97 1012.8
20260510105503 72 199 1.7 3.5 0.00 0.04 0.00 97 1012.6
20260510105459 72 196 1.7 4.3 0.00 0.04 0.00 96 1012.4
20260510105454 73 196 2.6 4.3 0.00 0.04 0.00 97 1012.4
20260510105449 71 300 0.0 0.0 0.00 0.04 0.00 97 1013.9
20260510105444 71 299 1.7 3.5 0.00 0.04 0.00 97 1012.8
20260510105319 71 300 0.0 0.0 0.00 0.04 0.00 97 1012.8
20260510105312 71 300 0.0 0.0 0.00 0.04 0.00 97 1012.8
20260510105308 71 300 0.0 0.0 0.00 0.04 0.00 97 1013.8
20260510105306 71 300 0.0 0.0 0.00 0.04 0.00 97 1013.1
20260510105257 71 300 0.0 0.0 0.00 0.04 0.00 97 1014.2
20260510105251 71 300 0.0 0.0 0.00 0.04 0.00 97 1012.8
20260510105247 71 300 0.0 0.0 0.00 0.04 0.00 97 1014.0
20260510105242 71 300 0.0 0.0 0.00 0.04 0.00 97 1013.0
20260510105236 71 300 0.0 0.0 0.00 0.04 0.00 97 1012.9
20260510105231 71 300 0.0 0.0 0.00 0.04 0.00 97 1013.2
20260510105226 71 300 0.0 0.0 0.00 0.04 0.00 97 1013.4
20260510105221 71 300 0.0 0.0 0.00 0.04 0.00 97 1013.4
20260510105214 71 300 0.0 0.0 0.00 0.04 0.00 97 1013.6
20260510105208 71 300 0.0 0.0 0.00 0.04 0.00 97 1013.7
20260510105204 71 300 0.0 0.0 0.00 0.04 0.00 97 1013.8
20260510104800 71 300 0.0 0.0 0.00 0.04 0.00 97 1014.0
20260510104755 71 300 0.0 0.0 0.00 0.04 0.00 97 1013.4
20260510104749 71 300 0.0 0.0 0.00 0.04 0.00 97 1013.8
20260510104625 71 300 0.0 0.0 0.00 0.04 0.00 97 1013.6
20260510104620 71 300 0.0 0.0 0.00 0.04 0.00 97 1013.8
20260510104453 71 300 0.0 0.0 0.00 0.04 0.00 97 1013.4
20260510104447 73 198 2.6 4.3 0.00 0.04 0.00 96 1014.4
20260510104442 73 195 3.5 5.2 0.00 0.04 0.00 96 1014.2
20260510104438 73 189 3.5 5.2 0.00 0.04 0.00 96 1014.3
20260510104432 71 300 0.0 0.0 0.00 0.04 0.00 97 1013.7
20260510104428 73 191 3.5 5.2 0.00 0.04 0.00 96 1014.4
20260510104422 73 209 2.6 4.3 0.00 0.04 0.00 97 1013.7
20260510104417 73 209 2.6 4.3 0.00 0.04 0.00 96 1013.8
20260510104410 73 209 2.6 4.3 0.00 0.04 0.00 96 1014.1
20260510104406 73 205 2.6 4.3 0.00 0.04 0.00 96 1014.3
20260510104400 73 194 3.5 4.3 0.00 0.04 0.00 96 1014.3
20260510104356 73 175 4.3 7.0 0.00 0.04 0.00 97 1013.3
20260510104351 73 183 3.5 5.2 0.00 0.04 0.00 97 1013.4
20260510104345 73 183 3.5 6.1 0.00 0.04 0.00 97 1013.6
20260510104341 73 180 4.3 6.1 0.00 0.04 0.00 97 1012.8
20260510104336 71 300 0.0 0.0 0.00 0.04 0.00 97 1013.9
20260510104330 73 163 3.5 6.1 0.00 0.04 0.00 97 1012.9
20260510104326 73 180 4.3 6.1 0.00 0.04 0.00 97 1013.1
20260510104320 71 300 0.0 0.0 0.00 0.04 0.00 97 1013.9
20260510104316 73 196 2.6 5.2 0.00 0.04 0.00 97 1012.5
20260510104307 73 196 2.6 5.2 0.00 0.04 0.00 97 1012.7
20260510104303 73 195 3.5 5.2 0.00 0.04 0.00 96 1012.8
20260510104258 71 300 0.0 0.0 0.00 0.04 0.00 97 1014.0
20260510104253 71 298 1.7 3.5 0.00 0.04 0.00 96 1012.8
20260510104247 71 299 1.7 3.5 0.00 0.04 0.00 97 1012.8
20260510104243 71 300 0.0 0.9 0.00 0.04 0.00 97 1012.8
20260510104238 71 300 0.0 0.0 0.00 0.04 0.00 97 1012.8
20260510104232 71 300 0.0 0.0 0.00 0.04 0.00 97 1012.8
20260510104227 71 300 0.0 0.0 0.00 0.04 0.00 97 1012.8
20260510104222 71 300 0.0 0.0 0.00 0.04 0.00 97 1013.4
20260510104217 71 300 0.0 0.0 0.00 0.04 0.00 97 1013.8
20260510104051 72 199 1.7 3.5 0.00 0.04 0.00 97 1012.8
20260510104045 72 199 1.7 3.5 0.00 0.04 0.00 97 1012.6
20260510104040 72 196 1.7 4.3 0.00 0.04 0.00 96 1012.4
20260510104034 73 196 2.6 4.3 0.00 0.04 0.00 97 1012.4
20260510104030 71 300 0.0 0.0 0.00 0.04 0.00 97 1013.0
20260510104024 71 300 0.0 0.0 0.00 0.04 0.00 97 1012.9
20260510104020 71 300 0.0 0.0 0.00 0.04 0.00 97 1013.1
20260510104015 71 300 0.0 0.0 0.00 0.04 0.00 97 1013.2
20260510104009 71 300 0.0 0.0 0.00 0.04 0.00 97 1013.4
20260510104002 71 300 0.0 0.0 0.00 0.04 0.00 97 1013.6
20260510103956 71 300 0.0 0.0 0.00 0.04 0.00 97 1013.7
20260510103834 71 300 0.0 0.0 0.00 0.04 0.00 97 1013.9
20260510103711 73 196 2.6 5.2 0.00 0.04 0.00 97 1012.5
20260510103705 73 196 2.6 5.2 0.00 0.04 0.00 97 1012.7
20260510103658 73 175 4.3 7.0 0.00 0.04 0.00 97 1013.3
20260510103653 73 183 3.5 5.2 0.00 0.04 0.00 97 1013.4
20260510103647 73 180 4.3 6.1 0.00 0.04 0.00 97 1012.8
20260510103642 73 163 3.5 6.1 0.00 0.04 0.00 97 1012.9
20260510103638 73 195 3.5 5.2 0.00 0.04 0.00 96 1012.8
20260510103632 71 299 1.7 3.5 0.00 0.04 0.00 97 1012.8
20260510103628 71 300 0.0 0.9 0.00 0.04 0.00 97 1012.8
20260510103623 71 300 0.0 0.0 0.00 0.04 0.00 97 1012.8
20260510103617 71 300 0.0 0.0 0.00 0.04 0.00 97 1012.8
20260510103612 71 300 0.0 0.0 0.00 0.04 0.00 97 1012.8
20260510103607 71 300 0.0 0.0 0.00 0.04 0.00 97 1013.4
20260510103602 71 300 0.0 0.0 0.00 0.04 0.00 97 1013.8
20260510103435 72 199 1.7 3.5 0.00 0.04 0.00 97 1012.8
20260510103431 72 199 1.7 3.5 0.00 0.04 0.00 97 1012.6
20260510103425 72 196 1.7 4.3 0.00 0.04 0.00 96 1012.4
20260510103421 71 300 0.0 0.0 0.00 0.04 0.00 97 1013.0
20260510103415 73 196 2.6 4.3 0.00 0.04 0.00 97 1012.4
20260510103410 71 300 0.0 0.0 0.00 0.04 0.00 97 1013.1
20260510103406 71 300 0.0 0.0 0.00 0.04 0.00 97 1012.9
20260510103400 71 300 0.0 0.0 0.00 0.04 0.00 97 1013.2
20260510103353 71 300 0.0 0.0 0.00 0.04 0.00 97 1013.4
20260510103348 71 300 0.0 0.0 0.00 0.04 0.00 97 1013.6
20260510103342 71 300 0.0 0.0 0.00 0.04 0.00 97 1013.7
20260510103338 71 300 0.0 0.0 0.00 0.04 0.00 97 1013.9
20260510103328 71 300 0.0 0.0 0.00 0.04 0.00 97 1013.9
20260510103210 73 196 2.6 5.2 0.00 0.04 0.00 97 1012.7
20260510103205 71 300 0.0 0.0 0.00 0.04 0.00 97 1013.8
20260510103039 71 300 0.0 0.9 0.00 0.04 0.00 97 1012.8
20260510103034 71 300 0.0 0.0 0.00 0.04 0.00 97 1012.8
20260510103030 71 300 0.0 0.0 0.00 0.04 0.00 97 1012.8
20260510103024 71 300 0.0 0.0 0.00 0.04 0.00 97 1012.8
20260510103019 71 300 0.0 0.0 0.00 0.04 0.00 97 1013.4
20260510103013 71 300 0.0 0.0 0.00 0.04 0.00 97 1013.8
20260510102848 71 300 0.0 0.0 0.00 0.04 0.00 97 1012.9
20260510102842 71 300 0.0 0.0 0.00 0.04 0.00 97 1013.1
20260510102837 71 300 0.0 0.0 0.00 0.04 0.00 97 1013.2
20260510102831 71 300 0.0 0.0 0.00 0.04 0.00 97 1013.4
20260510102826 71 300 0.0 0.0 0.00 0.04 0.00 97 1013.6
20260510102820 71 300 0.0 0.0 0.00 0.04 0.00 97 1013.7
20260510102816 71 300 0.0 0.0 0.00 0.04 0.00 97 1013.9
20260510102649 72 199 1.7 3.5 0.00 0.04 0.00 97 1012.8
20260510102644 72 199 1.7 3.5 0.00 0.04 0.00 97 1012.6
20260510102640 71 300 0.0 0.0 0.00 0.04 0.00 97 1013.8
20260510102634 72 196 1.7 4.3 0.00 0.04 0.00 96 1012.4
20260510102508 71 300 0.0 0.0 0.00 0.04 0.00 97 1013.8
20260510102342 71 299 1.7 3.5 0.00 0.04 0.00 97 1012.8
20260510102336 71 300 0.0 0.9 0.00 0.04 0.00 97 1012.8
20260510102332 71 300 0.0 0.0 0.00 0.04 0.00 97 1012.8
20260510102327 71 300 0.0 0.0 0.00 0.04 0.00 97 1012.8
20260510102321 71 300 0.0 0.0 0.00 0.04 0.00 97 1012.8
20260510102316 71 300 0.0 0.0 0.00 0.04 0.00 97 1013.0
20260510102310 71 300 0.0 0.0 0.00 0.04 0.00 97 1012.9
20260510102306 71 300 0.0 0.0 0.00 0.04 0.00 97 1013.1
20260510102300 71 300 0.0 0.0 0.00 0.04 0.00 97 1013.2
20260510102255 71 300 0.0 0.0 0.00 0.04 0.00 97 1013.9
20260510102249 71 300 0.0 0.0 0.00 0.04 0.00 97 1013.4
20260510102242 71 300 0.0 0.0 0.00 0.04 0.00 97 1013.6
20260510102238 71 300 0.0 0.0 0.00 0.04 0.00 97 1013.7
20260510101954 73 180 4.3 6.1 0.00 0.04 0.00 97 1012.8
20260510101948 71 300 0.0 0.0 0.00 0.04 0.00 97 1013.4
20260510101944 71 300 0.0 0.0 0.00 0.04 0.00 97 1013.8
20260510101818 73 196 2.6 5.2 0.00 0.04 0.00 97 1012.5
20260510101812 73 196 2.6 5.2 0.00 0.04 0.00 97 1012.7
20260510101807 71 298 1.7 3.5 0.00 0.04 0.00 96 1012.8
20260510101803 72 199 1.7 3.5 0.00 0.04 0.00 97 1012.8
20260510101757 72 199 1.7 3.5 0.00 0.04 0.00 97 1012.6
20260510101752 72 196 1.7 4.3 0.00 0.04 0.00 96 1012.4
20260510101747 73 196 2.6 4.3 0.00 0.04 0.00 97 1012.4
20260510101742 71 299 1.7 3.5 0.00 0.04 0.00 97 1012.8
20260510101735 71 300 0.0 0.9 0.00 0.04 0.00 97 1012.8
20260510101729 71 300 0.0 0.0 0.00 0.04 0.00 97 1012.8
20260510101725 71 300 0.0 0.0 0.00 0.04 0.00 97 1012.8
20260510101719 71 300 0.0 0.0 0.00 0.04 0.00 97 1012.8
20260510101714 71 300 0.0 0.0 0.00 0.04 0.00 97 1013.0
20260510101708 71 300 0.0 0.0 0.00 0.04 0.00 97 1012.9
20260510101703 71 300 0.0 0.0 0.00 0.04 0.00 97 1013.1
20260510101657 71 300 0.0 0.0 0.00 0.04 0.00 97 1013.2
20260510101653 71 300 0.0 0.0 0.00 0.04 0.00 97 1013.4
20260510101527 71 300 0.0 0.0 0.00 0.04 0.00 97 1013.7
20260510101523 71 300 0.0 0.0 0.00 0.04 0.00 97 1013.8
20260510101344 71 300 0.0 0.0 0.00 0.04 0.00 97 1013.8
20260510101230 73 183 3.5 6.1 0.00 0.04 0.00 97 1013.6
20260510101226 73 175 4.3 7.0 0.00 0.04 0.00 97 1013.3
20260510101220 71 298 1.7 3.5 0.00 0.04 0.00 96 1012.8
20260510101216 71 299 1.7 3.5 0.00 0.04 0.00 97 1012.8
20260510101211 71 300 0.0 0.0 0.00 0.04 0.00 97 1013.0
20260510101046 73 183 3.5 5.2 0.00 0.04 0.00 97 1013.4
20260510101042 71 300 0.0 0.0 0.00 0.04 0.00 97 1013.1
20260510101036 73 163 3.5 6.1 0.00 0.04 0.00 97 1012.9
20260510101029 73 180 4.3 6.1 0.00 0.04 0.00 97 1013.1
20260510101024 73 180 4.3 6.1 0.00 0.04 0.00 97 1012.8
20260510101018 73 195 3.5 5.2 0.00 0.04 0.00 96 1012.8
20260510101014 73 196 2.6 5.2 0.00 0.04 0.00 97 1012.5
20260510101008 73 196 2.6 5.2 0.00 0.04 0.00 97 1012.7
20260510101003 72 199 1.7 3.5 0.00 0.04 0.00 97 1012.6
20260510100958 72 196 1.7 4.3 0.00 0.04 0.00 96 1012.4
20260510100953 73 196 2.6 4.3 0.00 0.04 0.00 97 1012.4
20260510100948 71 300 0.0 0.9 0.00 0.04 0.00 97 1012.8
20260510100942 71 300 0.0 0.0 0.00 0.04 0.00 97 1012.8
20260510100938 71 300 0.0 0.0 0.00 0.04 0.00 97 1012.8
20260510100929 71 300 0.0 0.0 0.00 0.04 0.00 97 1012.9
20260510100925 71 300 0.0 0.0 0.00 0.04 0.00 97 1013.4
20260510100920 71 300 0.0 0.0 0.00 0.04 0.00 97 1012.8
20260510100914 71 300 0.0 0.0 0.00 0.04 0.00 97 1013.6
20260510100910 71 300 0.0 0.0 0.00 0.04 0.00 97 1013.2
20260510100905 71 300 0.0 0.0 0.00 0.04 0.00 97 1013.7
20260510100859 71 300 0.0 0.0 0.00 0.04 0.00 97 1013.8
20260510100615 72 199 1.7 3.5 0.00 0.04 0.00 97 1012.8
20260510100609 71 300 0.0 0.0 0.00 0.04 0.00 97 1013.0
20260510100603 71 299 1.7 3.5 0.00 0.04 0.00 97 1012.8
20260510100558 71 300 0.0 0.0 0.00 0.04 0.00 97 1013.1
20260510100434 71 300 0.0 0.0 0.00 0.04 0.00 97 1013.6
20260510100429 71 300 0.0 0.0 0.00 0.04 0.00 97 1013.4
20260510100423 71 300 0.0 0.0 0.00 0.04 0.00 97 1012.8
20260510100417 71 300 0.0 0.0 0.00 0.04 0.00 97 1012.8
20260510100412 71 300 0.0 0.0 0.00 0.04 0.00 97 1012.8
20260510100407 71 300 0.0 0.0 0.00 0.04 0.00 97 1012.9
20260510100401 71 300 0.0 0.0 0.00 0.04 0.00 97 1013.2
20260510100357 71 300 0.0 0.0 0.00 0.04 0.00 97 1013.7
20260510100340 71 300 0.0 0.0 0.00 0.04 0.00 97 1013.8
20260510095948 71 300 0.0 0.0 0.00 0.04 0.00 97 1013.4
20260510095942 71 300 0.0 0.0 0.00 0.04 0.00 97 1013.6
20260510095656 73 180 4.3 6.1 0.00 0.04 0.00 97 1013.1
20260510095651 73 195 3.5 5.2 0.00 0.04 0.00 96 1012.8
20260510095645 71 300 0.0 0.0 0.00 0.04 0.00 97 1013.2
20260510095641 71 300 0.0 0.0 0.00 0.04 0.00 97 1013.4
20260510095516 73 180 4.3 6.1 0.00 0.04 0.00 97 1012.8
20260510095509 72 199 1.7 3.5 0.00 0.04 0.00 97 1012.6
20260510095504 73 196 2.6 5.2 0.00 0.04 0.00 97 1012.7
20260510095458 72 196 1.7 4.3 0.00 0.04 0.00 96 1012.4
20260510095454 73 196 2.6 4.3 0.00 0.04 0.00 97 1012.4
20260510095448 71 298 1.7 3.5 0.00 0.04 0.00 96 1012.8
20260510095443 71 299 1.7 3.5 0.00 0.04 0.00 97 1012.8
20260510095437 71 300 0.0 0.9 0.00 0.04 0.00 97 1012.8
20260510095432 71 300 0.0 0.0 0.00 0.04 0.00 97 1012.8
20260510095428 71 300 0.0 0.0 0.00 0.04 0.00 97 1013.0
20260510095422 71 300 0.0 0.0 0.00 0.04 0.00 97 1013.4
20260510095416 71 300 0.0 0.0 0.00 0.04 0.00 97 1013.6
20260510095251 71 300 0.0 0.0 0.00 0.04 0.00 97 1013.7
20260510095246 72 199 1.7 3.5 0.00 0.04 0.00 97 1012.8
20260510095241 71 300 0.0 0.0 0.00 0.04 0.00 97 1012.8
20260510095236 71 300 0.0 0.0 0.00 0.04 0.00 97 1012.9
20260510095230 71 300 0.0 0.0 0.00 0.04 0.00 97 1013.1
20260510095108 73 191 3.5 5.2 0.00 0.04 0.00 96 1014.4
20260510095100 73 209 2.6 4.3 0.00 0.04 0.00 97 1013.7
20260510095054 71 300 0.0 0.0 0.00 0.04 0.00 97 1013.4
20260510095050 73 183 3.5 6.1 0.00 0.04 0.00 97 1013.6
20260510095045 73 175 4.3 7.0 0.00 0.04 0.00 97 1013.3
20260510095039 73 183 3.5 5.2 0.00 0.04 0.00 97 1013.4
20260510095034 73 163 3.5 6.1 0.00 0.04 0.00 97 1012.9
20260510095029 73 180 4.3 6.1 0.00 0.04 0.00 97 1013.1
20260510095024 73 180 4.3 6.1 0.00 0.04 0.00 97 1012.8
20260510095019 73 195 3.5 5.2 0.00 0.04 0.00 96 1012.8
20260510095014 73 196 2.6 5.2 0.00 0.04 0.00 97 1012.5
20260510095008 73 196 2.6 5.2 0.00 0.04 0.00 97 1012.7
20260510095002 72 199 1.7 3.5 0.00 0.04 0.00 97 1012.6
20260510094956 71 298 1.7 3.5 0.00 0.04 0.00 96 1012.8
20260510094952 71 299 1.7 3.5 0.00 0.04 0.00 97 1012.8
20260510094946 71 300 0.0 0.9 0.00 0.04 0.00 97 1012.8
20260510094941 71 300 0.0 0.0 0.00 0.04 0.00 97 1013.4
20260510094817 73 196 2.6 4.3 0.00 0.04 0.00 97 1012.4
20260510094811 71 300 0.0 0.0 0.00 0.04 0.00 97 1013.0
20260510094806 71 300 0.0 0.0 0.00 0.04 0.00 97 1013.6
20260510094759 71 300 0.0 0.0 0.00 0.04 0.00 97 1012.8
20260510094754 71 300 0.0 0.0 0.00 0.04 0.00 97 1012.8
20260510094748 71 300 0.0 0.0 0.00 0.04 0.00 97 1012.8
20260510094626 71 300 0.0 0.0 0.00 0.04 0.00 97 1012.9
20260510094620 71 300 0.0 0.0 0.00 0.04 0.00 97 1013.4
20260510094616 71 300 0.0 0.0 0.00 0.04 0.00 97 1013.1
20260510094611 72 199 1.7 3.5 0.00 0.04 0.00 97 1012.8
20260510094446 71 299 1.7 3.5 0.00 0.04 0.00 97 1012.8
20260510094440 71 300 0.0 0.0 0.00 0.04 0.00 97 1013.4
20260510094315 71 300 0.0 0.0 0.00 0.04 0.00 97 1012.8
20260510094309 71 300 0.0 0.0 0.00 0.04 0.00 97 1013.0
20260510094301 71 300 0.0 0.0 0.00 0.04 0.00 97 1013.6
20260510094138 71 300 0.0 0.0 0.00 0.04 0.00 97 1012.8
20260510094132 71 300 0.0 0.0 0.00 0.04 0.00 97 1012.9
20260510094127 71 300 0.0 0.0 0.00 0.04 0.00 97 1013.1
20260510094122 71 300 0.0 0.0 0.00 0.04 0.00 97 1013.2
20260510094117 71 300 0.0 0.0 0.00 0.04 0.00 97 1013.4
20260510093829 73 195 3.5 5.2 0.00 0.04 0.00 96 1012.8
20260510093706 71 300 0.0 0.0 0.00 0.04 0.00 97 1013.0
20260510093540 72 199 1.7 3.5 0.00 0.04 0.00 97 1012.6
20260510093535 73 196 2.6 5.2 0.00 0.04 0.00 97 1012.5
20260510093529 72 196 1.7 4.3 0.00 0.04 0.00 96 1012.4
20260510093525 73 196 2.6 4.3 0.00 0.04 0.00 97 1012.4
20260510093520 73 209 2.6 4.3 0.00 0.04 0.00 96 1013.8
20260510093514 72 199 1.7 3.5 0.00 0.04 0.00 97 1012.8
20260510093510 71 300 0.0 0.0 0.00 0.04 0.00 97 1013.1
20260510093504 73 209 2.6 4.3 0.00 0.04 0.00 96 1014.1
20260510093500 73 205 2.6 4.3 0.00 0.04 0.00 96 1014.3
20260510093454 73 209 2.6 4.3 0.00 0.04 0.00 97 1013.7
20260510093449 71 300 0.0 0.0 0.00 0.04 0.00 97 1013.2
20260510093442 71 300 0.0 0.0 0.00 0.04 0.00 97 1013.4
20260510093437 71 298 1.7 3.5 0.00 0.04 0.00 96 1012.8
20260510093431 71 299 1.7 3.5 0.00 0.04 0.00 97 1012.8
20260510093427 71 300 0.0 0.9 0.00 0.04 0.00 97 1012.8
20260510093421 71 300 0.0 0.0 0.00 0.04 0.00 97 1012.8
20260510093415 71 300 0.0 0.0 0.00 0.04 0.00 97 1012.8
20260510093411 71 300 0.0 0.0 0.00 0.04 0.00 97 1012.9
20260510093352 71 300 0.0 0.0 0.00 0.04 0.00 97 1013.4
20260510093240 73 175 4.3 7.0 0.00 0.04 0.00 97 1013.3
20260510093234 73 183 3.5 5.2 0.00 0.04 0.00 97 1013.4
20260510093230 73 180 4.3 6.1 0.00 0.04 0.00 97 1013.1
20260510093224 73 180 4.3 6.1 0.00 0.04 0.00 97 1012.8
20260510093220 71 300 0.0 0.0 0.00 0.04 0.00 97 1012.8
20260510093215 71 300 0.0 0.0 0.00 0.04 0.00 97 1013.0
20260510093051 73 195 3.5 5.2 0.00 0.04 0.00 96 1012.8
20260510093044 73 196 2.6 5.2 0.00 0.04 0.00 97 1012.5
20260510093038 73 196 2.6 5.2 0.00 0.04 0.00 97 1012.7
20260510093034 72 199 1.7 3.5 0.00 0.04 0.00 97 1012.6
20260510093024 71 300 0.0 0.0 0.00 0.04 0.00 97 1013.1
20260510093020 72 196 1.7 4.3 0.00 0.04 0.00 96 1012.4
20260510093015 73 196 2.6 4.3 0.00 0.04 0.00 97 1012.4
20260510093010 72 199 1.7 3.5 0.00 0.04 0.00 97 1012.8
20260510093005 71 300 0.0 0.0 0.00 0.04 0.00 97 1013.2
20260510092959 71 300 0.0 0.0 0.00 0.04 0.00 97 1013.4
20260510092833 71 299 1.7 3.5 0.00 0.04 0.00 97 1012.8
20260510092828 71 300 0.0 0.9 0.00 0.04 0.00 97 1012.8
20260510092823 71 300 0.0 0.0 0.00 0.04 0.00 97 1012.8
20260510092818 71 300 0.0 0.0 0.00 0.04 0.00 97 1012.8
20260510092813 71 300 0.0 0.0 0.00 0.04 0.00 97 1012.9
20260510092649 71 300 0.0 0.0 0.00 0.04 0.00 97 1013.0
20260510092349 71 300 0.0 0.0 0.00 0.04 0.00 97 1013.4
20260510092237 73 195 3.5 5.2 0.00 0.04 0.00 96 1012.8
20260510092231 71 298 1.7 3.5 0.00 0.04 0.00 96 1012.8
20260510092225 72 199 1.7 3.5 0.00 0.04 0.00 97 1012.8
20260510092221 78 0.0 0.0 0.00 0.21 0.00 51 1017.8
20260510092215 71 300 0.0 0.0 0.00 0.04 0.00 97 1012.8
20260510092210 71 300 0.0 0.9 0.00 0.04 0.00 97 1012.8
20260510092205 77 0.0 0.0 0.00 0.21 0.00 54 1017.9
20260510092200 71 300 0.0 0.0 0.00 0.04 0.00 97 1012.8
20260510092156 71 300 0.0 0.0 0.00 0.04 0.00 97 1012.9
20260510092150 74 184 3.5 6.1 0.00 0.04 0.04 96 1014.0
20260510092024 71 300 0.0 0.0 0.00 0.04 0.00 97 1013.0
20260510092018 73 190 2.6 5.2 0.00 0.04 0.04 96 1014.3
20260510092014 73 194 2.6 4.3 0.00 0.04 0.04 95 1014.4
20260510092009 73 192 2.6 6.1 0.00 0.04 0.04 95 1014.4
20260510092003 73 194 4.3 6.1 0.00 0.04 0.04 95 1014.4
20260510091959 73 200 4.3 7.0 0.00 0.04 0.04 95 1014.4
20260510091953 74 200 4.3 7.0 0.00 0.04 0.04 95 1014.3
20260510091948 73 198 2.6 4.3 0.00 0.04 0.00 96 1014.4
20260510091944 73 195 3.5 5.2 0.00 0.04 0.00 96 1014.2
20260510091938 73 189 3.5 5.2 0.00 0.04 0.00 96 1014.3
20260510091933 72 199 1.7 3.5 0.00 0.04 0.00 97 1012.6
20260510091926 73 196 2.6 5.2 0.00 0.04 0.00 97 1012.7
20260510091920 73 194 3.5 4.3 0.00 0.04 0.00 96 1014.3
20260510091916 71 299 1.7 3.5 0.00 0.04 0.00 97 1012.8
20260510091911 71 300 0.0 0.0 0.00 0.04 0.00 97 1012.8
20260510091905 72 196 1.7 4.3 0.00 0.04 0.00 96 1012.4
20260510091900 73 191 3.5 5.2 0.00 0.04 0.00 96 1014.4
20260510091854 73 209 2.6 4.3 0.00 0.04 0.00 96 1013.8
20260510091850 71 300 0.0 0.0 0.00 0.04 0.00 97 1013.1
20260510091844 73 209 2.6 4.3 0.00 0.04 0.00 96 1014.1
20260510091840 71 300 0.0 0.0 0.00 0.04 0.00 97 1013.2
20260510091835 73 205 2.6 4.3 0.00 0.04 0.00 96 1014.3
20260510091829 73 209 2.6 4.3 0.00 0.04 0.00 97 1013.7
20260510091822 73 183 3.5 6.1 0.00 0.04 0.00 97 1013.6
20260510091818 73 175 4.3 7.0 0.00 0.04 0.00 97 1013.3
20260510091812 73 183 3.5 5.2 0.00 0.04 0.00 97 1013.4
20260510091807 73 180 4.3 6.1 0.00 0.04 0.00 97 1013.1
20260510091802 73 180 4.3 6.1 0.00 0.04 0.00 97 1012.8
20260510091758 73 163 3.5 6.1 0.00 0.04 0.00 97 1012.9
20260510091753 73 195 3.5 5.2 0.00 0.04 0.00 96 1012.8
20260510091747 73 196 2.6 4.3 0.00 0.04 0.00 97 1012.4
20260510091743 73 196 2.6 5.2 0.00 0.04 0.00 97 1012.5
20260510091737 71 298 1.7 3.5 0.00 0.04 0.00 96 1012.8
20260510091732 72 199 1.7 3.5 0.00 0.04 0.00 97 1012.8
20260510091726 71 300 0.0 0.0 0.00 0.04 0.00 97 1012.8
20260510091721 71 300 0.0 0.9 0.00 0.04 0.00 97 1012.8
20260510091715 71 300 0.0 0.0 0.00 0.04 0.00 97 1012.8
20260510091711 71 300 0.0 0.0 0.00 0.04 0.00 97 1012.9
20260510091425 72 199 1.7 3.5 0.00 0.04 0.00 97 1012.6
20260510091419 72 196 1.7 4.3 0.00 0.04 0.00 96 1012.4
20260510091415 71 299 1.7 3.5 0.00 0.04 0.00 97 1012.8
20260510091409 71 300 0.0 0.0 0.00 0.04 0.00 97 1012.8
20260510091404 71 300 0.0 0.0 0.00 0.04 0.00 97 1013.1
20260510091346 71 300 0.0 0.0 0.00 0.04 0.00 97 1013.2
20260510091235 71 298 1.7 3.5 0.00 0.04 0.00 96 1012.8
20260510091229 71 300 0.0 0.0 0.00 0.04 0.00 97 1012.8
20260510091104 71 300 0.0 0.0 0.00 0.04 0.00 97 1012.8
20260510091059 71 300 0.0 0.0 0.00 0.04 0.00 97 1013.0
20260510090934 71 300 0.0 0.0 0.00 0.04 0.00 97 1012.9
20260510090928 73 209 2.6 4.3 0.00 0.04 0.00 96 1013.8
20260510090923 73 209 2.6 4.3 0.00 0.04 0.00 96 1014.1
20260510090916 73 205 2.6 4.3 0.00 0.04 0.00 96 1014.3
20260510090910 73 209 2.6 4.3 0.00 0.04 0.00 97 1013.7
20260510090905 73 183 3.5 6.1 0.00 0.04 0.00 97 1013.6
20260510090900 73 175 4.3 7.0 0.00 0.04 0.00 97 1013.3
20260510090855 73 183 3.5 5.2 0.00 0.04 0.00 97 1013.4
20260510090849 73 180 4.3 6.1 0.00 0.04 0.00 97 1013.1
20260510090844 73 180 4.3 6.1 0.00 0.04 0.00 97 1012.8
20260510090838 73 163 3.5 6.1 0.00 0.04 0.00 97 1012.9
20260510090834 73 195 3.5 5.2 0.00 0.04 0.00 96 1012.8
20260510090829 73 196 2.6 4.3 0.00 0.04 0.00 97 1012.4
20260510090824 73 196 2.6 5.2 0.00 0.04 0.00 97 1012.5
20260510090819 73 196 2.6 5.2 0.00 0.04 0.00 97 1012.7
20260510090812 72 199 1.7 3.5 0.00 0.04 0.00 97 1012.6
20260510090807 72 196 1.7 4.3 0.00 0.04 0.00 96 1012.4
20260510090801 71 299 1.7 3.5 0.00 0.04 0.00 97 1012.8
20260510090756 71 300 0.0 0.0 0.00 0.04 0.00 97 1013.1
20260510090751 71 300 0.0 0.0 0.00 0.04 0.00 97 1012.8
20260510090626 71 300 0.0 0.0 0.00 0.04 0.00 97 1012.8
20260510090501 71 300 0.0 0.9 0.00 0.04 0.00 97 1012.8
20260510090456 71 300 0.0 0.0 0.00 0.04 0.00 97 1012.8
20260510090450 71 300 0.0 0.0 0.00 0.04 0.00 97 1012.9
20260510090446 71 300 0.0 0.0 0.00 0.04 0.00 97 1013.0
20260510090200 73 209 2.6 4.3 0.00 0.04 0.00 96 1013.8
20260510090154 73 209 2.6 4.3 0.00 0.04 0.00 96 1014.1
20260510090150 73 209 2.6 4.3 0.00 0.04 0.00 97 1013.7
20260510090145 73 183 3.5 6.1 0.00 0.04 0.00 97 1013.6
20260510090140 73 175 4.3 7.0 0.00 0.04 0.00 97 1013.3
20260510090135 73 183 3.5 5.2 0.00 0.04 0.00 97 1013.4
20260510090129 71 299 1.7 3.5 0.00 0.04 0.00 97 1012.8
20260510090125 71 300 0.0 0.0 0.00 0.04 0.00 97 1012.8
20260510085959 73 180 4.3 6.1 0.00 0.04 0.00 97 1012.8
20260510085953 72 199 1.7 3.5 0.00 0.04 0.00 97 1012.6
20260510085947 73 163 3.5 6.1 0.00 0.04 0.00 97 1012.9
20260510085943 73 195 3.5 5.2 0.00 0.04 0.00 96 1012.8
20260510085938 73 196 2.6 4.3 0.00 0.04 0.00 97 1012.4
20260510085932 71 300 0.0 0.9 0.00 0.04 0.00 97 1012.8
20260510085928 73 196 2.6 5.2 0.00 0.04 0.00 97 1012.5
20260510085923 71 298 1.7 3.5 0.00 0.04 0.00 96 1012.8
20260510085918 71 300 0.0 0.0 0.00 0.04 0.00 97 1012.8
20260510085913 71 300 0.0 0.0 0.00 0.04 0.00 97 1012.9
20260510085746 72 196 1.7 4.3 0.00 0.04 0.00 96 1012.4
20260510085741 71 300 0.0 0.0 0.00 0.04 0.00 97 1013.0
20260510085735 72 199 1.7 3.5 0.00 0.04 0.00 97 1012.8
20260510085731 71 300 0.0 0.0 0.00 0.04 0.00 97 1012.8
20260510085602 71 300 0.0 0.0 0.00 0.04 0.00 97 1012.8
20260510085438 71 298 1.7 3.5 0.00 0.04 0.00 96 1012.8
20260510085434 71 300 0.0 0.9 0.00 0.04 0.00 97 1012.8
20260510085429 71 300 0.0 0.0 0.00 0.04 0.00 97 1012.8
20260510085423 71 300 0.0 0.0 0.00 0.04 0.00 97 1012.9
20260510085257 73 190 2.6 5.2 0.00 0.04 0.04 96 1014.3
20260510085251 71 300 0.0 0.0 0.00 0.04 0.00 97 1013.0
20260510085247 73 196 2.6 5.2 0.00 0.04 0.00 97 1012.5
20260510085241 73 196 2.6 4.3 0.00 0.04 0.00 97 1012.4
20260510085236 73 194 2.6 4.3 0.00 0.04 0.04 95 1014.4
20260510085231 73 192 2.6 6.1 0.00 0.04 0.04 95 1014.4
20260510085226 73 194 4.3 6.1 0.00 0.04 0.04 95 1014.4
20260510085220 72 199 1.7 3.5 0.00 0.04 0.00 97 1012.8
20260510085216 73 200 4.3 7.0 0.00 0.04 0.04 95 1014.4
20260510085211 71 300 0.0 0.0 0.00 0.04 0.00 97 1012.8
20260510085205 73 198 2.6 4.3 0.00 0.04 0.00 96 1014.4
20260510085158 73 189 3.5 5.2 0.00 0.04 0.00 96 1014.3
20260510085035 71 299 1.7 3.5 0.00 0.04 0.00 97 1012.8
20260510085029 73 194 3.5 4.3 0.00 0.04 0.00 96 1014.3
20260510085024 71 300 0.0 0.0 0.00 0.04 0.00 97 1012.8
20260510085019 73 205 2.6 4.3 0.00 0.04 0.00 96 1014.3
20260510085014 73 209 2.6 4.3 0.00 0.04 0.00 96 1013.8
20260510085010 73 209 2.6 4.3 0.00 0.04 0.00 96 1014.1
20260510085004 73 209 2.6 4.3 0.00 0.04 0.00 97 1013.7
20260510084959 73 183 3.5 6.1 0.00 0.04 0.00 97 1013.6
20260510084951 73 175 4.3 7.0 0.00 0.04 0.00 97 1013.3
20260510084946 73 183 3.5 5.2 0.00 0.04 0.00 97 1013.4
20260510084940 73 180 4.3 6.1 0.00 0.04 0.00 97 1013.1
20260510084935 73 180 4.3 6.1 0.00 0.04 0.00 97 1012.8
20260510084931 73 163 3.5 6.1 0.00 0.04 0.00 97 1012.9
20260510084925 73 195 3.5 5.2 0.00 0.04 0.00 96 1012.8
20260510084920 71 300 0.0 0.9 0.00 0.04 0.00 97 1012.8
20260510084914 72 196 1.7 4.3 0.00 0.04 0.00 96 1012.4
20260510084910 73 196 2.6 5.2 0.00 0.04 0.00 97 1012.7
20260510084906 71 300 0.0 0.0 0.00 0.04 0.00 97 1012.8
20260510084900 71 298 1.7 3.5 0.00 0.04 0.00 96 1012.8
20260510084855 72 199 1.7 3.5 0.00 0.04 0.00 97 1012.6
20260510084848 71 300 0.0 0.0 0.00 0.04 0.00 97 1012.9
20260510084723 73 196 2.6 5.2 0.00 0.04 0.00 97 1012.5
20260510084719 72 199 1.7 3.5 0.00 0.04 0.00 97 1012.8
20260510084713 71 300 0.0 0.0 0.00 0.04 0.00 97 1012.8
20260510084547 71 300 0.0 0.0 0.00 0.04 0.00 97 1012.8
20260510084422 71 298 1.7 3.5 0.00 0.04 0.00 96 1012.8
20260510084417 71 300 0.0 0.9 0.00 0.04 0.00 97 1012.8
20260510084412 71 300 0.0 0.0 0.00 0.04 0.00 97 1012.8
20260510084246 73 175 4.3 7.0 0.00 0.04 0.00 97 1013.3
20260510084240 73 183 3.5 5.2 0.00 0.04 0.00 97 1013.4
20260510084234 73 180 4.3 6.1 0.00 0.04 0.00 97 1013.1
20260510084229 73 180 4.3 6.1 0.00 0.04 0.00 97 1012.8
20260510084223 73 163 3.5 6.1 0.00 0.04 0.00 97 1012.9
20260510084218 73 195 3.5 5.2 0.00 0.04 0.00 96 1012.8
20260510084214 73 196 2.6 5.2 0.00 0.04 0.00 97 1012.7
20260510084208 73 196 2.6 4.3 0.00 0.04 0.00 97 1012.4
20260510084203 72 199 1.7 3.5 0.00 0.04 0.00 97 1012.6
20260510084157 72 199 1.7 3.5 0.00 0.04 0.00 97 1012.8
20260510084153 71 300 0.0 0.0 0.00 0.04 0.00 97 1012.8
20260510084025 73 195 3.5 5.2 0.00 0.04 0.00 96 1014.2
20260510084020 73 194 3.5 5.2 0.00 0.04 0.04 96 1014.3
20260510084014 71 300 0.0 0.0 0.00 0.04 0.00 97 1012.8
20260510083850 73 189 3.5 5.2 0.00 0.04 0.00 96 1014.3
20260510083844 73 191 3.5 5.2 0.00 0.04 0.00 96 1014.4
20260510083837 73 194 3.5 4.3 0.00 0.04 0.00 96 1014.3
20260510083833 73 205 2.6 4.3 0.00 0.04 0.00 96 1014.3
20260510083827 73 209 2.6 4.3 0.00 0.04 0.00 96 1013.8
20260510083822 73 196 2.6 5.2 0.00 0.04 0.00 97 1012.5
20260510083816 72 196 1.7 4.3 0.00 0.04 0.00 96 1012.4
20260510083812 71 298 1.7 3.5 0.00 0.04 0.00 96 1012.8
20260510083807 71 300 0.0 0.0 0.00 0.04 0.00 97 1012.8
20260510083801 71 300 0.0 0.9 0.00 0.04 0.00 97 1012.8
20260510083636 73 209 2.6 4.3 0.00 0.04 0.00 97 1013.7
20260510083631 73 183 3.5 6.1 0.00 0.04 0.00 97 1013.6
20260510083627 73 175 4.3 7.0 0.00 0.04 0.00 97 1013.3
20260510083621 73 183 3.5 5.2 0.00 0.04 0.00 97 1013.4
20260510083616 73 180 4.3 6.1 0.00 0.04 0.00 97 1013.1
20260510083612 73 180 4.3 6.1 0.00 0.04 0.00 97 1012.8
20260510083606 73 163 3.5 6.1 0.00 0.04 0.00 97 1012.9
20260510083600 73 195 3.5 5.2 0.00 0.04 0.00 96 1012.8
20260510083556 73 196 2.6 5.2 0.00 0.04 0.00 97 1012.7
20260510083551 72 199 1.7 3.5 0.00 0.04 0.00 97 1012.6
20260510083546 73 196 2.6 4.3 0.00 0.04 0.00 97 1012.4
20260510083538 72 199 1.7 3.5 0.00 0.04 0.00 97 1012.8
20260510083534 71 299 1.7 3.5 0.00 0.04 0.00 97 1012.8
20260510083530 71 300 0.0 0.0 0.00 0.04 0.00 97 1012.8
20260510083248 73 196 2.6 5.2 0.00 0.04 0.00 97 1012.5
20260510083242 72 196 1.7 4.3 0.00 0.04 0.00 96 1012.4
20260510083238 71 298 1.7 3.5 0.00 0.04 0.00 96 1012.8
20260510083231 71 300 0.0 0.9 0.00 0.04 0.00 97 1012.8
20260510082949 72 199 1.7 3.5 0.00 0.04 0.00 97 1012.8
20260510082944 71 299 1.7 3.5 0.00 0.04 0.00 97 1012.8
20260510082938 71 300 0.0 0.0 0.00 0.04 0.00 97 1012.8
20260510082812 73 180 4.3 6.1 0.00 0.04 0.00 97 1013.1
20260510082806 73 180 4.3 6.1 0.00 0.04 0.00 97 1012.8
20260510082802 71 300 0.0 0.0 0.00 0.04 0.00 97 1012.8
20260510082756 73 196 2.6 5.2 0.00 0.04 0.00 97 1012.7
20260510082752 71 300 0.0 0.9 0.00 0.04 0.00 97 1012.8
20260510082626 71 298 1.7 3.5 0.00 0.04 0.00 96 1012.8
20260510082620 73 163 3.5 6.1 0.00 0.04 0.00 97 1012.9
20260510082616 72 196 1.7 4.3 0.00 0.04 0.00 96 1012.4
20260510082451 76 0.0 0.0 0.00 0.21 0.00 49 1017.9
20260510082445 73 196 2.6 4.3 0.00 0.04 0.00 97 1012.4
20260510082440 72 199 1.7 3.5 0.00 0.04 0.00 97 1012.8
20260510082434 71 299 1.7 3.5 0.00 0.04 0.00 97 1012.8
20260510082430 76 0.0 0.0 0.00 0.21 0.00 50 1017.8
20260510082423 71 300 0.0 0.0 0.00 0.04 0.00 97 1012.8
20260510082417 73 196 2.6 5.2 0.00 0.04 0.00 97 1012.5
20260510082413 76 0.0 0.0 0.00 0.21 0.00 49 1017.9
20260510082407 76 0.0 2.6 0.00 0.21 0.00 49 1017.9
20260510082402 76 256 2.6 4.3 0.00 0.21 0.00 47 1018.0
20260510082356 78 256 2.6 4.3 0.00 0.21 0.00 51 1018.1
20260510082352 79 59 0.9 4.3 0.00 0.21 0.00 44 1018.0
20260510082347 80 59 2.6 5.2 0.00 0.21 0.00 50 1018.0
20260510082341 74 203 4.3 7.0 0.00 0.04 0.04 96 1014.0
20260510082336 74 184 3.5 6.1 0.00 0.04 0.04 96 1014.0
20260510082332 74 200 4.3 7.0 0.00 0.04 0.04 95 1014.3
20260510082324 73 194 2.6 4.3 0.00 0.04 0.04 95 1014.4
20260510082319 73 192 2.6 6.1 0.00 0.04 0.04 95 1014.4
20260510082315 73 194 4.3 6.1 0.00 0.04 0.04 95 1014.4
20260510082309 73 200 4.3 7.0 0.00 0.04 0.04 95 1014.4
20260510082306 73 198 2.6 4.3 0.00 0.04 0.00 96 1014.4
20260510082259 73 195 3.5 5.2 0.00 0.04 0.00 96 1014.2
20260510082254 71 300 0.0 0.0 0.00 0.04 0.00 97 1012.8
20260510082249 71 300 0.0 0.9 0.00 0.04 0.00 97 1012.8
20260510082244 73 194 3.5 5.2 0.00 0.04 0.04 96 1014.3
20260510082239 73 190 2.6 5.2 0.00 0.04 0.04 96 1014.3
20260510082235 73 189 3.5 5.2 0.00 0.04 0.00 96 1014.3
20260510082229 73 191 3.5 5.2 0.00 0.04 0.00 96 1014.4
20260510082222 73 194 3.5 4.3 0.00 0.04 0.00 96 1014.3
20260510082217 73 205 2.6 4.3 0.00 0.04 0.00 96 1014.3
20260510082212 73 209 2.6 4.3 0.00 0.04 0.00 96 1013.8
20260510082207 73 209 2.6 4.3 0.00 0.04 0.00 96 1014.1
20260510082201 73 209 2.6 4.3 0.00 0.04 0.00 97 1013.7
20260510082157 73 183 3.5 6.1 0.00 0.04 0.00 97 1013.6
20260510082153 73 183 3.5 5.2 0.00 0.04 0.00 97 1013.4
20260510082147 73 175 4.3 7.0 0.00 0.04 0.00 97 1013.3
20260510082142 73 180 4.3 6.1 0.00 0.04 0.00 97 1012.8
20260510082136 71 298 1.7 3.5 0.00 0.04 0.00 96 1012.8
20260510082132 73 180 4.3 6.1 0.00 0.04 0.00 97 1013.1
20260510082127 72 196 1.7 4.3 0.00 0.04 0.00 96 1012.4
20260510082120 73 196 2.6 5.2 0.00 0.04 0.00 97 1012.7
20260510082114 72 199 1.7 3.5 0.00 0.04 0.00 97 1012.6
20260510081949 73 195 3.5 5.2 0.00 0.04 0.00 96 1012.8
20260510081944 73 196 2.6 5.2 0.00 0.04 0.00 97 1012.5
20260510081940 73 196 2.6 4.3 0.00 0.04 0.00 97 1012.4
20260510081934 72 199 1.7 3.5 0.00 0.04 0.00 97 1012.8
20260510081930 71 299 1.7 3.5 0.00 0.04 0.00 97 1012.8
20260510081925 71 300 0.0 0.0 0.00 0.04 0.00 97 1012.8
20260510081640 72 196 1.7 4.3 0.00 0.04 0.00 96 1012.4
20260510081634 71 298 1.7 3.5 0.00 0.04 0.00 96 1012.8
20260510081630 73 180 4.3 6.1 0.00 0.04 0.00 97 1012.8
20260510081625 73 192 2.6 6.1 0.00 0.04 0.04 95 1014.4
20260510081619 73 198 2.6 4.3 0.00 0.04 0.00 96 1014.4
20260510081612 73 195 3.5 5.2 0.00 0.04 0.00 96 1014.2
20260510081607 73 189 3.5 5.2 0.00 0.04 0.00 96 1014.3
20260510081603 73 191 3.5 5.2 0.00 0.04 0.00 96 1014.4
20260510081557 73 194 3.5 4.3 0.00 0.04 0.00 96 1014.3
20260510081551 73 205 2.6 4.3 0.00 0.04 0.00 96 1014.3
20260510081547 73 209 2.6 4.3 0.00 0.04 0.00 96 1013.8
20260510081542 73 196 2.6 5.2 0.00 0.04 0.00 97 1012.7
20260510081536 72 199 1.7 3.5 0.00 0.04 0.00 97 1012.6
20260510081412 73 209 2.6 4.3 0.00 0.04 0.00 97 1013.7
20260510081405 73 183 3.5 6.1 0.00 0.04 0.00 97 1013.6
20260510081359 73 183 3.5 5.2 0.00 0.04 0.00 97 1013.4
20260510081354 73 175 4.3 7.0 0.00 0.04 0.00 97 1013.3
20260510081350 73 180 4.3 6.1 0.00 0.04 0.00 97 1013.1
20260510081344 73 196 2.6 5.2 0.00 0.04 0.00 97 1012.5
20260510081340 73 196 2.6 4.3 0.00 0.04 0.00 97 1012.4
20260510081335 72 199 1.7 3.5 0.00 0.04 0.00 97 1012.8
20260510081329 71 299 1.7 3.5 0.00 0.04 0.00 97 1012.8
20260510081325 71 300 0.0 0.9 0.00 0.04 0.00 97 1012.8
20260510081313 71 300 0.0 0.0 0.00 0.04 0.00 97 1012.8
20260510081152 73 180 4.3 6.1 0.00 0.04 0.00 97 1012.8
20260510081146 73 195 3.5 5.2 0.00 0.04 0.00 96 1012.8
20260510081141 72 196 1.7 4.3 0.00 0.04 0.00 96 1012.4
20260510081137 71 298 1.7 3.5 0.00 0.04 0.00 96 1012.8
20260510081006 73 191 3.5 5.2 0.00 0.04 0.00 96 1014.4
20260510081002 73 194 3.5 4.3 0.00 0.04 0.00 96 1014.3
20260510080957 73 205 2.6 4.3 0.00 0.04 0.00 96 1014.3
20260510080951 73 196 2.6 5.2 0.00 0.04 0.00 97 1012.7
20260510080946 72 199 1.7 3.5 0.00 0.04 0.00 97 1012.6
20260510080821 73 209 2.6 4.3 0.00 0.04 0.00 96 1014.1
20260510080817 73 209 2.6 4.3 0.00 0.04 0.00 97 1013.7
20260510080811 73 196 2.6 5.2 0.00 0.04 0.00 97 1012.5
20260510080806 73 183 3.5 6.1 0.00 0.04 0.00 97 1013.6
20260510080759 73 183 3.5 5.2 0.00 0.04 0.00 97 1013.4
20260510080753 73 175 4.3 7.0 0.00 0.04 0.00 97 1013.3
20260510080748 73 196 2.6 4.3 0.00 0.04 0.00 97 1012.4
20260510080742 71 299 1.7 3.5 0.00 0.04 0.00 97 1012.8
20260510080737 71 300 0.0 0.9 0.00 0.04 0.00 97 1012.8
20260510080731 72 199 1.7 3.5 0.00 0.04 0.00 97 1012.8
20260510080607 72 196 1.7 4.3 0.00 0.04 0.00 96 1012.4
20260510080559 73 163 3.5 6.1 0.00 0.04 0.00 97 1012.9
20260510080554 73 180 4.3 6.1 0.00 0.04 0.00 97 1012.8
20260510080548 73 195 3.5 5.2 0.00 0.04 0.00 96 1012.8
20260510080544 71 298 1.7 3.5 0.00 0.04 0.00 96 1012.8
20260510080420 72 199 1.7 3.5 0.00 0.04 0.00 97 1012.6
20260510080253 71 300 0.0 0.9 0.00 0.04 0.00 97 1012.8
20260510080249 71 299 1.7 3.5 0.00 0.04 0.00 97 1012.8
20260510080243 73 196 2.6 4.3 0.00 0.04 0.00 97 1012.4
20260510080239 73 194 4.3 6.1 0.00 0.04 0.04 95 1014.4
20260510080233 73 194 3.5 5.2 0.00 0.04 0.04 96 1014.3
20260510080228 73 190 2.6 5.2 0.00 0.04 0.04 96 1014.3
20260510080223 73 194 2.6 4.3 0.00 0.04 0.04 95 1014.4
20260510080218 73 198 2.6 4.3 0.00 0.04 0.00 96 1014.4
20260510080212 73 195 3.5 5.2 0.00 0.04 0.00 96 1014.2
20260510080208 73 189 3.5 5.2 0.00 0.04 0.00 96 1014.3
20260510080203 73 191 3.5 5.2 0.00 0.04 0.00 96 1014.4
20260510080156 73 194 3.5 4.3 0.00 0.04 0.00 96 1014.3
20260510080150 73 205 2.6 4.3 0.00 0.04 0.00 96 1014.3
20260510080145 73 209 2.6 4.3 0.00 0.04 0.00 96 1013.8
20260510080140 72 199 1.7 3.5 0.00 0.04 0.00 97 1012.8
20260510080135 73 209 2.6 4.3 0.00 0.04 0.00 96 1014.1
20260510080129 73 209 2.6 4.3 0.00 0.04 0.00 97 1013.7
20260510080125 73 183 3.5 6.1 0.00 0.04 0.00 97 1013.6
20260510080120 72 196 1.7 4.3 0.00 0.04 0.00 96 1012.4
20260510075953 73 175 4.3 7.0 0.00 0.04 0.00 97 1013.3
20260510075949 71 298 1.7 3.5 0.00 0.04 0.00 96 1012.8
20260510075943 73 180 4.3 6.1 0.00 0.04 0.00 97 1013.1
20260510075819 73 180 4.3 6.1 0.00 0.04 0.00 97 1012.8
20260510075814 72 199 1.7 3.5 0.00 0.04 0.00 97 1012.6
20260510075810 73 195 3.5 5.2 0.00 0.04 0.00 96 1012.8
20260510075804 73 196 2.6 5.2 0.00 0.04 0.00 97 1012.7
20260510075759 71 299 1.7 3.5 0.00 0.04 0.00 97 1012.8
20260510075753 73 196 2.6 5.2 0.00 0.04 0.00 97 1012.5
20260510075747 73 196 2.6 4.3 0.00 0.04 0.00 97 1012.4
20260510075623 72 199 1.7 3.5 0.00 0.04 0.00 97 1012.8
20260510075457 74 203 4.3 7.0 0.00 0.04 0.04 96 1014.0
20260510075449 74 184 3.5 6.1 0.00 0.04 0.04 96 1014.0
20260510075445 74 200 4.3 7.0 0.00 0.04 0.04 95 1014.3
20260510075440 73 200 4.3 7.0 0.00 0.04 0.04 95 1014.4
20260510075434 73 192 2.6 6.1 0.00 0.04 0.04 95 1014.4
20260510075430 73 194 4.3 6.1 0.00 0.04 0.04 95 1014.4
20260510075425 71 298 1.7 3.5 0.00 0.04 0.00 96 1012.8
20260510075419 73 194 3.5 5.2 0.00 0.04 0.04 96 1014.3
20260510075414 73 190 2.6 5.2 0.00 0.04 0.04 96 1014.3
20260510075408 73 194 2.6 4.3 0.00 0.04 0.04 95 1014.4
20260510075402 73 198 2.6 4.3 0.00 0.04 0.00 96 1014.4
20260510075358 73 195 3.5 5.2 0.00 0.04 0.00 96 1014.2
20260510075353 73 189 3.5 5.2 0.00 0.04 0.00 96 1014.3
20260510075346 73 191 3.5 5.2 0.00 0.04 0.00 96 1014.4
20260510075342 73 194 3.5 4.3 0.00 0.04 0.00 96 1014.3
20260510075336 73 205 2.6 4.3 0.00 0.04 0.00 96 1014.3
20260510075330 73 209 2.6 4.3 0.00 0.04 0.00 96 1013.8
20260510075325 73 209 2.6 4.3 0.00 0.04 0.00 96 1014.1
20260510075320 73 209 2.6 4.3 0.00 0.04 0.00 97 1013.7
20260510075314 73 183 3.5 6.1 0.00 0.04 0.00 97 1013.6
20260510075310 73 183 3.5 5.2 0.00 0.04 0.00 97 1013.4
20260510075306 73 175 4.3 7.0 0.00 0.04 0.00 97 1013.3
20260510075300 72 199 1.7 3.5 0.00 0.04 0.00 97 1012.6
20260510075254 71 299 1.7 3.5 0.00 0.04 0.00 97 1012.8
20260510075248 73 180 4.3 6.1 0.00 0.04 0.00 97 1013.1
20260510075122 73 180 4.3 6.1 0.00 0.04 0.00 97 1012.8
20260510075117 73 195 3.5 5.2 0.00 0.04 0.00 96 1012.8
20260510075113 73 196 2.6 5.2 0.00 0.04 0.00 97 1012.7
20260510075107 73 196 2.6 5.2 0.00 0.04 0.00 97 1012.5
20260510075102 73 196 2.6 4.3 0.00 0.04 0.00 97 1012.4
20260510075056 72 196 1.7 4.3 0.00 0.04 0.00 96 1012.4
20260510075052 72 199 1.7 3.5 0.00 0.04 0.00 97 1012.8
20260510074806 73 198 2.6 4.3 0.00 0.04 0.00 96 1014.4
20260510074801 73 189 3.5 5.2 0.00 0.04 0.00 96 1014.3
20260510074757 73 191 3.5 5.2 0.00 0.04 0.00 96 1014.4
20260510074751 72 199 1.7 3.5 0.00 0.04 0.00 97 1012.6
20260510074746 73 194 3.5 4.3 0.00 0.04 0.00 96 1014.3
20260510074618 73 209 2.6 4.3 0.00 0.04 0.00 96 1013.8
20260510074614 73 209 2.6 4.3 0.00 0.04 0.00 97 1013.7
20260510074608 73 209 2.6 4.3 0.00 0.04 0.00 96 1014.1
20260510074603 73 183 3.5 6.1 0.00 0.04 0.00 97 1013.6
20260510074557 73 183 3.5 5.2 0.00 0.04 0.00 97 1013.4
20260510074552 73 175 4.3 7.0 0.00 0.04 0.00 97 1013.3
20260510074548 73 180 4.3 6.1 0.00 0.04 0.00 97 1013.1
20260510074542 73 163 3.5 6.1 0.00 0.04 0.00 97 1012.9
20260510074535 73 180 4.3 6.1 0.00 0.04 0.00 97 1012.8
20260510074530 73 195 3.5 5.2 0.00 0.04 0.00 96 1012.8
20260510074524 73 196 2.6 5.2 0.00 0.04 0.00 97 1012.7
20260510074520 73 196 2.6 5.2 0.00 0.04 0.00 97 1012.5
20260510074514 73 196 2.6 4.3 0.00 0.04 0.00 97 1012.4
20260510074509 72 196 1.7 4.3 0.00 0.04 0.00 96 1012.4
20260510074504 72 199 1.7 3.5 0.00 0.04 0.00 97 1012.8
20260510074058 73 205 2.6 4.3 0.00 0.04 0.00 96 1014.3
20260510074052 73 209 2.6 4.3 0.00 0.04 0.00 96 1013.8
20260510074048 73 209 2.6 4.3 0.00 0.04 0.00 96 1014.1
20260510074042 73 209 2.6 4.3 0.00 0.04 0.00 97 1013.7
20260510074037 73 183 3.5 6.1 0.00 0.04 0.00 97 1013.6
20260510074030 73 196 2.6 5.2 0.00 0.04 0.00 97 1012.5
20260510074026 73 175 4.3 7.0 0.00 0.04 0.00 97 1013.3
20260510074020 73 183 3.5 5.2 0.00 0.04 0.00 97 1013.4
20260510074014 73 180 4.3 6.1 0.00 0.04 0.00 97 1013.1
20260510074009 73 196 2.6 4.3 0.00 0.04 0.00 97 1012.4
20260510074005 73 163 3.5 6.1 0.00 0.04 0.00 97 1012.9
20260510073959 73 180 4.3 6.1 0.00 0.04 0.00 97 1012.8
20260510073833 73 196 2.6 5.2 0.00 0.04 0.00 97 1012.7
20260510073827 72 199 1.7 3.5 0.00 0.04 0.00 97 1012.8
20260510073820 72 196 1.7 4.3 0.00 0.04 0.00 96 1012.4
20260510073534 73 175 4.3 7.0 0.00 0.04 0.00 97 1013.3
20260510073527 73 196 2.6 4.3 0.00 0.04 0.00 97 1012.4
20260510073347 72 199 1.7 3.5 0.00 0.04 0.00 97 1012.8
20260510073236 72 196 1.7 4.3 0.00 0.04 0.00 96 1012.4
20260510073109 73 180 4.3 6.1 0.00 0.04 0.00 97 1012.8
20260510073104 73 195 3.5 5.2 0.00 0.04 0.00 96 1012.8
20260510073059 73 196 2.6 5.2 0.00 0.04 0.00 97 1012.7
20260510073054 73 196 2.6 5.2 0.00 0.04 0.00 97 1012.5
20260510073049 73 196 2.6 4.3 0.00 0.04 0.00 97 1012.4
20260510073044 72 199 1.7 3.5 0.00 0.04 0.00 97 1012.6
20260510072916 73 194 3.5 5.2 0.00 0.04 0.04 96 1014.3
20260510072910 73 198 2.6 4.3 0.00 0.04 0.00 96 1014.4
20260510072906 73 189 3.5 5.2 0.00 0.04 0.00 96 1014.3
20260510072900 73 191 3.5 5.2 0.00 0.04 0.00 96 1014.4
20260510072855 73 194 3.5 4.3 0.00 0.04 0.00 96 1014.3
20260510072849 73 205 2.6 4.3 0.00 0.04 0.00 96 1014.3
20260510072844 73 209 2.6 4.3 0.00 0.04 0.00 96 1013.8
20260510072718 73 209 2.6 4.3 0.00 0.04 0.00 97 1013.7
20260510072711 73 183 3.5 6.1 0.00 0.04 0.00 97 1013.6
20260510072706 73 183 3.5 5.2 0.00 0.04 0.00 97 1013.4
20260510072701 73 175 4.3 7.0 0.00 0.04 0.00 97 1013.3
20260510072657 73 180 4.3 6.1 0.00 0.04 0.00 97 1013.1
20260510072651 73 163 3.5 6.1 0.00 0.04 0.00 97 1012.9
20260510072645 72 196 1.7 4.3 0.00 0.04 0.00 96 1012.4
20260510072521 73 195 3.5 5.2 0.00 0.04 0.00 96 1012.8
20260510072512 73 196 2.6 5.2 0.00 0.04 0.00 97 1012.7
20260510072508 73 196 2.6 5.2 0.00 0.04 0.00 97 1012.5
20260510072503 73 196 2.6 4.3 0.00 0.04 0.00 97 1012.4
20260510072432 72 199 1.7 3.5 0.00 0.04 0.00 97 1012.6
20260510071921 73 196 2.6 4.3 0.00 0.04 0.00 97 1012.4
20260510070222 73 195 3.5 5.2 0.00 0.04 0.00 96 1014.2
20260510070217 73 180 4.3 6.1 0.00 0.04 0.00 97 1012.8
20260510070052 73 189 3.5 5.2 0.00 0.04 0.00 96 1014.3
20260510070046 73 191 3.5 5.2 0.00 0.04 0.00 96 1014.4
20260510070039 73 195 3.5 5.2 0.00 0.04 0.00 96 1012.8
20260510070034 73 196 2.6 5.2 0.00 0.04 0.00 97 1012.7
20260510065909 73 205 2.6 4.3 0.00 0.04 0.00 96 1014.3
20260510065903 73 209 2.6 4.3 0.00 0.04 0.00 96 1013.8
20260510065857 73 209 2.6 4.3 0.00 0.04 0.00 96 1014.1
20260510065852 73 209 2.6 4.3 0.00 0.04 0.00 97 1013.7
20260510065847 73 183 3.5 6.1 0.00 0.04 0.00 97 1013.6
20260510065840 73 183 3.5 5.2 0.00 0.04 0.00 97 1013.4
20260510065835 73 196 2.6 5.2 0.00 0.04 0.00 97 1012.5
20260510065709 73 180 4.3 6.1 0.00 0.04 0.00 97 1013.1
20260510065704 73 163 3.5 6.1 0.00 0.04 0.00 97 1012.9
20260510065700 73 180 4.3 6.1 0.00 0.04 0.00 97 1012.8
20260510065128 79 17 3.5 8.7 0.00 0.21 0.00 48 1018.0
20260510065124 79 22 6.1 8.7 0.00 0.21 0.00 48 1018.0
20260510065119 79 13 6.1 8.7 0.00 0.21 0.00 48 1018.0
20260510065113 79 22 4.3 8.7 0.00 0.21 0.00 50 1018.1
20260510065107 78 28 5.2 9.6 0.00 0.21 0.00 46 1018.1
20260510065102 78 31 7.8 9.6 0.00 0.21 0.00 49 1018.1
20260510065056 74 177 5.2 7.0 0.00 0.04 0.04 96 1013.7
20260510065051 74 203 4.3 7.0 0.00 0.04 0.04 96 1014.0
20260510065047 74 184 3.5 6.1 0.00 0.04 0.04 96 1014.0
20260510065041 74 200 4.3 7.0 0.00 0.04 0.04 95 1014.3
20260510065036 73 200 4.3 7.0 0.00 0.04 0.04 95 1014.4
20260510065029 73 190 2.6 5.2 0.00 0.04 0.04 96 1014.3
20260510065023 73 194 3.5 5.2 0.00 0.04 0.04 96 1014.3
20260510065019 73 183 3.5 5.2 0.00 0.04 0.00 97 1013.4
20260510065013 73 209 2.6 4.3 0.00 0.04 0.00 97 1013.7
20260510065008 73 183 3.5 6.1 0.00 0.04 0.00 97 1013.6
20260510065002 73 180 4.3 6.1 0.00 0.04 0.00 97 1012.8
20260510064838 77 54 5.2 9.6 0.00 0.21 0.00 53 1018.3
20260510064832 78 39 7.0 10.4 0.00 0.21 0.00 51 1018.1
20260510064825 73 107 3.5 5.2 0.00 0.04 0.04 96 1013.5
20260510064821 73 194 4.3 6.1 0.00 0.04 0.04 95 1014.4
20260510064815 73 195 3.5 5.2 0.00 0.04 0.00 96 1014.2
20260510064810 73 194 2.6 4.3 0.00 0.04 0.04 95 1014.4
20260510064804 73 194 3.5 4.3 0.00 0.04 0.00 96 1014.3
20260510064759 73 189 3.5 5.2 0.00 0.04 0.00 96 1014.3
20260510064753 73 163 3.5 6.1 0.00 0.04 0.00 97 1012.9
20260510064748 73 198 2.6 4.3 0.00 0.04 0.00 96 1014.4
20260510064743 73 191 3.5 5.2 0.00 0.04 0.00 96 1014.4
20260510064738 73 196 2.6 5.2 0.00 0.04 0.00 97 1012.7
20260510064733 73 195 3.5 5.2 0.00 0.04 0.00 96 1012.8
20260510064726 73 205 2.6 4.3 0.00 0.04 0.00 96 1014.3
20260510064720 73 192 2.6 6.1 0.00 0.04 0.04 95 1014.4
20260510064715 73 175 4.3 7.0 0.00 0.04 0.00 97 1013.3
20260510064709 73 209 2.6 4.3 0.00 0.04 0.00 96 1014.1
20260510064704 73 180 4.3 6.1 0.00 0.04 0.00 97 1013.1
20260510064658 73 104 0.9 3.5 0.00 0.04 0.04 96 1013.6
20260510064654 73 104 3.5 5.2 0.00 0.04 0.04 96 1013.5
20260510064649 73 209 2.6 4.3 0.00 0.04 0.00 96 1013.8
20260510064523 74 203 4.3 7.0 0.00 0.04 0.04 96 1014.0
20260510064518 74 184 3.5 6.1 0.00 0.04 0.04 96 1014.0
20260510064513 74 200 4.3 7.0 0.00 0.04 0.04 95 1014.3
20260510064508 73 209 2.6 4.3 0.00 0.04 0.00 97 1013.7
20260510064502 73 200 4.3 7.0 0.00 0.04 0.04 95 1014.4
20260510064458 73 183 3.5 5.2 0.00 0.04 0.00 97 1013.4
20260510064454 73 190 2.6 5.2 0.00 0.04 0.04 96 1014.3
20260510064449 73 194 3.5 5.2 0.00 0.04 0.04 96 1014.3
20260510064443 73 183 3.5 6.1 0.00 0.04 0.00 97 1013.6
20260510064437 73 180 4.3 6.1 0.00 0.04 0.00 97 1012.8
20260510064310 73 163 3.5 6.1 0.00 0.04 0.00 97 1012.9
20260510064304 73 189 3.5 5.2 0.00 0.04 0.00 96 1014.3
20260510064259 73 191 3.5 5.2 0.00 0.04 0.00 96 1014.4
20260510064253 73 194 3.5 4.3 0.00 0.04 0.00 96 1014.3
20260510064248 73 196 2.6 5.2 0.00 0.04 0.00 97 1012.7
20260510064242 73 195 3.5 5.2 0.00 0.04 0.00 96 1012.8
20260510064238 73 205 2.6 4.3 0.00 0.04 0.00 96 1014.3
20260510064233 73 194 4.3 6.1 0.00 0.04 0.04 95 1014.4
20260510064227 73 198 2.6 4.3 0.00 0.04 0.00 96 1014.4
20260510064220 73 209 2.6 4.3 0.00 0.04 0.00 96 1014.1
20260510064214 73 194 2.6 4.3 0.00 0.04 0.04 95 1014.4
20260510064210 73 192 2.6 6.1 0.00 0.04 0.04 95 1014.4
20260510064205 73 175 4.3 7.0 0.00 0.04 0.00 97 1013.3
20260510064159 73 180 4.3 6.1 0.00 0.04 0.00 97 1013.1
20260510064154 73 209 2.6 4.3 0.00 0.04 0.00 96 1013.8
20260510064030 76 42 7.8 10.4 0.00 0.21 0.00 57 1018.0
20260510064025 73 209 2.6 4.3 0.00 0.04 0.00 97 1013.7
20260510064018 75 51 7.0 9.6 0.00 0.21 0.00 63 1018.0
20260510064012 72 40 6.1 8.7 0.00 0.21 0.00 69 1018.0
20260510064008 73 183 3.5 5.2 0.00 0.04 0.00 97 1013.4
20260510064002 70 32 5.2 7.0 0.00 0.21 0.00 77 1017.9
20260510063957 67 36 5.2 7.0 0.00 0.27 0.00 82 1018.0
20260510063953 65 0 3.5 7.0 0.00 0.27 0.00 87 1018.0
20260510063947 72 98 0.9 5.2 0.00 0.04 0.04 96 1013.0
20260510063941 72 292 0.0 0.0 0.00 0.04 0.04 96 1013.0
20260510063936 72 292 0.0 0.0 0.00 0.04 0.04 96 1012.8
20260510063930 72 292 0.0 0.0 0.00 0.04 0.04 96 1012.9
20260510063926 72 309 0.0 1.7 0.00 0.04 0.04 96 1012.7
20260510063918 72 304 0.9 2.6 0.01 0.04 0.04 96 1012.7
20260510063914 73 107 3.5 5.2 0.00 0.04 0.04 96 1013.5
20260510063908 73 104 0.9 3.5 0.00 0.04 0.04 96 1013.6
20260510063903 73 200 4.3 7.0 0.00 0.04 0.04 95 1014.4
20260510063858 73 183 3.5 6.1 0.00 0.04 0.00 97 1013.6
20260510063853 74 177 5.2 7.0 0.00 0.04 0.04 96 1013.7
20260510063848 74 184 3.5 6.1 0.00 0.04 0.04 96 1014.0
20260510063842 73 180 4.3 6.1 0.00 0.04 0.00 97 1012.8
20260510063837 73 163 3.5 6.1 0.00 0.04 0.00 97 1012.9
20260510063832 74 203 4.3 7.0 0.00 0.04 0.04 96 1014.0
20260510063827 73 190 2.6 5.2 0.00 0.04 0.04 96 1014.3
20260510063821 73 104 3.5 5.2 0.00 0.04 0.04 96 1013.5
20260510063814 73 194 3.5 5.2 0.00 0.04 0.04 96 1014.3
20260510063810 74 200 4.3 7.0 0.00 0.04 0.04 95 1014.3
20260510063805 73 195 3.5 5.2 0.00 0.04 0.00 96 1014.2
20260510063759 73 194 3.5 4.3 0.00 0.04 0.00 96 1014.3
20260510063754 73 189 3.5 5.2 0.00 0.04 0.00 96 1014.3
20260510063748 73 191 3.5 5.2 0.00 0.04 0.00 96 1014.4
20260510063744 73 198 2.6 4.3 0.00 0.04 0.00 96 1014.4
20260510063739 73 205 2.6 4.3 0.00 0.04 0.00 96 1014.3
20260510063733 73 195 3.5 5.2 0.00 0.04 0.00 96 1012.8
20260510063728 73 209 2.6 4.3 0.00 0.04 0.00 96 1014.1
20260510063724 73 175 4.3 7.0 0.00 0.04 0.00 97 1013.3
20260510063718 73 180 4.3 6.1 0.00 0.04 0.00 97 1013.1
20260510063550 73 209 2.6 4.3 0.00 0.04 0.00 96 1013.8
20260510063545 73 194 2.6 4.3 0.00 0.04 0.04 95 1014.4
20260510063539 73 192 2.6 6.1 0.00 0.04 0.04 95 1014.4
20260510063534 73 209 2.6 4.3 0.00 0.04 0.00 97 1013.7
20260510063528 73 183 3.5 5.2 0.00 0.04 0.00 97 1013.4
20260510063400 72 98 0.9 5.2 0.00 0.04 0.04 96 1013.0
20260510063355 73 183 3.5 6.1 0.00 0.04 0.00 97 1013.6
20260510063350 73 163 3.5 6.1 0.00 0.04 0.00 97 1012.9
20260510063344 73 107 3.5 5.2 0.00 0.04 0.04 96 1013.5
20260510063339 73 180 4.3 6.1 0.00 0.04 0.00 97 1012.8
20260510063335 74 177 5.2 7.0 0.00 0.04 0.04 96 1013.7
20260510063329 74 203 4.3 7.0 0.00 0.04 0.04 96 1014.0
20260510063323 74 184 3.5 6.1 0.00 0.04 0.04 96 1014.0
20260510063319 73 190 2.6 5.2 0.00 0.04 0.04 96 1014.3
20260510063314 73 194 3.5 5.2 0.00 0.04 0.04 96 1014.3
20260510063307 73 195 3.5 5.2 0.00 0.04 0.00 96 1014.2
20260510063302 73 198 2.6 4.3 0.00 0.04 0.00 96 1014.4
20260510063257 73 189 3.5 5.2 0.00 0.04 0.00 96 1014.3
20260510063252 73 195 3.5 5.2 0.00 0.04 0.00 96 1012.8
20260510063246 73 191 3.5 5.2 0.00 0.04 0.00 96 1014.4
20260510063242 73 194 3.5 4.3 0.00 0.04 0.00 96 1014.3
20260510063236 73 209 2.6 4.3 0.00 0.04 0.00 96 1014.1
20260510063232 73 175 4.3 7.0 0.00 0.04 0.00 97 1013.3
20260510063105 73 209 2.6 4.3 0.00 0.04 0.00 96 1013.8
20260510063100 73 180 4.3 6.1 0.00 0.04 0.00 97 1013.1
20260510062934 73 194 4.3 6.1 0.00 0.04 0.04 95 1014.4
20260510062929 73 200 4.3 7.0 0.00 0.04 0.04 95 1014.4
20260510062924 73 194 2.6 4.3 0.00 0.04 0.04 95 1014.4
20260510062918 73 192 2.6 6.1 0.00 0.04 0.04 95 1014.4
20260510062912 73 209 2.6 4.3 0.00 0.04 0.00 97 1013.7
20260510062905 73 183 3.5 5.2 0.00 0.04 0.00 97 1013.4
20260510062901 73 183 3.5 6.1 0.00 0.04 0.00 97 1013.6
20260510062856 73 163 3.5 6.1 0.00 0.04 0.00 97 1012.9
20260510062850 73 180 4.3 6.1 0.00 0.04 0.00 97 1012.8
20260510062726 73 194 3.5 5.2 0.00 0.04 0.04 96 1014.3
20260510062721 73 209 2.6 4.3 0.00 0.04 0.00 96 1014.1
20260510062715 73 195 3.5 5.2 0.00 0.04 0.00 96 1014.2
20260510062711 73 175 4.3 7.0 0.00 0.04 0.00 97 1013.3
20260510062544 73 189 3.5 5.2 0.00 0.04 0.00 96 1014.3
20260510062538 73 191 3.5 5.2 0.00 0.04 0.00 96 1014.4
20260510062532 73 194 3.5 4.3 0.00 0.04 0.00 96 1014.3
20260510062528 73 209 2.6 4.3 0.00 0.04 0.00 96 1013.8
20260510062523 73 205 2.6 4.3 0.00 0.04 0.00 96 1014.3
20260510062517 73 180 4.3 6.1 0.00 0.04 0.00 97 1013.1
20260510062351 73 183 3.5 6.1 0.00 0.04 0.00 97 1013.6
20260510062345 73 183 3.5 5.2 0.00 0.04 0.00 97 1013.4
20260510062340 73 163 3.5 6.1 0.00 0.04 0.00 97 1012.9
20260510062324 73 180 4.3 6.1 0.00 0.04 0.00 97 1012.8
20260510062209 73 175 4.3 7.0 0.00 0.04 0.00 97 1013.3
20260510061757 73 209 2.6 4.3 0.00 0.04 0.00 97 1013.7
20260510061750 73 183 3.5 6.1 0.00 0.04 0.00 97 1013.6
20260510061746 73 183 3.5 5.2 0.00 0.04 0.00 97 1013.4
20260510061619 72 292 0.0 0.0 0.00 0.04 0.04 96 1013.0
20260510061614 72 292 0.0 0.0 0.00 0.04 0.04 96 1012.8
20260510061609 72 292 0.0 0.0 0.00 0.04 0.04 96 1012.9
20260510061604 72 309 0.0 1.7 0.00 0.04 0.04 96 1012.7
20260510061559 72 304 0.9 2.6 0.01 0.04 0.04 96 1012.7
20260510061554 73 104 0.9 3.5 0.00 0.04 0.04 96 1013.6
20260510061546 74 184 3.5 6.1 0.00 0.04 0.04 96 1014.0
20260510061541 74 200 4.3 7.0 0.00 0.04 0.04 95 1014.3
20260510061536 73 194 4.3 6.1 0.00 0.04 0.04 95 1014.4
20260510061531 73 175 4.3 7.0 0.00 0.04 0.00 97 1013.3
20260510061525 73 200 4.3 7.0 0.00 0.04 0.04 95 1014.4
20260510061400 73 192 2.6 6.1 0.00 0.04 0.04 95 1014.4
20260510061355 73 194 3.5 5.2 0.00 0.04 0.04 96 1014.3
20260510061350 73 195 3.5 5.2 0.00 0.04 0.00 96 1014.2
20260510061342 73 190 2.6 5.2 0.00 0.04 0.04 96 1014.3
20260510061337 73 194 3.5 4.3 0.00 0.04 0.00 96 1014.3
20260510061332 73 198 2.6 4.3 0.00 0.04 0.00 96 1014.4
20260510061326 73 189 3.5 5.2 0.00 0.04 0.00 96 1014.3
20260510061320 73 191 3.5 5.2 0.00 0.04 0.00 96 1014.4
20260510061315 73 180 4.3 6.1 0.00 0.04 0.00 97 1013.1
20260510061310 73 209 2.6 4.3 0.00 0.04 0.00 96 1014.1
20260510061305 73 209 2.6 4.3 0.00 0.04 0.00 96 1013.8
20260510061259 73 205 2.6 4.3 0.00 0.04 0.00 96 1014.3
20260510061254 73 104 3.5 5.2 0.00 0.04 0.04 96 1013.5
20260510061248 73 163 3.5 6.1 0.00 0.04 0.00 97 1012.9
20260510061241 72 98 0.9 5.2 0.00 0.04 0.04 96 1013.0
20260510061236 73 107 3.5 5.2 0.00 0.04 0.04 96 1013.5
20260510061230 74 177 5.2 7.0 0.00 0.04 0.04 96 1013.7
20260510061225 74 203 4.3 7.0 0.00 0.04 0.04 96 1014.0
20260510061220 73 209 2.6 4.3 0.00 0.04 0.00 97 1013.7
20260510061215 73 183 3.5 6.1 0.00 0.04 0.00 97 1013.6
20260510061209 73 183 3.5 5.2 0.00 0.04 0.00 97 1013.4
20260510060918 74 200 4.3 7.0 0.00 0.04 0.04 95 1014.3
20260510060914 73 194 4.3 6.1 0.00 0.04 0.04 95 1014.4
20260510060909 73 200 4.3 7.0 0.00 0.04 0.04 95 1014.4
20260510060904 73 194 2.6 4.3 0.00 0.04 0.04 95 1014.4
20260510060859 73 192 2.6 6.1 0.00 0.04 0.04 95 1014.4
20260510060854 73 190 2.6 5.2 0.00 0.04 0.04 96 1014.3
20260510060848 73 194 3.5 5.2 0.00 0.04 0.04 96 1014.3
20260510060844 73 195 3.5 5.2 0.00 0.04 0.00 96 1014.2
20260510060837 73 198 2.6 4.3 0.00 0.04 0.00 96 1014.4
20260510060831 73 189 3.5 5.2 0.00 0.04 0.00 96 1014.3
20260510060826 73 191 3.5 5.2 0.00 0.04 0.00 96 1014.4
20260510060820 73 180 4.3 6.1 0.00 0.04 0.00 97 1013.1
20260510060815 73 194 3.5 4.3 0.00 0.04 0.00 96 1014.3
20260510060810 73 205 2.6 4.3 0.00 0.04 0.00 96 1014.3
20260510060805 73 209 2.6 4.3 0.00 0.04 0.00 96 1014.1
20260510060800 73 209 2.6 4.3 0.00 0.04 0.00 96 1013.8
20260510060631 73 183 3.5 6.1 0.00 0.04 0.00 97 1013.6
20260510060625 73 183 3.5 5.2 0.00 0.04 0.00 97 1013.4
20260510060213 73 190 2.6 5.2 0.00 0.04 0.04 96 1014.3
20260510060207 73 194 3.5 5.2 0.00 0.04 0.04 96 1014.3
20260510060202 73 195 3.5 5.2 0.00 0.04 0.00 96 1014.2
20260510060157 73 198 2.6 4.3 0.00 0.04 0.00 96 1014.4
20260510060151 73 189 3.5 5.2 0.00 0.04 0.00 96 1014.3
20260510060145 73 191 3.5 5.2 0.00 0.04 0.00 96 1014.4
20260510060140 73 194 3.5 4.3 0.00 0.04 0.00 96 1014.3
20260510060134 73 209 2.6 4.3 0.00 0.04 0.00 96 1013.8
20260510060127 73 209 2.6 4.3 0.00 0.04 0.00 97 1013.7
20260510055958 73 209 2.6 4.3 0.00 0.04 0.00 96 1014.1
20260510055953 73 183 3.5 6.1 0.00 0.04 0.00 97 1013.6
20260510055825 73 175 4.3 7.0 0.00 0.04 0.00 97 1013.3
20260510055657 72 304 1.7 2.6 0.02 0.04 0.04 95 1012.6
20260510055651 72 292 0.0 0.0 0.00 0.04 0.04 96 1013.0
20260510055646 72 292 0.0 0.0 0.00 0.04 0.04 96 1012.8
20260510055641 72 292 0.0 0.0 0.00 0.04 0.04 96 1012.9
20260510055636 72 309 0.0 1.7 0.00 0.04 0.04 96 1012.7
20260510055630 72 304 0.9 2.6 0.01 0.04 0.04 96 1012.7
20260510055626 73 104 0.9 3.5 0.00 0.04 0.04 96 1013.6
20260510055618 73 209 2.6 4.3 0.00 0.04 0.00 97 1013.7
20260510055613 73 104 3.5 5.2 0.00 0.04 0.04 96 1013.5
20260510055608 73 209 2.6 4.3 0.00 0.04 0.00 96 1013.8
20260510055603 72 98 0.9 5.2 0.00 0.04 0.04 96 1013.0
20260510055557 73 107 3.5 5.2 0.00 0.04 0.04 96 1013.5
20260510055552 73 194 4.3 6.1 0.00 0.04 0.04 95 1014.4
20260510055546 73 194 2.6 4.3 0.00 0.04 0.04 95 1014.4
20260510055542 73 195 3.5 5.2 0.00 0.04 0.00 96 1014.2
20260510055413 74 203 4.3 7.0 0.00 0.04 0.04 96 1014.0
20260510055407 74 184 3.5 6.1 0.00 0.04 0.04 96 1014.0
20260510055402 74 200 4.3 7.0 0.00 0.04 0.04 95 1014.3
20260510055356 73 200 4.3 7.0 0.00 0.04 0.04 95 1014.4
20260510055352 73 192 2.6 6.1 0.00 0.04 0.04 95 1014.4
20260510055347 73 190 2.6 5.2 0.00 0.04 0.04 96 1014.3
20260510055341 73 194 3.5 5.2 0.00 0.04 0.04 96 1014.3
20260510055336 73 198 2.6 4.3 0.00 0.04 0.00 96 1014.4
20260510055330 73 189 3.5 5.2 0.00 0.04 0.00 96 1014.3
20260510055326 73 191 3.5 5.2 0.00 0.04 0.00 96 1014.4
20260510055321 73 194 3.5 4.3 0.00 0.04 0.00 96 1014.3
20260510055313 73 205 2.6 4.3 0.00 0.04 0.00 96 1014.3
20260510055308 73 183 3.5 6.1 0.00 0.04 0.00 97 1013.6
20260510055306 73 209 2.6 4.3 0.00 0.04 0.00 96 1014.1
20260510055257 73 183 3.5 5.2 0.00 0.04 0.00 97 1013.4
20260510055252 73 175 4.3 7.0 0.00 0.04 0.00 97 1013.3
20260510055128 73 209 2.6 4.3 0.00 0.04 0.00 97 1013.7
20260510055000 73 194 2.6 4.3 0.00 0.04 0.04 95 1014.4
20260510054955 73 195 3.5 5.2 0.00 0.04 0.00 96 1014.2
20260510054826 73 183 3.5 6.1 0.00 0.04 0.00 97 1013.6
20260510054821 73 190 2.6 5.2 0.00 0.04 0.04 96 1014.3
20260510054817 62 340 0.9 3.5 0.00 0.27 0.00 91 1017.7
20260510054810 61 311 1.7 4.3 0.00 0.27 0.00 92 1017.8
20260510054804 60 18 1.7 4.3 0.00 0.27 0.00 92 1017.5
20260510054759 60 0 0.9 4.3 0.00 0.27 0.00 93 1017.6
20260510054753 59 49 0.9 3.5 0.00 0.27 0.00 94 1017.5
20260510054749 73 183 3.5 5.2 0.00 0.04 0.00 97 1013.4
20260510054744 58 48 0.0 2.6 0.00 0.27 0.00 94 1017.4
20260510054738 58 48 0.9 5.2 0.00 0.27 0.00 95 1017.2
20260510054733 73 304 0.9 2.6 0.02 0.04 0.04 95 1012.8
20260510054728 72 304 1.7 2.6 0.02 0.04 0.04 95 1012.6
20260510054723 72 292 0.0 0.0 0.00 0.04 0.04 96 1013.0
20260510054717 72 292 0.0 0.0 0.00 0.04 0.04 96 1012.8
20260510054712 73 191 3.5 5.2 0.00 0.04 0.00 96 1014.4
20260510054705 72 292 0.0 0.0 0.00 0.04 0.04 96 1012.9
20260510054701 73 198 2.6 4.3 0.00 0.04 0.00 96 1014.4
20260510054655 72 309 0.0 1.7 0.00 0.04 0.04 96 1012.7
20260510054651 73 194 3.5 4.3 0.00 0.04 0.00 96 1014.3
20260510054645 72 304 0.9 2.6 0.01 0.04 0.04 96 1012.7
20260510054640 73 189 3.5 5.2 0.00 0.04 0.00 96 1014.3
20260510054634 73 205 2.6 4.3 0.00 0.04 0.00 96 1014.3
20260510054629 73 209 2.6 4.3 0.00 0.04 0.00 96 1014.1
20260510054625 73 209 2.6 4.3 0.00 0.04 0.00 96 1013.8
20260510054619 73 104 0.9 3.5 0.00 0.04 0.04 96 1013.6
20260510054612 73 104 3.5 5.2 0.00 0.04 0.04 96 1013.5
20260510054605 72 98 0.9 5.2 0.00 0.04 0.04 96 1013.0
20260510054600 73 107 3.5 5.2 0.00 0.04 0.04 96 1013.5
20260510054554 73 209 2.6 4.3 0.00 0.04 0.00 97 1013.7
20260510054425 74 203 4.3 7.0 0.00 0.04 0.04 96 1014.0
20260510054419 74 184 3.5 6.1 0.00 0.04 0.04 96 1014.0
20260510054413 74 200 4.3 7.0 0.00 0.04 0.04 95 1014.3
20260510054405 73 200 4.3 7.0 0.00 0.04 0.04 95 1014.4
20260510054400 73 192 2.6 6.1 0.00 0.04 0.04 95 1014.4
20260510054354 73 194 4.3 6.1 0.00 0.04 0.04 95 1014.4
20260510054349 73 194 2.6 4.3 0.00 0.04 0.04 95 1014.4
20260510054343 73 190 2.6 5.2 0.00 0.04 0.04 96 1014.3
20260510054339 73 194 3.5 5.2 0.00 0.04 0.04 96 1014.3
20260510054334 73 195 3.5 5.2 0.00 0.04 0.00 96 1014.2
20260510054328 73 183 3.5 6.1 0.00 0.04 0.00 97 1013.6
20260510054315 73 183 3.5 5.2 0.00 0.04 0.00 97 1013.4
20260510054156 73 198 2.6 4.3 0.00 0.04 0.00 96 1014.4
20260510054151 73 189 3.5 5.2 0.00 0.04 0.00 96 1014.3
20260510054146 73 194 3.5 4.3 0.00 0.04 0.00 96 1014.3
20260510054141 73 205 2.6 4.3 0.00 0.04 0.00 96 1014.3
20260510054137 73 209 2.6 4.3 0.00 0.04 0.00 96 1014.1
20260510054131 73 209 2.6 4.3 0.00 0.04 0.00 96 1013.8
20260510054002 72 292 0.0 0.0 0.00 0.04 0.04 96 1013.0
20260510053957 72 292 0.0 0.0 0.00 0.04 0.04 96 1012.8
20260510053832 73 104 0.9 3.5 0.00 0.04 0.04 96 1013.6
20260510053826 73 183 3.5 6.1 0.00 0.04 0.00 97 1013.6
20260510053821 73 104 3.5 5.2 0.00 0.04 0.04 96 1013.5
20260510053817 73 107 3.5 5.2 0.00 0.04 0.04 96 1013.5
20260510053811 74 177 5.2 7.0 0.00 0.04 0.04 96 1013.7
20260510053803 74 203 4.3 7.0 0.00 0.04 0.04 96 1014.0
20260510053759 74 184 3.5 6.1 0.00 0.04 0.04 96 1014.0
20260510053753 74 200 4.3 7.0 0.00 0.04 0.04 95 1014.3
20260510053748 73 200 4.3 7.0 0.00 0.04 0.04 95 1014.4
20260510053742 73 194 2.6 4.3 0.00 0.04 0.04 95 1014.4
20260510053738 73 192 2.6 6.1 0.00 0.04 0.04 95 1014.4
20260510053732 73 190 2.6 5.2 0.00 0.04 0.04 96 1014.3
20260510053727 73 194 3.5 5.2 0.00 0.04 0.04 96 1014.3
20260510053720 73 195 3.5 5.2 0.00 0.04 0.00 96 1014.2
20260510053715 73 198 2.6 4.3 0.00 0.04 0.00 96 1014.4
20260510053709 73 194 4.3 6.1 0.00 0.04 0.04 95 1014.4
20260510053702 73 189 3.5 5.2 0.00 0.04 0.00 96 1014.3
20260510053658 73 191 3.5 5.2 0.00 0.04 0.00 96 1014.4
20260510053652 73 194 3.5 4.3 0.00 0.04 0.00 96 1014.3
20260510053525 73 209 2.6 4.3 0.00 0.04 0.00 96 1014.1
20260510053520 73 209 2.6 4.3 0.00 0.04 0.00 96 1013.8
20260510053515 73 209 2.6 4.3 0.00 0.04 0.00 97 1013.7
20260510053224 73 190 2.6 5.2 0.00 0.04 0.04 96 1014.3
20260510053218 73 194 3.5 5.2 0.00 0.04 0.04 96 1014.3
20260510053213 73 195 3.5 5.2 0.00 0.04 0.00 96 1014.2
20260510053207 73 198 2.6 4.3 0.00 0.04 0.00 96 1014.4
20260510053040 73 107 3.5 5.2 0.00 0.04 0.04 96 1013.5
20260510053034 74 177 5.2 7.0 0.00 0.04 0.04 96 1013.7
20260510053028 74 203 4.3 7.0 0.00 0.04 0.04 96 1014.0
20260510053023 73 189 3.5 5.2 0.00 0.04 0.00 96 1014.3
20260510053019 73 205 2.6 4.3 0.00 0.04 0.00 96 1014.3
20260510052850 73 191 3.5 5.2 0.00 0.04 0.00 96 1014.4
20260510052844 73 194 3.5 4.3 0.00 0.04 0.00 96 1014.3
20260510052839 73 209 2.6 4.3 0.00 0.04 0.00 96 1014.1
20260510052835 73 209 2.6 4.3 0.00 0.04 0.00 96 1013.8
20260510052829 73 209 2.6 4.3 0.00 0.04 0.00 97 1013.7
20260510052700 73 200 4.3 7.0 0.00 0.04 0.04 95 1014.4
20260510052652 73 192 2.6 6.1 0.00 0.04 0.04 95 1014.4
20260510052647 73 194 4.3 6.1 0.00 0.04 0.04 95 1014.4
20260510052641 73 194 2.6 4.3 0.00 0.04 0.04 95 1014.4
20260510052637 73 190 2.6 5.2 0.00 0.04 0.04 96 1014.3
20260510052631 73 195 3.5 5.2 0.00 0.04 0.00 96 1014.2
20260510052626 73 194 3.5 5.2 0.00 0.04 0.04 96 1014.3
20260510052620 73 198 2.6 4.3 0.00 0.04 0.00 96 1014.4
20260510052451 73 205 2.6 4.3 0.00 0.04 0.00 96 1014.3
20260510052323 58 61 1.7 5.2 0.00 0.27 0.00 95 1017.2
20260510052317 73 194 3.5 4.3 0.00 0.04 0.00 96 1014.3
20260510052313 57 54 2.6 5.2 0.00 0.27 0.00 94 1017.1
20260510052307 73 209 2.6 4.3 0.00 0.04 0.00 96 1014.1
20260510052256 73 209 2.6 4.3 0.00 0.04 0.00 96 1013.8
20260510052249 57 56 5.2 8.7 0.00 0.27 0.00 94 1017.0
20260510052244 73 209 2.6 4.3 0.00 0.04 0.00 97 1013.7
20260510052238 58 0 5.2 8.7 0.00 0.27 0.00 94 1016.8
20260510052234 58 36 0.9 2.6 0.00 0.27 0.00 94 1016.9
20260510052229 58 37 1.7 7.0 0.00 0.27 0.00 93 1016.9
20260510052223 58 52 1.7 7.0 0.00 0.27 0.00 93 1017.0
20260510052218 58 236 0.9 4.3 0.00 0.27 0.00 93 1016.9
20260510052213 58 90 0.9 5.2 0.00 0.27 0.00 93 1016.9
20260510052208 59 61 0.9 5.2 0.00 0.27 0.00 92 1016.9
20260510052202 72 98 0.9 5.2 0.00 0.04 0.04 96 1013.0
20260510052157 59 50 1.7 8.7 0.00 0.27 0.00 92 1017.0
20260510052150 73 304 0.9 2.6 0.02 0.04 0.04 95 1012.8
20260510052146 73 107 3.5 5.2 0.00 0.04 0.04 96 1013.5
20260510052140 73 104 0.9 3.5 0.00 0.04 0.04 96 1013.6
20260510052135 74 203 4.3 7.0 0.00 0.04 0.04 96 1014.0
20260510052130 74 184 3.5 6.1 0.00 0.04 0.04 96 1014.0
20260510052125 74 177 5.2 7.0 0.00 0.04 0.04 96 1013.7
20260510052119 73 195 3.5 5.2 0.00 0.04 0.00 96 1014.2
20260510052115 74 200 4.3 7.0 0.00 0.04 0.04 95 1014.3
20260510052110 73 192 2.6 6.1 0.00 0.04 0.04 95 1014.4
20260510052104 72 304 1.7 2.6 0.02 0.04 0.04 95 1012.6
20260510052100 72 309 0.0 1.7 0.00 0.04 0.04 96 1012.7
20260510052054 73 200 4.3 7.0 0.00 0.04 0.04 95 1014.4
20260510052047 73 198 2.6 4.3 0.00 0.04 0.00 96 1014.4
20260510052042 73 194 4.3 6.1 0.00 0.04 0.04 95 1014.4
20260510052037 72 304 0.9 2.6 0.01 0.04 0.04 96 1012.7
20260510052032 73 194 2.6 4.3 0.00 0.04 0.04 95 1014.4
20260510052027 72 292 0.0 0.0 0.00 0.04 0.04 96 1013.0
20260510052021 72 292 0.0 0.0 0.00 0.04 0.04 96 1012.8
20260510052016 72 292 0.0 0.0 0.00 0.04 0.04 96 1012.9
20260510052012 73 104 3.5 5.2 0.00 0.04 0.04 96 1013.5
20260510052006 73 190 2.6 5.2 0.00 0.04 0.04 96 1014.3
20260510052001 73 205 2.6 4.3 0.00 0.04 0.00 96 1014.3
20260510051835 73 189 3.5 5.2 0.00 0.04 0.00 96 1014.3
20260510051829 73 191 3.5 5.2 0.00 0.04 0.00 96 1014.4
20260510051823 73 194 3.5 4.3 0.00 0.04 0.00 96 1014.3
20260510051818 73 209 2.6 4.3 0.00 0.04 0.00 96 1014.1
20260510051813 73 209 2.6 4.3 0.00 0.04 0.00 96 1013.8
20260510051646 73 104 0.9 3.5 0.00 0.04 0.04 96 1013.6
20260510051640 73 107 3.5 5.2 0.00 0.04 0.04 96 1013.5
20260510051635 74 177 5.2 7.0 0.00 0.04 0.04 96 1013.7
20260510051631 74 203 4.3 7.0 0.00 0.04 0.04 96 1014.0
20260510051625 74 184 3.5 6.1 0.00 0.04 0.04 96 1014.0
20260510051620 73 195 3.5 5.2 0.00 0.04 0.00 96 1014.2
20260510051615 74 200 4.3 7.0 0.00 0.04 0.04 95 1014.3
20260510051611 73 200 4.3 7.0 0.00 0.04 0.04 95 1014.4
20260510051605 73 192 2.6 6.1 0.00 0.04 0.04 95 1014.4
20260510051559 73 198 2.6 4.3 0.00 0.04 0.00 96 1014.4
20260510051554 73 194 4.3 6.1 0.00 0.04 0.04 95 1014.4
20260510051547 73 194 2.6 4.3 0.00 0.04 0.04 95 1014.4
20260510051420 73 190 2.6 5.2 0.00 0.04 0.04 96 1014.3
20260510051254 73 189 3.5 5.2 0.00 0.04 0.00 96 1014.3
20260510051247 73 194 3.5 5.2 0.00 0.04 0.04 96 1014.3
20260510051241 73 209 2.6 4.3 0.00 0.04 0.00 96 1013.8
20260510051236 73 191 3.5 5.2 0.00 0.04 0.00 96 1014.4
20260510051230 73 194 3.5 4.3 0.00 0.04 0.00 96 1014.3
20260510051107 73 198 2.6 4.3 0.00 0.04 0.00 96 1014.4
20260510050820 73 209 2.6 4.3 0.00 0.04 0.00 96 1014.1
20260510050814 74 177 5.2 7.0 0.00 0.04 0.04 96 1013.7
20260510050809 74 203 4.3 7.0 0.00 0.04 0.04 96 1014.0
20260510050804 74 184 3.5 6.1 0.00 0.04 0.04 96 1014.0
20260510050759 74 200 4.3 7.0 0.00 0.04 0.04 95 1014.3
20260510050754 73 200 4.3 7.0 0.00 0.04 0.04 95 1014.4
20260510050746 73 192 2.6 6.1 0.00 0.04 0.04 95 1014.4
20260510050742 73 190 2.6 5.2 0.00 0.04 0.04 96 1014.3
20260510050737 73 194 3.5 5.2 0.00 0.04 0.04 96 1014.3
20260510050733 73 189 3.5 5.2 0.00 0.04 0.00 96 1014.3
20260510050608 73 194 3.5 4.3 0.00 0.04 0.00 96 1014.3
20260510050441 72 292 0.0 0.0 0.00 0.04 0.04 96 1013.0
20260510050437 72 292 0.0 0.0 0.00 0.04 0.04 96 1012.8
20260510050431 73 104 3.5 5.2 0.00 0.04 0.04 96 1013.5
20260510050426 72 98 0.9 5.2 0.00 0.04 0.04 96 1013.0
20260510050422 73 194 4.3 6.1 0.00 0.04 0.04 95 1014.4
20260510050416 73 194 2.6 4.3 0.00 0.04 0.04 95 1014.4
20260510050412 73 195 3.5 5.2 0.00 0.04 0.00 96 1014.2
20260510050406 73 198 2.6 4.3 0.00 0.04 0.00 96 1014.4
20260510050402 73 205 2.6 4.3 0.00 0.04 0.00 96 1014.3
20260510050340 73 209 2.6 4.3 0.00 0.04 0.00 96 1014.1
20260510050230 73 107 3.5 5.2 0.00 0.04 0.04 96 1013.5
20260510050226 74 177 5.2 7.0 0.00 0.04 0.04 96 1013.7
20260510050221 74 203 4.3 7.0 0.00 0.04 0.04 96 1014.0
20260510050215 74 184 3.5 6.1 0.00 0.04 0.04 96 1014.0
20260510050211 74 200 4.3 7.0 0.00 0.04 0.04 95 1014.3
20260510050205 73 190 2.6 5.2 0.00 0.04 0.04 96 1014.3
20260510050200 73 194 3.5 5.2 0.00 0.04 0.04 96 1014.3
20260510050033 73 192 2.6 6.1 0.00 0.04 0.04 95 1014.4
20260510050027 73 189 3.5 5.2 0.00 0.04 0.00 96 1014.3
20260510050022 73 191 3.5 5.2 0.00 0.04 0.00 96 1014.4
20260510050017 73 194 3.5 4.3 0.00 0.04 0.00 96 1014.3
20260510045851 73 194 4.3 6.1 0.00 0.04 0.04 95 1014.4
20260510045845 73 194 2.6 4.3 0.00 0.04 0.04 95 1014.4
20260510045838 73 195 3.5 5.2 0.00 0.04 0.00 96 1014.2
20260510045834 73 198 2.6 4.3 0.00 0.04 0.00 96 1014.4
20260510045828 73 205 2.6 4.3 0.00 0.04 0.00 96 1014.3
20260510045702 72 292 0.0 0.0 0.00 0.04 0.04 96 1012.8
20260510045656 73 104 3.5 5.2 0.00 0.04 0.04 96 1013.5
20260510045651 72 98 0.9 5.2 0.00 0.04 0.04 96 1013.0
20260510045646 73 104 0.9 3.5 0.00 0.04 0.04 96 1013.6
20260510045639 73 190 2.6 5.2 0.00 0.04 0.04 96 1014.3
20260510045634 73 194 3.5 5.2 0.00 0.04 0.04 96 1014.3
20260510045507 73 107 3.5 5.2 0.00 0.04 0.04 96 1013.5
20260510045502 74 177 5.2 7.0 0.00 0.04 0.04 96 1013.7
20260510045456 74 203 4.3 7.0 0.00 0.04 0.04 96 1014.0
20260510045451 74 184 3.5 6.1 0.00 0.04 0.04 96 1014.0
20260510045446 74 200 4.3 7.0 0.00 0.04 0.04 95 1014.3
20260510045439 73 200 4.3 7.0 0.00 0.04 0.04 95 1014.4
20260510045434 73 189 3.5 5.2 0.00 0.04 0.00 96 1014.3
20260510045428 73 191 3.5 5.2 0.00 0.04 0.00 96 1014.4
20260510045424 73 194 3.5 4.3 0.00 0.04 0.00 96 1014.3
20260510045258 73 194 2.6 4.3 0.00 0.04 0.04 95 1014.4
20260510045253 73 195 3.5 5.2 0.00 0.04 0.00 96 1014.2
20260510045247 73 198 2.6 4.3 0.00 0.04 0.00 96 1014.4
20260510045240 73 205 2.6 4.3 0.00 0.04 0.00 96 1014.3
20260510045114 60 57 7.0 10.4 0.00 0.27 0.00 92 1016.9
20260510045108 61 65 7.8 10.4 0.00 0.27 0.00 92 1016.9
20260510045103 61 69 7.8 10.4 0.00 0.27 0.00 92 1016.9
20260510045057 61 55 7.8 9.6 0.00 0.27 0.00 92 1016.8
20260510045051 61 63 7.8 10.4 0.00 0.27 0.00 92 1017.0
20260510045046 73 190 2.6 5.2 0.00 0.04 0.04 96 1014.3
20260510045039 61 0 7.8 11.3 0.00 0.27 0.00 92 1017.1
20260510045035 73 194 3.5 5.2 0.00 0.04 0.04 96 1014.3
20260510045029 62 0 8.7 11.3 0.00 0.27 0.00 91 1017.0
20260510045025 73 303 0.9 3.5 0.02 0.04 0.04 95 1012.9
20260510045021 73 321 1.7 4.3 0.02 0.04 0.04 95 1013.0
20260510045016 73 192 2.6 6.1 0.00 0.04 0.04 95 1014.4
20260510045011 73 304 0.9 2.6 0.02 0.04 0.04 95 1012.8
20260510045007 72 304 1.7 2.6 0.02 0.04 0.04 95 1012.6
20260510045001 72 304 0.9 2.6 0.01 0.04 0.04 96 1012.7
20260510044956 72 309 0.0 1.7 0.00 0.04 0.04 96 1012.7
20260510044950 72 292 0.0 0.0 0.00 0.04 0.04 96 1012.9
20260510044945 72 292 0.0 0.0 0.00 0.04 0.04 96 1013.0
20260510044938 72 292 0.0 0.0 0.00 0.04 0.04 96 1012.8
20260510044932 73 104 3.5 5.2 0.00 0.04 0.04 96 1013.5
20260510044927 72 98 0.9 5.2 0.00 0.04 0.04 96 1013.0
20260510044922 73 104 0.9 3.5 0.00 0.04 0.04 96 1013.6
20260510044917 73 107 3.5 5.2 0.00 0.04 0.04 96 1013.5
20260510044912 73 189 3.5 5.2 0.00 0.04 0.00 96 1014.3
20260510044907 73 194 3.5 4.3 0.00 0.04 0.00 96 1014.3
20260510044902 73 191 3.5 5.2 0.00 0.04 0.00 96 1014.4
20260510044734 74 203 4.3 7.0 0.00 0.04 0.04 96 1014.0
20260510044728 74 184 3.5 6.1 0.00 0.04 0.04 96 1014.0
20260510044723 73 198 2.6 4.3 0.00 0.04 0.00 96 1014.4
20260510044719 74 200 4.3 7.0 0.00 0.04 0.04 95 1014.3
20260510044713 73 200 4.3 7.0 0.00 0.04 0.04 95 1014.4
20260510044709 73 194 4.3 6.1 0.00 0.04 0.04 95 1014.4
20260510044703 73 194 2.6 4.3 0.00 0.04 0.04 95 1014.4
20260510044658 73 195 3.5 5.2 0.00 0.04 0.00 96 1014.2
20260510044532 73 192 2.6 6.1 0.00 0.04 0.04 95 1014.4
20260510044526 73 190 2.6 5.2 0.00 0.04 0.04 96 1014.3
20260510044403 73 191 3.5 5.2 0.00 0.04 0.00 96 1014.4
20260510044341 73 194 3.5 4.3 0.00 0.04 0.00 96 1014.3
20260510044109 72 292 0.0 0.0 0.00 0.04 0.04 96 1013.0
20260510044104 73 104 3.5 5.2 0.00 0.04 0.04 96 1013.5
20260510044059 72 98 0.9 5.2 0.00 0.04 0.04 96 1013.0
20260510044053 73 194 2.6 4.3 0.00 0.04 0.04 95 1014.4
20260510044048 73 192 2.6 6.1 0.00 0.04 0.04 95 1014.4
20260510044042 73 194 3.5 5.2 0.00 0.04 0.04 96 1014.3
20260510044035 73 195 3.5 5.2 0.00 0.04 0.00 96 1014.2
20260510043750 73 107 3.5 5.2 0.00 0.04 0.04 96 1013.5
20260510043745 74 177 5.2 7.0 0.00 0.04 0.04 96 1013.7
20260510043738 74 203 4.3 7.0 0.00 0.04 0.04 96 1014.0
20260510043732 74 184 3.5 6.1 0.00 0.04 0.04 96 1014.0
20260510043727 74 200 4.3 7.0 0.00 0.04 0.04 95 1014.3
20260510043722 73 200 4.3 7.0 0.00 0.04 0.04 95 1014.4
20260510043717 73 191 3.5 5.2 0.00 0.04 0.00 96 1014.4
20260510043713 73 190 2.6 5.2 0.00 0.04 0.04 96 1014.3
20260510043707 73 194 4.3 6.1 0.00 0.04 0.04 95 1014.4
20260510043702 73 198 2.6 4.3 0.00 0.04 0.00 96 1014.4
20260510043535 73 194 2.6 4.3 0.00 0.04 0.04 95 1014.4
20260510043408 62 0 7.0 10.4 0.00 0.27 0.00 90 1017.0
20260510043402 73 195 3.5 5.2 0.00 0.04 0.00 96 1014.2
20260510043357 63 44 7.8 10.4 0.00 0.27 0.00 88 1017.0
20260510043353 73 189 3.5 5.2 0.00 0.04 0.00 96 1014.3
20260510043347 64 63 7.0 10.4 0.00 0.27 0.00 87 1016.9
20260510043342 65 78 7.8 10.4 0.00 0.27 0.00 87 1016.9
20260510043335 65 59 7.8 11.3 0.00 0.27 0.00 88 1017.0
20260510043329 64 67 8.7 11.3 0.00 0.27 0.00 89 1017.2
20260510043324 63 61 7.0 10.4 0.00 0.27 0.00 87 1017.2
20260510043318 64 0 7.0 10.4 0.00 0.27 0.00 87 1017.4
20260510043314 64 71 7.8 10.4 0.00 0.27 0.00 88 1017.6
20260510043308 62 71 6.1 9.6 0.00 0.27 0.00 90 1017.7
20260510043303 62 66 6.1 9.6 0.00 0.27 0.00 89 1017.9
20260510043259 63 61 6.1 8.7 0.00 0.27 0.00 88 1018.0
20260510043254 64 66 6.1 8.7 0.00 0.27 0.00 86 1018.0
20260510043249 73 104 3.5 5.2 0.00 0.04 0.04 96 1013.5
20260510043242 73 191 3.5 5.2 0.00 0.04 0.00 96 1014.4
20260510043236 72 98 0.9 5.2 0.00 0.04 0.04 96 1013.0
20260510043231 73 104 0.9 3.5 0.00 0.04 0.04 96 1013.6
20260510043225 74 177 5.2 7.0 0.00 0.04 0.04 96 1013.7
20260510043220 73 107 3.5 5.2 0.00 0.04 0.04 96 1013.5
20260510043214 74 203 4.3 7.0 0.00 0.04 0.04 96 1014.0
20260510043209 74 184 3.5 6.1 0.00 0.04 0.04 96 1014.0
20260510043205 74 200 4.3 7.0 0.00 0.04 0.04 95 1014.3
20260510043159 73 198 2.6 4.3 0.00 0.04 0.00 96 1014.4
20260510043154 73 200 4.3 7.0 0.00 0.04 0.04 95 1014.4
20260510043148 73 190 2.6 5.2 0.00 0.04 0.04 96 1014.3
20260510043022 73 303 0.9 3.5 0.02 0.04 0.04 95 1012.9
20260510043016 73 321 1.7 4.3 0.02 0.04 0.04 95 1013.0
20260510043011 73 304 0.9 2.6 0.02 0.04 0.04 95 1012.8
20260510043007 72 304 1.7 2.6 0.02 0.04 0.04 95 1012.6
20260510043001 72 304 0.9 2.6 0.01 0.04 0.04 96 1012.7
20260510042956 72 309 0.0 1.7 0.00 0.04 0.04 96 1012.7
20260510042950 72 292 0.0 0.0 0.00 0.04 0.04 96 1012.8
20260510042944 72 292 0.0 0.0 0.00 0.04 0.04 96 1012.9
20260510042938 72 292 0.0 0.0 0.00 0.04 0.04 96 1013.0
20260510042932 73 194 4.3 6.1 0.00 0.04 0.04 95 1014.4
20260510042927 73 192 2.6 6.1 0.00 0.04 0.04 95 1014.4
20260510042921 73 194 2.6 4.3 0.00 0.04 0.04 95 1014.4
20260510042917 73 195 3.5 5.2 0.00 0.04 0.00 96 1014.2
20260510042911 73 194 3.5 5.2 0.00 0.04 0.04 96 1014.3
20260510042906 73 189 3.5 5.2 0.00 0.04 0.00 96 1014.3
20260510042741 72 98 0.9 5.2 0.00 0.04 0.04 96 1013.0
20260510042734 73 104 0.9 3.5 0.00 0.04 0.04 96 1013.6
20260510042729 73 107 3.5 5.2 0.00 0.04 0.04 96 1013.5
20260510042724 74 177 5.2 7.0 0.00 0.04 0.04 96 1013.7
20260510042718 73 198 2.6 4.3 0.00 0.04 0.00 96 1014.4
20260510042714 74 203 4.3 7.0 0.00 0.04 0.04 96 1014.0
20260510042549 73 190 2.6 5.2 0.00 0.04 0.04 96 1014.3
20260510042543 74 200 4.3 7.0 0.00 0.04 0.04 95 1014.3
20260510042537 73 200 4.3 7.0 0.00 0.04 0.04 95 1014.4
20260510042413 73 192 2.6 6.1 0.00 0.04 0.04 95 1014.4
20260510042407 73 194 2.6 4.3 0.00 0.04 0.04 95 1014.4
20260510042403 73 194 3.5 5.2 0.00 0.04 0.04 96 1014.3
20260510042357 73 195 3.5 5.2 0.00 0.04 0.00 96 1014.2
20260510042338 73 189 3.5 5.2 0.00 0.04 0.00 96 1014.3
20260510042103 74 343 0.9 3.5 0.00 0.02 0.02 94 1013.2
20260510042058 74 315 0.9 4.3 0.00 0.02 0.02 94 1013.0
20260510042054 74 203 4.3 7.0 0.00 0.04 0.04 96 1014.0
20260510042049 74 327 1.7 6.1 0.00 0.02 0.02 94 1013.1
20260510042045 74 343 2.6 6.1 0.00 0.02 0.02 94 1013.0
20260510042038 73 190 2.6 5.2 0.00 0.04 0.04 96 1014.3
20260510042034 74 327 2.6 7.8 0.00 0.02 0.02 94 1013.0
20260510042028 73 303 0.9 3.5 0.02 0.04 0.04 95 1012.9
20260510042023 73 321 1.7 4.3 0.02 0.04 0.04 95 1013.0
20260510042019 73 304 0.9 2.6 0.02 0.04 0.04 95 1012.8
20260510042013 72 304 1.7 2.6 0.02 0.04 0.04 95 1012.6
20260510042008 72 304 0.9 2.6 0.01 0.04 0.04 96 1012.7
20260510042002 72 309 0.0 1.7 0.00 0.04 0.04 96 1012.7
20260510041957 72 292 0.0 0.0 0.00 0.04 0.04 96 1012.8
20260510041952 72 292 0.0 0.0 0.00 0.04 0.04 96 1012.9
20260510041947 72 292 0.0 0.0 0.00 0.04 0.04 96 1013.0
20260510041942 73 104 3.5 5.2 0.00 0.04 0.04 96 1013.5
20260510041934 72 98 0.9 5.2 0.00 0.04 0.04 96 1013.0
20260510041930 73 104 0.9 3.5 0.00 0.04 0.04 96 1013.6
20260510041925 73 107 3.5 5.2 0.00 0.04 0.04 96 1013.5
20260510041919 73 194 4.3 6.1 0.00 0.04 0.04 95 1014.4
20260510041754 74 177 5.2 7.0 0.00 0.04 0.04 96 1013.7
20260510041749 74 184 3.5 6.1 0.00 0.04 0.04 96 1014.0
20260510041743 74 200 4.3 7.0 0.00 0.04 0.04 95 1014.3
20260510041736 73 200 4.3 7.0 0.00 0.04 0.04 95 1014.4
20260510041731 73 192 2.6 6.1 0.00 0.04 0.04 95 1014.4
20260510041726 73 198 2.6 4.3 0.00 0.04 0.00 96 1014.4
20260510041721 73 194 2.6 4.3 0.00 0.04 0.04 95 1014.4
20260510041716 73 194 3.5 5.2 0.00 0.04 0.04 96 1014.3
20260510041550 74 203 4.3 7.0 0.00 0.04 0.04 96 1014.0
20260510041302 73 195 3.5 5.2 0.00 0.04 0.00 96 1014.2
20260510041257 67 69 7.0 10.4 0.00 0.27 0.00 82 1018.0
20260510041252 67 77 7.0 9.6 0.00 0.27 0.00 83 1018.0
20260510041247 67 69 7.0 9.6 0.00 0.27 0.00 83 1018.1
20260510041241 73 198 2.6 4.3 0.00 0.04 0.00 96 1014.4
20260510041234 67 59 7.0 8.7 0.00 0.27 0.00 81 1018.2
20260510041229 74 327 3.5 7.8 0.00 0.02 0.02 94 1012.7
20260510041223 74 36 1.7 6.1 0.01 0.02 0.02 94 1012.7
20260510041218 74 340 0.9 3.5 0.01 0.02 0.02 94 1012.7
20260510041213 73 247 1.7 4.3 0.02 0.04 0.04 95 1013.4
20260510041208 73 348 1.7 4.3 0.01 0.03 0.03 95 1013.1
20260510041204 74 343 0.9 3.5 0.00 0.02 0.02 94 1013.2
20260510041158 74 315 0.9 4.3 0.00 0.02 0.02 94 1013.0
20260510041153 74 327 1.7 6.1 0.00 0.02 0.02 94 1013.1
20260510041149 73 192 2.6 6.1 0.00 0.04 0.04 95 1014.4
20260510041143 74 184 3.5 6.1 0.00 0.04 0.04 96 1014.0
20260510041138 74 343 2.6 6.1 0.00 0.02 0.02 94 1013.0
20260510041130 72 292 0.0 0.0 0.00 0.04 0.04 96 1012.8
20260510041125 72 292 0.0 0.0 0.00 0.04 0.04 96 1013.0
20260510041119 74 200 4.3 7.0 0.00 0.04 0.04 95 1014.3
20260510041115 73 200 4.3 7.0 0.00 0.04 0.04 95 1014.4
20260510041109 73 194 2.6 4.3 0.00 0.04 0.04 95 1014.4
20260510041105 73 190 2.6 5.2 0.00 0.04 0.04 96 1014.3
20260510041100 73 194 3.5 5.2 0.00 0.04 0.04 96 1014.3
20260510040930 73 303 0.9 3.5 0.02 0.04 0.04 95 1012.9
20260510040925 73 321 1.7 4.3 0.02 0.04 0.04 95 1013.0
20260510040921 73 304 0.9 2.6 0.02 0.04 0.04 95 1012.8
20260510040915 72 304 1.7 2.6 0.02 0.04 0.04 95 1012.6
20260510040910 72 304 0.9 2.6 0.01 0.04 0.04 96 1012.7
20260510040904 72 309 0.0 1.7 0.00 0.04 0.04 96 1012.7
20260510040859 72 292 0.0 0.0 0.00 0.04 0.04 96 1012.9
20260510040855 73 104 3.5 5.2 0.00 0.04 0.04 96 1013.5
20260510040849 72 98 0.9 5.2 0.00 0.04 0.04 96 1013.0
20260510040845 73 104 0.9 3.5 0.00 0.04 0.04 96 1013.6
20260510040839 73 107 3.5 5.2 0.00 0.04 0.04 96 1013.5
20260510040833 74 177 5.2 7.0 0.00 0.04 0.04 96 1013.7
20260510040827 74 203 4.3 7.0 0.00 0.04 0.04 96 1014.0
20260510040823 73 194 4.3 6.1 0.00 0.04 0.04 95 1014.4
20260510040817 73 195 3.5 5.2 0.00 0.04 0.00 96 1014.2
20260510040652 73 192 2.6 6.1 0.00 0.04 0.04 95 1014.4
20260510040525 74 200 4.3 7.0 0.00 0.04 0.04 95 1014.3
20260510040520 73 190 2.6 5.2 0.00 0.04 0.04 96 1014.3
20260510040514 73 200 4.3 7.0 0.00 0.04 0.04 95 1014.4
20260510040510 73 194 2.6 4.3 0.00 0.04 0.04 95 1014.4
20260510040504 74 327 3.5 7.8 0.00 0.02 0.02 94 1012.7
20260510040459 72 292 0.0 0.0 0.00 0.04 0.04 96 1012.8
20260510040455 72 292 0.0 0.0 0.00 0.04 0.04 96 1013.0
20260510040326 73 104 3.5 5.2 0.00 0.04 0.04 96 1013.5
20260510040321 72 98 0.9 5.2 0.00 0.04 0.04 96 1013.0
20260510040315 73 247 1.7 4.3 0.02 0.04 0.04 95 1013.4
20260510040310 73 348 1.7 4.3 0.01 0.03 0.03 95 1013.1
20260510040306 73 303 0.9 3.5 0.02 0.04 0.04 95 1012.9
20260510040300 73 321 1.7 4.3 0.02 0.04 0.04 95 1013.0
20260510040255 73 304 0.9 2.6 0.02 0.04 0.04 95 1012.8
20260510040251 72 304 1.7 2.6 0.02 0.04 0.04 95 1012.6
20260510040245 72 304 0.9 2.6 0.01 0.04 0.04 96 1012.7
20260510040239 73 195 3.5 5.2 0.00 0.04 0.00 96 1014.2
20260510040232 72 309 0.0 1.7 0.00 0.04 0.04 96 1012.7
20260510040227 72 292 0.0 0.0 0.00 0.04 0.04 96 1012.9
20260510040223 73 104 0.9 3.5 0.00 0.04 0.04 96 1013.6
20260510040217 73 107 3.5 5.2 0.00 0.04 0.04 96 1013.5
20260510040212 74 177 5.2 7.0 0.00 0.04 0.04 96 1013.7
20260510040206 74 203 4.3 7.0 0.00 0.04 0.04 96 1014.0
20260510040202 73 194 4.3 6.1 0.00 0.04 0.04 95 1014.4
20260510040034 73 200 4.3 7.0 0.00 0.04 0.04 95 1014.4
20260510040029 74 200 4.3 7.0 0.00 0.04 0.04 95 1014.3
20260510040023 73 192 2.6 6.1 0.00 0.04 0.04 95 1014.4
20260510040018 73 194 2.6 4.3 0.00 0.04 0.04 95 1014.4
20260510040014 73 190 2.6 5.2 0.00 0.04 0.04 96 1014.3
20260510040008 73 194 3.5 5.2 0.00 0.04 0.04 96 1014.3
20260510035843 72 292 0.0 0.0 0.00 0.04 0.04 96 1013.0
20260510035838 73 104 3.5 5.2 0.00 0.04 0.04 96 1013.5
20260510035831 72 98 0.9 5.2 0.00 0.04 0.04 96 1013.0
20260510035547 73 107 3.5 5.2 0.00 0.04 0.04 96 1013.5
20260510035542 74 177 5.2 7.0 0.00 0.04 0.04 96 1013.7
20260510035536 74 203 4.3 7.0 0.00 0.04 0.04 96 1014.0
20260510035529 74 184 3.5 6.1 0.00 0.04 0.04 96 1014.0
20260510035524 74 200 4.3 7.0 0.00 0.04 0.04 95 1014.3
20260510035518 73 200 4.3 7.0 0.00 0.04 0.04 95 1014.4
20260510035514 73 192 2.6 6.1 0.00 0.04 0.04 95 1014.4
20260510035509 73 194 2.6 4.3 0.00 0.04 0.04 95 1014.4
20260510035503 73 190 2.6 5.2 0.00 0.04 0.04 96 1014.3
20260510035217 74 315 0.9 4.3 0.00 0.02 0.02 94 1013.0
20260510035213 73 247 1.7 4.3 0.02 0.04 0.04 95 1013.4
20260510035207 73 303 0.9 3.5 0.02 0.04 0.04 95 1012.9
20260510035202 73 321 1.7 4.3 0.02 0.04 0.04 95 1013.0
20260510035156 73 304 0.9 2.6 0.02 0.04 0.04 95 1012.8
20260510035151 72 292 0.0 0.0 0.00 0.04 0.04 96 1012.8
20260510035145 73 194 4.3 6.1 0.00 0.04 0.04 95 1014.4
20260510035016 72 304 0.9 2.6 0.01 0.04 0.04 96 1012.7
20260510035011 72 309 0.0 1.7 0.00 0.04 0.04 96 1012.7
20260510035005 72 292 0.0 0.0 0.00 0.04 0.04 96 1012.9
20260510035001 72 292 0.0 0.0 0.00 0.04 0.04 96 1013.0
20260510034956 73 104 3.5 5.2 0.00 0.04 0.04 96 1013.5
20260510034950 72 98 0.9 5.2 0.00 0.04 0.04 96 1013.0
20260510034945 73 104 0.9 3.5 0.00 0.04 0.04 96 1013.6
20260510034939 73 107 3.5 5.2 0.00 0.04 0.04 96 1013.5
20260510034933 74 177 5.2 7.0 0.00 0.04 0.04 96 1013.7
20260510034929 74 203 4.3 7.0 0.00 0.04 0.04 96 1014.0
20260510034922 74 184 3.5 6.1 0.00 0.04 0.04 96 1014.0
20260510034917 73 192 2.6 6.1 0.00 0.04 0.04 95 1014.4
20260510034911 73 194 2.6 4.3 0.00 0.04 0.04 95 1014.4
20260510034907 73 190 2.6 5.2 0.00 0.04 0.04 96 1014.3
20260510034741 73 200 4.3 7.0 0.00 0.04 0.04 95 1014.4
20260510034614 72 292 0.0 0.0 0.00 0.04 0.04 96 1012.8
20260510034449 73 348 1.7 4.3 0.01 0.03 0.03 95 1013.1
20260510034444 73 192 2.6 6.1 0.00 0.04 0.04 95 1014.4
20260510034439 74 343 0.9 3.5 0.00 0.02 0.02 94 1013.2
20260510034434 73 247 1.7 4.3 0.02 0.04 0.04 95 1013.4
20260510034429 73 303 0.9 3.5 0.02 0.04 0.04 95 1012.9
20260510034424 73 321 1.7 4.3 0.02 0.04 0.04 95 1013.0
20260510034416 73 304 0.9 2.6 0.02 0.04 0.04 95 1012.8
20260510034411 73 194 2.6 4.3 0.00 0.04 0.04 95 1014.4
20260510034246 72 304 0.9 2.6 0.01 0.04 0.04 96 1012.7
20260510034241 73 190 2.6 5.2 0.00 0.04 0.04 96 1014.3
20260510034235 72 309 0.0 1.7 0.00 0.04 0.04 96 1012.7
20260510034230 72 98 0.9 5.2 0.00 0.04 0.04 96 1013.0
20260510034225 72 292 0.0 0.0 0.00 0.04 0.04 96 1013.0
20260510034217 73 104 0.9 3.5 0.00 0.04 0.04 96 1013.6
20260510034212 73 107 3.5 5.2 0.00 0.04 0.04 96 1013.5
20260510034207 73 104 3.5 5.2 0.00 0.04 0.04 96 1013.5
20260510034202 74 177 5.2 7.0 0.00 0.04 0.04 96 1013.7
20260510034158 74 203 4.3 7.0 0.00 0.04 0.04 96 1014.0
20260510034152 74 184 3.5 6.1 0.00 0.04 0.04 96 1014.0
20260510034146 74 200 4.3 7.0 0.00 0.04 0.04 95 1014.3
20260510034141 73 200 4.3 7.0 0.00 0.04 0.04 95 1014.4
20260510034135 73 194 4.3 6.1 0.00 0.04 0.04 95 1014.4
20260510034009 72 292 0.0 0.0 0.00 0.04 0.04 96 1012.8
20260510034003 73 192 2.6 6.1 0.00 0.04 0.04 95 1014.4
20260510033716 72 98 0.9 5.2 0.00 0.04 0.04 96 1013.0
20260510033709 73 104 0.9 3.5 0.00 0.04 0.04 96 1013.6
20260510033705 74 343 2.6 6.1 0.00 0.02 0.02 94 1013.0
20260510033700 72 292 0.0 0.0 0.00 0.04 0.04 96 1013.0
20260510033654 73 107 3.5 5.2 0.00 0.04 0.04 96 1013.5
20260510033649 74 327 2.6 7.8 0.00 0.02 0.02 94 1013.0
20260510033643 74 315 0.9 4.3 0.00 0.02 0.02 94 1013.0
20260510033638 74 177 5.2 7.0 0.00 0.04 0.04 96 1013.7
20260510033632 73 348 1.7 4.3 0.01 0.03 0.03 95 1013.1
20260510033628 74 203 4.3 7.0 0.00 0.04 0.04 96 1014.0
20260510033623 74 184 3.5 6.1 0.00 0.04 0.04 96 1014.0
20260510033617 74 200 4.3 7.0 0.00 0.04 0.04 95 1014.3
20260510033610 73 200 4.3 7.0 0.00 0.04 0.04 95 1014.4
20260510033606 73 194 4.3 6.1 0.00 0.04 0.04 95 1014.4
20260510033438 73 247 1.7 4.3 0.02 0.04 0.04 95 1013.4
20260510033433 73 303 0.9 3.5 0.02 0.04 0.04 95 1012.9
20260510033427 73 321 1.7 4.3 0.02 0.04 0.04 95 1013.0
20260510033423 73 304 0.9 2.6 0.02 0.04 0.04 95 1012.8
20260510033418 72 304 1.7 2.6 0.02 0.04 0.04 95 1012.6
20260510033412 72 304 0.9 2.6 0.01 0.04 0.04 96 1012.7
20260510033405 73 192 2.6 6.1 0.00 0.04 0.04 95 1014.4
20260510033359 72 309 0.0 1.7 0.00 0.04 0.04 96 1012.7
20260510033339 73 194 2.6 4.3 0.00 0.04 0.04 95 1014.4
20260510033228 72 292 0.0 0.0 0.00 0.04 0.04 96 1012.8
20260510033222 72 292 0.0 0.0 0.00 0.04 0.04 96 1013.0
20260510033218 73 104 3.5 5.2 0.00 0.04 0.04 96 1013.5
20260510033212 72 98 0.9 5.2 0.00 0.04 0.04 96 1013.0
20260510033205 73 104 0.9 3.5 0.00 0.04 0.04 96 1013.6
20260510033159 73 107 3.5 5.2 0.00 0.04 0.04 96 1013.5
20260510033154 74 177 5.2 7.0 0.00 0.04 0.04 96 1013.7
20260510033149 74 203 4.3 7.0 0.00 0.04 0.04 96 1014.0
20260510033025 74 200 4.3 7.0 0.00 0.04 0.04 95 1014.3
20260510033019 73 200 4.3 7.0 0.00 0.04 0.04 95 1014.4
20260510033014 73 194 4.3 6.1 0.00 0.04 0.04 95 1014.4
20260510032728 74 327 1.7 6.1 0.00 0.02 0.02 94 1013.1
20260510032723 74 315 0.9 4.3 0.00 0.02 0.02 94 1013.0
20260510032717 73 348 1.7 4.3 0.01 0.03 0.03 95 1013.1
20260510032713 74 343 0.9 3.5 0.00 0.02 0.02 94 1013.2
20260510032545 73 303 0.9 3.5 0.02 0.04 0.04 95 1012.9
20260510032540 73 321 1.7 4.3 0.02 0.04 0.04 95 1013.0
20260510032535 73 304 0.9 2.6 0.02 0.04 0.04 95 1012.8
20260510032530 72 304 1.7 2.6 0.02 0.04 0.04 95 1012.6
20260510032525 72 304 0.9 2.6 0.01 0.04 0.04 96 1012.7
20260510032520 73 104 3.5 5.2 0.00 0.04 0.04 96 1013.5
20260510032515 72 98 0.9 5.2 0.00 0.04 0.04 96 1013.0
20260510032510 74 200 4.3 7.0 0.00 0.04 0.04 95 1014.3
20260510032344 73 104 0.9 3.5 0.00 0.04 0.04 96 1013.6
20260510032338 72 292 0.0 0.0 0.00 0.04 0.04 96 1012.9
20260510032333 72 292 0.0 0.0 0.00 0.04 0.04 96 1012.8
20260510032328 72 292 0.0 0.0 0.00 0.04 0.04 96 1013.0
20260510032323 73 107 3.5 5.2 0.00 0.04 0.04 96 1013.5
20260510032317 74 177 5.2 7.0 0.00 0.04 0.04 96 1013.7
20260510032313 74 203 4.3 7.0 0.00 0.04 0.04 96 1014.0
20260510032308 74 184 3.5 6.1 0.00 0.04 0.04 96 1014.0
20260510032305 73 194 4.3 6.1 0.00 0.04 0.04 95 1014.4
20260510032256 73 200 4.3 7.0 0.00 0.04 0.04 95 1014.4
20260510032248 73 192 2.6 6.1 0.00 0.04 0.04 95 1014.4
20260510032123 74 315 0.9 4.3 0.00 0.02 0.02 94 1013.0
20260510032118 73 348 1.7 4.3 0.01 0.03 0.03 95 1013.1
20260510031950 73 247 1.7 4.3 0.02 0.04 0.04 95 1013.4
20260510031944 73 104 3.5 5.2 0.00 0.04 0.04 96 1013.5
20260510031940 73 321 1.7 4.3 0.02 0.04 0.04 95 1013.0
20260510031935 67 67 6.1 9.6 0.00 0.27 0.00 82 1018.3
20260510031929 74 200 4.3 7.0 0.00 0.04 0.04 95 1014.3
20260510031925 67 72 7.0 9.6 0.00 0.27 0.00 81 1018.3
20260510031919 72 98 0.9 5.2 0.00 0.04 0.04 96 1013.0
20260510031914 73 303 0.9 3.5 0.02 0.04 0.04 95 1012.9
20260510031908 73 304 0.9 2.6 0.02 0.04 0.04 95 1012.8
20260510031903 67 80 5.2 7.0 0.00 0.27 0.00 81 1018.2
20260510031858 73 104 0.9 3.5 0.00 0.04 0.04 96 1013.6
20260510031850 67 73 6.1 9.6 0.00 0.27 0.00 80 1018.1
20260510031846 67 70 6.1 9.6 0.00 0.27 0.00 81 1018.2
20260510031841 67 69 7.0 9.6 0.00 0.27 0.27 79 1018.3
20260510031835 67 71 7.8 11.3 0.00 0.27 0.27 81 1018.1
20260510031831 67 74 7.8 11.3 0.00 0.27 0.27 79 1018.1
20260510031826 67 71 7.8 10.4 0.00 0.27 0.27 79 1018.2
20260510031820 67 75 7.0 9.6 0.00 0.27 0.27 79 1018.2
20260510031815 75 338 0.9 3.5 0.01 0.02 0.02 93 1012.8
20260510031809 75 292 0.9 3.5 0.01 0.03 0.02 93 1012.9
20260510031804 72 304 1.7 2.6 0.02 0.04 0.04 95 1012.6
20260510031758 75 306 1.7 4.3 0.01 0.13 0.02 92 1012.7
20260510031751 72 304 0.9 2.6 0.01 0.04 0.04 96 1012.7
20260510031747 72 309 0.0 1.7 0.00 0.04 0.04 96 1012.7
20260510031741 72 292 0.0 0.0 0.00 0.04 0.04 96 1012.9
20260510031736 73 194 4.3 6.1 0.00 0.04 0.04 95 1014.4
20260510031732 72 292 0.0 0.0 0.00 0.04 0.04 96 1012.8
20260510031726 72 292 0.0 0.0 0.00 0.04 0.04 96 1013.0
20260510031721 74 177 5.2 7.0 0.00 0.04 0.04 96 1013.7
20260510031716 73 107 3.5 5.2 0.00 0.04 0.04 96 1013.5
20260510031711 73 200 4.3 7.0 0.00 0.04 0.04 95 1014.4
20260510031705 74 184 3.5 6.1 0.00 0.04 0.04 96 1014.0
20260510031700 74 203 4.3 7.0 0.00 0.04 0.04 96 1014.0
20260510031531 74 36 1.7 6.1 0.01 0.02 0.02 94 1012.7
20260510031525 74 343 2.6 6.1 0.00 0.02 0.02 94 1013.0
20260510031519 74 327 2.6 7.8 0.00 0.02 0.02 94 1013.0
20260510031515 74 327 3.5 7.8 0.00 0.02 0.02 94 1012.7
20260510031510 74 327 1.7 6.1 0.00 0.02 0.02 94 1013.1
20260510031504 73 104 3.5 5.2 0.00 0.04 0.04 96 1013.5
20260510031459 74 315 0.9 4.3 0.00 0.02 0.02 94 1013.0
20260510031453 73 348 1.7 4.3 0.01 0.03 0.03 95 1013.1
20260510031449 74 343 0.9 3.5 0.00 0.02 0.02 94 1013.2
20260510031442 74 200 4.3 7.0 0.00 0.04 0.04 95 1014.3
20260510031437 73 247 1.7 4.3 0.02 0.04 0.04 95 1013.4
20260510031431 72 98 0.9 5.2 0.00 0.04 0.04 96 1013.0
20260510031427 73 303 0.9 3.5 0.02 0.04 0.04 95 1012.9
20260510031421 73 321 1.7 4.3 0.02 0.04 0.04 95 1013.0
20260510031416 73 304 0.9 2.6 0.02 0.04 0.04 95 1012.8
20260510031410 73 104 0.9 3.5 0.00 0.04 0.04 96 1013.6
20260510031243 73 194 4.3 6.1 0.00 0.04 0.04 95 1014.4
20260510031237 72 304 0.9 2.6 0.01 0.04 0.04 96 1012.7
20260510031233 72 309 0.0 1.7 0.00 0.04 0.04 96 1012.7
20260510031227 73 200 4.3 7.0 0.00 0.04 0.04 95 1014.4
20260510031222 72 292 0.0 0.0 0.00 0.04 0.04 96 1012.9
20260510031218 72 292 0.0 0.0 0.00 0.04 0.04 96 1012.8
20260510031212 72 292 0.0 0.0 0.00 0.04 0.04 96 1013.0
20260510031207 73 107 3.5 5.2 0.00 0.04 0.04 96 1013.5
20260510031203 74 177 5.2 7.0 0.00 0.04 0.04 96 1013.7
20260510031157 74 203 4.3 7.0 0.00 0.04 0.04 96 1014.0
20260510031152 74 184 3.5 6.1 0.00 0.04 0.04 96 1014.0
20260510031026 67 0 7.0 10.4 0.00 0.27 0.27 78 1018.3
20260510031020 67 71 7.0 9.6 0.00 0.27 0.27 77 1018.4
20260510031014 67 85 6.1 9.6 0.00 0.27 0.27 77 1018.2
20260510031009 76 355 1.7 6.1 0.01 0.15 0.02 91 1012.7
20260510031005 76 350 2.6 6.1 0.00 0.15 0.01 90 1012.6
20260510030959 75 338 0.9 3.5 0.01 0.02 0.02 93 1012.8
20260510030954 75 292 0.9 3.5 0.01 0.03 0.02 93 1012.9
20260510030949 73 104 3.5 5.2 0.00 0.04 0.04 96 1013.5
20260510030941 74 200 4.3 7.0 0.00 0.04 0.04 95 1014.3
20260510030937 72 98 0.9 5.2 0.00 0.04 0.04 96 1013.0
20260510030812 74 340 0.9 3.5 0.01 0.02 0.02 94 1012.7
20260510030806 74 36 1.7 6.1 0.01 0.02 0.02 94 1012.7
20260510030802 74 343 2.6 6.1 0.00 0.02 0.02 94 1013.0
20260510030756 73 104 0.9 3.5 0.00 0.04 0.04 96 1013.6
20260510030751 74 327 2.6 7.8 0.00 0.02 0.02 94 1013.0
20260510030747 73 200 4.3 7.0 0.00 0.04 0.04 95 1014.4
20260510030741 74 327 3.5 7.8 0.00 0.02 0.02 94 1012.7
20260510030734 74 327 1.7 6.1 0.00 0.02 0.02 94 1013.1
20260510030729 74 315 0.9 4.3 0.00 0.02 0.02 94 1013.0
20260510030723 73 348 1.7 4.3 0.01 0.03 0.03 95 1013.1
20260510030719 74 343 0.9 3.5 0.00 0.02 0.02 94 1013.2
20260510030713 73 247 1.7 4.3 0.02 0.04 0.04 95 1013.4
20260510030709 73 303 0.9 3.5 0.02 0.04 0.04 95 1012.9
20260510030704 73 321 1.7 4.3 0.02 0.04 0.04 95 1013.0
20260510030658 73 304 0.9 2.6 0.02 0.04 0.04 95 1012.8
20260510030653 73 107 3.5 5.2 0.00 0.04 0.04 96 1013.5
20260510030649 72 304 1.7 2.6 0.02 0.04 0.04 95 1012.6
20260510030643 72 304 0.9 2.6 0.01 0.04 0.04 96 1012.7
20260510030636 72 309 0.0 1.7 0.00 0.04 0.04 96 1012.7
20260510030630 72 292 0.0 0.0 0.00 0.04 0.04 96 1012.9
20260510030625 72 292 0.0 0.0 0.00 0.04 0.04 96 1012.8
20260510030619 72 292 0.0 0.0 0.00 0.04 0.04 96 1013.0
20260510030614 74 177 5.2 7.0 0.00 0.04 0.04 96 1013.7
20260510030608 74 203 4.3 7.0 0.00 0.04 0.04 96 1014.0
20260510030603 74 184 3.5 6.1 0.00 0.04 0.04 96 1014.0
20260510030439 74 200 4.3 7.0 0.00 0.04 0.04 95 1014.3
20260510030312 73 104 0.9 3.5 0.00 0.04 0.04 96 1013.6
20260510030301 73 200 4.3 7.0 0.00 0.04 0.04 95 1014.4
20260510030018 74 184 3.5 6.1 0.00 0.04 0.04 96 1014.0
20260510030013 74 203 4.3 7.0 0.00 0.04 0.04 96 1014.0
20260510025847 74 200 4.3 7.0 0.00 0.04 0.04 95 1014.3
20260510025720 75 292 0.9 3.5 0.01 0.03 0.02 93 1012.9
20260510025714 73 104 0.9 3.5 0.00 0.04 0.04 96 1013.6
20260510025710 74 340 0.9 3.5 0.01 0.02 0.02 94 1012.7
20260510025705 74 36 1.7 6.1 0.01 0.02 0.02 94 1012.7
20260510025659 73 104 3.5 5.2 0.00 0.04 0.04 96 1013.5
20260510025655 74 343 2.6 6.1 0.00 0.02 0.02 94 1013.0
20260510025649 74 327 2.6 7.8 0.00 0.02 0.02 94 1013.0
20260510025644 74 327 3.5 7.8 0.00 0.02 0.02 94 1012.7
20260510025639 74 327 1.7 6.1 0.00 0.02 0.02 94 1013.1
20260510025634 74 315 0.9 4.3 0.00 0.02 0.02 94 1013.0
20260510025629 73 348 1.7 4.3 0.01 0.03 0.03 95 1013.1
20260510025621 74 343 0.9 3.5 0.00 0.02 0.02 94 1013.2
20260510025616 73 247 1.7 4.3 0.02 0.04 0.04 95 1013.4
20260510025611 73 303 0.9 3.5 0.02 0.04 0.04 95 1012.9
20260510025606 73 107 3.5 5.2 0.00 0.04 0.04 96 1013.5
20260510025600 73 321 1.7 4.3 0.02 0.04 0.04 95 1013.0
20260510025555 72 292 0.0 0.0 0.00 0.04 0.04 96 1013.0
20260510025549 73 304 0.9 2.6 0.02 0.04 0.04 95 1012.8
20260510025545 72 309 0.0 1.7 0.00 0.04 0.04 96 1012.7
20260510025540 72 292 0.0 0.0 0.00 0.04 0.04 96 1012.9
20260510025534 72 292 0.0 0.0 0.00 0.04 0.04 96 1012.8
20260510025529 72 98 0.9 5.2 0.00 0.04 0.04 96 1013.0
20260510025523 74 177 5.2 7.0 0.00 0.04 0.04 96 1013.7
20260510025516 74 203 4.3 7.0 0.00 0.04 0.04 96 1014.0
20260510025510 74 184 3.5 6.1 0.00 0.04 0.04 96 1014.0
20260510025224 72 304 0.9 2.6 0.01 0.04 0.04 96 1012.7
20260510025218 73 104 3.5 5.2 0.00 0.04 0.04 96 1013.5
20260510025211 73 104 0.9 3.5 0.00 0.04 0.04 96 1013.6
20260510025044 72 309 0.0 1.7 0.00 0.04 0.04 96 1012.7
20260510025039 72 292 0.0 0.0 0.00 0.04 0.04 96 1012.9
20260510025034 72 292 0.0 0.0 0.00 0.04 0.04 96 1012.8
20260510025030 72 292 0.0 0.0 0.00 0.04 0.04 96 1013.0
20260510025024 72 98 0.9 5.2 0.00 0.04 0.04 96 1013.0
20260510025018 74 177 5.2 7.0 0.00 0.04 0.04 96 1013.7
20260510025012 74 203 4.3 7.0 0.00 0.04 0.04 96 1014.0
20260510024725 73 104 0.9 3.5 0.00 0.04 0.04 96 1013.6
20260510024438 67 70 7.0 10.4 0.00 0.27 0.27 75 1018.0
20260510024432 68 74 7.0 10.4 0.00 0.27 0.27 75 1017.8
20260510024427 68 78 7.0 11.3 0.00 0.27 0.27 74 1017.7
20260510024422 68 77 7.0 11.3 0.00 0.27 0.27 74 1017.6
20260510024417 68 84 7.8 10.4 0.00 0.27 0.27 74 1017.4
20260510024412 68 0 7.8 12.2 0.00 0.27 0.27 73 1017.3
20260510024406 77 344 3.5 8.7 0.00 0.29 0.01 89 1012.5
20260510024359 76 355 1.7 6.1 0.01 0.15 0.02 91 1012.7
20260510024355 76 350 2.6 6.1 0.00 0.15 0.01 90 1012.6
20260510024349 75 338 0.9 3.5 0.01 0.02 0.02 93 1012.8
20260510024344 74 340 0.9 3.5 0.01 0.02 0.02 94 1012.7
20260510024338 74 36 1.7 6.1 0.01 0.02 0.02 94 1012.7
20260510024334 74 327 2.6 7.8 0.00 0.02 0.02 94 1013.0
20260510024328 73 247 1.7 4.3 0.02 0.04 0.04 95 1013.4
20260510024323 73 321 1.7 4.3 0.02 0.04 0.04 95 1013.0
20260510024319 74 177 5.2 7.0 0.00 0.04 0.04 96 1013.7
20260510024313 74 203 4.3 7.0 0.00 0.04 0.04 96 1014.0
20260510024307 74 343 2.6 6.1 0.00 0.02 0.02 94 1013.0
20260510024300 73 303 0.9 3.5 0.02 0.04 0.04 95 1012.9
20260510024255 73 304 0.9 2.6 0.02 0.04 0.04 95 1012.8
20260510024251 72 304 1.7 2.6 0.02 0.04 0.04 95 1012.6
20260510024245 72 309 0.0 1.7 0.00 0.04 0.04 96 1012.7
20260510024240 74 184 3.5 6.1 0.00 0.04 0.04 96 1014.0
20260510024236 72 304 0.9 2.6 0.01 0.04 0.04 96 1012.7
20260510024230 72 292 0.0 0.0 0.00 0.04 0.04 96 1012.9
20260510024225 72 292 0.0 0.0 0.00 0.04 0.04 96 1012.8
20260510024219 72 292 0.0 0.0 0.00 0.04 0.04 96 1013.0
20260510024214 72 98 0.9 5.2 0.00 0.04 0.04 96 1013.0
20260510024208 75 306 1.7 4.3 0.01 0.13 0.02 92 1012.7
20260510024042 73 104 0.9 3.5 0.00 0.04 0.04 96 1013.6
20260510024036 73 107 3.5 5.2 0.00 0.04 0.04 96 1013.5
20260510024030 73 104 3.5 5.2 0.00 0.04 0.04 96 1013.5
20260510024025 74 327 3.5 7.8 0.00 0.02 0.02 94 1012.7
20260510024019 74 327 1.7 6.1 0.00 0.02 0.02 94 1013.1
20260510024015 74 315 0.9 4.3 0.00 0.02 0.02 94 1013.0
20260510024010 73 348 1.7 4.3 0.01 0.03 0.03 95 1013.1
20260510024004 74 343 0.9 3.5 0.00 0.02 0.02 94 1013.2
20260510023838 74 177 5.2 7.0 0.00 0.04 0.04 96 1013.7
20260510023832 74 203 4.3 7.0 0.00 0.04 0.04 96 1014.0
20260510023827 74 340 0.9 3.5 0.01 0.02 0.02 94 1012.7
20260510023822 74 36 1.7 6.1 0.01 0.02 0.02 94 1012.7
20260510023816 74 343 2.6 6.1 0.00 0.02 0.02 94 1013.0
20260510023812 74 327 2.6 7.8 0.00 0.02 0.02 94 1013.0
20260510023807 73 247 1.7 4.3 0.02 0.04 0.04 95 1013.4
20260510023802 73 303 0.9 3.5 0.02 0.04 0.04 95 1012.9
20260510023754 73 321 1.7 4.3 0.02 0.04 0.04 95 1013.0
20260510023749 73 304 0.9 2.6 0.02 0.04 0.04 95 1012.8
20260510023744 72 304 1.7 2.6 0.02 0.04 0.04 95 1012.6
20260510023740 72 304 0.9 2.6 0.01 0.04 0.04 96 1012.7
20260510023734 72 309 0.0 1.7 0.00 0.04 0.04 96 1012.7
20260510023729 72 292 0.0 0.0 0.00 0.04 0.04 96 1012.9
20260510023723 72 292 0.0 0.0 0.00 0.04 0.04 96 1013.0
20260510023717 72 292 0.0 0.0 0.00 0.04 0.04 96 1012.8
20260510023713 72 98 0.9 5.2 0.00 0.04 0.04 96 1013.0
20260510023547 73 104 0.9 3.5 0.00 0.04 0.04 96 1013.6
20260510023541 73 107 3.5 5.2 0.00 0.04 0.04 96 1013.5
20260510023416 74 327 1.7 6.1 0.00 0.02 0.02 94 1013.1
20260510023411 74 315 0.9 4.3 0.00 0.02 0.02 94 1013.0
20260510023405 73 348 1.7 4.3 0.01 0.03 0.03 95 1013.1
20260510023401 74 343 0.9 3.5 0.00 0.02 0.02 94 1013.2
20260510023356 74 177 5.2 7.0 0.00 0.04 0.04 96 1013.7
20260510023335 74 203 4.3 7.0 0.00 0.04 0.04 96 1014.0
20260510023223 72 292 0.0 0.0 0.00 0.04 0.04 96 1013.0
20260510023217 68 85 8.7 12.2 0.00 0.27 0.27 73 1017.1
20260510023212 73 321 1.7 4.3 0.02 0.04 0.04 95 1013.0
20260510023207 73 303 0.9 3.5 0.02 0.04 0.04 95 1012.9
20260510023202 69 91 8.7 11.3 0.00 0.27 0.27 72 1017.1
20260510023156 69 86 8.7 12.2 0.00 0.27 0.27 71 1017.1
20260510023149 69 0 7.8 12.2 0.00 0.27 0.27 71 1017.1
20260510023144 69 0 9.6 12.2 0.00 0.27 0.27 70 1017.1
20260510023138 69 0 10.4 13.0 0.00 0.27 0.27 70 1017.0
20260510023133 70 76 10.4 13.9 0.00 0.27 0.27 70 1017.0
20260510023127 70 80 10.4 15.6 0.00 0.27 0.27 69 1017.1
20260510023123 70 91 11.3 15.6 0.00 0.27 0.27 70 1017.1
20260510023118 78 10 3.5 8.7 0.00 0.29 0.01 89 1012.3
20260510023112 77 344 3.5 8.7 0.00 0.29 0.01 89 1012.5
20260510023106 73 304 0.9 2.6 0.02 0.04 0.04 95 1012.8
20260510023101 72 309 0.0 1.7 0.00 0.04 0.04 96 1012.7
20260510023055 76 355 1.7 6.1 0.01 0.15 0.02 91 1012.7
20260510023048 72 304 1.7 2.6 0.02 0.04 0.04 95 1012.6
20260510023044 72 304 0.9 2.6 0.01 0.04 0.04 96 1012.7
20260510023039 72 292 0.0 0.0 0.00 0.04 0.04 96 1012.9
20260510023033 72 292 0.0 0.0 0.00 0.04 0.04 96 1012.8
20260510023028 72 98 0.9 5.2 0.00 0.04 0.04 96 1013.0
20260510023022 73 104 0.9 3.5 0.00 0.04 0.04 96 1013.6
20260510023017 73 104 3.5 5.2 0.00 0.04 0.04 96 1013.5
20260510023011 76 350 2.6 6.1 0.00 0.15 0.01 90 1012.6
20260510023007 75 306 1.7 4.3 0.01 0.13 0.02 92 1012.7
20260510023002 73 107 3.5 5.2 0.00 0.04 0.04 96 1013.5
20260510022835 75 338 0.9 3.5 0.01 0.02 0.02 93 1012.8
20260510022830 74 340 0.9 3.5 0.01 0.02 0.02 94 1012.7
20260510022826 74 36 1.7 6.1 0.01 0.02 0.02 94 1012.7
20260510022820 74 177 5.2 7.0 0.00 0.04 0.04 96 1013.7
20260510022815 74 343 2.6 6.1 0.00 0.02 0.02 94 1013.0
20260510022809 74 327 2.6 7.8 0.00 0.02 0.02 94 1013.0
20260510022803 74 327 3.5 7.8 0.00 0.02 0.02 94 1012.7
20260510022759 74 327 1.7 6.1 0.00 0.02 0.02 94 1013.1
20260510022754 74 315 0.9 4.3 0.00 0.02 0.02 94 1013.0
20260510022749 73 348 1.7 4.3 0.01 0.03 0.03 95 1013.1
20260510022740 74 343 0.9 3.5 0.00 0.02 0.02 94 1013.2
20260510022735 73 247 1.7 4.3 0.02 0.04 0.04 95 1013.4
20260510022731 72 292 0.0 0.0 0.00 0.04 0.04 96 1013.0
20260510022725 73 303 0.9 3.5 0.02 0.04 0.04 95 1012.9
20260510022720 73 321 1.7 4.3 0.02 0.04 0.04 95 1013.0
20260510022553 72 304 1.7 2.6 0.02 0.04 0.04 95 1012.6
20260510022548 72 304 0.9 2.6 0.01 0.04 0.04 96 1012.7
20260510022541 72 309 0.0 1.7 0.00 0.04 0.04 96 1012.7
20260510022536 72 292 0.0 0.0 0.00 0.04 0.04 96 1012.9
20260510022530 72 292 0.0 0.0 0.00 0.04 0.04 96 1012.8
20260510022524 72 98 0.9 5.2 0.00 0.04 0.04 96 1013.0
20260510022519 73 104 3.5 5.2 0.00 0.04 0.04 96 1013.5
20260510022514 73 104 0.9 3.5 0.00 0.04 0.04 96 1013.6
20260510022509 73 107 3.5 5.2 0.00 0.04 0.04 96 1013.5
20260510022059 74 327 2.6 7.8 0.00 0.02 0.02 94 1013.0
20260510022054 74 327 1.7 6.1 0.00 0.02 0.02 94 1013.1
20260510022049 74 315 0.9 4.3 0.00 0.02 0.02 94 1013.0
20260510022044 73 303 0.9 3.5 0.02 0.04 0.04 95 1012.9
20260510022040 73 348 1.7 4.3 0.01 0.03 0.03 95 1013.1
20260510021911 73 247 1.7 4.3 0.02 0.04 0.04 95 1013.4
20260510021905 73 304 0.9 2.6 0.02 0.04 0.04 95 1012.8
20260510021900 72 304 1.7 2.6 0.02 0.04 0.04 95 1012.6
20260510021854 72 304 0.9 2.6 0.01 0.04 0.04 96 1012.7
20260510021849 73 104 3.5 5.2 0.00 0.04 0.04 96 1013.5
20260510021843 72 309 0.0 1.7 0.00 0.04 0.04 96 1012.7
20260510021839 73 104 0.9 3.5 0.00 0.04 0.04 96 1013.6
20260510021831 72 292 0.0 0.0 0.00 0.04 0.04 96 1012.9
20260510021827 73 107 3.5 5.2 0.00 0.04 0.04 96 1013.5
20260510021821 72 292 0.0 0.0 0.00 0.04 0.04 96 1012.8
20260510021816 72 98 0.9 5.2 0.00 0.04 0.04 96 1013.0
20260510021650 72 292 0.0 0.0 0.00 0.04 0.04 96 1013.0
20260510021400 73 104 3.5 5.2 0.00 0.04 0.04 96 1013.5
20260510021355 73 104 0.9 3.5 0.00 0.04 0.04 96 1013.6
20260510021337 73 107 3.5 5.2 0.00 0.04 0.04 96 1013.5
20260510021223 72 304 0.9 2.6 0.01 0.04 0.04 96 1012.7
20260510021219 72 309 0.0 1.7 0.00 0.04 0.04 96 1012.7
20260510021213 72 292 0.0 0.0 0.00 0.04 0.04 96 1012.9
20260510021208 72 292 0.0 0.0 0.00 0.04 0.04 96 1012.8
20260510021203 72 98 0.9 5.2 0.00 0.04 0.04 96 1013.0
20260510020915 73 348 1.7 4.3 0.01 0.03 0.03 95 1013.1
20260510020910 74 343 0.9 3.5 0.00 0.02 0.02 94 1013.2
20260510020904 73 321 1.7 4.3 0.02 0.04 0.04 95 1013.0
20260510020859 73 247 1.7 4.3 0.02 0.04 0.04 95 1013.4
20260510020853 73 104 3.5 5.2 0.00 0.04 0.04 96 1013.5
20260510020848 73 303 0.9 3.5 0.02 0.04 0.04 95 1012.9
20260510020843 73 104 0.9 3.5 0.00 0.04 0.04 96 1013.6
20260510020716 72 304 1.7 2.6 0.02 0.04 0.04 95 1012.6
20260510020712 72 309 0.0 1.7 0.00 0.04 0.04 96 1012.7
20260510020549 74 315 0.9 4.3 0.00 0.02 0.02 94 1013.0
20260510020544 72 292 0.0 0.0 0.00 0.04 0.04 96 1012.9
20260510020538 72 304 0.9 2.6 0.01 0.04 0.04 96 1012.7
20260510020532 72 292 0.0 0.0 0.00 0.04 0.04 96 1012.8
20260510020527 72 292 0.0 0.0 0.00 0.04 0.04 96 1013.0
20260510020522 72 98 0.9 5.2 0.00 0.04 0.04 96 1013.0
20260510020355 74 343 0.9 3.5 0.00 0.02 0.02 94 1013.2
20260510020350 73 247 1.7 4.3 0.02 0.04 0.04 95 1013.4
20260510020344 73 321 1.7 4.3 0.02 0.04 0.04 95 1013.0
20260510020340 73 303 0.9 3.5 0.02 0.04 0.04 95 1012.9
20260510020334 73 104 3.5 5.2 0.00 0.04 0.04 96 1013.5
20260510020319 73 104 0.9 3.5 0.00 0.04 0.04 96 1013.6
20260510020204 72 304 1.7 2.6 0.02 0.04 0.04 95 1012.6
20260510020158 72 309 0.0 1.7 0.00 0.04 0.04 96 1012.7
20260510020033 72 292 0.0 0.0 0.00 0.04 0.04 96 1012.9
20260510020028 72 292 0.0 0.0 0.00 0.04 0.04 96 1012.8
20260510020023 72 292 0.0 0.0 0.00 0.04 0.04 96 1013.0
20260510020017 72 98 0.9 5.2 0.00 0.04 0.04 96 1013.0
20260510015848 78 355 2.6 7.0 0.00 0.29 0.01 89 1012.4
20260510015843 79 355 2.6 7.0 0.00 0.29 0.01 89 1012.4
20260510015837 79 9 1.7 6.1 0.00 0.29 0.01 90 1012.3
20260510015833 78 250 3.5 6.1 0.00 0.29 0.01 91 1012.2
20260510015828 78 288 0.9 3.5 0.00 0.29 0.01 91 1012.3
20260510015822 78 244 0.9 4.3 0.00 0.29 0.01 90 1012.4
20260510015818 78 10 3.5 8.7 0.00 0.29 0.01 89 1012.3
20260510015813 77 344 3.5 8.7 0.00 0.29 0.01 89 1012.5
20260510015806 73 104 3.5 5.2 0.00 0.04 0.04 96 1013.5
20260510015800 76 355 1.7 6.1 0.01 0.15 0.02 91 1012.7
20260510015755 75 292 0.9 3.5 0.01 0.03 0.02 93 1012.9
20260510015750 75 338 0.9 3.5 0.01 0.02 0.02 93 1012.8
20260510015745 74 340 0.9 3.5 0.01 0.02 0.02 94 1012.7
20260510015739 74 36 1.7 6.1 0.01 0.02 0.02 94 1012.7
20260510015734 74 327 3.5 7.8 0.00 0.02 0.02 94 1012.7
20260510015728 74 327 2.6 7.8 0.00 0.02 0.02 94 1013.0
20260510015724 74 343 2.6 6.1 0.00 0.02 0.02 94 1013.0
20260510015720 74 327 1.7 6.1 0.00 0.02 0.02 94 1013.1
20260510015714 74 315 0.9 4.3 0.00 0.02 0.02 94 1013.0
20260510015709 73 348 1.7 4.3 0.01 0.03 0.03 95 1013.1
20260510015702 73 247 1.7 4.3 0.02 0.04 0.04 95 1013.4
20260510015656 73 303 0.9 3.5 0.02 0.04 0.04 95 1012.9
20260510015652 73 304 0.9 2.6 0.02 0.04 0.04 95 1012.8
20260510015646 72 304 1.7 2.6 0.02 0.04 0.04 95 1012.6
20260510015641 72 309 0.0 1.7 0.00 0.04 0.04 96 1012.7
20260510015517 75 306 1.7 4.3 0.01 0.13 0.02 92 1012.7
20260510015512 74 343 0.9 3.5 0.00 0.02 0.02 94 1013.2
20260510015505 73 321 1.7 4.3 0.02 0.04 0.04 95 1013.0
20260510015459 72 304 0.9 2.6 0.01 0.04 0.04 96 1012.7
20260510015454 72 292 0.0 0.0 0.00 0.04 0.04 96 1012.9
20260510015450 72 292 0.0 0.0 0.00 0.04 0.04 96 1012.8
20260510015444 72 292 0.0 0.0 0.00 0.04 0.04 96 1013.0
20260510015438 72 98 0.9 5.2 0.00 0.04 0.04 96 1013.0
20260510015150 75 338 0.9 3.5 0.01 0.02 0.02 93 1012.8
20260510015146 74 340 0.9 3.5 0.01 0.02 0.02 94 1012.7
20260510015141 74 36 1.7 6.1 0.01 0.02 0.02 94 1012.7
20260510015135 74 327 3.5 7.8 0.00 0.02 0.02 94 1012.7
20260510015131 74 327 2.6 7.8 0.00 0.02 0.02 94 1013.0
20260510015126 74 343 2.6 6.1 0.00 0.02 0.02 94 1013.0
20260510015120 74 327 1.7 6.1 0.00 0.02 0.02 94 1013.1
20260510015114 74 315 0.9 4.3 0.00 0.02 0.02 94 1013.0
20260510015108 73 348 1.7 4.3 0.01 0.03 0.03 95 1013.1
20260510015101 73 303 0.9 3.5 0.02 0.04 0.04 95 1012.9
20260510015055 72 304 1.7 2.6 0.02 0.04 0.04 95 1012.6
20260510015051 73 304 0.9 2.6 0.02 0.04 0.04 95 1012.8
20260510015046 72 309 0.0 1.7 0.00 0.04 0.04 96 1012.7
20260510015040 73 247 1.7 4.3 0.02 0.04 0.04 95 1013.4
20260510014914 72 292 0.0 0.0 0.00 0.04 0.04 96 1013.0
20260510014909 72 304 0.9 2.6 0.01 0.04 0.04 96 1012.7
20260510014904 72 292 0.0 0.0 0.00 0.04 0.04 96 1012.8
20260510014857 72 292 0.0 0.0 0.00 0.04 0.04 96 1012.9
20260510014853 72 98 0.9 5.2 0.00 0.04 0.04 96 1013.0
20260510014608 79 346 1.7 5.2 0.00 0.29 0.01 92 1012.3
20260510014603 73 303 0.9 3.5 0.02 0.04 0.04 95 1012.9
20260510014556 79 9 0.9 4.3 0.01 0.29 0.01 92 1012.2
20260510014550 72 304 1.7 2.6 0.02 0.04 0.04 95 1012.6
20260510014545 73 304 0.9 2.6 0.02 0.04 0.04 95 1012.8
20260510014539 79 97 0.0 3.5 0.01 0.29 0.01 92 1012.3
20260510014534 78 10 3.5 8.7 0.00 0.29 0.01 89 1012.3
20260510014530 72 309 0.0 1.7 0.00 0.04 0.04 96 1012.7
20260510014525 77 344 3.5 8.7 0.00 0.29 0.01 89 1012.5
20260510014520 76 355 1.7 6.1 0.01 0.15 0.02 91 1012.7
20260510014514 76 350 2.6 6.1 0.00 0.15 0.01 90 1012.6
20260510014510 75 306 1.7 4.3 0.01 0.13 0.02 92 1012.7
20260510014505 75 292 0.9 3.5 0.01 0.03 0.02 93 1012.9
20260510014459 75 338 0.9 3.5 0.01 0.02 0.02 93 1012.8
20260510014452 74 340 0.9 3.5 0.01 0.02 0.02 94 1012.7
20260510014447 74 36 1.7 6.1 0.01 0.02 0.02 94 1012.7
20260510014442 74 327 3.5 7.8 0.00 0.02 0.02 94 1012.7
20260510014437 74 327 2.6 7.8 0.00 0.02 0.02 94 1013.0
20260510014431 74 343 2.6 6.1 0.00 0.02 0.02 94 1013.0
20260510014427 73 348 1.7 4.3 0.01 0.03 0.03 95 1013.1
20260510014422 73 247 1.7 4.3 0.02 0.04 0.04 95 1013.4
20260510014416 72 292 0.0 0.0 0.00 0.04 0.04 96 1012.8
20260510014411 72 304 0.9 2.6 0.01 0.04 0.04 96 1012.7
20260510014405 72 292 0.0 0.0 0.00 0.04 0.04 96 1012.9
20260510014359 72 292 0.0 0.0 0.00 0.04 0.04 96 1013.0
20260510014233 72 98 0.9 5.2 0.00 0.04 0.04 96 1013.0
20260510014227 74 315 0.9 4.3 0.00 0.02 0.02 94 1013.0
20260510014222 74 343 0.9 3.5 0.00 0.02 0.02 94 1013.2
20260510014216 73 321 1.7 4.3 0.02 0.04 0.04 95 1013.0
20260510014050 73 304 0.9 2.6 0.02 0.04 0.04 95 1012.8
20260510014044 72 304 1.7 2.6 0.02 0.04 0.04 95 1012.6
20260510014039 72 309 0.0 1.7 0.00 0.04 0.04 96 1012.7
20260510013912 79 98 0.0 0.0 0.01 0.29 0.01 92 1012.3
20260510013906 72 292 0.0 0.0 0.00 0.04 0.04 96 1012.9
20260510013901 72 292 0.0 0.0 0.00 0.04 0.04 96 1012.8
20260510013856 79 98 0.0 1.7 0.01 0.29 0.01 91 1012.6
20260510013851 79 98 0.0 4.3 0.01 0.29 0.01 93 1012.2
20260510013844 79 98 2.6 4.3 0.01 0.29 0.01 91 1012.2
20260510013840 79 98 2.6 4.3 0.00 0.28 0.00 89 1012.3
20260510013834 80 98 2.6 4.3 0.00 0.28 0.00 87 1012.5
20260510013830 80 98 4.3 5.2 0.00 0.28 0.00 85 1012.6
20260510013825 82 98 4.3 6.1 0.00 0.28 0.00 84 1012.7
20260510013819 73 247 1.7 4.3 0.02 0.04 0.04 95 1013.4
20260510013814 72 304 0.9 2.6 0.01 0.04 0.04 96 1012.7
20260510013810 72 292 0.0 0.0 0.00 0.04 0.04 96 1013.0
20260510013643 83 96 4.3 6.1 0.00 0.28 0.00 82 1012.6
20260510013638 83 117 3.5 5.2 0.00 0.28 0.00 84 1012.7
20260510013632 82 117 4.3 5.2 0.00 0.28 0.00 85 1013.0
20260510013628 82 115 4.3 5.2 0.00 0.28 0.00 84 1012.8
20260510013622 74 340 0.9 3.5 0.01 0.02 0.02 94 1012.7
20260510013617 82 107 4.3 5.2 0.00 0.28 0.00 85 1012.7
20260510013611 81 90 3.5 5.2 0.00 0.28 0.00 85 1012.9
20260510013606 73 321 1.7 4.3 0.02 0.04 0.04 95 1013.0
20260510013600 72 309 0.0 1.7 0.00 0.04 0.04 96 1012.7
20260510013556 73 303 0.9 3.5 0.02 0.04 0.04 95 1012.9
20260510013550 73 304 0.9 2.6 0.02 0.04 0.04 95 1012.8
20260510013543 78 10 2.6 5.2 0.00 0.29 0.01 89 1012.4
20260510013538 78 10 3.5 8.7 0.00 0.29 0.01 89 1012.3
20260510013534 77 344 3.5 8.7 0.00 0.29 0.01 89 1012.5
20260510013528 76 355 1.7 6.1 0.01 0.15 0.02 91 1012.7
20260510013523 76 350 2.6 6.1 0.00 0.15 0.01 90 1012.6
20260510013518 75 306 1.7 4.3 0.01 0.13 0.02 92 1012.7
20260510013514 75 292 0.9 3.5 0.01 0.03 0.02 93 1012.9
20260510013508 75 338 0.9 3.5 0.01 0.02 0.02 93 1012.8
20260510013503 74 36 1.7 6.1 0.01 0.02 0.02 94 1012.7
20260510013457 72 304 1.7 2.6 0.02 0.04 0.04 95 1012.6
20260510013452 74 327 3.5 7.8 0.00 0.02 0.02 94 1012.7
20260510013446 74 327 2.6 7.8 0.00 0.02 0.02 94 1013.0
20260510013439 74 343 2.6 6.1 0.00 0.02 0.02 94 1013.0
20260510013435 74 327 1.7 6.1 0.00 0.02 0.02 94 1013.1
20260510013429 74 315 0.9 4.3 0.00 0.02 0.02 94 1013.0
20260510013425 72 292 0.0 0.0 0.00 0.04 0.04 96 1012.9
20260510013420 74 343 0.9 3.5 0.00 0.02 0.02 94 1013.2
20260510013414 73 348 1.7 4.3 0.01 0.03 0.03 95 1013.1
20260510013409 72 292 0.0 0.0 0.00 0.04 0.04 96 1012.8
20260510013245 72 304 0.9 2.6 0.01 0.04 0.04 96 1012.7
20260510013237 72 292 0.0 0.0 0.00 0.04 0.04 96 1013.0
20260510013114 73 321 1.7 4.3 0.02 0.04 0.04 95 1013.0
20260510013109 73 303 0.9 3.5 0.02 0.04 0.04 95 1012.9
20260510013104 73 304 0.9 2.6 0.02 0.04 0.04 95 1012.8
20260510013058 72 309 0.0 1.7 0.00 0.04 0.04 96 1012.7
20260510012931 72 304 1.7 2.6 0.02 0.04 0.04 95 1012.6
20260510012925 72 292 0.0 0.0 0.00 0.04 0.04 96 1012.9
20260510012801 76 355 1.7 6.1 0.01 0.15 0.02 91 1012.7
20260510012757 75 306 1.7 4.3 0.01 0.13 0.02 92 1012.7
20260510012752 75 292 0.9 3.5 0.01 0.03 0.02 93 1012.9
20260510012746 74 327 2.6 7.8 0.00 0.02 0.02 94 1013.0
20260510012742 74 343 2.6 6.1 0.00 0.02 0.02 94 1013.0
20260510012734 74 327 1.7 6.1 0.00 0.02 0.02 94 1013.1
20260510012729 74 315 0.9 4.3 0.00 0.02 0.02 94 1013.0
20260510012724 74 343 0.9 3.5 0.00 0.02 0.02 94 1013.2
20260510012718 73 348 1.7 4.3 0.01 0.03 0.03 95 1013.1
20260510012714 73 247 1.7 4.3 0.02 0.04 0.04 95 1013.4
20260510012709 72 304 0.9 2.6 0.01 0.04 0.04 96 1012.7
20260510012544 74 36 1.7 6.1 0.01 0.02 0.02 94 1012.7
20260510012538 74 340 0.9 3.5 0.01 0.02 0.02 94 1012.7
20260510012531 73 321 1.7 4.3 0.02 0.04 0.04 95 1013.0
20260510012527 73 303 0.9 3.5 0.02 0.04 0.04 95 1012.9
20260510012522 73 304 0.9 2.6 0.02 0.04 0.04 95 1012.8
20260510012516 72 309 0.0 1.7 0.00 0.04 0.04 96 1012.7
20260510012352 72 304 1.7 2.6 0.02 0.04 0.04 95 1012.6
20260510012347 72 292 0.0 0.0 0.00 0.04 0.04 96 1012.9
20260510012328 72 292 0.0 0.0 0.00 0.04 0.04 96 1012.8
20260510012215 74 343 2.6 6.1 0.00 0.02 0.02 94 1013.0
20260510012210 74 327 1.7 6.1 0.00 0.02 0.02 94 1013.1
20260510012205 74 315 0.9 4.3 0.00 0.02 0.02 94 1013.0
20260510012200 74 343 0.9 3.5 0.00 0.02 0.02 94 1013.2
20260510012156 73 348 1.7 4.3 0.01 0.03 0.03 95 1013.1
20260510012150 73 247 1.7 4.3 0.02 0.04 0.04 95 1013.4
20260510012145 72 304 0.9 2.6 0.01 0.04 0.04 96 1012.7
20260510012018 72 309 0.0 1.7 0.00 0.04 0.04 96 1012.7
20260510011854 73 304 0.9 2.6 0.02 0.04 0.04 95 1012.8
20260510011849 72 292 0.0 0.0 0.00 0.04 0.04 96 1012.9
20260510011322 73 247 1.7 4.3 0.02 0.04 0.04 95 1013.4
20260510011315 73 321 1.7 4.3 0.02 0.04 0.04 95 1013.0
20260510011305 72 292 0.0 0.0 0.00 0.04 0.04 96 1012.9
20260510011147 74 315 0.9 4.3 0.00 0.02 0.02 94 1013.0
20260510011141 81 84 3.5 5.2 0.00 0.28 0.00 87 1013.1
20260510011137 80 82 4.3 5.2 0.00 0.28 0.00 86 1013.2
20260510011131 73 303 0.9 3.5 0.02 0.04 0.04 95 1012.9
20260510011127 80 95 4.3 6.1 0.00 0.28 0.00 87 1013.2
20260510011122 80 129 2.6 6.1 0.00 0.28 0.00 86 1013.0
20260510011114 80 175 0.9 4.3 0.00 0.28 0.00 85 1013.0
20260510011109 80 175 0.9 3.5 0.00 0.28 0.00 84 1013.4
20260510011103 80 174 1.7 6.1 0.00 0.28 0.00 87 1013.4
20260510011058 78 178 4.3 6.1 0.00 0.28 0.00 87 1013.3
20260510011054 78 148 3.5 5.2 0.00 0.28 0.00 89 1013.1
20260510011048 78 186 0.9 5.2 0.00 0.28 0.00 87 1013.1
20260510011043 78 235 1.7 6.1 0.00 0.28 0.00 86 1013.1
20260510011038 78 192 2.6 6.1 0.00 0.28 0.00 87 1013.3
20260510011033 78 237 4.3 7.8 0.00 0.28 0.00 88 1013.4
20260510011027 77 209 5.2 7.8 0.00 0.28 0.00 88 1013.2
20260510011022 78 205 3.5 8.7 0.00 0.28 0.00 88 1013.1
20260510011014 74 343 0.9 3.5 0.00 0.02 0.02 94 1013.2
20260510011010 77 186 5.2 8.7 0.00 0.28 0.00 89 1013.2
20260510011005 77 175 3.5 6.1 0.00 0.28 0.00 88 1013.1
20260510010959 72 304 1.7 2.6 0.02 0.04 0.04 95 1012.6
20260510010955 77 250 2.6 5.2 0.00 0.28 0.00 89 1013.3
20260510010949 78 355 2.6 7.0 0.00 0.29 0.01 89 1012.4
20260510010944 78 10 2.6 5.2 0.00 0.29 0.01 89 1012.4
20260510010940 78 10 3.5 8.7 0.00 0.29 0.01 89 1012.3
20260510010934 77 344 3.5 8.7 0.00 0.29 0.01 89 1012.5
20260510010929 76 350 2.6 6.1 0.00 0.15 0.01 90 1012.6
20260510010923 76 355 1.7 6.1 0.01 0.15 0.02 91 1012.7
20260510010918 75 306 1.7 4.3 0.01 0.13 0.02 92 1012.7
20260510010912 72 304 0.9 2.6 0.01 0.04 0.04 96 1012.7
20260510010906 72 309 0.0 1.7 0.00 0.04 0.04 96 1012.7
20260510010743 75 338 0.9 3.5 0.01 0.02 0.02 93 1012.8
20260510010738 74 36 1.7 6.1 0.01 0.02 0.02 94 1012.7
20260510010733 74 340 0.9 3.5 0.01 0.02 0.02 94 1012.7
20260510010728 74 327 3.5 7.8 0.00 0.02 0.02 94 1012.7
20260510010723 73 348 1.7 4.3 0.01 0.03 0.03 95 1013.1
20260510010717 74 327 2.6 7.8 0.00 0.02 0.02 94 1013.0
20260510010711 74 343 2.6 6.1 0.00 0.02 0.02 94 1013.0
20260510010705 74 327 1.7 6.1 0.00 0.02 0.02 94 1013.1
20260510010700 74 315 0.9 4.3 0.00 0.02 0.02 94 1013.0
20260510010654 73 247 1.7 4.3 0.02 0.04 0.04 95 1013.4
20260510010650 73 321 1.7 4.3 0.02 0.04 0.04 95 1013.0
20260510010644 73 303 0.9 3.5 0.02 0.04 0.04 95 1012.9
20260510010639 73 304 0.9 2.6 0.02 0.04 0.04 95 1012.8
20260510010515 74 343 0.9 3.5 0.00 0.02 0.02 94 1013.2
20260510010334 72 309 0.0 1.7 0.00 0.04 0.04 96 1012.7
20260510010223 76 236 3.5 6.1 0.00 0.28 0.00 89 1013.5
20260510010218 76 259 3.5 6.1 0.00 0.28 0.00 90 1013.4
20260510010213 75 193 3.5 6.1 0.00 0.28 0.00 91 1013.0
20260510010208 75 187 3.5 6.1 0.00 0.28 0.00 91 1012.9
20260510010201 79 355 2.6 7.0 0.00 0.29 0.01 89 1012.4
20260510010155 79 9 1.7 6.1 0.00 0.29 0.01 90 1012.3
20260510010150 78 250 3.5 6.1 0.00 0.29 0.01 91 1012.2
20260510010144 78 288 0.9 3.5 0.00 0.29 0.01 91 1012.3
20260510010140 78 244 0.9 4.3 0.00 0.29 0.01 90 1012.4
20260510010135 78 314 1.7 5.2 0.00 0.29 0.01 91 1012.2
20260510010129 73 247 1.7 4.3 0.02 0.04 0.04 95 1013.4
20260510010125 79 346 1.7 5.2 0.00 0.29 0.01 92 1012.3
20260510010119 79 9 0.9 4.3 0.01 0.29 0.01 92 1012.2
20260510010115 79 97 0.0 3.5 0.01 0.29 0.01 92 1012.3
20260510010109 79 98 0.0 0.0 0.01 0.29 0.01 92 1012.3
20260510010104 73 321 1.7 4.3 0.02 0.04 0.04 95 1013.0
20260510010058 79 98 0.0 1.7 0.01 0.29 0.01 91 1012.6
20260510010052 74 327 2.6 7.8 0.00 0.02 0.02 94 1013.0
20260510010047 74 343 2.6 6.1 0.00 0.02 0.02 94 1013.0
20260510010041 74 327 1.7 6.1 0.00 0.02 0.02 94 1013.1
20260510010037 73 303 0.9 3.5 0.02 0.04 0.04 95 1012.9
20260510010032 73 304 0.9 2.6 0.02 0.04 0.04 95 1012.8
20260510010026 72 304 1.7 2.6 0.02 0.04 0.04 95 1012.6
20260510005902 78 10 2.6 5.2 0.00 0.29 0.01 89 1012.4
20260510005855 78 10 3.5 8.7 0.00 0.29 0.01 89 1012.3
20260510005849 77 344 3.5 8.7 0.00 0.29 0.01 89 1012.5
20260510005845 76 350 2.6 6.1 0.00 0.15 0.01 90 1012.6
20260510005839 76 355 1.7 6.1 0.01 0.15 0.02 91 1012.7
20260510005834 75 306 1.7 4.3 0.01 0.13 0.02 92 1012.7
20260510005828 75 292 0.9 3.5 0.01 0.03 0.02 93 1012.9
20260510005824 75 338 0.9 3.5 0.01 0.02 0.02 93 1012.8
20260510005818 74 36 1.7 6.1 0.01 0.02 0.02 94 1012.7
20260510005813 74 340 0.9 3.5 0.01 0.02 0.02 94 1012.7
20260510005809 74 327 3.5 7.8 0.00 0.02 0.02 94 1012.7
20260510005803 72 304 0.9 2.6 0.01 0.04 0.04 96 1012.7
20260510005756 74 315 0.9 4.3 0.00 0.02 0.02 94 1013.0
20260510005751 74 343 0.9 3.5 0.00 0.02 0.02 94 1013.2
20260510005746 73 348 1.7 4.3 0.01 0.03 0.03 95 1013.1
20260510005622 73 321 1.7 4.3 0.02 0.04 0.04 95 1013.0
20260510005453 74 343 2.6 6.1 0.00 0.02 0.02 94 1013.0
20260510005447 74 327 1.7 6.1 0.00 0.02 0.02 94 1013.1
20260510005441 73 303 0.9 3.5 0.02 0.04 0.04 95 1012.9
20260510005437 73 304 0.9 2.6 0.02 0.04 0.04 95 1012.8
20260510005432 72 304 1.7 2.6 0.02 0.04 0.04 95 1012.6
20260510005146 75 292 0.9 3.5 0.01 0.03 0.02 93 1012.9
20260510005140 75 338 0.9 3.5 0.01 0.02 0.02 93 1012.8
20260510005136 74 36 1.7 6.1 0.01 0.02 0.02 94 1012.7
20260510005131 74 327 3.5 7.8 0.00 0.02 0.02 94 1012.7
20260510005125 74 315 0.9 4.3 0.00 0.02 0.02 94 1013.0
20260510005121 73 348 1.7 4.3 0.01 0.03 0.03 95 1013.1
20260510005115 74 343 0.9 3.5 0.00 0.02 0.02 94 1013.2
20260510005110 73 247 1.7 4.3 0.02 0.04 0.04 95 1013.4
20260510005106 73 321 1.7 4.3 0.02 0.04 0.04 95 1013.0
20260510004937 76 350 2.6 6.1 0.00 0.15 0.01 90 1012.6
20260510004931 73 303 0.9 3.5 0.02 0.04 0.04 95 1012.9
20260510004926 76 355 1.7 6.1 0.01 0.15 0.02 91 1012.7
20260510004921 74 340 0.9 3.5 0.01 0.02 0.02 94 1012.7
20260510004916 74 327 2.6 7.8 0.00 0.02 0.02 94 1013.0
20260510004910 74 343 2.6 6.1 0.00 0.02 0.02 94 1013.0
20260510004906 74 327 1.7 6.1 0.00 0.02 0.02 94 1013.1
20260510004901 73 304 0.9 2.6 0.02 0.04 0.04 95 1012.8
20260510004613 75 292 0.9 3.5 0.01 0.03 0.02 93 1012.9
20260510004608 73 348 1.7 4.3 0.01 0.03 0.03 95 1013.1
20260510004603 79 98 2.6 4.3 0.01 0.29 0.01 91 1012.2
20260510004558 74 343 0.9 3.5 0.00 0.02 0.02 94 1013.2
20260510004553 79 98 2.6 4.3 0.00 0.28 0.00 89 1012.3
20260510004547 74 36 1.7 6.1 0.01 0.02 0.02 94 1012.7
20260510004541 74 315 0.9 4.3 0.00 0.02 0.02 94 1013.0
20260510004536 79 355 2.6 7.0 0.00 0.29 0.01 89 1012.4
20260510004530 78 355 2.6 7.0 0.00 0.29 0.01 89 1012.4
20260510004525 78 10 2.6 5.2 0.00 0.29 0.01 89 1012.4
20260510004519 78 10 3.5 8.7 0.00 0.29 0.01 89 1012.3
20260510004515 77 344 3.5 8.7 0.00 0.29 0.01 89 1012.5
20260510004510 75 338 0.9 3.5 0.01 0.02 0.02 93 1012.8
20260510004504 74 327 3.5 7.8 0.00 0.02 0.02 94 1012.7
20260510004459 73 247 1.7 4.3 0.02 0.04 0.04 95 1013.4
20260510004453 73 321 1.7 4.3 0.02 0.04 0.04 95 1013.0
20260510004448 73 303 0.9 3.5 0.02 0.04 0.04 95 1012.9
20260510004321 74 343 2.6 6.1 0.00 0.02 0.02 94 1013.0
20260510004316 74 327 1.7 6.1 0.00 0.02 0.02 94 1013.1
20260510004311 73 304 0.9 2.6 0.02 0.04 0.04 95 1012.8
20260510004258 72 304 1.7 2.6 0.02 0.04 0.04 95 1012.6
20260510004140 76 355 1.7 6.1 0.01 0.15 0.02 91 1012.7
20260510004132 75 306 1.7 4.3 0.01 0.13 0.02 92 1012.7
20260510004127 75 292 0.9 3.5 0.01 0.03 0.02 93 1012.9
20260510004122 74 340 0.9 3.5 0.01 0.02 0.02 94 1012.7
20260510004116 74 36 1.7 6.1 0.01 0.02 0.02 94 1012.7
20260510004111 74 315 0.9 4.3 0.00 0.02 0.02 94 1013.0
20260510004107 73 348 1.7 4.3 0.01 0.03 0.03 95 1013.1
20260510004101 74 343 0.9 3.5 0.00 0.02 0.02 94 1013.2
20260510003934 73 247 1.7 4.3 0.02 0.04 0.04 95 1013.4
20260510003928 73 303 0.9 3.5 0.02 0.04 0.04 95 1012.9
20260510003803 74 327 2.6 7.8 0.00 0.02 0.02 94 1013.0
20260510003758 79 9 1.7 6.1 0.00 0.29 0.01 90 1012.3
20260510003754 74 343 2.6 6.1 0.00 0.02 0.02 94 1013.0
20260510003748 74 327 3.5 7.8 0.00 0.02 0.02 94 1012.7
20260510003742 74 327 1.7 6.1 0.00 0.02 0.02 94 1013.1
20260510003737 73 304 0.9 2.6 0.02 0.04 0.04 95 1012.8
20260510003609 78 250 3.5 6.1 0.00 0.29 0.01 91 1012.2
20260510003604 78 355 2.6 7.0 0.00 0.29 0.01 89 1012.4
20260510003558 78 10 2.6 5.2 0.00 0.29 0.01 89 1012.4
20260510003553 74 36 1.7 6.1 0.01 0.02 0.02 94 1012.7
20260510003547 74 315 0.9 4.3 0.00 0.02 0.02 94 1013.0
20260510003543 73 348 1.7 4.3 0.01 0.03 0.03 95 1013.1
20260510003412 73 321 1.7 4.3 0.02 0.04 0.04 95 1013.0
20260510003406 78 288 0.9 3.5 0.00 0.29 0.01 91 1012.3
20260510003402 78 244 0.9 4.3 0.00 0.29 0.01 90 1012.4
20260510003358 73 303 0.9 3.5 0.02 0.04 0.04 95 1012.9
20260510003352 78 314 1.7 5.2 0.00 0.29 0.01 91 1012.2
20260510003346 78 10 3.5 8.7 0.00 0.29 0.01 89 1012.3
20260510003341 77 344 3.5 8.7 0.00 0.29 0.01 89 1012.5
20260510003335 76 350 2.6 6.1 0.00 0.15 0.01 90 1012.6
20260510003331 76 355 1.7 6.1 0.01 0.15 0.02 91 1012.7
20260510003324 75 306 1.7 4.3 0.01 0.13 0.02 92 1012.7
20260510003319 75 292 0.9 3.5 0.01 0.03 0.02 93 1012.9
20260510003313 75 338 0.9 3.5 0.01 0.02 0.02 93 1012.8
20260510003308 74 340 0.9 3.5 0.01 0.02 0.02 94 1012.7
20260510003302 74 327 3.5 7.8 0.00 0.02 0.02 94 1012.7
20260510003257 74 327 2.6 7.8 0.00 0.02 0.02 94 1013.0
20260510003252 74 343 2.6 6.1 0.00 0.02 0.02 94 1013.0
20260510003244 73 304 0.9 2.6 0.02 0.04 0.04 95 1012.8
20260510003122 74 343 0.9 3.5 0.00 0.02 0.02 94 1013.2
20260510003114 79 9 0.9 4.3 0.01 0.29 0.01 92 1012.2
20260510003109 79 355 2.6 7.0 0.00 0.29 0.01 89 1012.4
20260510002945 78 10 2.6 5.2 0.00 0.29 0.01 89 1012.4
20260510002939 74 36 1.7 6.1 0.01 0.02 0.02 94 1012.7
20260510002935 74 315 0.9 4.3 0.00 0.02 0.02 94 1013.0
20260510002929 73 348 1.7 4.3 0.01 0.03 0.03 95 1013.1
20260510002924 73 247 1.7 4.3 0.02 0.04 0.04 95 1013.4
20260510002916 73 321 1.7 4.3 0.02 0.04 0.04 95 1013.0
20260510002911 73 303 0.9 3.5 0.02 0.04 0.04 95 1012.9
20260510002744 79 346 1.7 5.2 0.00 0.29 0.01 92 1012.3
20260510002739 79 97 0.0 3.5 0.01 0.29 0.01 92 1012.3
20260510002734 79 98 0.0 0.0 0.01 0.29 0.01 92 1012.3
20260510002728 78 10 3.5 8.7 0.00 0.29 0.01 89 1012.3
20260510002723 77 344 3.5 8.7 0.00 0.29 0.01 89 1012.5
20260510002716 76 350 2.6 6.1 0.00 0.15 0.01 90 1012.6
20260510002712 76 355 1.7 6.1 0.01 0.15 0.02 91 1012.7
20260510002706 75 306 1.7 4.3 0.01 0.13 0.02 92 1012.7
20260510002701 75 292 0.9 3.5 0.01 0.03 0.02 93 1012.9
20260510002655 74 343 2.6 6.1 0.00 0.02 0.02 94 1013.0
20260510002650 75 338 0.9 3.5 0.01 0.02 0.02 93 1012.8
20260510002644 74 340 0.9 3.5 0.01 0.02 0.02 94 1012.7
20260510002639 74 327 3.5 7.8 0.00 0.02 0.02 94 1012.7
20260510002633 74 327 2.6 7.8 0.00 0.02 0.02 94 1013.0
20260510002629 74 327 1.7 6.1 0.00 0.02 0.02 94 1013.1
20260510002623 74 343 0.9 3.5 0.00 0.02 0.02 94 1013.2
20260510002454 79 98 0.0 4.3 0.01 0.29 0.01 93 1012.2
20260510002450 79 98 2.6 4.3 0.01 0.29 0.01 91 1012.2
20260510002444 79 98 2.6 4.3 0.00 0.28 0.00 89 1012.3
20260510002439 79 9 1.7 6.1 0.00 0.29 0.01 90 1012.3
20260510002433 78 250 3.5 6.1 0.00 0.29 0.01 91 1012.2
20260510002428 78 288 0.9 3.5 0.00 0.29 0.01 91 1012.3
20260510002422 74 315 0.9 4.3 0.00 0.02 0.02 94 1013.0
20260510002418 78 244 0.9 4.3 0.00 0.29 0.01 90 1012.4
20260510002410 78 314 1.7 5.2 0.00 0.29 0.01 91 1012.2
20260510002404 79 9 0.9 4.3 0.01 0.29 0.01 92 1012.2
20260510002359 79 355 2.6 7.0 0.00 0.29 0.01 89 1012.4
20260510002355 78 355 2.6 7.0 0.00 0.29 0.01 89 1012.4
20260510002349 78 10 2.6 5.2 0.00 0.29 0.01 89 1012.4
20260510002344 74 36 1.7 6.1 0.01 0.02 0.02 94 1012.7
20260510002339 73 348 1.7 4.3 0.01 0.03 0.03 95 1013.1
20260510002334 73 247 1.7 4.3 0.02 0.04 0.04 95 1013.4
20260510002329 73 321 1.7 4.3 0.02 0.04 0.04 95 1013.0
20260510002311 73 303 0.9 3.5 0.02 0.04 0.04 95 1012.9
20260510002155 74 343 2.6 6.1 0.00 0.02 0.02 94 1013.0
20260510002151 77 344 3.5 8.7 0.00 0.29 0.01 89 1012.5
20260510002145 76 350 2.6 6.1 0.00 0.15 0.01 90 1012.6
20260510002140 76 355 1.7 6.1 0.01 0.15 0.02 91 1012.7
20260510002136 75 306 1.7 4.3 0.01 0.13 0.02 92 1012.7
20260510002130 75 292 0.9 3.5 0.01 0.03 0.02 93 1012.9
20260510002124 75 338 0.9 3.5 0.01 0.02 0.02 93 1012.8
20260510002119 74 340 0.9 3.5 0.01 0.02 0.02 94 1012.7
20260510002112 74 327 3.5 7.8 0.00 0.02 0.02 94 1012.7
20260510002106 74 327 1.7 6.1 0.00 0.02 0.02 94 1013.1
20260510002102 74 327 2.6 7.8 0.00 0.02 0.02 94 1013.0
20260510002055 74 343 0.9 3.5 0.00 0.02 0.02 94 1013.2
20260510001808 79 97 0.0 3.5 0.01 0.29 0.01 92 1012.3
20260510001803 74 215 4.3 7.8 0.00 0.28 0.00 92 1012.8
20260510001757 74 36 1.7 6.1 0.01 0.02 0.02 94 1012.7
20260510001752 79 355 2.6 7.0 0.00 0.29 0.01 89 1012.4
20260510001746 74 205 5.2 9.6 0.00 0.28 0.00 92 1012.7
20260510001740 74 207 5.2 10.4 0.00 0.28 0.00 92 1012.7
20260510001736 73 247 1.7 4.3 0.02 0.04 0.04 95 1013.4
20260510001731 79 9 1.7 6.1 0.00 0.29 0.01 90 1012.3
20260510001725 73 348 1.7 4.3 0.01 0.03 0.03 95 1013.1
20260510001720 74 343 2.6 6.1 0.00 0.02 0.02 94 1013.0
20260510001715 73 321 1.7 4.3 0.02 0.04 0.04 95 1013.0
20260510001707 73 180 7.0 10.4 0.00 0.28 0.00 93 1012.3
20260510001702 72 187 7.0 9.6 0.00 0.28 0.00 92 1012.3
20260510001657 72 201 7.8 9.6 0.00 0.28 0.00 93 1012.3
20260510001652 80 98 2.6 4.3 0.00 0.28 0.00 87 1012.5
20260510001647 79 98 0.0 0.0 0.01 0.29 0.01 92 1012.3
20260510001641 79 98 0.0 1.7 0.01 0.29 0.01 91 1012.6
20260510001636 79 98 0.0 4.3 0.01 0.29 0.01 93 1012.2
20260510001630 79 98 2.6 4.3 0.01 0.29 0.01 91 1012.2
20260510001625 79 98 2.6 4.3 0.00 0.28 0.00 89 1012.3
20260510001619 78 250 3.5 6.1 0.00 0.29 0.01 91 1012.2
20260510001613 78 288 0.9 3.5 0.00 0.29 0.01 91 1012.3
20260510001606 78 10 2.6 5.2 0.00 0.29 0.01 89 1012.4
20260510001600 78 244 0.9 4.3 0.00 0.29 0.01 90 1012.4
20260510001555 78 10 3.5 8.7 0.00 0.29 0.01 89 1012.3
20260510001550 78 355 2.6 7.0 0.00 0.29 0.01 89 1012.4
20260510001546 74 327 1.7 6.1 0.00 0.02 0.02 94 1013.1
20260510001540 75 338 0.9 3.5 0.01 0.02 0.02 93 1012.8
20260510001535 77 344 3.5 8.7 0.00 0.29 0.01 89 1012.5
20260510001530 76 355 1.7 6.1 0.01 0.15 0.02 91 1012.7
20260510001525 74 327 3.5 7.8 0.00 0.02 0.02 94 1012.7
20260510001519 74 343 0.9 3.5 0.00 0.02 0.02 94 1013.2
20260510001514 75 306 1.7 4.3 0.01 0.13 0.02 92 1012.7
20260510001507 74 340 0.9 3.5 0.01 0.02 0.02 94 1012.7
20260510001338 74 327 2.6 7.8 0.00 0.02 0.02 94 1013.0
20260510001334 76 350 2.6 6.1 0.00 0.15 0.01 90 1012.6
20260510001330 78 314 1.7 5.2 0.00 0.29 0.01 91 1012.2
20260510001323 79 346 1.7 5.2 0.00 0.29 0.01 92 1012.3
20260510001319 74 315 0.9 4.3 0.00 0.02 0.02 94 1013.0
20260510001313 79 9 0.9 4.3 0.01 0.29 0.01 92 1012.2
20260510001306 79 97 0.0 3.5 0.01 0.29 0.01 92 1012.3
20260510001301 73 247 1.7 4.3 0.02 0.04 0.04 95 1013.4
20260510001255 79 9 1.7 6.1 0.00 0.29 0.01 90 1012.3
20260510001251 79 355 2.6 7.0 0.00 0.29 0.01 89 1012.4
20260510001246 74 36 1.7 6.1 0.01 0.02 0.02 94 1012.7
20260510001240 74 343 2.6 6.1 0.00 0.02 0.02 94 1013.0
20260510001235 73 348 1.7 4.3 0.01 0.03 0.03 95 1013.1
20260510001228 73 321 1.7 4.3 0.02 0.04 0.04 95 1013.0
20260510001059 75 338 0.9 3.5 0.01 0.02 0.02 93 1012.8
20260510001054 78 10 3.5 8.7 0.00 0.29 0.01 89 1012.3
20260510001048 74 327 1.7 6.1 0.00 0.02 0.02 94 1013.1
20260510001042 78 355 2.6 7.0 0.00 0.29 0.01 89 1012.4
20260510001038 79 98 0.0 0.0 0.01 0.29 0.01 92 1012.3
20260510001033 74 327 3.5 7.8 0.00 0.02 0.02 94 1012.7
20260510001027 74 340 0.9 3.5 0.01 0.02 0.02 94 1012.7
20260510001023 77 344 3.5 8.7 0.00 0.29 0.01 89 1012.5
20260510001017 74 343 0.9 3.5 0.00 0.02 0.02 94 1013.2
20260510000849 76 355 1.7 6.1 0.01 0.15 0.02 91 1012.7
20260510000844 76 350 2.6 6.1 0.00 0.15 0.01 90 1012.6
20260510000837 75 292 0.9 3.5 0.01 0.03 0.02 93 1012.9
20260510000833 74 327 2.6 7.8 0.00 0.02 0.02 94 1013.0
20260510000828 74 315 0.9 4.3 0.00 0.02 0.02 94 1013.0
20260510000824 79 98 0.0 1.7 0.01 0.29 0.01 91 1012.6
20260510000818 73 247 1.7 4.3 0.02 0.04 0.04 95 1013.4
20260510000651 78 288 0.9 3.5 0.00 0.29 0.01 91 1012.3
20260510000645 74 343 2.6 6.1 0.00 0.02 0.02 94 1013.0
20260510000641 73 348 1.7 4.3 0.01 0.03 0.03 95 1013.1
20260510000635 78 244 0.9 4.3 0.00 0.29 0.01 90 1012.4
20260510000630 74 36 1.7 6.1 0.01 0.02 0.02 94 1012.7
20260510000624 78 314 1.7 5.2 0.00 0.29 0.01 91 1012.2
20260510000619 75 338 0.9 3.5 0.01 0.02 0.02 93 1012.8
20260510000613 74 327 1.7 6.1 0.00 0.02 0.02 94 1013.1
20260510000608 79 346 1.7 5.2 0.00 0.29 0.01 92 1012.3
20260510000601 79 9 1.7 6.1 0.00 0.29 0.01 90 1012.3
20260510000555 79 355 2.6 7.0 0.00 0.29 0.01 89 1012.4
20260510000551 78 355 2.6 7.0 0.00 0.29 0.01 89 1012.4
20260510000545 78 10 2.6 5.2 0.00 0.29 0.01 89 1012.4
20260510000540 78 10 3.5 8.7 0.00 0.29 0.01 89 1012.3
20260510000534 74 340 0.9 3.5 0.01 0.02 0.02 94 1012.7
20260510000530 74 327 3.5 7.8 0.00 0.02 0.02 94 1012.7
20260510000525 74 343 0.9 3.5 0.00 0.02 0.02 94 1013.2
20260510000358 76 350 2.6 6.1 0.00 0.15 0.01 90 1012.6
20260510000353 76 355 1.7 6.1 0.01 0.15 0.02 91 1012.7
20260510000348 75 306 1.7 4.3 0.01 0.13 0.02 92 1012.7
20260510000342 75 292 0.9 3.5 0.01 0.03 0.02 93 1012.9
20260510000337 74 327 2.6 7.8 0.00 0.02 0.02 94 1013.0
20260510000333 74 315 0.9 4.3 0.00 0.02 0.02 94 1013.0
20260510000314 73 247 1.7 4.3 0.02 0.04 0.04 95 1013.4
20260510000204 73 348 1.7 4.3 0.01 0.03 0.03 95 1013.1
20260510000154 79 98 2.6 4.3 0.01 0.29 0.01 91 1012.2
20260510000149 79 9 0.9 4.3 0.01 0.29 0.01 92 1012.2
20260510000143 74 343 2.6 6.1 0.00 0.02 0.02 94 1013.0
20260510000139 79 97 0.0 3.5 0.01 0.29 0.01 92 1012.3
20260510000133 74 36 1.7 6.1 0.01 0.02 0.02 94 1012.7
20260510000128 74 327 1.7 6.1 0.00 0.02 0.02 94 1013.1
20260510000124 75 338 0.9 3.5 0.01 0.02 0.02 93 1012.8
20260509235956 74 340 0.9 3.5 0.01 0.02 0.02 94 1012.7
20260509235951 79 98 0.0 1.7 0.01 0.29 0.01 91 1012.6
20260509235947 78 250 3.5 6.1 0.00 0.29 0.01 91 1012.2
20260509235943 78 288 0.9 3.5 0.00 0.29 0.01 91 1012.3
20260509235939 78 244 0.9 4.3 0.00 0.29 0.01 90 1012.4
20260509235933 78 314 1.7 5.2 0.00 0.29 0.01 91 1012.2
20260509235928 79 346 1.7 5.2 0.00 0.29 0.01 92 1012.3
20260509235923 79 9 1.7 6.1 0.00 0.29 0.01 90 1012.3
20260509235918 74 343 0.9 3.5 0.00 0.02 0.02 94 1013.2
20260509235755 78 355 2.6 7.0 0.00 0.29 0.01 89 1012.4
20260509235750 78 10 2.6 5.2 0.00 0.29 0.01 89 1012.4
20260509235743 78 10 3.5 8.7 0.00 0.29 0.01 89 1012.3
20260509235737 77 344 3.5 8.7 0.00 0.29 0.01 89 1012.5
20260509235732 76 350 2.6 6.1 0.00 0.15 0.01 90 1012.6
20260509235728 74 315 0.9 4.3 0.00 0.02 0.02 94 1013.0
20260509235722 74 327 2.6 7.8 0.00 0.02 0.02 94 1013.0
20260509235717 73 348 1.7 4.3 0.01 0.03 0.03 95 1013.1
20260509235711 76 355 1.7 6.1 0.01 0.15 0.02 91 1012.7
20260509235706 75 306 1.7 4.3 0.01 0.13 0.02 92 1012.7
20260509235700 75 292 0.9 3.5 0.01 0.03 0.02 93 1012.9
20260509235656 74 36 1.7 6.1 0.01 0.02 0.02 94 1012.7
20260509235650 74 343 2.6 6.1 0.00 0.02 0.02 94 1013.0
20260509235643 74 327 1.7 6.1 0.00 0.02 0.02 94 1013.1
20260509235518 74 340 0.9 3.5 0.01 0.02 0.02 94 1012.7
20260509235514 74 327 3.5 7.8 0.00 0.02 0.02 94 1012.7
20260509235228 74 327 2.6 7.8 0.00 0.02 0.02 94 1013.0
20260509235223 73 348 1.7 4.3 0.01 0.03 0.03 95 1013.1
20260509235057 74 36 1.7 6.1 0.01 0.02 0.02 94 1012.7
20260509235051 74 327 1.7 6.1 0.00 0.02 0.02 94 1013.1
20260509235047 70 206 5.2 7.8 0.00 0.28 0.00 93 1012.3
20260509235040 74 343 2.6 6.1 0.00 0.02 0.02 94 1013.0
20260509235034 70 192 4.3 6.1 0.00 0.28 0.00 94 1012.1
20260509235029 69 195 3.5 7.0 0.00 0.28 0.00 94 1012.2
20260509235023 69 196 4.3 7.8 0.00 0.28 0.00 94 1012.1
20260509235018 69 207 5.2 8.7 0.00 0.28 0.00 94 1012.0
20260509235014 69 226 6.1 8.7 0.00 0.28 0.00 94 1012.0
20260509235008 80 98 4.3 5.2 0.00 0.28 0.00 85 1012.6
20260509235003 82 98 4.3 6.1 0.00 0.28 0.00 84 1012.7
20260509234959 80 98 2.6 4.3 0.00 0.28 0.00 87 1012.5
20260509234953 79 98 2.6 4.3 0.00 0.28 0.00 89 1012.3
20260509234948 79 98 0.0 0.0 0.01 0.29 0.01 92 1012.3
20260509234941 77 344 3.5 8.7 0.00 0.29 0.01 89 1012.5
20260509234935 79 98 0.0 4.3 0.01 0.29 0.01 93 1012.2
20260509234929 79 98 2.6 4.3 0.01 0.29 0.01 91 1012.2
20260509234925 76 355 1.7 6.1 0.01 0.15 0.02 91 1012.7
20260509234920 76 350 2.6 6.1 0.00 0.15 0.01 90 1012.6
20260509234916 75 306 1.7 4.3 0.01 0.13 0.02 92 1012.7
20260509234910 79 9 0.9 4.3 0.01 0.29 0.01 92 1012.2
20260509234906 79 97 0.0 3.5 0.01 0.29 0.01 92 1012.3
20260509234900 79 98 0.0 1.7 0.01 0.29 0.01 91 1012.6
20260509234855 78 250 3.5 6.1 0.00 0.29 0.01 91 1012.2
20260509234849 75 292 0.9 3.5 0.01 0.03 0.02 93 1012.9
20260509234842 78 288 0.9 3.5 0.00 0.29 0.01 91 1012.3
20260509234837 78 244 0.9 4.3 0.00 0.29 0.01 90 1012.4
20260509234831 78 314 1.7 5.2 0.00 0.29 0.01 91 1012.2
20260509234827 79 346 1.7 5.2 0.00 0.29 0.01 92 1012.3
20260509234822 79 9 1.7 6.1 0.00 0.29 0.01 90 1012.3
20260509234817 79 355 2.6 7.0 0.00 0.29 0.01 89 1012.4
20260509234812 78 355 2.6 7.0 0.00 0.29 0.01 89 1012.4
20260509234806 78 10 2.6 5.2 0.00 0.29 0.01 89 1012.4
20260509234801 74 327 3.5 7.8 0.00 0.02 0.02 94 1012.7
20260509234756 74 315 0.9 4.3 0.00 0.02 0.02 94 1013.0
20260509234751 74 343 0.9 3.5 0.00 0.02 0.02 94 1013.2
20260509234746 78 10 3.5 8.7 0.00 0.29 0.01 89 1012.3
20260509234618 74 340 0.9 3.5 0.01 0.02 0.02 94 1012.7
20260509234613 74 36 1.7 6.1 0.01 0.02 0.02 94 1012.7
20260509234607 74 327 2.6 7.8 0.00 0.02 0.02 94 1013.0
20260509234602 74 343 2.6 6.1 0.00 0.02 0.02 94 1013.0
20260509234556 74 327 1.7 6.1 0.00 0.02 0.02 94 1013.1
20260509234430 76 350 2.6 6.1 0.00 0.15 0.01 90 1012.6
20260509234424 76 355 1.7 6.1 0.01 0.15 0.02 91 1012.7
20260509234419 75 306 1.7 4.3 0.01 0.13 0.02 92 1012.7
20260509234415 75 292 0.9 3.5 0.01 0.03 0.02 93 1012.9
20260509234249 74 315 0.9 4.3 0.00 0.02 0.02 94 1013.0
20260509234239 74 343 0.9 3.5 0.00 0.02 0.02 94 1013.2
20260509234117 83 96 4.3 6.1 0.00 0.28 0.00 82 1012.6
20260509234112 83 117 3.5 5.2 0.00 0.28 0.00 84 1012.7
20260509234106 80 98 4.3 5.2 0.00 0.28 0.00 85 1012.6
20260509234101 82 98 4.3 6.1 0.00 0.28 0.00 84 1012.7
20260509234055 80 98 2.6 4.3 0.00 0.28 0.00 87 1012.5
20260509234050 75 338 0.9 3.5 0.01 0.02 0.02 93 1012.8
20260509234042 79 98 2.6 4.3 0.00 0.28 0.00 89 1012.3
20260509234038 74 36 1.7 6.1 0.01 0.02 0.02 94 1012.7
20260509234034 74 340 0.9 3.5 0.01 0.02 0.02 94 1012.7
20260509234028 74 327 2.6 7.8 0.00 0.02 0.02 94 1013.0
20260509234023 79 98 0.0 0.0 0.01 0.29 0.01 92 1012.3
20260509234017 79 98 0.0 4.3 0.01 0.29 0.01 93 1012.2
20260509234012 74 343 2.6 6.1 0.00 0.02 0.02 94 1013.0
20260509234007 79 98 2.6 4.3 0.01 0.29 0.01 91 1012.2
20260509234002 74 327 1.7 6.1 0.00 0.02 0.02 94 1013.1
20260509233836 79 97 0.0 3.5 0.01 0.29 0.01 92 1012.3
20260509233831 79 98 0.0 1.7 0.01 0.29 0.01 91 1012.6
20260509233826 78 250 3.5 6.1 0.00 0.29 0.01 91 1012.2
20260509233821 78 288 0.9 3.5 0.00 0.29 0.01 91 1012.3
20260509233816 78 244 0.9 4.3 0.00 0.29 0.01 90 1012.4
20260509233811 78 314 1.7 5.2 0.00 0.29 0.01 91 1012.2
20260509233805 79 346 1.7 5.2 0.00 0.29 0.01 92 1012.3
20260509233800 79 9 1.7 6.1 0.00 0.29 0.01 90 1012.3
20260509233754 79 355 2.6 7.0 0.00 0.29 0.01 89 1012.4
20260509233749 78 355 2.6 7.0 0.00 0.29 0.01 89 1012.4
20260509233743 78 10 2.6 5.2 0.00 0.29 0.01 89 1012.4
20260509233736 78 10 3.5 8.7 0.00 0.29 0.01 89 1012.3
20260509233732 74 315 0.9 4.3 0.00 0.02 0.02 94 1013.0
20260509233726 77 344 3.5 8.7 0.00 0.29 0.01 89 1012.5
20260509233721 76 350 2.6 6.1 0.00 0.15 0.01 90 1012.6
20260509233715 76 355 1.7 6.1 0.01 0.15 0.02 91 1012.7
20260509233711 75 306 1.7 4.3 0.01 0.13 0.02 92 1012.7
20260509233707 75 292 0.9 3.5 0.01 0.03 0.02 93 1012.9
20260509233701 74 327 3.5 7.8 0.00 0.02 0.02 94 1012.7
20260509233534 74 340 0.9 3.5 0.01 0.02 0.02 94 1012.7
20260509233530 74 36 1.7 6.1 0.01 0.02 0.02 94 1012.7
20260509233525 74 327 2.6 7.8 0.00 0.02 0.02 94 1013.0
20260509233521 74 343 2.6 6.1 0.00 0.02 0.02 94 1013.0
20260509233114 74 327 3.5 7.8 0.00 0.02 0.02 94 1012.7
20260509232951 74 327 2.6 7.8 0.00 0.02 0.02 94 1013.0
20260509232946 74 343 2.6 6.1 0.00 0.02 0.02 94 1013.0
20260509232822 79 98 0.0 4.3 0.01 0.29 0.01 93 1012.2
20260509232818 79 9 0.9 4.3 0.01 0.29 0.01 92 1012.2
20260509232812 78 250 3.5 6.1 0.00 0.29 0.01 91 1012.2
20260509232805 74 327 1.7 6.1 0.00 0.02 0.02 94 1013.1
20260509232800 78 244 0.9 4.3 0.00 0.29 0.01 90 1012.4
20260509232756 78 314 1.7 5.2 0.00 0.29 0.01 91 1012.2
20260509232750 79 9 1.7 6.1 0.00 0.29 0.01 90 1012.3
20260509232745 79 355 2.6 7.0 0.00 0.29 0.01 89 1012.4
20260509232739 78 355 2.6 7.0 0.00 0.29 0.01 89 1012.4
20260509232735 78 10 2.6 5.2 0.00 0.29 0.01 89 1012.4
20260509232729 78 10 3.5 8.7 0.00 0.29 0.01 89 1012.3
20260509232724 77 344 3.5 8.7 0.00 0.29 0.01 89 1012.5
20260509232720 76 350 2.6 6.1 0.00 0.15 0.01 90 1012.6
20260509232714 76 355 1.7 6.1 0.01 0.15 0.02 91 1012.7
20260509232707 75 306 1.7 4.3 0.01 0.13 0.02 92 1012.7
20260509232702 75 292 0.9 3.5 0.01 0.03 0.02 93 1012.9
20260509232656 75 338 0.9 3.5 0.01 0.02 0.02 93 1012.8
20260509232651 74 36 1.7 6.1 0.01 0.02 0.02 94 1012.7
20260509232524 79 98 0.0 1.7 0.01 0.29 0.01 91 1012.6
20260509232519 74 340 0.9 3.5 0.01 0.02 0.02 94 1012.7
20260509232515 74 327 3.5 7.8 0.00 0.02 0.02 94 1012.7
20260509232351 79 346 1.7 5.2 0.00 0.29 0.01 92 1012.3
20260509232346 78 288 0.9 3.5 0.00 0.29 0.01 91 1012.3
20260509232340 74 343 2.6 6.1 0.00 0.02 0.02 94 1013.0
20260509232321 74 327 1.7 6.1 0.00 0.02 0.02 94 1013.1
20260509232211 79 355 2.6 7.0 0.00 0.29 0.01 89 1012.4
20260509232205 78 314 1.7 5.2 0.00 0.29 0.01 91 1012.2
20260509232200 78 244 0.9 4.3 0.00 0.29 0.01 90 1012.4
20260509232154 79 98 2.6 4.3 0.01 0.29 0.01 91 1012.2
20260509232147 79 9 1.7 6.1 0.00 0.29 0.01 90 1012.3
20260509232142 78 10 3.5 8.7 0.00 0.29 0.01 89 1012.3
20260509232137 78 10 2.6 5.2 0.00 0.29 0.01 89 1012.4
20260509232132 78 355 2.6 7.0 0.00 0.29 0.01 89 1012.4
20260509232127 79 98 0.0 0.0 0.01 0.29 0.01 92 1012.3
20260509232122 77 344 3.5 8.7 0.00 0.29 0.01 89 1012.5
20260509232117 76 350 2.6 6.1 0.00 0.15 0.01 90 1012.6
20260509232111 76 355 1.7 6.1 0.01 0.15 0.02 91 1012.7
20260509232107 75 306 1.7 4.3 0.01 0.13 0.02 92 1012.7
20260509232101 75 292 0.9 3.5 0.01 0.03 0.02 93 1012.9
20260509232056 75 338 0.9 3.5 0.01 0.02 0.02 93 1012.8
20260509232049 74 36 1.7 6.1 0.01 0.02 0.02 94 1012.7
20260509231925 79 98 0.0 4.3 0.01 0.29 0.01 93 1012.2
20260509231920 74 327 2.6 7.8 0.00 0.02 0.02 94 1013.0
20260509231914 74 327 3.5 7.8 0.00 0.02 0.02 94 1012.7
20260509231748 79 97 0.0 3.5 0.01 0.29 0.01 92 1012.3
20260509231742 74 343 2.6 6.1 0.00 0.02 0.02 94 1013.0
20260509231737 79 98 0.0 1.7 0.01 0.29 0.01 91 1012.6
20260509231731 79 346 1.7 5.2 0.00 0.29 0.01 92 1012.3
20260509231727 78 250 3.5 6.1 0.00 0.29 0.01 91 1012.2
20260509231721 78 288 0.9 3.5 0.00 0.29 0.01 91 1012.3
20260509231716 78 244 0.9 4.3 0.00 0.29 0.01 90 1012.4
20260509231710 78 314 1.7 5.2 0.00 0.29 0.01 91 1012.2
20260509231705 79 355 2.6 7.0 0.00 0.29 0.01 89 1012.4
20260509231659 79 9 1.7 6.1 0.00 0.29 0.01 90 1012.3
20260509231654 78 355 2.6 7.0 0.00 0.29 0.01 89 1012.4
20260509231647 78 10 2.6 5.2 0.00 0.29 0.01 89 1012.4
20260509231642 78 10 3.5 8.7 0.00 0.29 0.01 89 1012.3
20260509231518 76 350 2.6 6.1 0.00 0.15 0.01 90 1012.6
20260509231512 76 355 1.7 6.1 0.01 0.15 0.02 91 1012.7
20260509231507 75 306 1.7 4.3 0.01 0.13 0.02 92 1012.7
20260509231503 75 292 0.9 3.5 0.01 0.03 0.02 93 1012.9
20260509231457 75 338 0.9 3.5 0.01 0.02 0.02 93 1012.8
20260509231450 74 340 0.9 3.5 0.01 0.02 0.02 94 1012.7
20260509231444 74 36 1.7 6.1 0.01 0.02 0.02 94 1012.7
20260509231439 74 327 2.6 7.8 0.00 0.02 0.02 94 1013.0
20260509231305 74 343 2.6 6.1 0.00 0.02 0.02 94 1013.0
20260509231150 78 355 2.6 7.0 0.00 0.29 0.01 89 1012.4
20260509231027 78 10 2.6 5.2 0.00 0.29 0.01 89 1012.4
20260509231022 78 10 3.5 8.7 0.00 0.29 0.01 89 1012.3
20260509231017 77 344 3.5 8.7 0.00 0.29 0.01 89 1012.5
20260509230852 76 355 1.7 6.1 0.01 0.15 0.02 91 1012.7
20260509230846 74 36 1.7 6.1 0.01 0.02 0.02 94 1012.7
20260509230842 75 306 1.7 4.3 0.01 0.13 0.02 92 1012.7
20260509230836 75 292 0.9 3.5 0.01 0.03 0.02 93 1012.9
20260509230831 75 338 0.9 3.5 0.01 0.02 0.02 93 1012.8
20260509230825 74 327 2.6 7.8 0.00 0.02 0.02 94 1013.0
20260509230703 74 340 0.9 3.5 0.01 0.02 0.02 94 1012.7
20260509230537 79 346 1.7 5.2 0.00 0.29 0.01 92 1012.3
20260509230531 78 250 3.5 6.1 0.00 0.29 0.01 91 1012.2
20260509230525 78 355 2.6 7.0 0.00 0.29 0.01 89 1012.4
20260509230520 78 10 3.5 8.7 0.00 0.29 0.01 89 1012.3
20260509230355 74 36 1.7 6.1 0.01 0.02 0.02 94 1012.7
20260509230348 78 10 2.6 5.2 0.00 0.29 0.01 89 1012.4
20260509230222 74 327 2.6 7.8 0.00 0.02 0.02 94 1013.0
20260509230217 76 350 2.6 6.1 0.00 0.15 0.01 90 1012.6
20260509230211 74 327 3.5 7.8 0.00 0.02 0.02 94 1012.7
20260509230207 80 98 2.6 4.3 0.00 0.28 0.00 87 1012.5
20260509230201 75 292 0.9 3.5 0.01 0.03 0.02 93 1012.9
20260509230156 76 355 1.7 6.1 0.01 0.15 0.02 91 1012.7
20260509230148 79 98 2.6 4.3 0.00 0.28 0.00 89 1012.3
20260509230143 75 306 1.7 4.3 0.01 0.13 0.02 92 1012.7
20260509230137 79 98 2.6 4.3 0.01 0.29 0.01 91 1012.2
20260509230133 78 288 0.9 3.5 0.00 0.29 0.01 91 1012.3
20260509230128 79 98 0.0 0.0 0.01 0.29 0.01 92 1012.3
20260509230122 79 98 0.0 4.3 0.01 0.29 0.01 93 1012.2
20260509230117 75 338 0.9 3.5 0.01 0.02 0.02 93 1012.8
20260509230111 79 355 2.6 7.0 0.00 0.29 0.01 89 1012.4
20260509230106 79 9 1.7 6.1 0.00 0.29 0.01 90 1012.3
20260509230101 74 340 0.9 3.5 0.01 0.02 0.02 94 1012.7
20260509225934 79 97 0.0 3.5 0.01 0.29 0.01 92 1012.3
20260509225929 79 98 0.0 1.7 0.01 0.29 0.01 91 1012.6
20260509225923 78 244 0.9 4.3 0.00 0.29 0.01 90 1012.4
20260509225919 78 314 1.7 5.2 0.00 0.29 0.01 91 1012.2
20260509225913 79 346 1.7 5.2 0.00 0.29 0.01 92 1012.3
20260509225908 78 355 2.6 7.0 0.00 0.29 0.01 89 1012.4
20260509225904 78 250 3.5 6.1 0.00 0.29 0.01 91 1012.2
20260509225858 78 10 2.6 5.2 0.00 0.29 0.01 89 1012.4
20260509225851 78 10 3.5 8.7 0.00 0.29 0.01 89 1012.3
20260509225847 77 344 3.5 8.7 0.00 0.29 0.01 89 1012.5
20260509225842 74 36 1.7 6.1 0.01 0.02 0.02 94 1012.7
20260509225716 68 207 4.3 6.1 0.00 0.28 0.00 95 1011.7
20260509225711 75 292 0.9 3.5 0.01 0.03 0.02 93 1012.9
20260509225706 68 201 4.3 6.1 0.00 0.28 0.00 95 1011.8
20260509225701 76 350 2.6 6.1 0.00 0.15 0.01 90 1012.6
20260509225656 76 355 1.7 6.1 0.01 0.15 0.02 91 1012.7
20260509225651 67 215 3.5 6.1 0.00 0.28 0.00 95 1011.7
20260509225643 78 288 0.9 3.5 0.00 0.29 0.01 91 1012.3
20260509225639 75 306 1.7 4.3 0.01 0.13 0.02 92 1012.7
20260509225634 67 212 3.5 6.1 0.00 0.28 0.00 95 1011.8
20260509225628 67 215 2.6 4.3 0.00 0.28 0.00 94 1011.8
20260509225623 67 214 0.9 3.5 0.00 0.28 0.00 94 1011.8
20260509225618 67 214 1.7 3.5 0.00 0.28 0.00 94 1012.3
20260509225613 68 213 1.7 3.5 0.00 0.28 0.00 93 1012.4
20260509225607 68 212 1.7 5.2 0.00 0.28 0.00 93 1012.2
20260509225602 79 9 1.7 6.1 0.00 0.29 0.01 90 1012.3
20260509225556 79 355 2.6 7.0 0.00 0.29 0.01 89 1012.4
20260509225552 75 338 0.9 3.5 0.01 0.02 0.02 93 1012.8
20260509225545 74 340 0.9 3.5 0.01 0.02 0.02 94 1012.7
20260509225419 83 96 4.3 6.1 0.00 0.28 0.00 82 1012.6
20260509225413 83 117 3.5 5.2 0.00 0.28 0.00 84 1012.7
20260509225408 80 98 4.3 5.2 0.00 0.28 0.00 85 1012.6
20260509225402 82 98 4.3 6.1 0.00 0.28 0.00 84 1012.7
20260509225358 82 100 5.2 6.1 0.00 0.28 0.00 83 1012.6
20260509225352 78 355 2.6 7.0 0.00 0.29 0.01 89 1012.4
20260509225345 80 98 2.6 4.3 0.00 0.28 0.00 87 1012.5
20260509225340 78 10 3.5 8.7 0.00 0.29 0.01 89 1012.3
20260509225336 78 10 2.6 5.2 0.00 0.29 0.01 89 1012.4
20260509225330 79 98 2.6 4.3 0.00 0.28 0.00 89 1012.3
20260509225326 79 98 2.6 4.3 0.01 0.29 0.01 91 1012.2
20260509225320 79 98 0.0 0.0 0.01 0.29 0.01 92 1012.3
20260509225315 79 98 0.0 4.3 0.01 0.29 0.01 93 1012.2
20260509225309 79 9 0.9 4.3 0.01 0.29 0.01 92 1012.2
20260509225306 79 97 0.0 3.5 0.01 0.29 0.01 92 1012.3
20260509225258 79 98 0.0 1.7 0.01 0.29 0.01 91 1012.6
20260509225254 78 244 0.9 4.3 0.00 0.29 0.01 90 1012.4
20260509225246 78 314 1.7 5.2 0.00 0.29 0.01 91 1012.2
20260509225240 79 346 1.7 5.2 0.00 0.29 0.01 92 1012.3
20260509225236 74 36 1.7 6.1 0.01 0.02 0.02 94 1012.7
20260509225230 78 250 3.5 6.1 0.00 0.29 0.01 91 1012.2
20260509225225 74 327 3.5 7.8 0.00 0.02 0.02 94 1012.7
20260509225219 77 344 3.5 8.7 0.00 0.29 0.01 89 1012.5
20260509225214 75 292 0.9 3.5 0.01 0.03 0.02 93 1012.9
20260509225210 76 350 2.6 6.1 0.00 0.15 0.01 90 1012.6
20260509225204 76 355 1.7 6.1 0.01 0.15 0.02 91 1012.7
20260509225159 75 306 1.7 4.3 0.01 0.13 0.02 92 1012.7
20260509225153 78 288 0.9 3.5 0.00 0.29 0.01 91 1012.3
20260509225026 79 355 2.6 7.0 0.00 0.29 0.01 89 1012.4
20260509225021 74 340 0.9 3.5 0.01 0.02 0.02 94 1012.7
20260509225016 75 338 0.9 3.5 0.01 0.02 0.02 93 1012.8
20260509224848 78 10 2.6 5.2 0.00 0.29 0.01 89 1012.4
20260509224843 78 10 3.5 8.7 0.00 0.29 0.01 89 1012.3
20260509224719 74 36 1.7 6.1 0.01 0.02 0.02 94 1012.7
20260509224714 76 350 2.6 6.1 0.00 0.15 0.01 90 1012.6
20260509224709 76 355 1.7 6.1 0.01 0.15 0.02 91 1012.7
20260509224704 75 306 1.7 4.3 0.01 0.13 0.02 92 1012.7
20260509224659 75 292 0.9 3.5 0.01 0.03 0.02 93 1012.9
20260509224248 79 98 0.0 0.0 0.01 0.29 0.01 92 1012.3
20260509224243 79 97 0.0 3.5 0.01 0.29 0.01 92 1012.3
20260509224238 83 117 3.5 5.2 0.00 0.28 0.00 84 1012.7
20260509224233 79 9 0.9 4.3 0.01 0.29 0.01 92 1012.2
20260509224227 79 346 1.7 5.2 0.00 0.29 0.01 92 1012.3
20260509224222 74 36 1.7 6.1 0.01 0.02 0.02 94 1012.7
20260509224218 78 244 0.9 4.3 0.00 0.29 0.01 90 1012.4
20260509224212 78 250 3.5 6.1 0.00 0.29 0.01 91 1012.2
20260509224207 78 314 1.7 5.2 0.00 0.29 0.01 91 1012.2
20260509224201 78 288 0.9 3.5 0.00 0.29 0.01 91 1012.3
20260509224156 79 355 2.6 7.0 0.00 0.29 0.01 89 1012.4
20260509224150 79 9 1.7 6.1 0.00 0.29 0.01 90 1012.3
20260509224143 80 98 4.3 5.2 0.00 0.28 0.00 85 1012.6
20260509224138 78 10 2.6 5.2 0.00 0.29 0.01 89 1012.4
20260509224133 76 355 1.7 6.1 0.01 0.15 0.02 91 1012.7
20260509224128 75 306 1.7 4.3 0.01 0.13 0.02 92 1012.7
20260509224123 82 98 4.3 6.1 0.00 0.28 0.00 84 1012.7
20260509224118 80 98 2.6 4.3 0.00 0.28 0.00 87 1012.5
20260509224113 79 98 2.6 4.3 0.00 0.28 0.00 89 1012.3
20260509224107 79 98 2.6 4.3 0.01 0.29 0.01 91 1012.2
20260509224103 75 292 0.9 3.5 0.01 0.03 0.02 93 1012.9
20260509223935 78 355 2.6 7.0 0.00 0.29 0.01 89 1012.4
20260509223930 78 10 3.5 8.7 0.00 0.29 0.01 89 1012.3
20260509223926 77 344 3.5 8.7 0.00 0.29 0.01 89 1012.5
20260509223920 76 350 2.6 6.1 0.00 0.15 0.01 90 1012.6
20260509223915 75 338 0.9 3.5 0.01 0.02 0.02 93 1012.8
20260509223910 74 340 0.9 3.5 0.01 0.02 0.02 94 1012.7
20260509223744 79 98 0.0 1.7 0.01 0.29 0.01 91 1012.6
20260509223739 79 9 0.9 4.3 0.01 0.29 0.01 92 1012.2
20260509223735 79 97 0.0 3.5 0.01 0.29 0.01 92 1012.3
20260509223729 78 244 0.9 4.3 0.00 0.29 0.01 90 1012.4
20260509223724 78 314 1.7 5.2 0.00 0.29 0.01 91 1012.2
20260509223719 79 346 1.7 5.2 0.00 0.29 0.01 92 1012.3
20260509223714 78 250 3.5 6.1 0.00 0.29 0.01 91 1012.2
20260509223709 78 288 0.9 3.5 0.00 0.29 0.01 91 1012.3
20260509223704 79 9 1.7 6.1 0.00 0.29 0.01 90 1012.3
20260509223658 79 355 2.6 7.0 0.00 0.29 0.01 89 1012.4
20260509223653 78 10 2.6 5.2 0.00 0.29 0.01 89 1012.4
20260509223646 76 355 1.7 6.1 0.01 0.15 0.02 91 1012.7
20260509223641 75 306 1.7 4.3 0.01 0.13 0.02 92 1012.7
20260509223358 78 10 3.5 8.7 0.00 0.29 0.01 89 1012.3
20260509223352 77 344 3.5 8.7 0.00 0.29 0.01 89 1012.5
20260509223345 76 350 2.6 6.1 0.00 0.15 0.01 90 1012.6
20260509223340 75 338 0.9 3.5 0.01 0.02 0.02 93 1012.8
20260509223320 74 340 0.9 3.5 0.01 0.02 0.02 94 1012.7
20260509223209 69 224 2.6 5.2 0.00 0.28 0.00 91 1012.0
20260509223204 70 219 3.5 5.2 0.00 0.28 0.00 91 1012.1
20260509223159 70 205 3.5 6.1 0.00 0.28 0.00 91 1012.0
20260509223154 82 115 4.3 5.2 0.00 0.28 0.00 84 1012.8
20260509223149 82 117 4.3 5.2 0.00 0.28 0.00 85 1013.0
20260509223142 78 244 0.9 4.3 0.00 0.29 0.01 90 1012.4
20260509223137 82 100 5.2 6.1 0.00 0.28 0.00 83 1012.6
20260509223132 79 9 1.7 6.1 0.00 0.29 0.01 90 1012.3
20260509223127 78 250 3.5 6.1 0.00 0.29 0.01 91 1012.2
20260509223121 78 10 2.6 5.2 0.00 0.29 0.01 89 1012.4
20260509223115 83 96 4.3 6.1 0.00 0.28 0.00 82 1012.6
20260509223110 76 355 1.7 6.1 0.01 0.15 0.02 91 1012.7
20260509223104 83 117 3.5 5.2 0.00 0.28 0.00 84 1012.7
20260509223100 80 98 4.3 5.2 0.00 0.28 0.00 85 1012.6
20260509223054 82 98 4.3 6.1 0.00 0.28 0.00 84 1012.7
20260509223049 80 98 2.6 4.3 0.00 0.28 0.00 87 1012.5
20260509223042 79 98 2.6 4.3 0.00 0.28 0.00 89 1012.3
20260509223038 79 98 2.6 4.3 0.01 0.29 0.01 91 1012.2
20260509223032 79 98 0.0 4.3 0.01 0.29 0.01 93 1012.2
20260509223027 79 98 0.0 0.0 0.01 0.29 0.01 92 1012.3
20260509223022 79 98 0.0 1.7 0.01 0.29 0.01 91 1012.6
20260509223017 79 9 0.9 4.3 0.01 0.29 0.01 92 1012.2
20260509223011 79 97 0.0 3.5 0.01 0.29 0.01 92 1012.3
20260509223006 78 314 1.7 5.2 0.00 0.29 0.01 91 1012.2
20260509223001 79 346 1.7 5.2 0.00 0.29 0.01 92 1012.3
20260509222955 75 306 1.7 4.3 0.01 0.13 0.02 92 1012.7
20260509222951 79 355 2.6 7.0 0.00 0.29 0.01 89 1012.4
20260509222944 75 292 0.9 3.5 0.01 0.03 0.02 93 1012.9
20260509222817 78 355 2.6 7.0 0.00 0.29 0.01 89 1012.4
20260509222812 78 10 3.5 8.7 0.00 0.29 0.01 89 1012.3
20260509222807 77 344 3.5 8.7 0.00 0.29 0.01 89 1012.5
20260509222801 76 350 2.6 6.1 0.00 0.15 0.01 90 1012.6
20260509222755 75 338 0.9 3.5 0.01 0.02 0.02 93 1012.8
20260509222631 76 355 1.7 6.1 0.01 0.15 0.02 91 1012.7
20260509222627 78 250 3.5 6.1 0.00 0.29 0.01 91 1012.2
20260509222621 79 9 1.7 6.1 0.00 0.29 0.01 90 1012.3
20260509222616 78 10 2.6 5.2 0.00 0.29 0.01 89 1012.4
20260509222451 75 306 1.7 4.3 0.01 0.13 0.02 92 1012.7
20260509222445 80 98 4.3 5.2 0.00 0.28 0.00 85 1012.6
20260509222439 82 98 4.3 6.1 0.00 0.28 0.00 84 1012.7
20260509222433 80 98 2.6 4.3 0.00 0.28 0.00 87 1012.5
20260509222427 79 98 2.6 4.3 0.00 0.28 0.00 89 1012.3
20260509222422 79 98 2.6 4.3 0.01 0.29 0.01 91 1012.2
20260509222418 79 98 0.0 4.3 0.01 0.29 0.01 93 1012.2
20260509222411 78 314 1.7 5.2 0.00 0.29 0.01 91 1012.2
20260509222406 79 355 2.6 7.0 0.00 0.29 0.01 89 1012.4
20260509222400 75 292 0.9 3.5 0.01 0.03 0.02 93 1012.9
20260509222234 79 98 0.0 1.7 0.01 0.29 0.01 91 1012.6
20260509222230 79 9 0.9 4.3 0.01 0.29 0.01 92 1012.2
20260509222225 75 338 0.9 3.5 0.01 0.02 0.02 93 1012.8
20260509222219 79 97 0.0 3.5 0.01 0.29 0.01 92 1012.3
20260509222215 79 346 1.7 5.2 0.00 0.29 0.01 92 1012.3
20260509222210 78 355 2.6 7.0 0.00 0.29 0.01 89 1012.4
20260509222204 77 344 3.5 8.7 0.00 0.29 0.01 89 1012.5
20260509222200 78 10 3.5 8.7 0.00 0.29 0.01 89 1012.3
20260509222154 78 288 0.9 3.5 0.00 0.29 0.01 91 1012.3
20260509222149 76 355 1.7 6.1 0.01 0.15 0.02 91 1012.7
20260509222143 76 350 2.6 6.1 0.00 0.15 0.01 90 1012.6
20260509222017 78 250 3.5 6.1 0.00 0.29 0.01 91 1012.2
20260509222013 79 9 1.7 6.1 0.00 0.29 0.01 90 1012.3
20260509222007 78 10 2.6 5.2 0.00 0.29 0.01 89 1012.4
20260509222002 75 306 1.7 4.3 0.01 0.13 0.02 92 1012.7
20260509221836 79 355 2.6 7.0 0.00 0.29 0.01 89 1012.4
20260509221831 75 292 0.9 3.5 0.01 0.03 0.02 93 1012.9
20260509221706 78 10 3.5 8.7 0.00 0.29 0.01 89 1012.3
20260509221700 77 344 3.5 8.7 0.00 0.29 0.01 89 1012.5
20260509221656 76 350 2.6 6.1 0.00 0.15 0.01 90 1012.6
20260509221651 76 355 1.7 6.1 0.01 0.15 0.02 91 1012.7
20260509221524 80 98 4.3 5.2 0.00 0.28 0.00 85 1012.6
20260509221520 80 98 2.6 4.3 0.00 0.28 0.00 87 1012.5
20260509221515 79 98 2.6 4.3 0.00 0.28 0.00 89 1012.3
20260509221509 79 98 2.6 4.3 0.01 0.29 0.01 91 1012.2
20260509221504 79 98 0.0 4.3 0.01 0.29 0.01 93 1012.2
20260509221458 79 98 0.0 0.0 0.01 0.29 0.01 92 1012.3
20260509221452 79 98 0.0 1.7 0.01 0.29 0.01 91 1012.6
20260509221448 79 9 0.9 4.3 0.01 0.29 0.01 92 1012.2
20260509221443 78 10 2.6 5.2 0.00 0.29 0.01 89 1012.4
20260509221437 78 250 3.5 6.1 0.00 0.29 0.01 91 1012.2
20260509221430 79 97 0.0 3.5 0.01 0.29 0.01 92 1012.3
20260509221426 78 288 0.9 3.5 0.00 0.29 0.01 91 1012.3
20260509221420 79 9 1.7 6.1 0.00 0.29 0.01 90 1012.3
20260509221415 75 306 1.7 4.3 0.01 0.13 0.02 92 1012.7
20260509221136 78 10 3.5 8.7 0.00 0.29 0.01 89 1012.3
20260509221129 78 244 0.9 4.3 0.00 0.29 0.01 90 1012.4
20260509221123 78 314 1.7 5.2 0.00 0.29 0.01 91 1012.2
20260509221117 79 355 2.6 7.0 0.00 0.29 0.01 89 1012.4
20260509221113 78 355 2.6 7.0 0.00 0.29 0.01 89 1012.4
20260509221108 77 344 3.5 8.7 0.00 0.29 0.01 89 1012.5
20260509221102 76 350 2.6 6.1 0.00 0.15 0.01 90 1012.6
20260509221057 76 355 1.7 6.1 0.01 0.15 0.02 91 1012.7
20260509220933 78 10 2.6 5.2 0.00 0.29 0.01 89 1012.4
20260509220648 78 288 0.9 3.5 0.00 0.29 0.01 91 1012.3
20260509220642 78 10 3.5 8.7 0.00 0.29 0.01 89 1012.3
20260509220516 78 355 2.6 7.0 0.00 0.29 0.01 89 1012.4
20260509220510 77 344 3.5 8.7 0.00 0.29 0.01 89 1012.5
20260509220505 76 350 2.6 6.1 0.00 0.15 0.01 90 1012.6
20260509220459 76 355 1.7 6.1 0.01 0.15 0.02 91 1012.7
20260509220318 75 306 1.7 4.3 0.01 0.13 0.02 92 1012.7
20260509220207 82 107 4.3 5.2 0.00 0.28 0.00 85 1012.7
20260509220201 82 115 4.3 5.2 0.00 0.28 0.00 84 1012.8
20260509220155 78 250 3.5 6.1 0.00 0.29 0.01 91 1012.2
20260509220150 82 117 4.3 5.2 0.00 0.28 0.00 85 1013.0
20260509220146 79 98 0.0 0.0 0.01 0.29 0.01 92 1012.3
20260509220140 79 9 0.9 4.3 0.01 0.29 0.01 92 1012.2
20260509220136 79 97 0.0 3.5 0.01 0.29 0.01 92 1012.3
20260509220131 79 9 1.7 6.1 0.00 0.29 0.01 90 1012.3
20260509220126 78 10 3.5 8.7 0.00 0.29 0.01 89 1012.3
20260509215959 83 117 3.5 5.2 0.00 0.28 0.00 84 1012.7
20260509215954 79 346 1.7 5.2 0.00 0.29 0.01 92 1012.3
20260509215948 82 98 4.3 6.1 0.00 0.28 0.00 84 1012.7
20260509215943 82 100 5.2 6.1 0.00 0.28 0.00 83 1012.6
20260509215939 80 98 4.3 5.2 0.00 0.28 0.00 85 1012.6
20260509215933 77 344 3.5 8.7 0.00 0.29 0.01 89 1012.5
20260509215927 80 98 2.6 4.3 0.00 0.28 0.00 87 1012.5
20260509215922 78 314 1.7 5.2 0.00 0.29 0.01 91 1012.2
20260509215915 79 98 2.6 4.3 0.00 0.28 0.00 89 1012.3
20260509215910 79 98 2.6 4.3 0.01 0.29 0.01 91 1012.2
20260509215905 79 355 2.6 7.0 0.00 0.29 0.01 89 1012.4
20260509215900 79 98 0.0 4.3 0.01 0.29 0.01 93 1012.2
20260509215854 78 244 0.9 4.3 0.00 0.29 0.01 90 1012.4
20260509215850 78 288 0.9 3.5 0.00 0.29 0.01 91 1012.3
20260509215844 79 98 0.0 1.7 0.01 0.29 0.01 91 1012.6
20260509215839 78 355 2.6 7.0 0.00 0.29 0.01 89 1012.4
20260509215834 78 10 2.6 5.2 0.00 0.29 0.01 89 1012.4
20260509215829 76 350 2.6 6.1 0.00 0.15 0.01 90 1012.6
20260509215823 76 355 1.7 6.1 0.01 0.15 0.02 91 1012.7
20260509215536 81 84 3.5 5.2 0.00 0.28 0.00 87 1013.1
20260509215531 82 107 4.3 5.2 0.00 0.28 0.00 85 1012.7
20260509215525 79 98 0.0 0.0 0.01 0.29 0.01 92 1012.3
20260509215520 79 97 0.0 3.5 0.01 0.29 0.01 92 1012.3
20260509215516 79 9 1.7 6.1 0.00 0.29 0.01 90 1012.3
20260509215509 79 9 0.9 4.3 0.01 0.29 0.01 92 1012.2
20260509215503 79 346 1.7 5.2 0.00 0.29 0.01 92 1012.3
20260509215458 82 115 4.3 5.2 0.00 0.28 0.00 84 1012.8
20260509215452 78 10 3.5 8.7 0.00 0.29 0.01 89 1012.3
20260509215448 82 117 4.3 5.2 0.00 0.28 0.00 85 1013.0
20260509215443 77 344 3.5 8.7 0.00 0.29 0.01 89 1012.5
20260509215437 83 96 4.3 6.1 0.00 0.28 0.00 82 1012.6
20260509215432 83 117 3.5 5.2 0.00 0.28 0.00 84 1012.7
20260509215428 82 98 4.3 6.1 0.00 0.28 0.00 84 1012.7
20260509215422 82 100 5.2 6.1 0.00 0.28 0.00 83 1012.6
20260509215416 78 244 0.9 4.3 0.00 0.29 0.01 90 1012.4
20260509215409 78 314 1.7 5.2 0.00 0.29 0.01 91 1012.2
20260509215404 78 288 0.9 3.5 0.00 0.29 0.01 91 1012.3
20260509215400 79 355 2.6 7.0 0.00 0.29 0.01 89 1012.4
20260509215234 78 10 2.6 5.2 0.00 0.29 0.01 89 1012.4
20260509215228 80 98 4.3 5.2 0.00 0.28 0.00 85 1012.6
20260509215223 76 350 2.6 6.1 0.00 0.15 0.01 90 1012.6
20260509215217 76 355 1.7 6.1 0.01 0.15 0.02 91 1012.7
20260509215210 80 98 2.6 4.3 0.00 0.28 0.00 87 1012.5
20260509215206 79 98 2.6 4.3 0.00 0.28 0.00 89 1012.3
20260509215200 79 98 2.6 4.3 0.01 0.29 0.01 91 1012.2
20260509215155 79 98 0.0 4.3 0.01 0.29 0.01 93 1012.2
20260509215151 79 98 0.0 1.7 0.01 0.29 0.01 91 1012.6
20260509215145 78 250 3.5 6.1 0.00 0.29 0.01 91 1012.2
20260509215020 79 9 0.9 4.3 0.01 0.29 0.01 92 1012.2
20260509215016 79 97 0.0 3.5 0.01 0.29 0.01 92 1012.3
20260509215009 79 346 1.7 5.2 0.00 0.29 0.01 92 1012.3
20260509215003 79 9 1.7 6.1 0.00 0.29 0.01 90 1012.3
20260509214958 78 10 3.5 8.7 0.00 0.29 0.01 89 1012.3
20260509214953 77 344 3.5 8.7 0.00 0.29 0.01 89 1012.5
20260509214828 70 191 2.6 4.3 0.00 0.28 0.00 91 1012.2
20260509214823 70 181 2.6 5.2 0.00 0.28 0.00 91 1012.3
20260509214818 80 82 4.3 5.2 0.00 0.28 0.00 86 1013.2
20260509214812 80 95 4.3 6.1 0.00 0.28 0.00 87 1013.2
20260509214805 79 355 2.6 7.0 0.00 0.29 0.01 89 1012.4
20260509214801 81 90 3.5 5.2 0.00 0.28 0.00 85 1012.9
20260509214756 78 244 0.9 4.3 0.00 0.29 0.01 90 1012.4
20260509214751 78 314 1.7 5.2 0.00 0.29 0.01 91 1012.2
20260509214745 76 350 2.6 6.1 0.00 0.15 0.01 90 1012.6
20260509214740 78 10 2.6 5.2 0.00 0.29 0.01 89 1012.4
20260509214736 78 355 2.6 7.0 0.00 0.29 0.01 89 1012.4
20260509214730 78 288 0.9 3.5 0.00 0.29 0.01 91 1012.3
20260509214606 82 107 4.3 5.2 0.00 0.28 0.00 85 1012.7
20260509214558 78 250 3.5 6.1 0.00 0.29 0.01 91 1012.2
20260509214553 82 115 4.3 5.2 0.00 0.28 0.00 84 1012.8
20260509214547 82 117 4.3 5.2 0.00 0.28 0.00 85 1013.0
20260509214543 83 96 4.3 6.1 0.00 0.28 0.00 82 1012.6
20260509214538 83 117 3.5 5.2 0.00 0.28 0.00 84 1012.7
20260509214532 82 98 4.3 6.1 0.00 0.28 0.00 84 1012.7
20260509214528 82 100 5.2 6.1 0.00 0.28 0.00 83 1012.6
20260509214522 80 98 4.3 5.2 0.00 0.28 0.00 85 1012.6
20260509214517 80 98 2.6 4.3 0.00 0.28 0.00 87 1012.5
20260509214512 79 98 2.6 4.3 0.00 0.28 0.00 89 1012.3
20260509214507 79 98 2.6 4.3 0.01 0.29 0.01 91 1012.2
20260509214502 79 98 0.0 4.3 0.01 0.29 0.01 93 1012.2
20260509214455 79 98 0.0 1.7 0.01 0.29 0.01 91 1012.6
20260509214451 79 98 0.0 0.0 0.01 0.29 0.01 92 1012.3
20260509214445 79 9 0.9 4.3 0.01 0.29 0.01 92 1012.2
20260509214440 79 97 0.0 3.5 0.01 0.29 0.01 92 1012.3
20260509214435 79 9 1.7 6.1 0.00 0.29 0.01 90 1012.3
20260509214430 79 346 1.7 5.2 0.00 0.29 0.01 92 1012.3
20260509214426 78 10 3.5 8.7 0.00 0.29 0.01 89 1012.3
20260509214420 77 344 3.5 8.7 0.00 0.29 0.01 89 1012.5
20260509214254 79 355 2.6 7.0 0.00 0.29 0.01 89 1012.4
20260509214250 78 314 1.7 5.2 0.00 0.29 0.01 91 1012.2
20260509214244 78 288 0.9 3.5 0.00 0.29 0.01 91 1012.3
20260509214239 78 355 2.6 7.0 0.00 0.29 0.01 89 1012.4
20260509214235 78 10 2.6 5.2 0.00 0.29 0.01 89 1012.4
20260509214227 76 350 2.6 6.1 0.00 0.15 0.01 90 1012.6
20260509213820 78 10 3.5 8.7 0.00 0.29 0.01 89 1012.3
20260509213815 77 344 3.5 8.7 0.00 0.29 0.01 89 1012.5
20260509213809 79 355 2.6 7.0 0.00 0.29 0.01 89 1012.4
20260509213803 78 355 2.6 7.0 0.00 0.29 0.01 89 1012.4
20260509213518 79 98 0.0 0.0 0.01 0.29 0.01 92 1012.3
20260509213513 79 97 0.0 3.5 0.01 0.29 0.01 92 1012.3
20260509213508 79 346 1.7 5.2 0.00 0.29 0.01 92 1012.3
20260509213341 78 314 1.7 5.2 0.00 0.29 0.01 91 1012.2
20260509213335 78 288 0.9 3.5 0.00 0.29 0.01 91 1012.3
20260509213331 79 9 1.7 6.1 0.00 0.29 0.01 90 1012.3
20260509213325 78 10 3.5 8.7 0.00 0.29 0.01 89 1012.3
20260509213320 78 250 3.5 6.1 0.00 0.29 0.01 91 1012.2
20260509213303 77 344 3.5 8.7 0.00 0.29 0.01 89 1012.5
20260509213149 79 355 2.6 7.0 0.00 0.29 0.01 89 1012.4
20260509213141 78 355 2.6 7.0 0.00 0.29 0.01 89 1012.4
20260509213136 82 107 4.3 5.2 0.00 0.28 0.00 85 1012.7
20260509213132 82 115 4.3 5.2 0.00 0.28 0.00 84 1012.8
20260509213126 82 117 4.3 5.2 0.00 0.28 0.00 85 1013.0
20260509213120 83 96 4.3 6.1 0.00 0.28 0.00 82 1012.6
20260509213115 83 117 3.5 5.2 0.00 0.28 0.00 84 1012.7
20260509213110 82 98 4.3 6.1 0.00 0.28 0.00 84 1012.7
20260509213104 82 100 5.2 6.1 0.00 0.28 0.00 83 1012.6
20260509213059 80 98 4.3 5.2 0.00 0.28 0.00 85 1012.6
20260509213054 80 98 2.6 4.3 0.00 0.28 0.00 87 1012.5
20260509213050 78 10 2.6 5.2 0.00 0.29 0.01 89 1012.4
20260509213043 79 98 2.6 4.3 0.00 0.28 0.00 89 1012.3
20260509213037 79 98 2.6 4.3 0.01 0.29 0.01 91 1012.2
20260509213032 79 9 0.9 4.3 0.01 0.29 0.01 92 1012.2
20260509213028 79 98 0.0 1.7 0.01 0.29 0.01 91 1012.6
20260509212902 79 98 0.0 4.3 0.01 0.29 0.01 93 1012.2
20260509212857 79 346 1.7 5.2 0.00 0.29 0.01 92 1012.3
20260509212852 79 98 0.0 0.0 0.01 0.29 0.01 92 1012.3
20260509212848 78 244 0.9 4.3 0.00 0.29 0.01 90 1012.4
20260509212841 78 314 1.7 5.2 0.00 0.29 0.01 91 1012.2
20260509212835 78 288 0.9 3.5 0.00 0.29 0.01 91 1012.3
20260509212830 78 250 3.5 6.1 0.00 0.29 0.01 91 1012.2
20260509212826 79 9 1.7 6.1 0.00 0.29 0.01 90 1012.3
20260509212820 78 10 3.5 8.7 0.00 0.29 0.01 89 1012.3
20260509212654 78 355 2.6 7.0 0.00 0.29 0.01 89 1012.4
20260509212527 78 10 2.6 5.2 0.00 0.29 0.01 89 1012.4
20260509212402 79 346 1.7 5.2 0.00 0.29 0.01 92 1012.3
20260509212234 82 117 4.3 5.2 0.00 0.28 0.00 85 1013.0
20260509212230 83 96 4.3 6.1 0.00 0.28 0.00 82 1012.6
20260509212224 83 117 3.5 5.2 0.00 0.28 0.00 84 1012.7
20260509212219 78 10 3.5 8.7 0.00 0.29 0.01 89 1012.3
20260509212213 82 98 4.3 6.1 0.00 0.28 0.00 84 1012.7
20260509212207 82 100 5.2 6.1 0.00 0.28 0.00 83 1012.6
20260509212203 78 244 0.9 4.3 0.00 0.29 0.01 90 1012.4
20260509212158 80 98 4.3 5.2 0.00 0.28 0.00 85 1012.6
20260509212152 80 98 2.6 4.3 0.00 0.28 0.00 87 1012.5
20260509212147 78 314 1.7 5.2 0.00 0.29 0.01 91 1012.2
20260509212141 78 288 0.9 3.5 0.00 0.29 0.01 91 1012.3
20260509212134 78 250 3.5 6.1 0.00 0.29 0.01 91 1012.2
20260509212129 79 9 1.7 6.1 0.00 0.29 0.01 90 1012.3
20260509212123 79 355 2.6 7.0 0.00 0.29 0.01 89 1012.4
20260509212119 78 355 2.6 7.0 0.00 0.29 0.01 89 1012.4
20260509211953 79 98 2.6 4.3 0.01 0.29 0.01 91 1012.2
20260509211947 79 98 0.0 1.7 0.01 0.29 0.01 91 1012.6
20260509211942 78 10 2.6 5.2 0.00 0.29 0.01 89 1012.4
20260509211818 79 98 0.0 0.0 0.01 0.29 0.01 92 1012.3
20260509211812 79 9 0.9 4.3 0.01 0.29 0.01 92 1012.2
20260509211807 79 97 0.0 3.5 0.01 0.29 0.01 92 1012.3
20260509211802 79 346 1.7 5.2 0.00 0.29 0.01 92 1012.3
20260509211635 78 314 1.7 5.2 0.00 0.29 0.01 91 1012.2
20260509211629 78 288 0.9 3.5 0.00 0.29 0.01 91 1012.3
20260509211624 78 250 3.5 6.1 0.00 0.29 0.01 91 1012.2
20260509211620 79 9 1.7 6.1 0.00 0.29 0.01 90 1012.3
20260509211614 79 355 2.6 7.0 0.00 0.29 0.01 89 1012.4
20260509211206 80 98 4.3 5.2 0.00 0.28 0.00 85 1012.6
20260509211202 80 98 2.6 4.3 0.00 0.28 0.00 87 1012.5
20260509211156 79 98 2.6 4.3 0.00 0.28 0.00 89 1012.3
20260509211151 79 98 2.6 4.3 0.01 0.29 0.01 91 1012.2
20260509211145 79 98 0.0 1.7 0.01 0.29 0.01 91 1012.6
20260509211140 79 98 0.0 4.3 0.01 0.29 0.01 93 1012.2
20260509211133 79 98 0.0 0.0 0.01 0.29 0.01 92 1012.3
20260509211129 79 9 0.9 4.3 0.01 0.29 0.01 92 1012.2
20260509211123 79 97 0.0 3.5 0.01 0.29 0.01 92 1012.3
20260509211118 79 346 1.7 5.2 0.00 0.29 0.01 92 1012.3
20260509210951 79 9 1.7 6.1 0.00 0.29 0.01 90 1012.3
20260509210946 78 288 0.9 3.5 0.00 0.29 0.01 91 1012.3
20260509210942 78 314 1.7 5.2 0.00 0.29 0.01 91 1012.2
20260509210936 78 250 3.5 6.1 0.00 0.29 0.01 91 1012.2
20260509210808 78 355 2.6 7.0 0.00 0.29 0.01 89 1012.4
20260509210642 71 190 4.3 9.6 0.00 0.28 0.00 89 1012.5
20260509210638 80 82 4.3 5.2 0.00 0.28 0.00 86 1013.2
20260509210632 80 95 4.3 6.1 0.00 0.28 0.00 87 1013.2
20260509210625 79 9 0.9 4.3 0.01 0.29 0.01 92 1012.2
20260509210620 81 84 3.5 5.2 0.00 0.28 0.00 87 1013.1
20260509210614 81 90 3.5 5.2 0.00 0.28 0.00 85 1012.9
20260509210610 82 115 4.3 5.2 0.00 0.28 0.00 84 1012.8
20260509210604 82 107 4.3 5.2 0.00 0.28 0.00 85 1012.7
20260509210559 82 117 4.3 5.2 0.00 0.28 0.00 85 1013.0
20260509210553 83 96 4.3 6.1 0.00 0.28 0.00 82 1012.6
20260509210549 83 117 3.5 5.2 0.00 0.28 0.00 84 1012.7
20260509210544 82 100 5.2 6.1 0.00 0.28 0.00 83 1012.6
20260509210540 82 98 4.3 6.1 0.00 0.28 0.00 84 1012.7
20260509210534 80 98 4.3 5.2 0.00 0.28 0.00 85 1012.6
20260509210528 80 98 2.6 4.3 0.00 0.28 0.00 87 1012.5
20260509210522 79 98 2.6 4.3 0.00 0.28 0.00 89 1012.3
20260509210517 79 98 2.6 4.3 0.01 0.29 0.01 91 1012.2
20260509210512 79 98 0.0 1.7 0.01 0.29 0.01 91 1012.6
20260509210506 79 98 0.0 4.3 0.01 0.29 0.01 93 1012.2
20260509210502 79 98 0.0 0.0 0.01 0.29 0.01 92 1012.3
20260509210456 79 97 0.0 3.5 0.01 0.29 0.01 92 1012.3
20260509210452 78 288 0.9 3.5 0.00 0.29 0.01 91 1012.3
20260509210447 78 250 3.5 6.1 0.00 0.29 0.01 91 1012.2
20260509210441 79 9 1.7 6.1 0.00 0.29 0.01 90 1012.3
20260509210315 78 244 0.9 4.3 0.00 0.29 0.01 90 1012.4
20260509210309 78 314 1.7 5.2 0.00 0.29 0.01 91 1012.2
20260509210304 79 355 2.6 7.0 0.00 0.29 0.01 89 1012.4
20260509210248 78 355 2.6 7.0 0.00 0.29 0.01 89 1012.4
20260509210134 79 9 0.9 4.3 0.01 0.29 0.01 92 1012.2
20260509210128 72 123 7.8 9.6 0.00 0.28 0.00 89 1012.4
20260509210121 72 122 7.0 9.6 0.00 0.28 0.00 90 1012.4
20260509210115 71 127 5.2 7.0 0.00 0.28 0.00 91 1012.5
20260509210111 71 120 4.3 6.1 0.00 0.28 0.00 91 1012.9
20260509210106 71 117 4.3 6.1 0.00 0.28 0.00 92 1013.0
20260509210100 71 119 5.2 7.8 0.00 0.28 0.00 92 1013.1
20260509210054 70 116 4.3 6.1 0.00 0.28 0.00 92 1013.3
20260509210050 70 124 4.3 7.8 0.00 0.28 0.00 92 1013.6
20260509210045 70 111 4.3 7.8 0.00 0.28 0.00 92 1013.7
20260509210039 70 97 3.5 7.0 0.00 0.28 0.00 92 1013.8
20260509210034 80 129 2.6 6.1 0.00 0.28 0.00 86 1013.0
20260509210030 80 175 0.9 4.3 0.00 0.28 0.00 85 1013.0
20260509210023 80 175 0.9 3.5 0.00 0.28 0.00 84 1013.4
20260509210017 80 174 1.7 6.1 0.00 0.28 0.00 87 1013.4
20260509210012 78 288 0.9 3.5 0.00 0.29 0.01 91 1012.3
20260509210008 80 82 4.3 5.2 0.00 0.28 0.00 86 1013.2
20260509210002 80 95 4.3 6.1 0.00 0.28 0.00 87 1013.2
20260509205957 81 84 3.5 5.2 0.00 0.28 0.00 87 1013.1
20260509205952 81 90 3.5 5.2 0.00 0.28 0.00 85 1012.9
20260509205947 82 115 4.3 5.2 0.00 0.28 0.00 84 1012.8
20260509205941 82 107 4.3 5.2 0.00 0.28 0.00 85 1012.7
20260509205935 82 117 4.3 5.2 0.00 0.28 0.00 85 1013.0
20260509205930 83 96 4.3 6.1 0.00 0.28 0.00 82 1012.6
20260509205925 83 117 3.5 5.2 0.00 0.28 0.00 84 1012.7
20260509205919 78 250 3.5 6.1 0.00 0.29 0.01 91 1012.2
20260509205913 79 9 1.7 6.1 0.00 0.29 0.01 90 1012.3
20260509205749 82 98 4.3 6.1 0.00 0.28 0.00 84 1012.7
20260509205744 80 98 4.3 5.2 0.00 0.28 0.00 85 1012.6
20260509205740 80 98 2.6 4.3 0.00 0.28 0.00 87 1012.5
20260509205734 79 98 2.6 4.3 0.00 0.28 0.00 89 1012.3
20260509205728 79 98 2.6 4.3 0.01 0.29 0.01 91 1012.2
20260509205721 79 98 0.0 1.7 0.01 0.29 0.01 91 1012.6
20260509205716 79 98 0.0 4.3 0.01 0.29 0.01 93 1012.2
20260509205710 79 355 2.6 7.0 0.00 0.29 0.01 89 1012.4
20260509205706 79 98 0.0 0.0 0.01 0.29 0.01 92 1012.3
20260509205700 79 97 0.0 3.5 0.01 0.29 0.01 92 1012.3
20260509205656 79 9 0.9 4.3 0.01 0.29 0.01 92 1012.2
20260509205650 79 346 1.7 5.2 0.00 0.29 0.01 92 1012.3
20260509205645 78 244 0.9 4.3 0.00 0.29 0.01 90 1012.4
20260509205641 78 314 1.7 5.2 0.00 0.29 0.01 91 1012.2
20260509205352 79 9 1.7 6.1 0.00 0.29 0.01 90 1012.3
20260509204826 79 9 0.9 4.3 0.01 0.29 0.01 92 1012.2
20260509204820 78 314 1.7 5.2 0.00 0.29 0.01 91 1012.2
20260509204813 78 250 3.5 6.1 0.00 0.29 0.01 91 1012.2
20260509204809 79 9 1.7 6.1 0.00 0.29 0.01 90 1012.3
20260509204643 71 112 4.3 6.1 0.00 0.28 0.00 93 1014.2
20260509204637 71 81 5.2 8.7 0.00 0.28 0.00 94 1014.2
20260509204632 71 82 5.2 8.7 0.00 0.28 0.00 94 1014.0
20260509204628 78 178 4.3 6.1 0.00 0.28 0.00 87 1013.3
20260509204622 78 148 3.5 5.2 0.00 0.28 0.00 89 1013.1
20260509204618 80 129 2.6 6.1 0.00 0.28 0.00 86 1013.0
20260509204612 80 175 0.9 4.3 0.00 0.28 0.00 85 1013.0
20260509204604 80 175 0.9 3.5 0.00 0.28 0.00 84 1013.4
20260509204600 80 174 1.7 6.1 0.00 0.28 0.00 87 1013.4
20260509204554 79 98 0.0 0.0 0.01 0.29 0.01 92 1012.3
20260509204549 80 82 4.3 5.2 0.00 0.28 0.00 86 1013.2
20260509204543 79 98 0.0 1.7 0.01 0.29 0.01 91 1012.6
20260509204418 79 98 2.6 4.3 0.01 0.29 0.01 91 1012.2
20260509204412 79 97 0.0 3.5 0.01 0.29 0.01 92 1012.3
20260509204405 81 84 3.5 5.2 0.00 0.28 0.00 87 1013.1
20260509204359 82 98 4.3 6.1 0.00 0.28 0.00 84 1012.7
20260509204354 80 98 2.6 4.3 0.00 0.28 0.00 87 1012.5
20260509204349 79 98 2.6 4.3 0.00 0.28 0.00 89 1012.3
20260509204344 79 98 0.0 4.3 0.01 0.29 0.01 93 1012.2
20260509204338 78 288 0.9 3.5 0.00 0.29 0.01 91 1012.3
20260509204334 82 115 4.3 5.2 0.00 0.28 0.00 84 1012.8
20260509204329 79 346 1.7 5.2 0.00 0.29 0.01 92 1012.3
20260509204323 82 107 4.3 5.2 0.00 0.28 0.00 85 1012.7
20260509204318 82 117 4.3 5.2 0.00 0.28 0.00 85 1013.0
20260509204312 78 244 0.9 4.3 0.00 0.29 0.01 90 1012.4
20260509204305 81 90 3.5 5.2 0.00 0.28 0.00 85 1012.9
20260509204301 83 96 4.3 6.1 0.00 0.28 0.00 82 1012.6
20260509204255 79 9 0.9 4.3 0.01 0.29 0.01 92 1012.2
20260509204250 78 250 3.5 6.1 0.00 0.29 0.01 91 1012.2
20260509204244 80 95 4.3 6.1 0.00 0.28 0.00 87 1013.2
20260509204239 78 314 1.7 5.2 0.00 0.29 0.01 91 1012.2
20260509204234 83 117 3.5 5.2 0.00 0.28 0.00 84 1012.7
20260509204229 82 100 5.2 6.1 0.00 0.28 0.00 83 1012.6
20260509204221 79 9 1.7 6.1 0.00 0.29 0.01 90 1012.3
20260509204056 79 98 0.0 0.0 0.01 0.29 0.01 92 1012.3
20260509203929 78 178 4.3 6.1 0.00 0.28 0.00 87 1013.3
20260509203924 82 98 4.3 6.1 0.00 0.28 0.00 84 1012.7
20260509203918 80 129 2.6 6.1 0.00 0.28 0.00 86 1013.0
20260509203914 79 97 0.0 3.5 0.01 0.29 0.01 92 1012.3
20260509203909 79 98 2.6 4.3 0.00 0.28 0.00 89 1012.3
20260509203902 80 98 2.6 4.3 0.00 0.28 0.00 87 1012.5
20260509203856 79 98 2.6 4.3 0.01 0.29 0.01 91 1012.2
20260509203851 80 175 0.9 4.3 0.00 0.28 0.00 85 1013.0
20260509203846 79 346 1.7 5.2 0.00 0.29 0.01 92 1012.3
20260509203841 79 98 0.0 4.3 0.01 0.29 0.01 93 1012.2
20260509203835 78 288 0.9 3.5 0.00 0.29 0.01 91 1012.3
20260509203831 78 244 0.9 4.3 0.00 0.29 0.01 90 1012.4
20260509203825 80 82 4.3 5.2 0.00 0.28 0.00 86 1013.2
20260509203820 81 84 3.5 5.2 0.00 0.28 0.00 87 1013.1
20260509203815 81 90 3.5 5.2 0.00 0.28 0.00 85 1012.9
20260509203810 82 115 4.3 5.2 0.00 0.28 0.00 84 1012.8
20260509203802 82 107 4.3 5.2 0.00 0.28 0.00 85 1012.7
20260509203758 82 117 4.3 5.2 0.00 0.28 0.00 85 1013.0
20260509203753 83 96 4.3 6.1 0.00 0.28 0.00 82 1012.6
20260509203748 79 9 0.9 4.3 0.01 0.29 0.01 92 1012.2
20260509203742 78 314 1.7 5.2 0.00 0.29 0.01 91 1012.2
20260509203737 78 250 3.5 6.1 0.00 0.29 0.01 91 1012.2
20260509203612 82 100 5.2 6.1 0.00 0.28 0.00 83 1012.6
20260509203607 79 98 0.0 1.7 0.01 0.29 0.01 91 1012.6
20260509203602 79 98 0.0 0.0 0.01 0.29 0.01 92 1012.3
20260509203435 79 97 0.0 3.5 0.01 0.29 0.01 92 1012.3
20260509203431 80 95 4.3 6.1 0.00 0.28 0.00 87 1013.2
20260509203425 82 98 4.3 6.1 0.00 0.28 0.00 84 1012.7
20260509203420 80 98 4.3 5.2 0.00 0.28 0.00 85 1012.6
20260509203414 80 98 2.6 4.3 0.00 0.28 0.00 87 1012.5
20260509203410 79 98 2.6 4.3 0.00 0.28 0.00 89 1012.3
20260509203404 79 98 2.6 4.3 0.01 0.29 0.01 91 1012.2
20260509203400 79 98 0.0 4.3 0.01 0.29 0.01 93 1012.2
20260509203352 79 346 1.7 5.2 0.00 0.29 0.01 92 1012.3
20260509203348 78 244 0.9 4.3 0.00 0.29 0.01 90 1012.4
20260509203342 78 288 0.9 3.5 0.00 0.29 0.01 91 1012.3
20260509203218 79 9 0.9 4.3 0.01 0.29 0.01 92 1012.2
20260509203213 78 250 3.5 6.1 0.00 0.29 0.01 91 1012.2
20260509203046 81 84 3.5 5.2 0.00 0.28 0.00 87 1013.1
20260509203041 81 90 3.5 5.2 0.00 0.28 0.00 85 1012.9
20260509203035 82 115 4.3 5.2 0.00 0.28 0.00 84 1012.8
20260509203030 82 107 4.3 5.2 0.00 0.28 0.00 85 1012.7
20260509203024 82 117 4.3 5.2 0.00 0.28 0.00 85 1013.0
20260509203019 83 96 4.3 6.1 0.00 0.28 0.00 82 1012.6
20260509203014 83 117 3.5 5.2 0.00 0.28 0.00 84 1012.7
20260509203009 82 100 5.2 6.1 0.00 0.28 0.00 83 1012.6
20260509203004 79 98 0.0 1.7 0.01 0.29 0.01 91 1012.6
20260509202958 79 98 0.0 0.0 0.01 0.29 0.01 92 1012.3
20260509202951 79 97 0.0 3.5 0.01 0.29 0.01 92 1012.3
20260509202826 70 46 6.1 8.7 0.00 0.28 0.00 95 1014.6
20260509202822 70 27 3.5 7.8 0.00 0.28 0.00 95 1014.9
20260509202817 78 186 0.9 5.2 0.00 0.28 0.00 87 1013.1
20260509202811 78 235 1.7 6.1 0.00 0.28 0.00 86 1013.1
20260509202806 78 148 3.5 5.2 0.00 0.28 0.00 89 1013.1
20260509202800 80 174 1.7 6.1 0.00 0.28 0.00 87 1013.4
20260509202755 80 98 4.3 5.2 0.00 0.28 0.00 85 1012.6
20260509202748 82 98 4.3 6.1 0.00 0.28 0.00 84 1012.7
20260509202743 78 244 0.9 4.3 0.00 0.29 0.01 90 1012.4
20260509202738 80 98 2.6 4.3 0.00 0.28 0.00 87 1012.5
20260509202733 79 346 1.7 5.2 0.00 0.29 0.01 92 1012.3
20260509202728 79 98 2.6 4.3 0.00 0.28 0.00 89 1012.3
20260509202724 79 98 2.6 4.3 0.01 0.29 0.01 91 1012.2
20260509202718 79 9 0.9 4.3 0.01 0.29 0.01 92 1012.2
20260509202713 78 314 1.7 5.2 0.00 0.29 0.01 91 1012.2
20260509202707 78 288 0.9 3.5 0.00 0.29 0.01 91 1012.3
20260509202702 78 178 4.3 6.1 0.00 0.28 0.00 87 1013.3
20260509202658 79 98 0.0 4.3 0.01 0.29 0.01 93 1012.2
20260509202531 80 175 0.9 4.3 0.00 0.28 0.00 85 1013.0
20260509202525 80 175 0.9 3.5 0.00 0.28 0.00 84 1013.4
20260509202520 80 95 4.3 6.1 0.00 0.28 0.00 87 1013.2
20260509202515 80 82 4.3 5.2 0.00 0.28 0.00 86 1013.2
20260509202510 81 84 3.5 5.2 0.00 0.28 0.00 87 1013.1
20260509202505 81 90 3.5 5.2 0.00 0.28 0.00 85 1012.9
20260509202459 82 115 4.3 5.2 0.00 0.28 0.00 84 1012.8
20260509202454 82 107 4.3 5.2 0.00 0.28 0.00 85 1012.7
20260509202447 82 117 4.3 5.2 0.00 0.28 0.00 85 1013.0
20260509202443 83 96 4.3 6.1 0.00 0.28 0.00 82 1012.6
20260509202437 83 117 3.5 5.2 0.00 0.28 0.00 84 1012.7
20260509202431 82 100 5.2 6.1 0.00 0.28 0.00 83 1012.6
20260509202426 79 98 0.0 1.7 0.01 0.29 0.01 91 1012.6
20260509202422 79 98 0.0 0.0 0.01 0.29 0.01 92 1012.3
20260509202416 79 97 0.0 3.5 0.01 0.29 0.01 92 1012.3
20260509202252 80 98 4.3 5.2 0.00 0.28 0.00 85 1012.6
20260509202247 78 244 0.9 4.3 0.00 0.29 0.01 90 1012.4
20260509202240 79 346 1.7 5.2 0.00 0.29 0.01 92 1012.3
20260509202236 79 9 0.9 4.3 0.01 0.29 0.01 92 1012.2
20260509202230 80 98 2.6 4.3 0.00 0.28 0.00 87 1012.5
20260509202226 79 98 2.6 4.3 0.00 0.28 0.00 89 1012.3
20260509202221 79 98 2.6 4.3 0.01 0.29 0.01 91 1012.2
20260509202215 78 314 1.7 5.2 0.00 0.29 0.01 91 1012.2
20260509202210 78 288 0.9 3.5 0.00 0.29 0.01 91 1012.3
20260509201924 79 98 0.0 0.0 0.01 0.29 0.01 92 1012.3
20260509201918 79 97 0.0 3.5 0.01 0.29 0.01 92 1012.3
20260509201753 79 346 1.7 5.2 0.00 0.29 0.01 92 1012.3
20260509201748 78 244 0.9 4.3 0.00 0.29 0.01 90 1012.4
20260509201742 79 9 0.9 4.3 0.01 0.29 0.01 92 1012.2
20260509201616 83 96 4.3 6.1 0.00 0.28 0.00 82 1012.6
20260509201610 83 117 3.5 5.2 0.00 0.28 0.00 84 1012.7
20260509201606 82 100 5.2 6.1 0.00 0.28 0.00 83 1012.6
20260509201600 78 314 1.7 5.2 0.00 0.29 0.01 91 1012.2
20260509201432 80 98 4.3 5.2 0.00 0.28 0.00 85 1012.6
20260509201427 80 98 2.6 4.3 0.00 0.28 0.00 87 1012.5
20260509201423 79 98 2.6 4.3 0.00 0.28 0.00 89 1012.3
20260509201417 79 98 2.6 4.3 0.01 0.29 0.01 91 1012.2
20260509201412 79 98 0.0 4.3 0.01 0.29 0.01 93 1012.2
20260509201407 79 98 0.0 1.7 0.01 0.29 0.01 91 1012.6
20260509201402 79 98 0.0 0.0 0.01 0.29 0.01 92 1012.3
20260509201357 79 97 0.0 3.5 0.01 0.29 0.01 92 1012.3
20260509201230 79 346 1.7 5.2 0.00 0.29 0.01 92 1012.3
20260509201224 78 244 0.9 4.3 0.00 0.29 0.01 90 1012.4
20260509201024 78 314 1.7 5.2 0.00 0.29 0.01 91 1012.2
20260509195127 80 129 2.6 6.1 0.00 0.28 0.00 86 1013.0
20260509195121 80 175 0.9 4.3 0.00 0.28 0.00 85 1013.0
20260509195115 80 95 4.3 6.1 0.00 0.28 0.00 87 1013.2
20260509195111 79 98 0.0 0.0 0.01 0.29 0.01 92 1012.3
20260509194942 81 84 3.5 5.2 0.00 0.28 0.00 87 1013.1
20260509194937 81 90 3.5 5.2 0.00 0.28 0.00 85 1012.9
20260509194932 82 107 4.3 5.2 0.00 0.28 0.00 85 1012.7
20260509194927 82 115 4.3 5.2 0.00 0.28 0.00 84 1012.8
20260509194921 82 117 4.3 5.2 0.00 0.28 0.00 85 1013.0
20260509194916 83 96 4.3 6.1 0.00 0.28 0.00 82 1012.6
20260509194910 83 117 3.5 5.2 0.00 0.28 0.00 84 1012.7
20260509194906 82 100 5.2 6.1 0.00 0.28 0.00 83 1012.6
20260509194740 82 98 4.3 6.1 0.00 0.28 0.00 84 1012.7
20260509194734 79 97 0.0 3.5 0.01 0.29 0.01 92 1012.3
20260509194728 80 98 4.3 5.2 0.00 0.28 0.00 85 1012.6
20260509194723 80 98 2.6 4.3 0.00 0.28 0.00 87 1012.5
20260509194719 79 98 2.6 4.3 0.00 0.28 0.00 89 1012.3
20260509194713 79 98 2.6 4.3 0.01 0.29 0.01 91 1012.2
20260509194708 79 98 0.0 4.3 0.01 0.29 0.01 93 1012.2
20260509194701 79 9 0.9 4.3 0.01 0.29 0.01 92 1012.2
20260509194254 79 98 0.0 1.7 0.01 0.29 0.01 91 1012.6
20260509194249 78 148 3.5 5.2 0.00 0.28 0.00 89 1013.1
20260509194243 79 97 0.0 3.5 0.01 0.29 0.01 92 1012.3
20260509194238 80 174 1.7 6.1 0.00 0.28 0.00 87 1013.4
20260509194232 78 178 4.3 6.1 0.00 0.28 0.00 87 1013.3
20260509194228 80 175 0.9 3.5 0.00 0.28 0.00 84 1013.4
20260509194222 80 129 2.6 6.1 0.00 0.28 0.00 86 1013.0
20260509194217 80 175 0.9 4.3 0.00 0.28 0.00 85 1013.0
20260509194212 82 100 5.2 6.1 0.00 0.28 0.00 83 1012.6
20260509194207 79 9 0.9 4.3 0.01 0.29 0.01 92 1012.2
20260509194201 80 98 4.3 5.2 0.00 0.28 0.00 85 1012.6
20260509194035 82 98 4.3 6.1 0.00 0.28 0.00 84 1012.7
20260509194029 80 98 2.6 4.3 0.00 0.28 0.00 87 1012.5
20260509194024 79 98 2.6 4.3 0.00 0.28 0.00 89 1012.3
20260509194018 79 98 2.6 4.3 0.01 0.29 0.01 91 1012.2
20260509194013 79 98 0.0 4.3 0.01 0.29 0.01 93 1012.2
20260509194008 79 98 0.0 0.0 0.01 0.29 0.01 92 1012.3
20260509193842 81 84 3.5 5.2 0.00 0.28 0.00 87 1013.1
20260509193836 81 90 3.5 5.2 0.00 0.28 0.00 85 1012.9
20260509193831 82 107 4.3 5.2 0.00 0.28 0.00 85 1012.7
20260509193827 82 115 4.3 5.2 0.00 0.28 0.00 84 1012.8
20260509193821 82 117 4.3 5.2 0.00 0.28 0.00 85 1013.0
20260509193816 83 117 3.5 5.2 0.00 0.28 0.00 84 1012.7
20260509193810 83 96 4.3 6.1 0.00 0.28 0.00 82 1012.6
20260509193806 79 98 0.0 1.7 0.01 0.29 0.01 91 1012.6
20260509193800 79 97 0.0 3.5 0.01 0.29 0.01 92 1012.3
20260509193513 82 98 4.3 6.1 0.00 0.28 0.00 84 1012.7
20260509193508 80 98 2.6 4.3 0.00 0.28 0.00 87 1012.5
20260509193503 79 98 2.6 4.3 0.00 0.28 0.00 89 1012.3
20260509193459 79 98 0.0 4.3 0.01 0.29 0.01 93 1012.2
20260509193454 79 98 2.6 4.3 0.01 0.29 0.01 91 1012.2
20260509193448 79 98 0.0 0.0 0.01 0.29 0.01 92 1012.3
20260509193321 71 12 2.6 7.8 0.00 0.28 0.00 95 1015.4
20260509193317 71 343 4.3 8.7 0.00 0.28 0.00 94 1015.2
20260509193312 71 0 4.3 12.2 0.00 0.28 0.00 95 1015.5
20260509193306 71 12 6.1 14.8 0.00 0.28 0.00 95 1015.6
20260509193302 79 98 0.0 1.7 0.01 0.29 0.01 91 1012.6
20260509193257 78 192 2.6 6.1 0.00 0.28 0.00 87 1013.3
20260509193251 78 235 1.7 6.1 0.00 0.28 0.00 86 1013.1
20260509193244 78 186 0.9 5.2 0.00 0.28 0.00 87 1013.1
20260509193238 78 148 3.5 5.2 0.00 0.28 0.00 89 1013.1
20260509193233 81 84 3.5 5.2 0.00 0.28 0.00 87 1013.1
20260509193228 80 174 1.7 6.1 0.00 0.28 0.00 87 1013.4
20260509193223 78 178 4.3 6.1 0.00 0.28 0.00 87 1013.3
20260509193218 80 175 0.9 3.5 0.00 0.28 0.00 84 1013.4
20260509193213 80 129 2.6 6.1 0.00 0.28 0.00 86 1013.0
20260509193207 79 97 0.0 3.5 0.01 0.29 0.01 92 1012.3
20260509193202 80 175 0.9 4.3 0.00 0.28 0.00 85 1013.0
20260509193156 80 95 4.3 6.1 0.00 0.28 0.00 87 1013.2
20260509193152 81 90 3.5 5.2 0.00 0.28 0.00 85 1012.9
20260509193144 82 107 4.3 5.2 0.00 0.28 0.00 85 1012.7
20260509193140 80 82 4.3 5.2 0.00 0.28 0.00 86 1013.2
20260509193135 82 115 4.3 5.2 0.00 0.28 0.00 84 1012.8
20260509193130 82 117 4.3 5.2 0.00 0.28 0.00 85 1013.0
20260509193124 83 117 3.5 5.2 0.00 0.28 0.00 84 1012.7
20260509193120 83 96 4.3 6.1 0.00 0.28 0.00 82 1012.6
20260509193114 80 98 4.3 5.2 0.00 0.28 0.00 85 1012.6
20260509192951 82 98 4.3 6.1 0.00 0.28 0.00 84 1012.7
20260509192945 79 98 0.0 4.3 0.01 0.29 0.01 93 1012.2
20260509192938 80 98 2.6 4.3 0.00 0.28 0.00 87 1012.5
20260509192934 79 98 2.6 4.3 0.00 0.28 0.00 89 1012.3
20260509192928 79 98 2.6 4.3 0.01 0.29 0.01 91 1012.2
20260509192924 79 98 0.0 0.0 0.01 0.29 0.01 92 1012.3
20260509192758 81 84 3.5 5.2 0.00 0.28 0.00 87 1013.1
20260509192632 82 107 4.3 5.2 0.00 0.28 0.00 85 1012.7
20260509192628 82 115 4.3 5.2 0.00 0.28 0.00 84 1012.8
20260509192623 82 117 4.3 5.2 0.00 0.28 0.00 85 1013.0
20260509192617 83 117 3.5 5.2 0.00 0.28 0.00 84 1012.7
20260509192452 82 100 5.2 6.1 0.00 0.28 0.00 83 1012.6
20260509192448 82 98 4.3 6.1 0.00 0.28 0.00 84 1012.7
20260509192442 80 98 4.3 5.2 0.00 0.28 0.00 85 1012.6
20260509192437 80 98 2.6 4.3 0.00 0.28 0.00 87 1012.5
20260509192430 79 98 2.6 4.3 0.00 0.28 0.00 89 1012.3
20260509192424 79 98 2.6 4.3 0.01 0.29 0.01 91 1012.2
20260509192420 79 98 0.0 4.3 0.01 0.29 0.01 93 1012.2
20260509192245 79 98 0.0 0.0 0.01 0.29 0.01 92 1012.3
20260509192128 71 346 6.1 13.9 0.00 0.28 0.28 95 1015.4
20260509192124 72 317 3.5 11.3 0.00 0.28 0.28 95 1015.3
20260509192118 72 339 4.3 11.3 0.00 0.28 0.28 95 1015.4
20260509192113 72 5 8.7 13.0 0.00 0.28 0.28 96 1015.1
20260509192108 72 27 9.6 13.0 0.00 0.28 0.28 96 1014.9
20260509192103 72 9 8.7 10.4 0.00 0.28 0.28 96 1015.0
20260509192057 78 237 4.3 7.8 0.00 0.28 0.00 88 1013.4
20260509192051 78 192 2.6 6.1 0.00 0.28 0.00 87 1013.3
20260509192047 78 235 1.7 6.1 0.00 0.28 0.00 86 1013.1
20260509192042 78 186 0.9 5.2 0.00 0.28 0.00 87 1013.1
20260509192036 82 115 4.3 5.2 0.00 0.28 0.00 84 1012.8
20260509192031 80 174 1.7 6.1 0.00 0.28 0.00 87 1013.4
20260509192024 78 148 3.5 5.2 0.00 0.28 0.00 89 1013.1
20260509192019 78 178 4.3 6.1 0.00 0.28 0.00 87 1013.3
20260509192014 80 175 0.9 3.5 0.00 0.28 0.00 84 1013.4
20260509192010 80 129 2.6 6.1 0.00 0.28 0.00 86 1013.0
20260509192004 80 82 4.3 5.2 0.00 0.28 0.00 86 1013.2
20260509191959 72 13 7.8 10.4 0.00 0.28 0.28 96 1014.9
20260509191953 81 84 3.5 5.2 0.00 0.28 0.00 87 1013.1
20260509191948 80 175 0.9 4.3 0.00 0.28 0.00 85 1013.0
20260509191943 80 95 4.3 6.1 0.00 0.28 0.00 87 1013.2
20260509191938 81 90 3.5 5.2 0.00 0.28 0.00 85 1012.9
20260509191932 82 107 4.3 5.2 0.00 0.28 0.00 85 1012.7
20260509191925 72 42 7.0 9.6 0.00 0.28 0.28 96 1014.8
20260509191920 83 117 3.5 5.2 0.00 0.28 0.00 84 1012.7
20260509191914 80 98 4.3 5.2 0.00 0.28 0.00 85 1012.6
20260509191910 82 100 5.2 6.1 0.00 0.28 0.00 83 1012.6
20260509191904 82 117 4.3 5.2 0.00 0.28 0.00 85 1013.0
20260509191859 79 98 2.6 4.3 0.00 0.28 0.00 89 1012.3
20260509191854 83 96 4.3 6.1 0.00 0.28 0.00 82 1012.6
20260509191849 82 98 4.3 6.1 0.00 0.28 0.00 84 1012.7
20260509191844 80 98 2.6 4.3 0.00 0.28 0.00 87 1012.5
20260509191838 79 98 2.6 4.3 0.01 0.29 0.01 91 1012.2
20260509191834 79 98 0.0 4.3 0.01 0.29 0.01 93 1012.2
20260509191828 72 0 4.3 7.0 0.00 0.28 0.28 96 1014.6
20260509191822 72 45 1.7 4.3 0.00 0.28 0.28 95 1014.6
20260509191817 72 34 3.5 5.2 0.00 0.28 0.28 95 1014.5
20260509191812 72 39 3.5 5.2 0.00 0.28 0.28 95 1014.1
20260509191806 72 63 2.6 5.2 0.00 0.28 0.28 95 1013.9
20260509191802 72 86 1.7 4.3 0.00 0.28 0.28 94 1014.0
20260509191758 72 86 2.6 5.2 0.00 0.28 0.28 94 1014.0
20260509191752 72 89 1.7 6.1 0.00 0.28 0.28 94 1013.8
20260509191747 72 89 2.6 7.0 0.00 0.28 0.28 94 1013.8
20260509191742 72 75 4.3 7.0 0.00 0.28 0.28 94 1013.7
20260509191737 72 74 5.2 7.0 0.00 0.28 0.28 94 1013.7
20260509191731 79 98 0.0 1.7 0.01 0.29 0.01 91 1012.6
20260509191603 72 98 4.3 7.0 0.00 0.28 0.28 94 1013.6
20260509191558 72 87 5.2 7.8 0.00 0.28 0.28 94 1013.6
20260509191553 82 115 4.3 5.2 0.00 0.28 0.00 84 1012.8
20260509191548 77 209 5.2 7.8 0.00 0.28 0.00 88 1013.2
20260509191543 78 237 4.3 7.8 0.00 0.28 0.00 88 1013.4
20260509191537 78 192 2.6 6.1 0.00 0.28 0.00 87 1013.3
20260509191533 78 235 1.7 6.1 0.00 0.28 0.00 86 1013.1
20260509191524 78 186 0.9 5.2 0.00 0.28 0.00 87 1013.1
20260509191520 78 148 3.5 5.2 0.00 0.28 0.00 89 1013.1
20260509191514 80 174 1.7 6.1 0.00 0.28 0.00 87 1013.4
20260509191509 78 178 4.3 6.1 0.00 0.28 0.00 87 1013.3
20260509191504 80 175 0.9 3.5 0.00 0.28 0.00 84 1013.4
20260509191458 80 129 2.6 6.1 0.00 0.28 0.00 86 1013.0
20260509191454 80 175 0.9 4.3 0.00 0.28 0.00 85 1013.0
20260509191448 80 95 4.3 6.1 0.00 0.28 0.00 87 1013.2
20260509191443 80 82 4.3 5.2 0.00 0.28 0.00 86 1013.2
20260509191439 81 84 3.5 5.2 0.00 0.28 0.00 87 1013.1
20260509191433 81 90 3.5 5.2 0.00 0.28 0.00 85 1012.9
20260509191427 82 107 4.3 5.2 0.00 0.28 0.00 85 1012.7
20260509191420 82 117 4.3 5.2 0.00 0.28 0.00 85 1013.0
20260509191416 83 117 3.5 5.2 0.00 0.28 0.00 84 1012.7
20260509191410 80 98 4.3 5.2 0.00 0.28 0.00 85 1012.6
20260509191405 83 96 4.3 6.1 0.00 0.28 0.00 82 1012.6
20260509191400 82 100 5.2 6.1 0.00 0.28 0.00 83 1012.6
20260509191355 82 98 4.3 6.1 0.00 0.28 0.00 84 1012.7
20260509191350 80 98 2.6 4.3 0.00 0.28 0.00 87 1012.5
20260509191344 79 98 2.6 4.3 0.01 0.29 0.01 91 1012.2
20260509191340 79 98 2.6 4.3 0.00 0.28 0.00 89 1012.3
20260509191334 79 98 0.0 4.3 0.01 0.29 0.01 93 1012.2
20260509190928 72 94 6.1 7.8 0.00 0.28 0.28 94 1013.3
20260509190922 72 92 4.3 7.0 0.00 0.28 0.28 94 1013.2
20260509190915 78 205 3.5 8.7 0.00 0.28 0.00 88 1013.1
20260509190909 80 98 4.3 5.2 0.00 0.28 0.00 85 1012.6
20260509190904 79 98 2.6 4.3 0.01 0.29 0.01 91 1012.2
20260509190858 83 96 4.3 6.1 0.00 0.28 0.00 82 1012.6
20260509190854 77 209 5.2 7.8 0.00 0.28 0.00 88 1013.2
20260509190849 78 237 4.3 7.8 0.00 0.28 0.00 88 1013.4
20260509190843 78 192 2.6 6.1 0.00 0.28 0.00 87 1013.3
20260509190837 78 235 1.7 6.1 0.00 0.28 0.00 86 1013.1
20260509190833 78 186 0.9 5.2 0.00 0.28 0.00 87 1013.1
20260509190828 78 148 3.5 5.2 0.00 0.28 0.00 89 1013.1
20260509190822 80 174 1.7 6.1 0.00 0.28 0.00 87 1013.4
20260509190816 80 175 0.9 3.5 0.00 0.28 0.00 84 1013.4
20260509190811 80 129 2.6 6.1 0.00 0.28 0.00 86 1013.0
20260509190805 80 175 0.9 4.3 0.00 0.28 0.00 85 1013.0
20260509190800 80 95 4.3 6.1 0.00 0.28 0.00 87 1013.2
20260509190754 81 90 3.5 5.2 0.00 0.28 0.00 85 1012.9
20260509190750 82 107 4.3 5.2 0.00 0.28 0.00 85 1012.7
20260509190745 82 117 4.3 5.2 0.00 0.28 0.00 85 1013.0
20260509190739 82 100 5.2 6.1 0.00 0.28 0.00 83 1012.6
20260509190735 79 98 2.6 4.3 0.00 0.28 0.00 89 1012.3
20260509190729 80 98 2.6 4.3 0.00 0.28 0.00 87 1012.5
20260509190724 79 98 0.0 4.3 0.01 0.29 0.01 93 1012.2
20260509190556 80 82 4.3 5.2 0.00 0.28 0.00 86 1013.2
20260509190552 81 84 3.5 5.2 0.00 0.28 0.00 87 1013.1
20260509190546 82 115 4.3 5.2 0.00 0.28 0.00 84 1012.8
20260509190541 83 117 3.5 5.2 0.00 0.28 0.00 84 1012.7
20260509190537 82 98 4.3 6.1 0.00 0.28 0.00 84 1012.7
20260509190412 80 98 4.3 5.2 0.00 0.28 0.00 85 1012.6
20260509190406 79 98 2.6 4.3 0.01 0.29 0.01 91 1012.2
20260509190240 80 175 0.9 3.5 0.00 0.28 0.00 84 1013.4
20260509190234 80 129 2.6 6.1 0.00 0.28 0.00 86 1013.0
20260509190230 80 175 0.9 4.3 0.00 0.28 0.00 85 1013.0
20260509190225 80 95 4.3 6.1 0.00 0.28 0.00 87 1013.2
20260509190220 81 90 3.5 5.2 0.00 0.28 0.00 85 1012.9
20260509190215 82 107 4.3 5.2 0.00 0.28 0.00 85 1012.7
20260509190206 79 98 0.0 4.3 0.01 0.29 0.01 93 1012.2
20260509190202 79 98 2.6 4.3 0.00 0.28 0.00 89 1012.3
20260509190157 80 98 2.6 4.3 0.00 0.28 0.00 87 1012.5
20260509190152 82 100 5.2 6.1 0.00 0.28 0.00 83 1012.6
20260509190147 82 117 4.3 5.2 0.00 0.28 0.00 85 1013.0
20260509185901 81 84 3.5 5.2 0.00 0.28 0.00 87 1013.1
20260509185856 82 115 4.3 5.2 0.00 0.28 0.00 84 1012.8
20260509185850 83 117 3.5 5.2 0.00 0.28 0.00 84 1012.7
20260509185846 83 96 4.3 6.1 0.00 0.28 0.00 82 1012.6
20260509185840 80 98 4.3 5.2 0.00 0.28 0.00 85 1012.6
20260509185835 79 98 2.6 4.3 0.01 0.29 0.01 91 1012.2
20260509185708 80 98 2.6 4.3 0.00 0.28 0.00 87 1012.5
20260509185701 79 98 2.6 4.3 0.00 0.28 0.00 89 1012.3
20260509185538 78 186 0.9 5.2 0.00 0.28 0.00 87 1013.1
20260509185533 78 148 3.5 5.2 0.00 0.28 0.00 89 1013.1
20260509185528 78 178 4.3 6.1 0.00 0.28 0.00 87 1013.3
20260509185523 80 174 1.7 6.1 0.00 0.28 0.00 87 1013.4
20260509185517 80 175 0.9 3.5 0.00 0.28 0.00 84 1013.4
20260509185512 80 129 2.6 6.1 0.00 0.28 0.00 86 1013.0
20260509185506 81 90 3.5 5.2 0.00 0.28 0.00 85 1012.9
20260509185502 82 107 4.3 5.2 0.00 0.28 0.00 85 1012.7
20260509185454 82 117 4.3 5.2 0.00 0.28 0.00 85 1013.0
20260509185450 82 98 4.3 6.1 0.00 0.28 0.00 84 1012.7
20260509185325 80 98 4.3 5.2 0.00 0.28 0.00 85 1012.6
20260509185306 79 98 2.6 4.3 0.01 0.29 0.01 91 1012.2
20260509185152 80 82 4.3 5.2 0.00 0.28 0.00 86 1013.2
20260509185148 81 84 3.5 5.2 0.00 0.28 0.00 87 1013.1
20260509185142 79 98 2.6 4.3 0.00 0.28 0.00 89 1012.3
20260509185137 80 98 2.6 4.3 0.00 0.28 0.00 87 1012.5
20260509185131 82 115 4.3 5.2 0.00 0.28 0.00 84 1012.8
20260509185126 83 117 3.5 5.2 0.00 0.28 0.00 84 1012.7
20260509185122 83 96 4.3 6.1 0.00 0.28 0.00 82 1012.6
20260509185116 82 100 5.2 6.1 0.00 0.28 0.00 83 1012.6
20260509184949 72 124 4.3 6.1 0.00 0.28 0.28 94 1013.4
20260509184943 77 186 5.2 8.7 0.00 0.28 0.00 89 1013.2
20260509184938 80 174 1.7 6.1 0.00 0.28 0.00 87 1013.4
20260509184932 80 175 0.9 3.5 0.00 0.28 0.00 84 1013.4
20260509184926 80 129 2.6 6.1 0.00 0.28 0.00 86 1013.0
20260509184922 81 90 3.5 5.2 0.00 0.28 0.00 85 1012.9
20260509184917 82 107 4.3 5.2 0.00 0.28 0.00 85 1012.7
20260509184911 82 117 4.3 5.2 0.00 0.28 0.00 85 1013.0
20260509184907 82 98 4.3 6.1 0.00 0.28 0.00 84 1012.7
20260509184740 77 250 2.6 5.2 0.00 0.28 0.00 89 1013.3
20260509184735 76 236 3.5 6.1 0.00 0.28 0.00 89 1013.5
20260509184729 76 259 3.5 6.1 0.00 0.28 0.00 90 1013.4
20260509184725 75 193 3.5 6.1 0.00 0.28 0.00 91 1013.0
20260509184720 80 175 0.9 4.3 0.00 0.28 0.00 85 1013.0
20260509184715 80 98 4.3 5.2 0.00 0.28 0.00 85 1012.6
20260509184710 79 98 2.6 4.3 0.00 0.28 0.00 89 1012.3
20260509184704 75 187 3.5 6.1 0.00 0.28 0.00 91 1012.9
20260509184659 78 205 3.5 8.7 0.00 0.28 0.00 88 1013.1
20260509184655 80 98 2.6 4.3 0.00 0.28 0.00 87 1012.5
20260509184646 77 209 5.2 7.8 0.00 0.28 0.00 88 1013.2
20260509184642 78 237 4.3 7.8 0.00 0.28 0.00 88 1013.4
20260509184637 78 192 2.6 6.1 0.00 0.28 0.00 87 1013.3
20260509184631 78 235 1.7 6.1 0.00 0.28 0.00 86 1013.1
20260509184627 78 186 0.9 5.2 0.00 0.28 0.00 87 1013.1
20260509184621 78 148 3.5 5.2 0.00 0.28 0.00 89 1013.1
20260509184615 80 95 4.3 6.1 0.00 0.28 0.00 87 1013.2
20260509184611 80 82 4.3 5.2 0.00 0.28 0.00 86 1013.2
20260509184606 81 84 3.5 5.2 0.00 0.28 0.00 87 1013.1
20260509184600 82 115 4.3 5.2 0.00 0.28 0.00 84 1012.8
20260509184555 83 117 3.5 5.2 0.00 0.28 0.00 84 1012.7
20260509184548 83 96 4.3 6.1 0.00 0.28 0.00 82 1012.6
20260509184542 82 100 5.2 6.1 0.00 0.28 0.00 83 1012.6
20260509184416 80 174 1.7 6.1 0.00 0.28 0.00 87 1013.4
20260509184411 81 90 3.5 5.2 0.00 0.28 0.00 85 1012.9
20260509184405 80 175 0.9 3.5 0.00 0.28 0.00 84 1013.4
20260509184400 80 129 2.6 6.1 0.00 0.28 0.00 86 1013.0
20260509184356 82 107 4.3 5.2 0.00 0.28 0.00 85 1012.7
20260509184350 82 117 4.3 5.2 0.00 0.28 0.00 85 1013.0
20260509184342 82 98 4.3 6.1 0.00 0.28 0.00 84 1012.7
20260509184216 80 98 2.6 4.3 0.00 0.28 0.00 87 1012.5
20260509184210 80 175 0.9 4.3 0.00 0.28 0.00 85 1013.0
20260509184205 79 98 2.6 4.3 0.00 0.28 0.00 89 1012.3
20260509184038 75 211 3.5 7.0 0.00 0.28 0.00 91 1012.7
20260509184034 77 175 3.5 6.1 0.00 0.28 0.00 88 1013.1
20260509184029 80 95 4.3 6.1 0.00 0.28 0.00 87 1013.2
20260509184023 77 209 5.2 7.8 0.00 0.28 0.00 88 1013.2
20260509184018 82 115 4.3 5.2 0.00 0.28 0.00 84 1012.8
20260509184012 83 96 4.3 6.1 0.00 0.28 0.00 82 1012.6
20260509184007 83 117 3.5 5.2 0.00 0.28 0.00 84 1012.7
20260509184001 78 205 3.5 8.7 0.00 0.28 0.00 88 1013.1
20260509183956 78 192 2.6 6.1 0.00 0.28 0.00 87 1013.3
20260509183950 82 100 5.2 6.1 0.00 0.28 0.00 83 1012.6
20260509183946 78 235 1.7 6.1 0.00 0.28 0.00 86 1013.1
20260509183938 78 237 4.3 7.8 0.00 0.28 0.00 88 1013.4
20260509183932 80 82 4.3 5.2 0.00 0.28 0.00 86 1013.2
20260509183928 78 186 0.9 5.2 0.00 0.28 0.00 87 1013.1
20260509183922 81 84 3.5 5.2 0.00 0.28 0.00 87 1013.1
20260509183917 81 90 3.5 5.2 0.00 0.28 0.00 85 1012.9
20260509183911 82 107 4.3 5.2 0.00 0.28 0.00 85 1012.7
20260509183906 78 148 3.5 5.2 0.00 0.28 0.00 89 1013.1
20260509183901 82 117 4.3 5.2 0.00 0.28 0.00 85 1013.0
20260509183735 78 178 4.3 6.1 0.00 0.28 0.00 87 1013.3
20260509183729 82 98 4.3 6.1 0.00 0.28 0.00 84 1012.7
20260509183724 80 174 1.7 6.1 0.00 0.28 0.00 87 1013.4
20260509183718 80 98 2.6 4.3 0.00 0.28 0.00 87 1012.5
20260509183714 80 175 0.9 3.5 0.00 0.28 0.00 84 1013.4
20260509183710 80 129 2.6 6.1 0.00 0.28 0.00 86 1013.0
20260509183704 80 175 0.9 4.3 0.00 0.28 0.00 85 1013.0
20260509183535 82 115 4.3 5.2 0.00 0.28 0.00 84 1012.8
20260509183530 74 215 4.3 7.8 0.00 0.28 0.00 92 1012.8
20260509183526 77 186 5.2 8.7 0.00 0.28 0.00 89 1013.2
20260509183520 83 117 3.5 5.2 0.00 0.28 0.00 84 1012.7
20260509183515 82 100 5.2 6.1 0.00 0.28 0.00 83 1012.6
20260509183510 83 96 4.3 6.1 0.00 0.28 0.00 82 1012.6
20260509183505 77 175 3.5 6.1 0.00 0.28 0.00 88 1013.1
20260509183459 78 205 3.5 8.7 0.00 0.28 0.00 88 1013.1
20260509183454 77 209 5.2 7.8 0.00 0.28 0.00 88 1013.2
20260509183450 78 237 4.3 7.8 0.00 0.28 0.00 88 1013.4
20260509183444 78 192 2.6 6.1 0.00 0.28 0.00 87 1013.3
20260509183439 78 235 1.7 6.1 0.00 0.28 0.00 86 1013.1
20260509183432 78 186 0.9 5.2 0.00 0.28 0.00 87 1013.1
20260509183426 80 82 4.3 5.2 0.00 0.28 0.00 86 1013.2
20260509183422 81 84 3.5 5.2 0.00 0.28 0.00 87 1013.1
20260509183416 81 90 3.5 5.2 0.00 0.28 0.00 85 1012.9
20260509183411 82 107 4.3 5.2 0.00 0.28 0.00 85 1012.7
20260509183405 82 117 4.3 5.2 0.00 0.28 0.00 85 1013.0
20260509183239 80 98 4.3 5.2 0.00 0.28 0.00 85 1012.6
20260509183227 80 98 2.6 4.3 0.00 0.28 0.00 87 1012.5
20260509183107 78 178 4.3 6.1 0.00 0.28 0.00 87 1013.3
20260509183102 80 175 0.9 3.5 0.00 0.28 0.00 84 1013.4
20260509183056 80 174 1.7 6.1 0.00 0.28 0.00 87 1013.4
20260509183052 80 129 2.6 6.1 0.00 0.28 0.00 86 1013.0
20260509183046 80 175 0.9 4.3 0.00 0.28 0.00 85 1013.0
20260509183041 80 95 4.3 6.1 0.00 0.28 0.00 87 1013.2
20260509183035 82 115 4.3 5.2 0.00 0.28 0.00 84 1012.8
20260509183028 83 117 3.5 5.2 0.00 0.28 0.00 84 1012.7
20260509183023 83 96 4.3 6.1 0.00 0.28 0.00 82 1012.6
20260509183019 82 100 5.2 6.1 0.00 0.28 0.00 83 1012.6
20260509182852 74 207 5.2 10.4 0.00 0.28 0.00 92 1012.7
20260509182847 77 250 2.6 5.2 0.00 0.28 0.00 89 1013.3
20260509182841 81 84 3.5 5.2 0.00 0.28 0.00 87 1013.1
20260509182837 81 90 3.5 5.2 0.00 0.28 0.00 85 1012.9
20260509182830 80 82 4.3 5.2 0.00 0.28 0.00 86 1013.2
20260509182825 76 236 3.5 6.1 0.00 0.28 0.00 89 1013.5
20260509182820 76 259 3.5 6.1 0.00 0.28 0.00 90 1013.4
20260509182815 82 107 4.3 5.2 0.00 0.28 0.00 85 1012.7
20260509182809 77 186 5.2 8.7 0.00 0.28 0.00 89 1013.2
20260509182804 82 117 4.3 5.2 0.00 0.28 0.00 85 1013.0
20260509182758 77 175 3.5 6.1 0.00 0.28 0.00 88 1013.1
20260509182754 78 205 3.5 8.7 0.00 0.28 0.00 88 1013.1
20260509182748 80 98 4.3 5.2 0.00 0.28 0.00 85 1012.6
20260509182742 77 209 5.2 7.8 0.00 0.28 0.00 88 1013.2
20260509182737 78 237 4.3 7.8 0.00 0.28 0.00 88 1013.4
20260509182730 82 98 4.3 6.1 0.00 0.28 0.00 84 1012.7
20260509182605 78 235 1.7 6.1 0.00 0.28 0.00 86 1013.1
20260509182559 78 186 0.9 5.2 0.00 0.28 0.00 87 1013.1
20260509182554 78 148 3.5 5.2 0.00 0.28 0.00 89 1013.1
20260509182548 78 178 4.3 6.1 0.00 0.28 0.00 87 1013.3
20260509182544 80 174 1.7 6.1 0.00 0.28 0.00 87 1013.4
20260509182539 80 129 2.6 6.1 0.00 0.28 0.00 86 1013.0
20260509182534 80 175 0.9 3.5 0.00 0.28 0.00 84 1013.4
20260509182526 80 175 0.9 4.3 0.00 0.28 0.00 85 1013.0
20260509182522 80 95 4.3 6.1 0.00 0.28 0.00 87 1013.2
20260509182516 82 115 4.3 5.2 0.00 0.28 0.00 84 1012.8
20260509182512 83 96 4.3 6.1 0.00 0.28 0.00 82 1012.6
20260509182507 83 117 3.5 5.2 0.00 0.28 0.00 84 1012.7
20260509182501 82 100 5.2 6.1 0.00 0.28 0.00 83 1012.6
20260509182336 81 84 3.5 5.2 0.00 0.28 0.00 87 1013.1
20260509182331 81 90 3.5 5.2 0.00 0.28 0.00 85 1012.9
20260509182326 82 107 4.3 5.2 0.00 0.28 0.00 85 1012.7
20260509182318 82 117 4.3 5.2 0.00 0.28 0.00 85 1013.0
20260509182300 80 98 4.3 5.2 0.00 0.28 0.00 85 1012.6
20260509182029 83 117 3.5 5.2 0.00 0.28 0.00 84 1012.7
20260509182023 83 96 4.3 6.1 0.00 0.28 0.00 82 1012.6
20260509181856 82 100 5.2 6.1 0.00 0.28 0.00 83 1012.6
20260509181730 72 187 7.0 9.6 0.00 0.28 0.00 92 1012.3
20260509181725 75 193 3.5 6.1 0.00 0.28 0.00 91 1013.0
20260509181718 75 187 3.5 6.1 0.00 0.28 0.00 91 1012.9
20260509181713 75 211 3.5 7.0 0.00 0.28 0.00 91 1012.7
20260509181707 74 215 4.3 7.8 0.00 0.28 0.00 92 1012.8
20260509181702 80 175 0.9 4.3 0.00 0.28 0.00 85 1013.0
20260509181656 77 250 2.6 5.2 0.00 0.28 0.00 89 1013.3
20260509181652 80 95 4.3 6.1 0.00 0.28 0.00 87 1013.2
20260509181646 76 236 3.5 6.1 0.00 0.28 0.00 89 1013.5
20260509181642 81 90 3.5 5.2 0.00 0.28 0.00 85 1012.9
20260509181637 82 98 4.3 6.1 0.00 0.28 0.00 84 1012.7
20260509181631 81 84 3.5 5.2 0.00 0.28 0.00 87 1013.1
20260509181626 80 82 4.3 5.2 0.00 0.28 0.00 86 1013.2
20260509181620 82 107 4.3 5.2 0.00 0.28 0.00 85 1012.7
20260509181614 82 117 4.3 5.2 0.00 0.28 0.00 85 1013.0
20260509181609 76 259 3.5 6.1 0.00 0.28 0.00 90 1013.4
20260509181603 77 186 5.2 8.7 0.00 0.28 0.00 89 1013.2
20260509181558 77 175 3.5 6.1 0.00 0.28 0.00 88 1013.1
20260509181553 78 205 3.5 8.7 0.00 0.28 0.00 88 1013.1
20260509181548 77 209 5.2 7.8 0.00 0.28 0.00 88 1013.2
20260509181543 78 237 4.3 7.8 0.00 0.28 0.00 88 1013.4
20260509181537 78 192 2.6 6.1 0.00 0.28 0.00 87 1013.3
20260509181531 78 235 1.7 6.1 0.00 0.28 0.00 86 1013.1
20260509181526 83 117 3.5 5.2 0.00 0.28 0.00 84 1012.7
20260509181522 83 96 4.3 6.1 0.00 0.28 0.00 82 1012.6
20260509181354 78 148 3.5 5.2 0.00 0.28 0.00 89 1013.1
20260509181349 78 178 4.3 6.1 0.00 0.28 0.00 87 1013.3
20260509181343 80 174 1.7 6.1 0.00 0.28 0.00 87 1013.4
20260509181338 80 175 0.9 3.5 0.00 0.28 0.00 84 1013.4
20260509181333 80 129 2.6 6.1 0.00 0.28 0.00 86 1013.0
20260509181328 82 115 4.3 5.2 0.00 0.28 0.00 84 1012.8
20260509181323 82 100 5.2 6.1 0.00 0.28 0.00 83 1012.6
20260509181155 80 175 0.9 4.3 0.00 0.28 0.00 85 1013.0
20260509181149 80 95 4.3 6.1 0.00 0.28 0.00 87 1013.2
20260509181145 80 82 4.3 5.2 0.00 0.28 0.00 86 1013.2
20260509181141 81 84 3.5 5.2 0.00 0.28 0.00 87 1013.1
20260509181135 81 90 3.5 5.2 0.00 0.28 0.00 85 1012.9
20260509181130 82 107 4.3 5.2 0.00 0.28 0.00 85 1012.7
20260509181126 82 117 4.3 5.2 0.00 0.28 0.00 85 1013.0
20260509180959 77 250 2.6 5.2 0.00 0.28 0.00 89 1013.3
20260509180954 76 236 3.5 6.1 0.00 0.28 0.00 89 1013.5
20260509180948 77 186 5.2 8.7 0.00 0.28 0.00 89 1013.2
20260509180943 77 175 3.5 6.1 0.00 0.28 0.00 88 1013.1
20260509180937 78 205 3.5 8.7 0.00 0.28 0.00 88 1013.1
20260509180932 77 209 5.2 7.8 0.00 0.28 0.00 88 1013.2
20260509180926 78 237 4.3 7.8 0.00 0.28 0.00 88 1013.4
20260509180922 83 96 4.3 6.1 0.00 0.28 0.00 82 1012.6
20260509180754 78 235 1.7 6.1 0.00 0.28 0.00 86 1013.1
20260509180749 78 186 0.9 5.2 0.00 0.28 0.00 87 1013.1
20260509180744 78 148 3.5 5.2 0.00 0.28 0.00 89 1013.1
20260509180739 82 100 5.2 6.1 0.00 0.28 0.00 83 1012.6
20260509180733 78 178 4.3 6.1 0.00 0.28 0.00 87 1013.3
20260509180729 82 115 4.3 5.2 0.00 0.28 0.00 84 1012.8
20260509180602 80 175 0.9 3.5 0.00 0.28 0.00 84 1013.4
20260509180557 80 129 2.6 6.1 0.00 0.28 0.00 86 1013.0
20260509180551 80 82 4.3 5.2 0.00 0.28 0.00 86 1013.2
20260509180546 80 175 0.9 4.3 0.00 0.28 0.00 85 1013.0
20260509180540 80 95 4.3 6.1 0.00 0.28 0.00 87 1013.2
20260509180536 82 117 4.3 5.2 0.00 0.28 0.00 85 1013.0
20260509180530 81 84 3.5 5.2 0.00 0.28 0.00 87 1013.1
20260509180526 81 90 3.5 5.2 0.00 0.28 0.00 85 1012.9
20260509180521 82 107 4.3 5.2 0.00 0.28 0.00 85 1012.7
20260509180515 83 117 3.5 5.2 0.00 0.28 0.00 84 1012.7
20260509180109 82 115 4.3 5.2 0.00 0.28 0.00 84 1012.8
20260509180103 78 178 4.3 6.1 0.00 0.28 0.00 87 1013.3
20260509180056 80 82 4.3 5.2 0.00 0.28 0.00 86 1013.2
20260509180051 82 117 4.3 5.2 0.00 0.28 0.00 85 1013.0
20260509175927 83 117 3.5 5.2 0.00 0.28 0.00 84 1012.7
20260509175802 82 107 4.3 5.2 0.00 0.28 0.00 85 1012.7
20260509175755 83 96 4.3 6.1 0.00 0.28 0.00 82 1012.6
20260509175628 80 175 0.9 3.5 0.00 0.28 0.00 84 1013.4
20260509175623 80 129 2.6 6.1 0.00 0.28 0.00 86 1013.0
20260509175617 80 175 0.9 4.3 0.00 0.28 0.00 85 1013.0
20260509175612 80 95 4.3 6.1 0.00 0.28 0.00 87 1013.2
20260509175606 80 82 4.3 5.2 0.00 0.28 0.00 86 1013.2
20260509175601 82 115 4.3 5.2 0.00 0.28 0.00 84 1012.8
20260509175313 81 84 3.5 5.2 0.00 0.28 0.00 87 1013.1
20260509175308 83 117 3.5 5.2 0.00 0.28 0.00 84 1012.7
20260509175306 75 193 3.5 6.1 0.00 0.28 0.00 91 1013.0
20260509175300 76 259 3.5 6.1 0.00 0.28 0.00 90 1013.4
20260509175254 77 250 2.6 5.2 0.00 0.28 0.00 89 1013.3
20260509175249 81 90 3.5 5.2 0.00 0.28 0.00 85 1012.9
20260509175242 76 236 3.5 6.1 0.00 0.28 0.00 89 1013.5
20260509175236 77 186 5.2 8.7 0.00 0.28 0.00 89 1013.2
20260509175231 77 175 3.5 6.1 0.00 0.28 0.00 88 1013.1
20260509175225 78 205 3.5 8.7 0.00 0.28 0.00 88 1013.1
20260509175219 82 107 4.3 5.2 0.00 0.28 0.00 85 1012.7
20260509175213 83 96 4.3 6.1 0.00 0.28 0.00 82 1012.6
20260509175048 78 237 4.3 7.8 0.00 0.28 0.00 88 1013.4
20260509175041 78 192 2.6 6.1 0.00 0.28 0.00 87 1013.3
20260509175036 78 235 1.7 6.1 0.00 0.28 0.00 86 1013.1
20260509175030 78 186 0.9 5.2 0.00 0.28 0.00 87 1013.1
20260509175026 80 129 2.6 6.1 0.00 0.28 0.00 86 1013.0
20260509175020 80 175 0.9 3.5 0.00 0.28 0.00 84 1013.4
20260509175016 78 148 3.5 5.2 0.00 0.28 0.00 89 1013.1
20260509175010 80 175 0.9 4.3 0.00 0.28 0.00 85 1013.0
20260509175005 82 115 4.3 5.2 0.00 0.28 0.00 84 1012.8
20260509174959 80 95 4.3 6.1 0.00 0.28 0.00 87 1013.2
20260509174954 82 117 4.3 5.2 0.00 0.28 0.00 85 1013.0
20260509174827 80 174 1.7 6.1 0.00 0.28 0.00 87 1013.4
20260509174821 80 82 4.3 5.2 0.00 0.28 0.00 86 1013.2
20260509174815 81 84 3.5 5.2 0.00 0.28 0.00 87 1013.1
20260509174811 81 90 3.5 5.2 0.00 0.28 0.00 85 1012.9
20260509174806 83 117 3.5 5.2 0.00 0.28 0.00 84 1012.7
20260509174520 77 186 5.2 8.7 0.00 0.28 0.00 89 1013.2
20260509174515 80 175 0.9 3.5 0.00 0.28 0.00 84 1013.4
20260509174510 80 129 2.6 6.1 0.00 0.28 0.00 86 1013.0
20260509174505 80 175 0.9 4.3 0.00 0.28 0.00 85 1013.0
20260509174500 80 95 4.3 6.1 0.00 0.28 0.00 87 1013.2
20260509174455 82 115 4.3 5.2 0.00 0.28 0.00 84 1012.8
20260509174206 78 205 3.5 8.7 0.00 0.28 0.00 88 1013.1
20260509174201 83 117 3.5 5.2 0.00 0.28 0.00 84 1012.7
20260509174156 77 209 5.2 7.8 0.00 0.28 0.00 88 1013.2
20260509174151 78 237 4.3 7.8 0.00 0.28 0.00 88 1013.4
20260509174146 78 192 2.6 6.1 0.00 0.28 0.00 87 1013.3
20260509174140 78 235 1.7 6.1 0.00 0.28 0.00 86 1013.1
20260509174134 81 84 3.5 5.2 0.00 0.28 0.00 87 1013.1
20260509174129 78 186 0.9 5.2 0.00 0.28 0.00 87 1013.1
20260509174124 78 148 3.5 5.2 0.00 0.28 0.00 89 1013.1
20260509174118 78 178 4.3 6.1 0.00 0.28 0.00 87 1013.3
20260509174112 80 174 1.7 6.1 0.00 0.28 0.00 87 1013.4
20260509174108 80 82 4.3 5.2 0.00 0.28 0.00 86 1013.2
20260509174102 81 90 3.5 5.2 0.00 0.28 0.00 85 1012.9
20260509174058 82 107 4.3 5.2 0.00 0.28 0.00 85 1012.7
20260509173931 80 129 2.6 6.1 0.00 0.28 0.00 86 1013.0
20260509173927 82 115 4.3 5.2 0.00 0.28 0.00 84 1012.8
20260509173921 80 175 0.9 4.3 0.00 0.28 0.00 85 1013.0
20260509173915 80 95 4.3 6.1 0.00 0.28 0.00 87 1013.2
20260509173506 80 82 4.3 5.2 0.00 0.28 0.00 86 1013.2
20260509173501 75 187 3.5 6.1 0.00 0.28 0.00 91 1012.9
20260509173456 82 107 4.3 5.2 0.00 0.28 0.00 85 1012.7
20260509173451 82 115 4.3 5.2 0.00 0.28 0.00 84 1012.8
20260509173326 77 209 5.2 7.8 0.00 0.28 0.00 88 1013.2
20260509173320 78 237 4.3 7.8 0.00 0.28 0.00 88 1013.4
20260509173316 78 192 2.6 6.1 0.00 0.28 0.00 87 1013.3
20260509173311 78 235 1.7 6.1 0.00 0.28 0.00 86 1013.1
20260509173305 80 129 2.6 6.1 0.00 0.28 0.00 86 1013.0
20260509173247 82 117 4.3 5.2 0.00 0.28 0.00 85 1013.0
20260509173133 75 193 3.5 6.1 0.00 0.28 0.00 91 1013.0
20260509173128 80 95 4.3 6.1 0.00 0.28 0.00 87 1013.2
20260509173122 77 250 2.6 5.2 0.00 0.28 0.00 89 1013.3
20260509173117 76 236 3.5 6.1 0.00 0.28 0.00 89 1013.5
20260509173111 76 259 3.5 6.1 0.00 0.28 0.00 90 1013.4
20260509173106 77 186 5.2 8.7 0.00 0.28 0.00 89 1013.2
20260509173100 77 175 3.5 6.1 0.00 0.28 0.00 88 1013.1
20260509173056 78 186 0.9 5.2 0.00 0.28 0.00 87 1013.1
20260509173050 78 148 3.5 5.2 0.00 0.28 0.00 89 1013.1
20260509173046 78 178 4.3 6.1 0.00 0.28 0.00 87 1013.3
20260509173040 80 174 1.7 6.1 0.00 0.28 0.00 87 1013.4
20260509173035 80 175 0.9 3.5 0.00 0.28 0.00 84 1013.4
20260509173030 80 175 0.9 4.3 0.00 0.28 0.00 85 1013.0
20260509173023 80 82 4.3 5.2 0.00 0.28 0.00 86 1013.2
20260509173019 81 84 3.5 5.2 0.00 0.28 0.00 87 1013.1
20260509173013 81 90 3.5 5.2 0.00 0.28 0.00 85 1012.9
20260509173007 82 107 4.3 5.2 0.00 0.28 0.00 85 1012.7
20260509172722 77 209 5.2 7.8 0.00 0.28 0.00 88 1013.2
20260509172715 78 237 4.3 7.8 0.00 0.28 0.00 88 1013.4
20260509172709 78 192 2.6 6.1 0.00 0.28 0.00 87 1013.3
20260509172704 78 235 1.7 6.1 0.00 0.28 0.00 86 1013.1
20260509172659 80 129 2.6 6.1 0.00 0.28 0.00 86 1013.0
20260509172653 80 95 4.3 6.1 0.00 0.28 0.00 87 1013.2
20260509172529 75 193 3.5 6.1 0.00 0.28 0.00 91 1013.0
20260509172523 77 250 2.6 5.2 0.00 0.28 0.00 89 1013.3
20260509172516 76 236 3.5 6.1 0.00 0.28 0.00 89 1013.5
20260509172511 76 259 3.5 6.1 0.00 0.28 0.00 90 1013.4
20260509172505 77 186 5.2 8.7 0.00 0.28 0.00 89 1013.2
20260509172500 77 175 3.5 6.1 0.00 0.28 0.00 88 1013.1
20260509172454 78 186 0.9 5.2 0.00 0.28 0.00 87 1013.1
20260509172450 78 148 3.5 5.2 0.00 0.28 0.00 89 1013.1
20260509172445 78 178 4.3 6.1 0.00 0.28 0.00 87 1013.3
20260509172439 80 174 1.7 6.1 0.00 0.28 0.00 87 1013.4
20260509172435 81 84 3.5 5.2 0.00 0.28 0.00 87 1013.1
20260509172429 81 90 3.5 5.2 0.00 0.28 0.00 85 1012.9
20260509172306 80 175 0.9 4.3 0.00 0.28 0.00 85 1013.0
20260509172256 82 107 4.3 5.2 0.00 0.28 0.00 85 1012.7
20260509172241 82 115 4.3 5.2 0.00 0.28 0.00 84 1012.8
20260509172125 77 209 5.2 7.8 0.00 0.28 0.00 88 1013.2
20260509172120 78 237 4.3 7.8 0.00 0.28 0.00 88 1013.4
20260509172115 78 192 2.6 6.1 0.00 0.28 0.00 87 1013.3
20260509172108 78 235 1.7 6.1 0.00 0.28 0.00 86 1013.1
20260509172102 80 95 4.3 6.1 0.00 0.28 0.00 87 1013.2
20260509172056 80 129 2.6 6.1 0.00 0.28 0.00 86 1013.0
20260509172052 80 82 4.3 5.2 0.00 0.28 0.00 86 1013.2
20260509171924 78 186 0.9 5.2 0.00 0.28 0.00 87 1013.1
20260509171919 78 148 3.5 5.2 0.00 0.28 0.00 89 1013.1
20260509171913 81 90 3.5 5.2 0.00 0.28 0.00 85 1012.9
20260509171745 82 107 4.3 5.2 0.00 0.28 0.00 85 1012.7
20260509171740 80 174 1.7 6.1 0.00 0.28 0.00 87 1013.4
20260509171735 80 175 0.9 3.5 0.00 0.28 0.00 84 1013.4
20260509171730 80 175 0.9 4.3 0.00 0.28 0.00 85 1013.0
20260509171601 74 207 5.2 10.4 0.00 0.28 0.00 92 1012.7
20260509171556 74 215 4.3 7.8 0.00 0.28 0.00 92 1012.8
20260509171550 80 95 4.3 6.1 0.00 0.28 0.00 87 1013.2
20260509171546 80 129 2.6 6.1 0.00 0.28 0.00 86 1013.0
20260509171540 80 82 4.3 5.2 0.00 0.28 0.00 86 1013.2
20260509171536 74 205 5.2 9.6 0.00 0.28 0.00 92 1012.7
20260509171530 75 187 3.5 6.1 0.00 0.28 0.00 91 1012.9
20260509171525 75 211 3.5 7.0 0.00 0.28 0.00 91 1012.7
20260509171519 75 193 3.5 6.1 0.00 0.28 0.00 91 1013.0
20260509171515 77 250 2.6 5.2 0.00 0.28 0.00 89 1013.3
20260509171509 76 236 3.5 6.1 0.00 0.28 0.00 89 1013.5
20260509171503 76 259 3.5 6.1 0.00 0.28 0.00 90 1013.4
20260509171458 77 186 5.2 8.7 0.00 0.28 0.00 89 1013.2
20260509171453 77 175 3.5 6.1 0.00 0.28 0.00 88 1013.1
20260509171447 81 84 3.5 5.2 0.00 0.28 0.00 87 1013.1
20260509171443 78 205 3.5 8.7 0.00 0.28 0.00 88 1013.1
20260509171301 82 107 4.3 5.2 0.00 0.28 0.00 85 1012.7
20260509171151 78 237 4.3 7.8 0.00 0.28 0.00 88 1013.4
20260509171146 78 192 2.6 6.1 0.00 0.28 0.00 87 1013.3
20260509171141 78 235 1.7 6.1 0.00 0.28 0.00 86 1013.1
20260509171136 78 186 0.9 5.2 0.00 0.28 0.00 87 1013.1
20260509171131 78 148 3.5 5.2 0.00 0.28 0.00 89 1013.1
20260509171127 78 178 4.3 6.1 0.00 0.28 0.00 87 1013.3
20260509171121 80 174 1.7 6.1 0.00 0.28 0.00 87 1013.4
20260509171116 80 175 0.9 3.5 0.00 0.28 0.00 84 1013.4
20260509171110 80 175 0.9 4.3 0.00 0.28 0.00 85 1013.0
20260509171104 80 129 2.6 6.1 0.00 0.28 0.00 86 1013.0
20260509171100 80 95 4.3 6.1 0.00 0.28 0.00 87 1013.2
20260509171053 80 82 4.3 5.2 0.00 0.28 0.00 86 1013.2
20260509170646 75 187 3.5 6.1 0.00 0.28 0.00 91 1012.9
20260509170641 75 211 3.5 7.0 0.00 0.28 0.00 91 1012.7
20260509170637 75 193 3.5 6.1 0.00 0.28 0.00 91 1013.0
20260509170631 77 250 2.6 5.2 0.00 0.28 0.00 89 1013.3
20260509170626 76 236 3.5 6.1 0.00 0.28 0.00 89 1013.5
20260509170622 76 259 3.5 6.1 0.00 0.28 0.00 90 1013.4
20260509170616 77 186 5.2 8.7 0.00 0.28 0.00 89 1013.2
20260509170611 77 175 3.5 6.1 0.00 0.28 0.00 88 1013.1
20260509170606 78 205 3.5 8.7 0.00 0.28 0.00 88 1013.1
20260509170601 77 209 5.2 7.8 0.00 0.28 0.00 88 1013.2
20260509170555 78 237 4.3 7.8 0.00 0.28 0.00 88 1013.4
20260509170548 78 192 2.6 6.1 0.00 0.28 0.00 87 1013.3
20260509170543 80 129 2.6 6.1 0.00 0.28 0.00 86 1013.0
20260509170537 78 235 1.7 6.1 0.00 0.28 0.00 86 1013.1
20260509170532 78 186 0.9 5.2 0.00 0.28 0.00 87 1013.1
20260509170528 78 148 3.5 5.2 0.00 0.28 0.00 89 1013.1
20260509170522 80 174 1.7 6.1 0.00 0.28 0.00 87 1013.4
20260509170516 80 95 4.3 6.1 0.00 0.28 0.00 87 1013.2
20260509170350 80 175 0.9 3.5 0.00 0.28 0.00 84 1013.4
20260509170346 80 175 0.9 4.3 0.00 0.28 0.00 85 1013.0
20260509170341 80 82 4.3 5.2 0.00 0.28 0.00 86 1013.2
20260509170336 81 84 3.5 5.2 0.00 0.28 0.00 87 1013.1
20260509165928 80 95 4.3 6.1 0.00 0.28 0.00 87 1013.2
20260509165802 75 193 3.5 6.1 0.00 0.28 0.00 91 1013.0
20260509165758 77 250 2.6 5.2 0.00 0.28 0.00 89 1013.3
20260509165753 76 236 3.5 6.1 0.00 0.28 0.00 89 1013.5
20260509165747 76 259 3.5 6.1 0.00 0.28 0.00 90 1013.4
20260509165742 77 186 5.2 8.7 0.00 0.28 0.00 89 1013.2
20260509165735 80 82 4.3 5.2 0.00 0.28 0.00 86 1013.2
20260509165730 81 84 3.5 5.2 0.00 0.28 0.00 87 1013.1
20260509165605 78 205 3.5 8.7 0.00 0.28 0.00 88 1013.1
20260509165600 77 209 5.2 7.8 0.00 0.28 0.00 88 1013.2
20260509165554 78 148 3.5 5.2 0.00 0.28 0.00 89 1013.1
20260509165550 78 237 4.3 7.8 0.00 0.28 0.00 88 1013.4
20260509165545 80 175 0.9 3.5 0.00 0.28 0.00 84 1013.4
20260509165538 78 192 2.6 6.1 0.00 0.28 0.00 87 1013.3
20260509165532 80 129 2.6 6.1 0.00 0.28 0.00 86 1013.0
20260509165526 78 235 1.7 6.1 0.00 0.28 0.00 86 1013.1
20260509165522 78 178 4.3 6.1 0.00 0.28 0.00 87 1013.3
20260509165517 78 186 0.9 5.2 0.00 0.28 0.00 87 1013.1
20260509165511 80 175 0.9 4.3 0.00 0.28 0.00 85 1013.0
20260509165346 80 95 4.3 6.1 0.00 0.28 0.00 87 1013.2
20260509165215 81 84 3.5 5.2 0.00 0.28 0.00 87 1013.1
20260509165054 74 205 5.2 9.6 0.00 0.28 0.00 92 1012.7
20260509165048 80 175 0.9 3.5 0.00 0.28 0.00 84 1013.4
20260509165044 78 178 4.3 6.1 0.00 0.28 0.00 87 1013.3
20260509165039 80 129 2.6 6.1 0.00 0.28 0.00 86 1013.0
20260509165032 78 237 4.3 7.8 0.00 0.28 0.00 88 1013.4
20260509164906 72 74 4.3 6.1 0.00 0.28 0.28 94 1013.3
20260509164901 78 192 2.6 6.1 0.00 0.28 0.00 87 1013.3
20260509164856 75 211 3.5 7.0 0.00 0.28 0.00 91 1012.7
20260509164851 80 174 1.7 6.1 0.00 0.28 0.00 87 1013.4
20260509164724 75 193 3.5 6.1 0.00 0.28 0.00 91 1013.0
20260509164719 77 250 2.6 5.2 0.00 0.28 0.00 89 1013.3
20260509164715 76 236 3.5 6.1 0.00 0.28 0.00 89 1013.5
20260509164709 73 180 7.0 10.4 0.00 0.28 0.00 93 1012.3
20260509164704 77 186 5.2 8.7 0.00 0.28 0.00 89 1013.2
20260509164659 76 259 3.5 6.1 0.00 0.28 0.00 90 1013.4
20260509164654 72 187 7.0 9.6 0.00 0.28 0.00 92 1012.3
20260509164648 77 175 3.5 6.1 0.00 0.28 0.00 88 1013.1
20260509164644 78 186 0.9 5.2 0.00 0.28 0.00 87 1013.1
20260509164640 80 82 4.3 5.2 0.00 0.28 0.00 86 1013.2
20260509164635 80 95 4.3 6.1 0.00 0.28 0.00 87 1013.2
20260509164627 72 201 7.8 9.6 0.00 0.28 0.00 93 1012.3
20260509164622 78 205 3.5 8.7 0.00 0.28 0.00 88 1013.1
20260509164618 77 209 5.2 7.8 0.00 0.28 0.00 88 1013.2
20260509164612 78 235 1.7 6.1 0.00 0.28 0.00 86 1013.1
20260509164606 78 148 3.5 5.2 0.00 0.28 0.00 89 1013.1
20260509164601 78 178 4.3 6.1 0.00 0.28 0.00 87 1013.3
20260509164555 80 175 0.9 3.5 0.00 0.28 0.00 84 1013.4
20260509164550 80 129 2.6 6.1 0.00 0.28 0.00 86 1013.0
20260509164425 80 175 0.9 4.3 0.00 0.28 0.00 85 1013.0
20260509164419 74 215 4.3 7.8 0.00 0.28 0.00 92 1012.8
20260509164414 74 205 5.2 9.6 0.00 0.28 0.00 92 1012.7
20260509164408 75 211 3.5 7.0 0.00 0.28 0.00 91 1012.7
20260509164403 78 237 4.3 7.8 0.00 0.28 0.00 88 1013.4
20260509164358 78 192 2.6 6.1 0.00 0.28 0.00 87 1013.3
20260509164353 80 174 1.7 6.1 0.00 0.28 0.00 87 1013.4
20260509164225 75 193 3.5 6.1 0.00 0.28 0.00 91 1013.0
20260509164220 77 250 2.6 5.2 0.00 0.28 0.00 89 1013.3
20260509164214 76 236 3.5 6.1 0.00 0.28 0.00 89 1013.5
20260509164209 76 259 3.5 6.1 0.00 0.28 0.00 90 1013.4
20260509164205 77 186 5.2 8.7 0.00 0.28 0.00 89 1013.2
20260509164158 80 82 4.3 5.2 0.00 0.28 0.00 86 1013.2
20260509164154 77 175 3.5 6.1 0.00 0.28 0.00 88 1013.1
20260509164148 80 95 4.3 6.1 0.00 0.28 0.00 87 1013.2
20260509164143 78 186 0.9 5.2 0.00 0.28 0.00 87 1013.1
20260509164016 78 235 1.7 6.1 0.00 0.28 0.00 86 1013.1
20260509164011 80 175 0.9 3.5 0.00 0.28 0.00 84 1013.4
20260509164005 78 178 4.3 6.1 0.00 0.28 0.00 87 1013.3
20260509164000 77 209 5.2 7.8 0.00 0.28 0.00 88 1013.2
20260509163954 78 148 3.5 5.2 0.00 0.28 0.00 89 1013.1
20260509163950 80 175 0.9 4.3 0.00 0.28 0.00 85 1013.0
20260509163945 80 129 2.6 6.1 0.00 0.28 0.00 86 1013.0
20260509163817 78 192 2.6 6.1 0.00 0.28 0.00 87 1013.3
20260509163811 80 174 1.7 6.1 0.00 0.28 0.00 87 1013.4
20260509163522 78 235 1.7 6.1 0.00 0.28 0.00 86 1013.1
20260509163516 78 148 3.5 5.2 0.00 0.28 0.00 89 1013.1
20260509163509 78 178 4.3 6.1 0.00 0.28 0.00 87 1013.3
20260509163505 80 175 0.9 3.5 0.00 0.28 0.00 84 1013.4
20260509163459 80 175 0.9 4.3 0.00 0.28 0.00 85 1013.0
20260509163208 80 95 4.3 6.1 0.00 0.28 0.00 87 1013.2
20260509163047 71 188 6.1 8.7 0.00 0.28 0.00 93 1012.1
20260509163041 73 180 7.0 10.4 0.00 0.28 0.00 93 1012.3
20260509163036 72 187 7.0 9.6 0.00 0.28 0.00 92 1012.3
20260509163032 78 186 0.9 5.2 0.00 0.28 0.00 87 1013.1
20260509163026 72 201 7.8 9.6 0.00 0.28 0.00 93 1012.3
20260509163021 74 207 5.2 10.4 0.00 0.28 0.00 92 1012.7
20260509163015 74 215 4.3 7.8 0.00 0.28 0.00 92 1012.8
20260509163008 74 205 5.2 9.6 0.00 0.28 0.00 92 1012.7
20260509163003 75 211 3.5 7.0 0.00 0.28 0.00 91 1012.7
20260509162958 75 187 3.5 6.1 0.00 0.28 0.00 91 1012.9
20260509162953 75 193 3.5 6.1 0.00 0.28 0.00 91 1013.0
20260509162947 77 250 2.6 5.2 0.00 0.28 0.00 89 1013.3
20260509162943 76 236 3.5 6.1 0.00 0.28 0.00 89 1013.5
20260509162938 76 259 3.5 6.1 0.00 0.28 0.00 90 1013.4
20260509162932 77 186 5.2 8.7 0.00 0.28 0.00 89 1013.2
20260509162927 77 175 3.5 6.1 0.00 0.28 0.00 88 1013.1
20260509162921 78 205 3.5 8.7 0.00 0.28 0.00 88 1013.1
20260509162916 77 209 5.2 7.8 0.00 0.28 0.00 88 1013.2
20260509162908 78 237 4.3 7.8 0.00 0.28 0.00 88 1013.4
20260509162904 80 175 0.9 3.5 0.00 0.28 0.00 84 1013.4
20260509162739 78 192 2.6 6.1 0.00 0.28 0.00 87 1013.3
20260509162733 80 175 0.9 4.3 0.00 0.28 0.00 85 1013.0
20260509162728 80 129 2.6 6.1 0.00 0.28 0.00 86 1013.0
20260509162602 78 148 3.5 5.2 0.00 0.28 0.00 89 1013.1
20260509162556 80 174 1.7 6.1 0.00 0.28 0.00 87 1013.4
20260509162551 78 186 0.9 5.2 0.00 0.28 0.00 87 1013.1
20260509162425 72 0 7.8 11.3 0.13 0.28 0.28 94 1012.7
20260509162419 72 54 7.8 12.2 0.17 0.28 0.28 94 1012.4
20260509162414 72 70 9.6 12.2 0.28 0.28 0.28 94 1012.4
20260509162408 80 175 0.9 3.5 0.00 0.28 0.00 84 1013.4
20260509162401 72 69 10.4 13.9 0.28 0.28 0.28 93 1012.4
20260509162356 73 88 11.3 17.4 0.27 0.27 0.27 93 1012.5
20260509162350 73 138 12.2 19.1 0.16 0.16 0.16 92 1013.1
20260509162346 74 129 15.6 20.0 0.15 0.15 0.15 91 1012.7
20260509162340 76 86 7.8 18.2 0.11 0.11 0.12 88 1011.8
20260509162335 78 76 7.8 11.3 0.00 0.00 0.00 82 1013.0
20260509162329 78 76 7.8 16.5 0.00 0.00 0.00 83 1012.7
20260509162324 73 180 7.0 10.4 0.00 0.28 0.00 93 1012.3
20260509162320 79 74 10.4 16.5 0.00 0.00 0.00 81 1012.4
20260509162314 72 187 7.0 9.6 0.00 0.28 0.00 92 1012.3
20260509162308 80 85 11.3 15.6 0.00 0.00 0.00 80 1012.0
20260509162301 70 206 5.2 7.8 0.00 0.28 0.00 93 1012.3
20260509162257 70 192 4.3 6.1 0.00 0.28 0.00 94 1012.1
20260509162253 74 207 5.2 10.4 0.00 0.28 0.00 92 1012.7
20260509162247 77 250 2.6 5.2 0.00 0.28 0.00 89 1013.3
20260509162242 74 215 4.3 7.8 0.00 0.28 0.00 92 1012.8
20260509162236 77 186 5.2 8.7 0.00 0.28 0.00 89 1013.2
20260509162232 77 175 3.5 6.1 0.00 0.28 0.00 88 1013.1
20260509162227 78 205 3.5 8.7 0.00 0.28 0.00 88 1013.1
20260509162221 80 175 0.9 4.3 0.00 0.28 0.00 85 1013.0
20260509162215 78 235 1.7 6.1 0.00 0.28 0.00 86 1013.1
20260509162210 78 192 2.6 6.1 0.00 0.28 0.00 87 1013.3
20260509162205 71 188 6.1 8.7 0.00 0.28 0.00 93 1012.1
20260509162158 80 129 2.6 6.1 0.00 0.28 0.00 86 1013.0
20260509162152 72 201 7.8 9.6 0.00 0.28 0.00 93 1012.3
20260509162147 74 205 5.2 9.6 0.00 0.28 0.00 92 1012.7
20260509162142 75 211 3.5 7.0 0.00 0.28 0.00 91 1012.7
20260509162137 75 187 3.5 6.1 0.00 0.28 0.00 91 1012.9
20260509162132 75 193 3.5 6.1 0.00 0.28 0.00 91 1013.0
20260509162126 76 236 3.5 6.1 0.00 0.28 0.00 89 1013.5
20260509162122 76 259 3.5 6.1 0.00 0.28 0.00 90 1013.4
20260509162116 77 209 5.2 7.8 0.00 0.28 0.00 88 1013.2
20260509162111 78 237 4.3 7.8 0.00 0.28 0.00 88 1013.4
20260509162106 78 186 0.9 5.2 0.00 0.28 0.00 87 1013.1
20260509162101 78 148 3.5 5.2 0.00 0.28 0.00 89 1013.1
20260509162053 78 178 4.3 6.1 0.00 0.28 0.00 87 1013.3
20260509162048 80 174 1.7 6.1 0.00 0.28 0.00 87 1013.4
20260509161800 72 187 7.0 9.6 0.00 0.28 0.00 92 1012.3
20260509161753 74 207 5.2 10.4 0.00 0.28 0.00 92 1012.7
20260509161748 74 215 4.3 7.8 0.00 0.28 0.00 92 1012.8
20260509161744 77 250 2.6 5.2 0.00 0.28 0.00 89 1013.3
20260509161738 77 186 5.2 8.7 0.00 0.28 0.00 89 1013.2
20260509161733 77 175 3.5 6.1 0.00 0.28 0.00 88 1013.1
20260509161728 78 205 3.5 8.7 0.00 0.28 0.00 88 1013.1
20260509161723 78 192 2.6 6.1 0.00 0.28 0.00 87 1013.3
20260509161718 78 235 1.7 6.1 0.00 0.28 0.00 86 1013.1
20260509161713 80 175 0.9 4.3 0.00 0.28 0.00 85 1013.0
20260509161547 75 211 3.5 7.0 0.00 0.28 0.00 91 1012.7
20260509161541 75 187 3.5 6.1 0.00 0.28 0.00 91 1012.9
20260509161536 75 193 3.5 6.1 0.00 0.28 0.00 91 1013.0
20260509161530 77 209 5.2 7.8 0.00 0.28 0.00 88 1013.2
20260509161526 78 186 0.9 5.2 0.00 0.28 0.00 87 1013.1
20260509161521 78 237 4.3 7.8 0.00 0.28 0.00 88 1013.4
20260509161516 78 148 3.5 5.2 0.00 0.28 0.00 89 1013.1
20260509161511 76 236 3.5 6.1 0.00 0.28 0.00 89 1013.5
20260509161505 78 178 4.3 6.1 0.00 0.28 0.00 87 1013.3
20260509161500 80 174 1.7 6.1 0.00 0.28 0.00 87 1013.4
20260509161333 80 175 0.9 3.5 0.00 0.28 0.00 84 1013.4
20260509161207 77 186 5.2 8.7 0.00 0.28 0.00 89 1013.2
20260509161202 77 175 3.5 6.1 0.00 0.28 0.00 88 1013.1
20260509161158 80 175 0.9 4.3 0.00 0.28 0.00 85 1013.0
20260509161151 78 205 3.5 8.7 0.00 0.28 0.00 88 1013.1
20260509161145 78 192 2.6 6.1 0.00 0.28 0.00 87 1013.3
20260509161140 78 235 1.7 6.1 0.00 0.28 0.00 86 1013.1
20260509161015 70 206 5.2 7.8 0.00 0.28 0.00 93 1012.3
20260509161009 78 186 0.9 5.2 0.00 0.28 0.00 87 1013.1
20260509161004 78 237 4.3 7.8 0.00 0.28 0.00 88 1013.4
20260509160958 71 188 6.1 8.7 0.00 0.28 0.00 93 1012.1
20260509160954 72 201 7.8 9.6 0.00 0.28 0.00 93 1012.3
20260509160946 78 148 3.5 5.2 0.00 0.28 0.00 89 1013.1
20260509160940 78 178 4.3 6.1 0.00 0.28 0.00 87 1013.3
20260509160936 80 174 1.7 6.1 0.00 0.28 0.00 87 1013.4
20260509160808 72 187 7.0 9.6 0.00 0.28 0.00 92 1012.3
20260509160803 74 207 5.2 10.4 0.00 0.28 0.00 92 1012.7
20260509160757 74 215 4.3 7.8 0.00 0.28 0.00 92 1012.8
20260509160753 74 205 5.2 9.6 0.00 0.28 0.00 92 1012.7
20260509160748 75 211 3.5 7.0 0.00 0.28 0.00 91 1012.7
20260509160741 75 187 3.5 6.1 0.00 0.28 0.00 91 1012.9
20260509160735 80 175 0.9 3.5 0.00 0.28 0.00 84 1013.4
20260509160730 75 193 3.5 6.1 0.00 0.28 0.00 91 1013.0
20260509160605 76 259 3.5 6.1 0.00 0.28 0.00 90 1013.4
20260509160559 77 250 2.6 5.2 0.00 0.28 0.00 89 1013.3
20260509160554 78 192 2.6 6.1 0.00 0.28 0.00 87 1013.3
20260509160550 77 186 5.2 8.7 0.00 0.28 0.00 89 1013.2
20260509160544 77 175 3.5 6.1 0.00 0.28 0.00 88 1013.1
20260509160537 78 205 3.5 8.7 0.00 0.28 0.00 88 1013.1
20260509160532 77 209 5.2 7.8 0.00 0.28 0.00 88 1013.2
20260509160526 78 237 4.3 7.8 0.00 0.28 0.00 88 1013.4
20260509160522 78 235 1.7 6.1 0.00 0.28 0.00 86 1013.1
20260509160516 78 186 0.9 5.2 0.00 0.28 0.00 87 1013.1
20260509160350 78 178 4.3 6.1 0.00 0.28 0.00 87 1013.3
20260509160344 80 174 1.7 6.1 0.00 0.28 0.00 87 1013.4
20260509155940 78 235 1.7 6.1 0.00 0.28 0.00 86 1013.1
20260509155933 69 196 4.3 7.8 0.00 0.28 0.00 94 1012.1
20260509155927 69 207 5.2 8.7 0.00 0.28 0.00 94 1012.0
20260509155923 69 226 6.1 8.7 0.00 0.28 0.00 94 1012.0
20260509155917 70 192 4.3 6.1 0.00 0.28 0.00 94 1012.1
20260509155912 70 206 5.2 7.8 0.00 0.28 0.00 93 1012.3
20260509155908 71 188 6.1 8.7 0.00 0.28 0.00 93 1012.1
20260509155902 72 201 7.8 9.6 0.00 0.28 0.00 93 1012.3
20260509155857 73 180 7.0 10.4 0.00 0.28 0.00 93 1012.3
20260509155851 72 187 7.0 9.6 0.00 0.28 0.00 92 1012.3
20260509155846 74 207 5.2 10.4 0.00 0.28 0.00 92 1012.7
20260509155842 74 215 4.3 7.8 0.00 0.28 0.00 92 1012.8
20260509155834 74 205 5.2 9.6 0.00 0.28 0.00 92 1012.7
20260509155829 75 211 3.5 7.0 0.00 0.28 0.00 91 1012.7
20260509155825 77 209 5.2 7.8 0.00 0.28 0.00 88 1013.2
20260509155819 77 186 5.2 8.7 0.00 0.28 0.00 89 1013.2
20260509155814 75 187 3.5 6.1 0.00 0.28 0.00 91 1012.9
20260509155809 75 193 3.5 6.1 0.00 0.28 0.00 91 1013.0
20260509155804 78 148 3.5 5.2 0.00 0.28 0.00 89 1013.1
20260509155759 78 237 4.3 7.8 0.00 0.28 0.00 88 1013.4
20260509155753 78 178 4.3 6.1 0.00 0.28 0.00 87 1013.3
20260509155749 76 236 3.5 6.1 0.00 0.28 0.00 89 1013.5
20260509155743 80 174 1.7 6.1 0.00 0.28 0.00 87 1013.4
20260509155738 78 186 0.9 5.2 0.00 0.28 0.00 87 1013.1
20260509155731 76 259 3.5 6.1 0.00 0.28 0.00 90 1013.4
20260509155607 77 175 3.5 6.1 0.00 0.28 0.00 88 1013.1
20260509155601 78 205 3.5 8.7 0.00 0.28 0.00 88 1013.1
20260509155556 78 192 2.6 6.1 0.00 0.28 0.00 87 1013.3
20260509155310 77 209 5.2 7.8 0.00 0.28 0.00 88 1013.2
20260509155306 78 237 4.3 7.8 0.00 0.28 0.00 88 1013.4
20260509155300 78 148 3.5 5.2 0.00 0.28 0.00 89 1013.1
20260509155254 78 178 4.3 6.1 0.00 0.28 0.00 87 1013.3
20260509155250 78 186 0.9 5.2 0.00 0.28 0.00 87 1013.1
20260509155235 80 174 1.7 6.1 0.00 0.28 0.00 87 1013.4
20260509155118 68 201 4.3 6.1 0.00 0.28 0.00 95 1011.8
20260509155114 69 195 3.5 7.0 0.00 0.28 0.00 94 1012.2
20260509155108 75 187 3.5 6.1 0.00 0.28 0.00 91 1012.9
20260509154942 69 196 4.3 7.8 0.00 0.28 0.00 94 1012.1
20260509154938 78 205 3.5 8.7 0.00 0.28 0.00 88 1013.1
20260509154933 78 235 1.7 6.1 0.00 0.28 0.00 86 1013.1
20260509154927 75 193 3.5 6.1 0.00 0.28 0.00 91 1013.0
20260509154920 70 192 4.3 6.1 0.00 0.28 0.00 94 1012.1
20260509154915 70 206 5.2 7.8 0.00 0.28 0.00 93 1012.3
20260509154910 71 188 6.1 8.7 0.00 0.28 0.00 93 1012.1
20260509154905 72 201 7.8 9.6 0.00 0.28 0.00 93 1012.3
20260509154859 73 180 7.0 10.4 0.00 0.28 0.00 93 1012.3
20260509154855 72 187 7.0 9.6 0.00 0.28 0.00 92 1012.3
20260509154849 74 207 5.2 10.4 0.00 0.28 0.00 92 1012.7
20260509154845 74 215 4.3 7.8 0.00 0.28 0.00 92 1012.8
20260509154840 74 205 5.2 9.6 0.00 0.28 0.00 92 1012.7
20260509154834 75 211 3.5 7.0 0.00 0.28 0.00 91 1012.7
20260509154830 76 259 3.5 6.1 0.00 0.28 0.00 90 1013.4
20260509154825 77 250 2.6 5.2 0.00 0.28 0.00 89 1013.3
20260509154816 76 236 3.5 6.1 0.00 0.28 0.00 89 1013.5
20260509154812 77 175 3.5 6.1 0.00 0.28 0.00 88 1013.1
20260509154807 77 186 5.2 8.7 0.00 0.28 0.00 89 1013.2
20260509154801 77 209 5.2 7.8 0.00 0.28 0.00 88 1013.2
20260509154756 78 237 4.3 7.8 0.00 0.28 0.00 88 1013.4
20260509154750 78 186 0.9 5.2 0.00 0.28 0.00 87 1013.1
20260509154745 78 148 3.5 5.2 0.00 0.28 0.00 89 1013.1
20260509154741 78 178 4.3 6.1 0.00 0.28 0.00 87 1013.3
20260509154451 78 192 2.6 6.1 0.00 0.28 0.00 87 1013.3
20260509154446 75 193 3.5 6.1 0.00 0.28 0.00 91 1013.0
20260509154441 78 235 1.7 6.1 0.00 0.28 0.00 86 1013.1
20260509154315 69 207 5.2 8.7 0.00 0.28 0.00 94 1012.0
20260509154309 69 226 6.1 8.7 0.00 0.28 0.00 94 1012.0
20260509154304 76 236 3.5 6.1 0.00 0.28 0.00 89 1013.5
20260509154300 68 207 4.3 6.1 0.00 0.28 0.00 95 1011.7
20260509154254 76 259 3.5 6.1 0.00 0.28 0.00 90 1013.4
20260509154249 77 250 2.6 5.2 0.00 0.28 0.00 89 1013.3
20260509154243 77 175 3.5 6.1 0.00 0.28 0.00 88 1013.1
20260509154239 78 186 0.9 5.2 0.00 0.28 0.00 87 1013.1
20260509154233 77 186 5.2 8.7 0.00 0.28 0.00 89 1013.2
20260509154228 78 148 3.5 5.2 0.00 0.28 0.00 89 1013.1
20260509154224 77 209 5.2 7.8 0.00 0.28 0.00 88 1013.2
20260509154218 78 237 4.3 7.8 0.00 0.28 0.00 88 1013.4
20260509154211 68 201 4.3 6.1 0.00 0.28 0.00 95 1011.8
20260509154205 69 195 3.5 7.0 0.00 0.28 0.00 94 1012.2
20260509154200 69 196 4.3 7.8 0.00 0.28 0.00 94 1012.1
20260509154154 78 178 4.3 6.1 0.00 0.28 0.00 87 1013.3
20260509154150 70 192 4.3 6.1 0.00 0.28 0.00 94 1012.1
20260509154145 70 206 5.2 7.8 0.00 0.28 0.00 93 1012.3
20260509154140 71 188 6.1 8.7 0.00 0.28 0.00 93 1012.1
20260509154135 72 201 7.8 9.6 0.00 0.28 0.00 93 1012.3
20260509154007 78 192 2.6 6.1 0.00 0.28 0.00 87 1013.3
20260509154002 78 205 3.5 8.7 0.00 0.28 0.00 88 1013.1
20260509153956 72 187 7.0 9.6 0.00 0.28 0.00 92 1012.3
20260509153951 74 207 5.2 10.4 0.00 0.28 0.00 92 1012.7
20260509153946 74 215 4.3 7.8 0.00 0.28 0.00 92 1012.8
20260509153941 74 205 5.2 9.6 0.00 0.28 0.00 92 1012.7
20260509153936 75 211 3.5 7.0 0.00 0.28 0.00 91 1012.7
20260509153932 75 187 3.5 6.1 0.00 0.28 0.00 91 1012.9
20260509153926 75 193 3.5 6.1 0.00 0.28 0.00 91 1013.0
20260509153920 78 235 1.7 6.1 0.00 0.28 0.00 86 1013.1
20260509153753 76 259 3.5 6.1 0.00 0.28 0.00 90 1013.4
20260509153747 77 250 2.6 5.2 0.00 0.28 0.00 89 1013.3
20260509153742 77 209 5.2 7.8 0.00 0.28 0.00 88 1013.2
20260509153738 78 186 0.9 5.2 0.00 0.28 0.00 87 1013.1
20260509153732 77 175 3.5 6.1 0.00 0.28 0.00 88 1013.1
20260509153726 77 186 5.2 8.7 0.00 0.28 0.00 89 1013.2
20260509153721 78 237 4.3 7.8 0.00 0.28 0.00 88 1013.4
20260509153717 78 148 3.5 5.2 0.00 0.28 0.00 89 1013.1
20260509153550 67 215 3.5 6.1 0.00 0.28 0.00 95 1011.7
20260509153545 67 212 3.5 6.1 0.00 0.28 0.00 95 1011.8
20260509153540 69 207 5.2 8.7 0.00 0.28 0.00 94 1012.0
20260509153535 69 226 6.1 8.7 0.00 0.28 0.00 94 1012.0
20260509153529 68 207 4.3 6.1 0.00 0.28 0.00 95 1011.7
20260509153524 78 192 2.6 6.1 0.00 0.28 0.00 87 1013.3
20260509153520 68 201 4.3 6.1 0.00 0.28 0.00 95 1011.8
20260509153514 78 205 3.5 8.7 0.00 0.28 0.00 88 1013.1
20260509153347 78 235 1.7 6.1 0.00 0.28 0.00 86 1013.1
20260509153342 69 196 4.3 7.8 0.00 0.28 0.00 94 1012.1
20260509153336 70 192 4.3 6.1 0.00 0.28 0.00 94 1012.1
20260509153332 70 206 5.2 7.8 0.00 0.28 0.00 93 1012.3
20260509153327 71 188 6.1 8.7 0.00 0.28 0.00 93 1012.1
20260509153322 72 201 7.8 9.6 0.00 0.28 0.00 93 1012.3
20260509153317 73 180 7.0 10.4 0.00 0.28 0.00 93 1012.3
20260509153311 72 187 7.0 9.6 0.00 0.28 0.00 92 1012.3
20260509153304 74 207 5.2 10.4 0.00 0.28 0.00 92 1012.7
20260509153259 74 215 4.3 7.8 0.00 0.28 0.00 92 1012.8
20260509153254 74 205 5.2 9.6 0.00 0.28 0.00 92 1012.7
20260509153248 75 211 3.5 7.0 0.00 0.28 0.00 91 1012.7
20260509153244 75 187 3.5 6.1 0.00 0.28 0.00 91 1012.9
20260509153238 75 193 3.5 6.1 0.00 0.28 0.00 91 1013.0
20260509153233 77 209 5.2 7.8 0.00 0.28 0.00 88 1013.2
20260509153228 76 236 3.5 6.1 0.00 0.28 0.00 89 1013.5
20260509153223 78 186 0.9 5.2 0.00 0.28 0.00 87 1013.1
20260509153217 76 259 3.5 6.1 0.00 0.28 0.00 90 1013.4
20260509153212 77 250 2.6 5.2 0.00 0.28 0.00 89 1013.3
20260509153207 77 175 3.5 6.1 0.00 0.28 0.00 88 1013.1
20260509153159 77 186 5.2 8.7 0.00 0.28 0.00 89 1013.2
20260509153154 78 148 3.5 5.2 0.00 0.28 0.00 89 1013.1
20260509153150 78 237 4.3 7.8 0.00 0.28 0.00 88 1013.4
20260509153022 78 192 2.6 6.1 0.00 0.28 0.00 87 1013.3
20260509152734 78 186 0.9 5.2 0.00 0.28 0.00 87 1013.1
20260509152609 77 250 2.6 5.2 0.00 0.28 0.00 89 1013.3
20260509152604 77 186 5.2 8.7 0.00 0.28 0.00 89 1013.2
20260509152558 78 237 4.3 7.8 0.00 0.28 0.00 88 1013.4
20260509152311 82 68 9.6 14.8 0.00 0.00 0.00 78 1012.3
20260509152306 82 0 9.6 14.8 0.00 0.00 0.00 77 1012.4
20260509152300 82 44 11.3 15.6 0.00 0.00 0.00 78 1012.1
20260509152254 67 215 2.6 4.3 0.00 0.28 0.00 94 1011.8
20260509152247 67 214 0.9 3.5 0.00 0.28 0.00 94 1011.8
20260509152242 67 215 3.5 6.1 0.00 0.28 0.00 95 1011.7
20260509152236 67 212 3.5 6.1 0.00 0.28 0.00 95 1011.8
20260509152232 78 235 1.7 6.1 0.00 0.28 0.00 86 1013.1
20260509152227 69 207 5.2 8.7 0.00 0.28 0.00 94 1012.0
20260509152221 69 226 6.1 8.7 0.00 0.28 0.00 94 1012.0
20260509152215 77 175 3.5 6.1 0.00 0.28 0.00 88 1013.1
20260509152210 78 205 3.5 8.7 0.00 0.28 0.00 88 1013.1
20260509152205 77 209 5.2 7.8 0.00 0.28 0.00 88 1013.2
20260509152159 78 186 0.9 5.2 0.00 0.28 0.00 87 1013.1
20260509152034 68 201 4.3 6.1 0.00 0.28 0.00 95 1011.8
20260509152028 69 195 3.5 7.0 0.00 0.28 0.00 94 1012.2
20260509152023 69 196 4.3 7.8 0.00 0.28 0.00 94 1012.1
20260509152019 70 192 4.3 6.1 0.00 0.28 0.00 94 1012.1
20260509152013 70 206 5.2 7.8 0.00 0.28 0.00 93 1012.3
20260509152008 71 188 6.1 8.7 0.00 0.28 0.00 93 1012.1
20260509152003 72 201 7.8 9.6 0.00 0.28 0.00 93 1012.3
20260509151958 73 180 7.0 10.4 0.00 0.28 0.00 93 1012.3
20260509151952 72 187 7.0 9.6 0.00 0.28 0.00 92 1012.3
20260509151947 74 207 5.2 10.4 0.00 0.28 0.00 92 1012.7
20260509151940 74 215 4.3 7.8 0.00 0.28 0.00 92 1012.8
20260509151934 74 205 5.2 9.6 0.00 0.28 0.00 92 1012.7
20260509151929 75 211 3.5 7.0 0.00 0.28 0.00 91 1012.7
20260509151925 75 187 3.5 6.1 0.00 0.28 0.00 91 1012.9
20260509151919 78 237 4.3 7.8 0.00 0.28 0.00 88 1013.4
20260509151914 75 193 3.5 6.1 0.00 0.28 0.00 91 1013.0
20260509151908 76 259 3.5 6.1 0.00 0.28 0.00 90 1013.4
20260509151904 76 236 3.5 6.1 0.00 0.28 0.00 89 1013.5
20260509151858 77 250 2.6 5.2 0.00 0.28 0.00 89 1013.3
20260509151854 77 186 5.2 8.7 0.00 0.28 0.00 89 1013.2
20260509151849 78 192 2.6 6.1 0.00 0.28 0.00 87 1013.3
20260509151549 78 205 3.5 8.7 0.00 0.28 0.00 88 1013.1
20260509151543 77 209 5.2 7.8 0.00 0.28 0.00 88 1013.2
20260509151414 83 57 10.4 15.6 0.00 0.00 0.00 77 1012.4
20260509151408 83 0 12.2 15.6 0.00 0.00 0.00 75 1012.7
20260509151404 83 0 9.6 13.9 0.00 0.00 0.00 77 1012.8
20260509151359 83 22 11.3 13.9 0.00 0.00 0.00 74 1013.1
20260509151353 84 15 8.7 13.9 0.00 0.00 0.00 75 1013.1
20260509151349 84 24 7.8 11.3 0.00 0.00 0.00 75 1013.2
20260509151341 73 180 7.0 10.4 0.00 0.28 0.00 93 1012.3
20260509151337 74 215 4.3 7.8 0.00 0.28 0.00 92 1012.8
20260509151331 74 205 5.2 9.6 0.00 0.28 0.00 92 1012.7
20260509151326 75 211 3.5 7.0 0.00 0.28 0.00 91 1012.7
20260509151320 78 192 2.6 6.1 0.00 0.28 0.00 87 1013.3
20260509151153 78 235 1.7 6.1 0.00 0.28 0.00 86 1013.1
20260509151148 67 214 0.9 3.5 0.00 0.28 0.00 94 1011.8
20260509151143 69 226 6.1 8.7 0.00 0.28 0.00 94 1012.0
20260509151136 69 207 5.2 8.7 0.00 0.28 0.00 94 1012.0
20260509151131 68 207 4.3 6.1 0.00 0.28 0.00 95 1011.7
20260509151126 67 215 3.5 6.1 0.00 0.28 0.00 95 1011.7
20260509151120 77 186 5.2 8.7 0.00 0.28 0.00 89 1013.2
20260509151116 69 196 4.3 7.8 0.00 0.28 0.00 94 1012.1
20260509151111 67 212 3.5 6.1 0.00 0.28 0.00 95 1011.8
20260509151105 68 201 4.3 6.1 0.00 0.28 0.00 95 1011.8
20260509151100 70 206 5.2 7.8 0.00 0.28 0.00 93 1012.3
20260509151054 69 195 3.5 7.0 0.00 0.28 0.00 94 1012.2
20260509151050 71 188 6.1 8.7 0.00 0.28 0.00 93 1012.1
20260509151044 75 187 3.5 6.1 0.00 0.28 0.00 91 1012.9
20260509151039 70 192 4.3 6.1 0.00 0.28 0.00 94 1012.1
20260509151032 72 201 7.8 9.6 0.00 0.28 0.00 93 1012.3
20260509151026 75 193 3.5 6.1 0.00 0.28 0.00 91 1013.0
20260509151021 76 259 3.5 6.1 0.00 0.28 0.00 90 1013.4
20260509151016 77 209 5.2 7.8 0.00 0.28 0.00 88 1013.2
20260509151011 76 236 3.5 6.1 0.00 0.28 0.00 89 1013.5
20260509151005 77 250 2.6 5.2 0.00 0.28 0.00 89 1013.3
20260509151000 77 175 3.5 6.1 0.00 0.28 0.00 88 1013.1
20260509150955 72 187 7.0 9.6 0.00 0.28 0.00 92 1012.3
20260509150950 78 205 3.5 8.7 0.00 0.28 0.00 88 1013.1
20260509150945 74 207 5.2 10.4 0.00 0.28 0.00 92 1012.7
20260509150939 78 237 4.3 7.8 0.00 0.28 0.00 88 1013.4
20260509150809 74 215 4.3 7.8 0.00 0.28 0.00 92 1012.8
20260509150805 74 205 5.2 9.6 0.00 0.28 0.00 92 1012.7
20260509150759 75 211 3.5 7.0 0.00 0.28 0.00 91 1012.7
20260509150754 78 192 2.6 6.1 0.00 0.28 0.00 87 1013.3
20260509150625 69 207 5.2 8.7 0.00 0.28 0.00 94 1012.0
20260509150621 69 226 6.1 8.7 0.00 0.28 0.00 94 1012.0
20260509150615 68 207 4.3 6.1 0.00 0.28 0.00 95 1011.7
20260509150610 69 195 3.5 7.0 0.00 0.28 0.00 94 1012.2
20260509150605 69 196 4.3 7.8 0.00 0.28 0.00 94 1012.1
20260509150600 70 192 4.3 6.1 0.00 0.28 0.00 94 1012.1
20260509150554 70 206 5.2 7.8 0.00 0.28 0.00 93 1012.3
20260509150549 71 188 6.1 8.7 0.00 0.28 0.00 93 1012.1
20260509150543 75 187 3.5 6.1 0.00 0.28 0.00 91 1012.9
20260509150537 75 193 3.5 6.1 0.00 0.28 0.00 91 1013.0
20260509150530 76 259 3.5 6.1 0.00 0.28 0.00 90 1013.4
20260509150524 76 236 3.5 6.1 0.00 0.28 0.00 89 1013.5
20260509150518 77 250 2.6 5.2 0.00 0.28 0.00 89 1013.3
20260509150514 77 175 3.5 6.1 0.00 0.28 0.00 88 1013.1
20260509150509 78 205 3.5 8.7 0.00 0.28 0.00 88 1013.1
20260509150503 77 209 5.2 7.8 0.00 0.28 0.00 88 1013.2
20260509150335 78 237 4.3 7.8 0.00 0.28 0.00 88 1013.4
20260509150207 74 207 5.2 10.4 0.00 0.28 0.00 92 1012.7
20260509150201 73 180 7.0 10.4 0.00 0.28 0.00 93 1012.3
20260509150155 74 215 4.3 7.8 0.00 0.28 0.00 92 1012.8
20260509150151 78 192 2.6 6.1 0.00 0.28 0.00 87 1013.3
20260509150146 74 205 5.2 9.6 0.00 0.28 0.00 92 1012.7
20260509150140 77 186 5.2 8.7 0.00 0.28 0.00 89 1013.2
20260509150135 75 211 3.5 7.0 0.00 0.28 0.00 91 1012.7
20260509150007 75 193 3.5 6.1 0.00 0.28 0.00 91 1013.0
20260509150002 76 259 3.5 6.1 0.00 0.28 0.00 90 1013.4
20260509145956 76 236 3.5 6.1 0.00 0.28 0.00 89 1013.5
20260509145950 77 250 2.6 5.2 0.00 0.28 0.00 89 1013.3
20260509145945 78 205 3.5 8.7 0.00 0.28 0.00 88 1013.1
20260509145939 77 175 3.5 6.1 0.00 0.28 0.00 88 1013.1
20260509145935 77 209 5.2 7.8 0.00 0.28 0.00 88 1013.2
20260509145644 70 206 5.2 7.8 0.00 0.28 0.00 93 1012.3
20260509145638 71 188 6.1 8.7 0.00 0.28 0.00 93 1012.1
20260509145633 72 201 7.8 9.6 0.00 0.28 0.00 93 1012.3
20260509145628 77 186 5.2 8.7 0.00 0.28 0.00 89 1013.2
20260509145459 74 207 5.2 10.4 0.00 0.28 0.00 92 1012.7
20260509145455 73 180 7.0 10.4 0.00 0.28 0.00 93 1012.3
20260509145449 74 215 4.3 7.8 0.00 0.28 0.00 92 1012.8
20260509145444 74 205 5.2 9.6 0.00 0.28 0.00 92 1012.7
20260509145438 75 211 3.5 7.0 0.00 0.28 0.00 91 1012.7
20260509145433 75 187 3.5 6.1 0.00 0.28 0.00 91 1012.9
20260509145428 75 193 3.5 6.1 0.00 0.28 0.00 91 1013.0
20260509145423 76 259 3.5 6.1 0.00 0.28 0.00 90 1013.4
20260509145419 78 205 3.5 8.7 0.00 0.28 0.00 88 1013.1
20260509145413 76 236 3.5 6.1 0.00 0.28 0.00 89 1013.5
20260509145406 77 250 2.6 5.2 0.00 0.28 0.00 89 1013.3
20260509145400 77 175 3.5 6.1 0.00 0.28 0.00 88 1013.1
20260509145356 77 209 5.2 7.8 0.00 0.28 0.00 88 1013.2
20260509144742 74 205 5.2 9.6 0.00 0.28 0.00 92 1012.7
20260509144736 75 211 3.5 7.0 0.00 0.28 0.00 91 1012.7
20260509144731 77 209 5.2 7.8 0.00 0.28 0.00 88 1013.2
20260509144726 75 187 3.5 6.1 0.00 0.28 0.00 91 1012.9
20260509144721 75 193 3.5 6.1 0.00 0.28 0.00 91 1013.0
20260509144712 76 259 3.5 6.1 0.00 0.28 0.00 90 1013.4
20260509144707 76 236 3.5 6.1 0.00 0.28 0.00 89 1013.5
20260509144655 77 175 3.5 6.1 0.00 0.28 0.00 88 1013.1
20260509144359 78 205 3.5 8.7 0.00 0.28 0.00 88 1013.1
20260509144109 74 207 5.2 10.4 0.00 0.28 0.00 92 1012.7
20260509144104 73 180 7.0 10.4 0.00 0.28 0.00 93 1012.3
20260509144058 74 215 4.3 7.8 0.00 0.28 0.00 92 1012.8
20260509144051 74 205 5.2 9.6 0.00 0.28 0.00 92 1012.7
20260509144047 75 211 3.5 7.0 0.00 0.28 0.00 91 1012.7
20260509144041 77 175 3.5 6.1 0.00 0.28 0.00 88 1013.1
20260509143914 76 236 3.5 6.1 0.00 0.28 0.00 89 1013.5
20260509143909 75 193 3.5 6.1 0.00 0.28 0.00 91 1013.0
20260509143903 77 250 2.6 5.2 0.00 0.28 0.00 89 1013.3
20260509143859 76 259 3.5 6.1 0.00 0.28 0.00 90 1013.4
20260509143853 77 186 5.2 8.7 0.00 0.28 0.00 89 1013.2
20260509143435 74 205 5.2 9.6 0.00 0.28 0.00 92 1012.7
20260509143430 76 236 3.5 6.1 0.00 0.28 0.00 89 1013.5
20260509143424 77 250 2.6 5.2 0.00 0.28 0.00 89 1013.3
20260509143419 77 175 3.5 6.1 0.00 0.28 0.00 88 1013.1
20260509143252 75 187 3.5 6.1 0.00 0.28 0.00 91 1012.9
20260509143244 75 193 3.5 6.1 0.00 0.28 0.00 91 1013.0
20260509143239 76 259 3.5 6.1 0.00 0.28 0.00 90 1013.4
20260509143234 77 186 5.2 8.7 0.00 0.28 0.00 89 1013.2
20260509143222 78 205 3.5 8.7 0.00 0.28 0.00 88 1013.1
20260509143100 69 195 3.5 7.0 0.00 0.28 0.00 94 1012.2
20260509143055 69 196 4.3 7.8 0.00 0.28 0.00 94 1012.1
20260509142927 70 206 5.2 7.8 0.00 0.28 0.00 93 1012.3
20260509142921 71 188 6.1 8.7 0.00 0.28 0.00 93 1012.1
20260509142916 72 201 7.8 9.6 0.00 0.28 0.00 93 1012.3
20260509142912 74 215 4.3 7.8 0.00 0.28 0.00 92 1012.8
20260509142906 76 236 3.5 6.1 0.00 0.28 0.00 89 1013.5
20260509142901 77 250 2.6 5.2 0.00 0.28 0.00 89 1013.3
20260509142855 77 175 3.5 6.1 0.00 0.28 0.00 88 1013.1
20260509142728 77 186 5.2 8.7 0.00 0.28 0.00 89 1013.2
20260509142723 67 212 3.5 6.1 0.00 0.28 0.00 95 1011.8
20260509142717 68 201 4.3 6.1 0.00 0.28 0.00 95 1011.8
20260509142712 72 187 7.0 9.6 0.00 0.28 0.00 92 1012.3
20260509142708 73 180 7.0 10.4 0.00 0.28 0.00 93 1012.3
20260509142702 74 207 5.2 10.4 0.00 0.28 0.00 92 1012.7
20260509142657 74 205 5.2 9.6 0.00 0.28 0.00 92 1012.7
20260509142651 75 211 3.5 7.0 0.00 0.28 0.00 91 1012.7
20260509142645 75 187 3.5 6.1 0.00 0.28 0.00 91 1012.9
20260509142640 75 193 3.5 6.1 0.00 0.28 0.00 91 1013.0
20260509142633 76 259 3.5 6.1 0.00 0.28 0.00 90 1013.4
20260509142506 68 207 4.3 6.1 0.00 0.28 0.00 95 1011.7
20260509142500 69 207 5.2 8.7 0.00 0.28 0.00 94 1012.0
20260509142334 69 195 3.5 7.0 0.00 0.28 0.00 94 1012.2
20260509142326 69 196 4.3 7.8 0.00 0.28 0.00 94 1012.1
20260509142321 70 192 4.3 6.1 0.00 0.28 0.00 94 1012.1
20260509142316 70 206 5.2 7.8 0.00 0.28 0.00 93 1012.3
20260509142311 71 188 6.1 8.7 0.00 0.28 0.00 93 1012.1
20260509142307 72 201 7.8 9.6 0.00 0.28 0.00 93 1012.3
20260509142300 76 236 3.5 6.1 0.00 0.28 0.00 89 1013.5
20260509142254 77 250 2.6 5.2 0.00 0.28 0.00 89 1013.3
20260509142249 77 175 3.5 6.1 0.00 0.28 0.00 88 1013.1
20260509142232 77 186 5.2 8.7 0.00 0.28 0.00 89 1013.2
20260509142115 74 207 5.2 10.4 0.00 0.28 0.00 92 1012.7
20260509142111 73 180 7.0 10.4 0.00 0.28 0.00 93 1012.3
20260509142106 67 214 1.7 3.5 0.00 0.28 0.00 94 1012.3
20260509142100 75 187 3.5 6.1 0.00 0.28 0.00 91 1012.9
20260509142055 74 205 5.2 9.6 0.00 0.28 0.00 92 1012.7
20260509142049 75 211 3.5 7.0 0.00 0.28 0.00 91 1012.7
20260509142044 75 193 3.5 6.1 0.00 0.28 0.00 91 1013.0
20260509142039 67 215 2.6 4.3 0.00 0.28 0.00 94 1011.8
20260509142034 76 259 3.5 6.1 0.00 0.28 0.00 90 1013.4
20260509141906 67 215 3.5 6.1 0.00 0.28 0.00 95 1011.7
20260509141901 67 212 3.5 6.1 0.00 0.28 0.00 95 1011.8
20260509141857 74 215 4.3 7.8 0.00 0.28 0.00 92 1012.8
20260509141728 69 226 6.1 8.7 0.00 0.28 0.00 94 1012.0
20260509141722 68 207 4.3 6.1 0.00 0.28 0.00 95 1011.7
20260509141717 77 250 2.6 5.2 0.00 0.28 0.00 89 1013.3
20260509141713 69 207 5.2 8.7 0.00 0.28 0.00 94 1012.0
20260509141707 69 195 3.5 7.0 0.00 0.28 0.00 94 1012.2
20260509141702 69 196 4.3 7.8 0.00 0.28 0.00 94 1012.1
20260509141657 70 192 4.3 6.1 0.00 0.28 0.00 94 1012.1
20260509141653 77 175 3.5 6.1 0.00 0.28 0.00 88 1013.1
20260509141649 70 206 5.2 7.8 0.00 0.28 0.00 93 1012.3
20260509141644 76 236 3.5 6.1 0.00 0.28 0.00 89 1013.5
20260509141639 71 188 6.1 8.7 0.00 0.28 0.00 93 1012.1
20260509141634 72 201 7.8 9.6 0.00 0.28 0.00 93 1012.3
20260509141626 72 187 7.0 9.6 0.00 0.28 0.00 92 1012.3
20260509141621 73 180 7.0 10.4 0.00 0.28 0.00 93 1012.3
20260509141615 74 207 5.2 10.4 0.00 0.28 0.00 92 1012.7
20260509141611 74 205 5.2 9.6 0.00 0.28 0.00 92 1012.7
20260509141605 75 211 3.5 7.0 0.00 0.28 0.00 91 1012.7
20260509141600 75 187 3.5 6.1 0.00 0.28 0.00 91 1012.9
20260509141554 75 193 3.5 6.1 0.00 0.28 0.00 91 1013.0
20260509141428 85 15 7.8 9.6 0.00 0.00 0.00 70 1013.4
20260509141422 85 22 6.1 9.6 0.00 0.00 0.00 75 1013.6
20260509141417 84 346 2.6 8.7 0.00 0.00 0.00 75 1013.6
20260509141412 84 31 3.5 7.0 0.00 0.00 0.00 71 1013.6
20260509141407 84 23 4.3 7.0 0.00 0.00 0.00 73 1013.7
20260509141401 85 96 4.3 6.1 0.00 0.00 0.00 74 1013.7
20260509141356 83 96 5.2 8.7 0.00 0.00 0.00 75 1013.9
20260509141350 83 47 4.3 7.8 0.00 0.00 0.00 76 1014.0
20260509141345 83 88 6.1 7.8 0.00 0.00 0.00 74 1014.2
20260509141341 82 109 5.2 7.0 0.00 0.00 0.00 79 1014.2
20260509141335 81 63 5.2 7.8 0.00 0.00 0.00 77 1014.3
20260509141329 81 98 6.1 8.7 0.00 0.00 0.00 79 1014.5
20260509141327 80 70 4.3 9.6 0.00 0.00 0.00 79 1014.7
20260509141319 80 50 4.3 9.6 0.00 0.00 0.00 80 1014.9
20260509141313 79 81 3.5 4.3 0.00 0.00 0.00 81 1014.9
20260509141309 79 85 4.3 6.1 0.00 0.00 0.00 80 1015.0
20260509141303 74 215 4.3 7.8 0.00 0.28 0.00 92 1012.8
20260509141258 78 78 4.3 8.7 0.00 0.00 0.00 82 1015.1
20260509141248 78 79 4.3 8.7 0.00 0.00 0.00 81 1015.3
20260509141243 78 72 6.1 7.8 0.00 0.00 0.00 79 1015.3
20260509141227 79 96 6.1 9.6 0.00 0.00 0.00 82 1015.4
20260509141222 69 211 3.5 5.2 0.00 0.28 0.00 92 1011.9
20260509141216 69 224 2.6 5.2 0.00 0.28 0.00 91 1012.0
20260509141211 68 213 1.7 3.5 0.00 0.28 0.00 93 1012.4
20260509141207 77 250 2.6 5.2 0.00 0.28 0.00 89 1013.3
20260509141201 68 212 1.7 5.2 0.00 0.28 0.00 93 1012.2
20260509141156 76 236 3.5 6.1 0.00 0.28 0.00 89 1013.5
20260509141150 77 175 3.5 6.1 0.00 0.28 0.00 88 1013.1
20260509141145 67 214 1.7 3.5 0.00 0.28 0.00 94 1012.3
20260509141140 67 215 2.6 4.3 0.00 0.28 0.00 94 1011.8
20260509141136 67 214 0.9 3.5 0.00 0.28 0.00 94 1011.8
20260509141132 67 215 3.5 6.1 0.00 0.28 0.00 95 1011.7
20260509141125 67 212 3.5 6.1 0.00 0.28 0.00 95 1011.8
20260509141120 68 201 4.3 6.1 0.00 0.28 0.00 95 1011.8
20260509141114 69 226 6.1 8.7 0.00 0.28 0.00 94 1012.0
20260509141109 68 207 4.3 6.1 0.00 0.28 0.00 95 1011.7
20260509141103 69 207 5.2 8.7 0.00 0.28 0.00 94 1012.0
20260509141059 69 195 3.5 7.0 0.00 0.28 0.00 94 1012.2
20260509141053 69 196 4.3 7.8 0.00 0.28 0.00 94 1012.1
20260509141048 71 188 6.1 8.7 0.00 0.28 0.00 93 1012.1
20260509141044 70 192 4.3 6.1 0.00 0.28 0.00 94 1012.1
20260509141038 72 201 7.8 9.6 0.00 0.28 0.00 93 1012.3
20260509141033 73 180 7.0 10.4 0.00 0.28 0.00 93 1012.3
20260509141027 74 207 5.2 10.4 0.00 0.28 0.00 92 1012.7
20260509141021 75 211 3.5 7.0 0.00 0.28 0.00 91 1012.7
20260509141016 75 187 3.5 6.1 0.00 0.28 0.00 91 1012.9
20260509141010 72 187 7.0 9.6 0.00 0.28 0.00 92 1012.3
20260509141006 75 193 3.5 6.1 0.00 0.28 0.00 91 1013.0
20260509141001 70 206 5.2 7.8 0.00 0.28 0.00 93 1012.3
20260509140955 74 205 5.2 9.6 0.00 0.28 0.00 92 1012.7
20260509140950 76 259 3.5 6.1 0.00 0.28 0.00 90 1013.4
20260509140701 77 250 2.6 5.2 0.00 0.28 0.00 89 1013.3
20260509140536 72 201 7.8 9.6 0.00 0.28 0.00 93 1012.3
20260509140529 75 211 3.5 7.0 0.00 0.28 0.00 91 1012.7
20260509140524 75 187 3.5 6.1 0.00 0.28 0.00 91 1012.9
20260509140519 72 187 7.0 9.6 0.00 0.28 0.00 92 1012.3
20260509140515 73 180 7.0 10.4 0.00 0.28 0.00 93 1012.3
20260509140509 74 207 5.2 10.4 0.00 0.28 0.00 92 1012.7
20260509140504 75 193 3.5 6.1 0.00 0.28 0.00 91 1013.0
20260509140340 76 259 3.5 6.1 0.00 0.28 0.00 90 1013.4
20260509140212 76 236 3.5 6.1 0.00 0.28 0.00 89 1013.5
20260509140203 77 250 2.6 5.2 0.00 0.28 0.00 89 1013.3
20260509140041 69 196 4.3 7.8 0.00 0.28 0.00 94 1012.1
20260509140035 69 195 3.5 7.0 0.00 0.28 0.00 94 1012.2
20260509140028 69 207 5.2 8.7 0.00 0.28 0.00 94 1012.0
20260509140024 75 187 3.5 6.1 0.00 0.28 0.00 91 1012.9
20260509140019 75 211 3.5 7.0 0.00 0.28 0.00 91 1012.7
20260509135853 70 206 5.2 7.8 0.00 0.28 0.00 93 1012.3
20260509135848 75 193 3.5 6.1 0.00 0.28 0.00 91 1013.0
20260509135723 72 201 7.8 9.6 0.00 0.28 0.00 93 1012.3
20260509135717 72 187 7.0 9.6 0.00 0.28 0.00 92 1012.3
20260509135712 73 180 7.0 10.4 0.00 0.28 0.00 93 1012.3
20260509135706 74 207 5.2 10.4 0.00 0.28 0.00 92 1012.7
20260509135701 76 259 3.5 6.1 0.00 0.28 0.00 90 1013.4
20260509135655 74 205 5.2 9.6 0.00 0.28 0.00 92 1012.7
20260509135651 76 236 3.5 6.1 0.00 0.28 0.00 89 1013.5
20260509135645 74 215 4.3 7.8 0.00 0.28 0.00 92 1012.8
20260509135516 69 196 4.3 7.8 0.00 0.28 0.00 94 1012.1
20260509135511 75 211 3.5 7.0 0.00 0.28 0.00 91 1012.7
20260509135506 75 187 3.5 6.1 0.00 0.28 0.00 91 1012.9
20260509135344 75 193 3.5 6.1 0.00 0.28 0.00 91 1013.0
20260509135338 70 206 5.2 7.8 0.00 0.28 0.00 93 1012.3
20260509135212 71 188 6.1 8.7 0.00 0.28 0.00 93 1012.1
20260509135207 72 201 7.8 9.6 0.00 0.28 0.00 93 1012.3
20260509135202 72 187 7.0 9.6 0.00 0.28 0.00 92 1012.3
20260509135157 73 180 7.0 10.4 0.00 0.28 0.00 93 1012.3
20260509135152 74 207 5.2 10.4 0.00 0.28 0.00 92 1012.7
20260509135146 76 236 3.5 6.1 0.00 0.28 0.00 89 1013.5
20260509135141 74 205 5.2 9.6 0.00 0.28 0.00 92 1012.7
20260509135135 74 215 4.3 7.8 0.00 0.28 0.00 92 1012.8
20260509135010 75 187 3.5 6.1 0.00 0.28 0.00 91 1012.9
20260509134721 76 259 3.5 6.1 0.00 0.28 0.00 90 1013.4
20260509134556 69 207 5.2 8.7 0.00 0.28 0.00 94 1012.0
20260509134551 69 195 3.5 7.0 0.00 0.28 0.00 94 1012.2
20260509134545 74 207 5.2 10.4 0.00 0.28 0.00 92 1012.7
20260509134420 70 192 4.3 6.1 0.00 0.28 0.00 94 1012.1
20260509134415 70 206 5.2 7.8 0.00 0.28 0.00 93 1012.3
20260509134409 71 188 6.1 8.7 0.00 0.28 0.00 93 1012.1
20260509134404 72 201 7.8 9.6 0.00 0.28 0.00 93 1012.3
20260509134358 72 187 7.0 9.6 0.00 0.28 0.00 92 1012.3
20260509134353 73 180 7.0 10.4 0.00 0.28 0.00 93 1012.3
20260509134347 74 205 5.2 9.6 0.00 0.28 0.00 92 1012.7
20260509134343 74 215 4.3 7.8 0.00 0.28 0.00 92 1012.8
20260509134337 75 211 3.5 7.0 0.00 0.28 0.00 91 1012.7
20260509134332 75 187 3.5 6.1 0.00 0.28 0.00 91 1012.9
20260509134328 75 193 3.5 6.1 0.00 0.28 0.00 91 1013.0
20260509134200 67 214 1.7 3.5 0.00 0.28 0.00 94 1012.3
20260509134154 76 259 3.5 6.1 0.00 0.28 0.00 90 1013.4
20260509134029 67 214 0.9 3.5 0.00 0.28 0.00 94 1011.8
20260509134021 67 215 3.5 6.1 0.00 0.28 0.00 95 1011.7
20260509134016 68 201 4.3 6.1 0.00 0.28 0.00 95 1011.8
20260509134011 69 207 5.2 8.7 0.00 0.28 0.00 94 1012.0
20260509134007 69 226 6.1 8.7 0.00 0.28 0.00 94 1012.0
20260509134001 67 212 3.5 6.1 0.00 0.28 0.00 95 1011.8
20260509133956 68 207 4.3 6.1 0.00 0.28 0.00 95 1011.7
20260509133950 74 207 5.2 10.4 0.00 0.28 0.00 92 1012.7
20260509133824 75 211 3.5 7.0 0.00 0.28 0.00 91 1012.7
20260509133818 78 89 6.1 10.4 0.00 0.00 0.00 84 1015.4
20260509133813 69 211 3.5 5.2 0.00 0.28 0.00 92 1011.9
20260509133809 69 195 3.5 7.0 0.00 0.28 0.00 94 1012.2
20260509133803 70 192 4.3 6.1 0.00 0.28 0.00 94 1012.1
20260509133757 70 206 5.2 7.8 0.00 0.28 0.00 93 1012.3
20260509133752 71 188 6.1 8.7 0.00 0.28 0.00 93 1012.1
20260509133748 72 201 7.8 9.6 0.00 0.28 0.00 93 1012.3
20260509133742 72 187 7.0 9.6 0.00 0.28 0.00 92 1012.3
20260509133737 73 180 7.0 10.4 0.00 0.28 0.00 93 1012.3
20260509133732 74 205 5.2 9.6 0.00 0.28 0.00 92 1012.7
20260509133727 74 215 4.3 7.8 0.00 0.28 0.00 92 1012.8
20260509133720 75 187 3.5 6.1 0.00 0.28 0.00 91 1012.9
20260509133715 75 193 3.5 6.1 0.00 0.28 0.00 91 1013.0
20260509133549 68 212 1.7 5.2 0.00 0.28 0.00 93 1012.2
20260509133544 68 213 1.7 3.5 0.00 0.28 0.00 93 1012.4
20260509133538 67 214 1.7 3.5 0.00 0.28 0.00 94 1012.3
20260509133533 67 215 2.6 4.3 0.00 0.28 0.00 94 1011.8
20260509133528 67 214 0.9 3.5 0.00 0.28 0.00 94 1011.8
20260509133521 67 215 3.5 6.1 0.00 0.28 0.00 95 1011.7
20260509133516 67 212 3.5 6.1 0.00 0.28 0.00 95 1011.8
20260509133512 68 207 4.3 6.1 0.00 0.28 0.00 95 1011.7
20260509133506 68 201 4.3 6.1 0.00 0.28 0.00 95 1011.8
20260509133501 69 226 6.1 8.7 0.00 0.28 0.00 94 1012.0
20260509133456 69 207 5.2 8.7 0.00 0.28 0.00 94 1012.0
20260509133451 74 207 5.2 10.4 0.00 0.28 0.00 92 1012.7
20260509133323 69 196 4.3 7.8 0.00 0.28 0.00 94 1012.1
20260509133319 75 211 3.5 7.0 0.00 0.28 0.00 91 1012.7
20260509133152 70 206 5.2 7.8 0.00 0.28 0.00 93 1012.3
20260509133147 75 193 3.5 6.1 0.00 0.28 0.00 91 1013.0
20260509133143 71 188 6.1 8.7 0.00 0.28 0.00 93 1012.1
20260509133137 72 201 7.8 9.6 0.00 0.28 0.00 93 1012.3
20260509133133 72 187 7.0 9.6 0.00 0.28 0.00 92 1012.3
20260509133127 75 187 3.5 6.1 0.00 0.28 0.00 91 1012.9
20260509133120 74 215 4.3 7.8 0.00 0.28 0.00 92 1012.8
20260509133116 73 180 7.0 10.4 0.00 0.28 0.00 93 1012.3
20260509133110 74 205 5.2 9.6 0.00 0.28 0.00 92 1012.7
20260509132944 67 215 3.5 6.1 0.00 0.28 0.00 95 1011.7
20260509132818 68 201 4.3 6.1 0.00 0.28 0.00 95 1011.8
20260509132812 69 226 6.1 8.7 0.00 0.28 0.00 94 1012.0
20260509132808 75 211 3.5 7.0 0.00 0.28 0.00 91 1012.7
20260509132803 69 207 5.2 8.7 0.00 0.28 0.00 94 1012.0
20260509132637 69 196 4.3 7.8 0.00 0.28 0.00 94 1012.1
20260509132631 75 187 3.5 6.1 0.00 0.28 0.00 91 1012.9
20260509132626 74 215 4.3 7.8 0.00 0.28 0.00 92 1012.8
20260509132619 70 192 4.3 6.1 0.00 0.28 0.00 94 1012.1
20260509132615 70 206 5.2 7.8 0.00 0.28 0.00 93 1012.3
20260509132609 71 188 6.1 8.7 0.00 0.28 0.00 93 1012.1
20260509132604 72 201 7.8 9.6 0.00 0.28 0.00 93 1012.3
20260509132558 72 187 7.0 9.6 0.00 0.28 0.00 92 1012.3
20260509132553 73 180 7.0 10.4 0.00 0.28 0.00 93 1012.3
20260509132549 74 205 5.2 9.6 0.00 0.28 0.00 92 1012.7
20260509132305 78 71 5.2 9.6 0.00 0.00 0.00 85 1015.3
20260509132256 77 53 5.2 8.7 0.00 0.00 0.00 85 1015.3
20260509132252 77 67 7.0 10.4 0.00 0.00 0.00 85 1015.2
20260509132246 70 219 3.5 5.2 0.00 0.28 0.00 91 1012.1
20260509132241 69 211 3.5 5.2 0.00 0.28 0.00 92 1011.9
20260509132237 75 211 3.5 7.0 0.00 0.28 0.00 91 1012.7
20260509132231 69 224 2.6 5.2 0.00 0.28 0.00 91 1012.0
20260509132225 68 212 1.7 5.2 0.00 0.28 0.00 93 1012.2
20260509132217 68 213 1.7 3.5 0.00 0.28 0.00 93 1012.4
20260509132213 67 214 1.7 3.5 0.00 0.28 0.00 94 1012.3
20260509132207 67 215 2.6 4.3 0.00 0.28 0.00 94 1011.8
20260509132202 67 214 0.9 3.5 0.00 0.28 0.00 94 1011.8
20260509132156 67 212 3.5 6.1 0.00 0.28 0.00 95 1011.8
20260509132152 67 215 3.5 6.1 0.00 0.28 0.00 95 1011.7
20260509132147 75 187 3.5 6.1 0.00 0.28 0.00 91 1012.9
20260509132141 68 207 4.3 6.1 0.00 0.28 0.00 95 1011.7
20260509132136 74 215 4.3 7.8 0.00 0.28 0.00 92 1012.8
20260509132131 68 201 4.3 6.1 0.00 0.28 0.00 95 1011.8
20260509132126 69 226 6.1 8.7 0.00 0.28 0.00 94 1012.0
20260509132119 69 207 5.2 8.7 0.00 0.28 0.00 94 1012.0
20260509132113 69 195 3.5 7.0 0.00 0.28 0.00 94 1012.2
20260509132109 69 196 4.3 7.8 0.00 0.28 0.00 94 1012.1
20260509132105 70 192 4.3 6.1 0.00 0.28 0.00 94 1012.1
20260509132059 70 206 5.2 7.8 0.00 0.28 0.00 93 1012.3
20260509132053 71 188 6.1 8.7 0.00 0.28 0.00 93 1012.1
20260509132048 72 201 7.8 9.6 0.00 0.28 0.00 93 1012.3
20260509132044 72 187 7.0 9.6 0.00 0.28 0.00 92 1012.3
20260509131916 74 207 5.2 10.4 0.00 0.28 0.00 92 1012.7
20260509131912 74 205 5.2 9.6 0.00 0.28 0.00 92 1012.7
20260509131501 78 37 9.6 12.2 0.00 0.00 0.00 86 1015.2
20260509131456 70 205 3.5 6.1 0.00 0.28 0.00 91 1012.0
20260509131450 70 194 4.3 6.1 0.00 0.28 0.00 91 1012.0
20260509131445 71 188 6.1 8.7 0.00 0.28 0.00 93 1012.1
20260509131441 67 215 2.6 4.3 0.00 0.28 0.00 94 1011.8
20260509131435 70 206 5.2 7.8 0.00 0.28 0.00 93 1012.3
20260509131430 72 201 7.8 9.6 0.00 0.28 0.00 93 1012.3
20260509131424 73 180 7.0 10.4 0.00 0.28 0.00 93 1012.3
20260509131417 70 203 3.5 5.2 0.00 0.28 0.00 91 1012.1
20260509131413 67 212 3.5 6.1 0.00 0.28 0.00 95 1011.8
20260509131409 74 207 5.2 10.4 0.00 0.28 0.00 92 1012.7
20260509131403 70 191 2.6 4.3 0.00 0.28 0.00 91 1012.2
20260509131358 74 205 5.2 9.6 0.00 0.28 0.00 92 1012.7
20260509131232 70 219 3.5 5.2 0.00 0.28 0.00 91 1012.1
20260509131227 69 211 3.5 5.2 0.00 0.28 0.00 92 1011.9
20260509131219 69 224 2.6 5.2 0.00 0.28 0.00 91 1012.0
20260509131215 68 212 1.7 5.2 0.00 0.28 0.00 93 1012.2
20260509131209 68 213 1.7 3.5 0.00 0.28 0.00 93 1012.4
20260509131204 68 207 4.3 6.1 0.00 0.28 0.00 95 1011.7
20260509131159 67 215 3.5 6.1 0.00 0.28 0.00 95 1011.7
20260509131154 67 214 1.7 3.5 0.00 0.28 0.00 94 1012.3
20260509131149 75 211 3.5 7.0 0.00 0.28 0.00 91 1012.7
20260509131143 68 201 4.3 6.1 0.00 0.28 0.00 95 1011.8
20260509131138 72 187 7.0 9.6 0.00 0.28 0.00 92 1012.3
20260509131132 74 215 4.3 7.8 0.00 0.28 0.00 92 1012.8
20260509131128 69 226 6.1 8.7 0.00 0.28 0.00 94 1012.0
20260509131123 70 192 4.3 6.1 0.00 0.28 0.00 94 1012.1
20260509131116 69 207 5.2 8.7 0.00 0.28 0.00 94 1012.0
20260509131110 67 214 0.9 3.5 0.00 0.28 0.00 94 1011.8
20260509131105 69 195 3.5 7.0 0.00 0.28 0.00 94 1012.2
20260509131101 69 196 4.3 7.8 0.00 0.28 0.00 94 1012.1
20260509130936 71 188 6.1 8.7 0.00 0.28 0.00 93 1012.1
20260509130930 67 215 2.6 4.3 0.00 0.28 0.00 94 1011.8
20260509130924 72 201 7.8 9.6 0.00 0.28 0.00 93 1012.3
20260509130919 73 180 7.0 10.4 0.00 0.28 0.00 93 1012.3
20260509130913 67 212 3.5 6.1 0.00 0.28 0.00 95 1011.8
20260509130908 74 207 5.2 10.4 0.00 0.28 0.00 92 1012.7
20260509130902 74 205 5.2 9.6 0.00 0.28 0.00 92 1012.7
20260509130659 68 207 4.3 6.1 0.00 0.28 0.00 95 1011.7
20260509130653 67 215 3.5 6.1 0.00 0.28 0.00 95 1011.7
20260509130648 68 201 4.3 6.1 0.00 0.28 0.00 95 1011.8
20260509130644 74 215 4.3 7.8 0.00 0.28 0.00 92 1012.8
20260509130638 72 187 7.0 9.6 0.00 0.28 0.00 92 1012.3
20260509130633 69 207 5.2 8.7 0.00 0.28 0.00 94 1012.0
20260509130628 69 226 6.1 8.7 0.00 0.28 0.00 94 1012.0
20260509130623 69 195 3.5 7.0 0.00 0.28 0.00 94 1012.2
20260509130616 70 192 4.3 6.1 0.00 0.28 0.00 94 1012.1
20260509130450 70 206 5.2 7.8 0.00 0.28 0.00 93 1012.3
20260509130444 71 188 6.1 8.7 0.00 0.28 0.00 93 1012.1
20260509130439 72 201 7.8 9.6 0.00 0.28 0.00 93 1012.3
20260509130433 70 188 3.5 5.2 0.00 0.28 0.00 90 1012.4
20260509130429 71 190 4.3 9.6 0.00 0.28 0.00 89 1012.5
20260509130423 72 123 7.8 10.4 0.00 0.28 0.00 89 1012.4
20260509130416 73 180 7.0 10.4 0.00 0.28 0.00 93 1012.3
20260509130411 72 123 7.8 9.6 0.00 0.28 0.00 89 1012.4
20260509130405 72 122 7.0 9.6 0.00 0.28 0.00 90 1012.4
20260509130400 71 127 5.2 7.0 0.00 0.28 0.00 91 1012.5
20260509130356 71 120 4.3 6.1 0.00 0.28 0.00 91 1012.9
20260509130350 71 117 4.3 6.1 0.00 0.28 0.00 92 1013.0
20260509130346 71 119 5.2 7.8 0.00 0.28 0.00 92 1013.1
20260509130340 70 116 4.3 6.1 0.00 0.28 0.00 92 1013.3
20260509130336 70 124 4.3 7.8 0.00 0.28 0.00 92 1013.6
20260509130331 70 111 4.3 7.8 0.00 0.28 0.00 92 1013.7
20260509130325 70 219 3.5 5.2 0.00 0.28 0.00 91 1012.1
20260509130320 69 211 3.5 5.2 0.00 0.28 0.00 92 1011.9
20260509130313 70 97 3.5 7.0 0.00 0.28 0.00 92 1013.8
20260509130307 70 94 4.3 7.0 0.00 0.28 0.00 92 1013.9
20260509130303 71 112 4.3 6.1 0.00 0.28 0.00 93 1014.2
20260509130257 68 212 1.7 5.2 0.00 0.28 0.00 93 1012.2
20260509130252 74 207 5.2 10.4 0.00 0.28 0.00 92 1012.7
20260509130247 69 224 2.6 5.2 0.00 0.28 0.00 91 1012.0
20260509130242 70 205 3.5 6.1 0.00 0.28 0.00 91 1012.0
20260509130236 68 213 1.7 3.5 0.00 0.28 0.00 93 1012.4
20260509130231 74 205 5.2 9.6 0.00 0.28 0.00 92 1012.7
20260509130227 67 214 1.7 3.5 0.00 0.28 0.00 94 1012.3
20260509130221 67 214 0.9 3.5 0.00 0.28 0.00 94 1011.8
20260509130214 67 215 2.6 4.3 0.00 0.28 0.00 94 1011.8
20260509130209 67 212 3.5 6.1 0.00 0.28 0.00 95 1011.8
20260509130204 67 215 3.5 6.1 0.00 0.28 0.00 95 1011.7
20260509130200 68 207 4.3 6.1 0.00 0.28 0.00 95 1011.7
20260509130155 68 201 4.3 6.1 0.00 0.28 0.00 95 1011.8
20260509130149 74 215 4.3 7.8 0.00 0.28 0.00 92 1012.8
20260509130143 69 226 6.1 8.7 0.00 0.28 0.00 94 1012.0
20260509130138 69 207 5.2 8.7 0.00 0.28 0.00 94 1012.0
20260509130132 72 187 7.0 9.6 0.00 0.28 0.00 92 1012.3
20260509130007 69 196 4.3 7.8 0.00 0.28 0.00 94 1012.1
20260509130001 70 192 4.3 6.1 0.00 0.28 0.00 94 1012.1
20260509125956 70 206 5.2 7.8 0.00 0.28 0.00 93 1012.3
20260509125950 71 188 6.1 8.7 0.00 0.28 0.00 93 1012.1
20260509125945 72 201 7.8 9.6 0.00 0.28 0.00 93 1012.3
20260509125941 73 180 7.0 10.4 0.00 0.28 0.00 93 1012.3
20260509125815 70 219 3.5 5.2 0.00 0.28 0.00 91 1012.1
20260509125809 69 211 3.5 5.2 0.00 0.28 0.00 92 1011.9
20260509125804 69 224 2.6 5.2 0.00 0.28 0.00 91 1012.0
20260509125758 68 212 1.7 5.2 0.00 0.28 0.00 93 1012.2
20260509125753 68 213 1.7 3.5 0.00 0.28 0.00 93 1012.4
20260509125749 74 207 5.2 10.4 0.00 0.28 0.00 92 1012.7
20260509125743 74 205 5.2 9.6 0.00 0.28 0.00 92 1012.7
20260509125617 72 187 7.0 9.6 0.00 0.28 0.00 92 1012.3
20260509125450 67 215 2.6 4.3 0.00 0.28 0.00 94 1011.8
20260509125445 67 212 3.5 6.1 0.00 0.28 0.00 95 1011.8
20260509125439 67 215 3.5 6.1 0.00 0.28 0.00 95 1011.7
20260509125435 68 207 4.3 6.1 0.00 0.28 0.00 95 1011.7
20260509125430 68 201 4.3 6.1 0.00 0.28 0.00 95 1011.8
20260509125424 69 226 6.1 8.7 0.00 0.28 0.00 94 1012.0
20260509125419 69 195 3.5 7.0 0.00 0.28 0.00 94 1012.2
20260509125412 69 207 5.2 8.7 0.00 0.28 0.00 94 1012.0
20260509125406 70 206 5.2 7.8 0.00 0.28 0.00 93 1012.3
20260509125401 70 192 4.3 6.1 0.00 0.28 0.00 94 1012.1
20260509125355 69 196 4.3 7.8 0.00 0.28 0.00 94 1012.1
20260509125350 71 188 6.1 8.7 0.00 0.28 0.00 93 1012.1
20260509125344 72 201 7.8 9.6 0.00 0.28 0.00 93 1012.3
20260509125340 73 180 7.0 10.4 0.00 0.28 0.00 93 1012.3
20260509125209 74 205 5.2 9.6 0.00 0.28 0.00 92 1012.7
20260509124928 68 212 1.7 5.2 0.00 0.28 0.00 93 1012.2
20260509124922 68 213 1.7 3.5 0.00 0.28 0.00 93 1012.4
20260509124915 67 214 1.7 3.5 0.00 0.28 0.00 94 1012.3
20260509124910 69 195 3.5 7.0 0.00 0.28 0.00 94 1012.2
20260509124904 70 192 4.3 6.1 0.00 0.28 0.00 94 1012.1
20260509124859 70 206 5.2 7.8 0.00 0.28 0.00 93 1012.3
20260509124734 67 215 2.6 4.3 0.00 0.28 0.00 94 1011.8
20260509124728 67 212 3.5 6.1 0.00 0.28 0.00 95 1011.8
20260509124723 67 215 3.5 6.1 0.00 0.28 0.00 95 1011.7
20260509124717 68 207 4.3 6.1 0.00 0.28 0.00 95 1011.7
20260509124710 68 201 4.3 6.1 0.00 0.28 0.00 95 1011.8
20260509124705 71 188 6.1 8.7 0.00 0.28 0.00 93 1012.1
20260509124659 69 226 6.1 8.7 0.00 0.28 0.00 94 1012.0
20260509124655 69 207 5.2 8.7 0.00 0.28 0.00 94 1012.0
20260509124649 73 180 7.0 10.4 0.00 0.28 0.00 93 1012.3
20260509124644 74 207 5.2 10.4 0.00 0.28 0.00 92 1012.7
20260509124638 72 201 7.8 9.6 0.00 0.28 0.00 93 1012.3
20260509124512 72 187 7.0 9.6 0.00 0.28 0.00 92 1012.3
20260509124346 71 81 5.2 8.7 0.00 0.28 0.00 94 1014.2
20260509124340 71 82 5.2 8.7 0.00 0.28 0.00 94 1014.0
20260509124335 70 192 4.3 6.1 0.00 0.28 0.00 94 1012.1
20260509124329 71 78 6.1 8.7 0.00 0.28 0.00 95 1014.5
20260509124324 70 206 5.2 7.8 0.00 0.28 0.00 93 1012.3
20260509124319 70 46 6.1 8.7 0.00 0.28 0.00 95 1014.6
20260509124312 70 27 3.5 7.8 0.00 0.28 0.00 95 1014.9
20260509124307 70 5 3.5 7.8 0.00 0.28 0.00 95 1015.1
20260509124301 71 12 2.6 7.8 0.00 0.28 0.00 95 1015.4
20260509124256 71 343 4.3 8.7 0.00 0.28 0.00 94 1015.2
20260509124252 71 0 4.3 12.2 0.00 0.28 0.00 95 1015.5
20260509124246 71 12 6.1 14.8 0.00 0.28 0.00 95 1015.6
20260509124241 71 315 6.1 13.9 0.00 0.28 0.28 95 1015.4
20260509124236 71 346 6.1 13.9 0.00 0.28 0.28 95 1015.4
20260509124231 70 203 3.5 5.2 0.00 0.28 0.00 91 1012.1
20260509124225 70 191 2.6 4.3 0.00 0.28 0.00 91 1012.2
20260509124220 71 188 6.1 8.7 0.00 0.28 0.00 93 1012.1
20260509124213 70 181 2.6 5.2 0.00 0.28 0.00 91 1012.3
20260509124207 70 205 3.5 6.1 0.00 0.28 0.00 91 1012.0
20260509124201 70 194 4.3 6.1 0.00 0.28 0.00 91 1012.0
20260509124156 73 180 7.0 10.4 0.00 0.28 0.00 93 1012.3
20260509124151 72 201 7.8 9.6 0.00 0.28 0.00 93 1012.3
20260509124144 74 207 5.2 10.4 0.00 0.28 0.00 92 1012.7
20260509124020 69 224 2.6 5.2 0.00 0.28 0.00 91 1012.0
20260509124013 69 211 3.5 5.2 0.00 0.28 0.00 92 1011.9
20260509124007 68 212 1.7 5.2 0.00 0.28 0.00 93 1012.2
20260509124002 68 213 1.7 3.5 0.00 0.28 0.00 93 1012.4
20260509123956 67 214 1.7 3.5 0.00 0.28 0.00 94 1012.3
20260509123951 67 214 0.9 3.5 0.00 0.28 0.00 94 1011.8
20260509123947 67 215 2.6 4.3 0.00 0.28 0.00 94 1011.8
20260509123941 67 212 3.5 6.1 0.00 0.28 0.00 95 1011.8
20260509123936 67 215 3.5 6.1 0.00 0.28 0.00 95 1011.7
20260509123932 68 207 4.3 6.1 0.00 0.28 0.00 95 1011.7
20260509123927 72 187 7.0 9.6 0.00 0.28 0.00 92 1012.3
20260509123922 68 201 4.3 6.1 0.00 0.28 0.00 95 1011.8
20260509123916 69 226 6.1 8.7 0.00 0.28 0.00 94 1012.0
20260509123910 69 207 5.2 8.7 0.00 0.28 0.00 94 1012.0
20260509123905 69 196 4.3 7.8 0.00 0.28 0.00 94 1012.1
20260509123859 69 195 3.5 7.0 0.00 0.28 0.00 94 1012.2
20260509123854 70 192 4.3 6.1 0.00 0.28 0.00 94 1012.1
20260509123848 70 206 5.2 7.8 0.00 0.28 0.00 93 1012.3
20260509123723 73 180 7.0 10.4 0.00 0.28 0.00 93 1012.3
20260509123311 70 205 3.5 6.1 0.00 0.28 0.00 91 1012.0
20260509123306 70 194 4.3 6.1 0.00 0.28 0.00 91 1012.0
20260509123300 70 219 3.5 5.2 0.00 0.28 0.00 91 1012.1
20260509123256 69 224 2.6 5.2 0.00 0.28 0.00 91 1012.0
20260509123250 69 211 3.5 5.2 0.00 0.28 0.00 92 1011.9
20260509123245 68 212 1.7 5.2 0.00 0.28 0.00 93 1012.2
20260509123239 68 213 1.7 3.5 0.00 0.28 0.00 93 1012.4
20260509123235 67 214 1.7 3.5 0.00 0.28 0.00 94 1012.3
20260509123230 67 214 0.9 3.5 0.00 0.28 0.00 94 1011.8
20260509123224 69 207 5.2 8.7 0.00 0.28 0.00 94 1012.0
20260509123219 67 215 2.6 4.3 0.00 0.28 0.00 94 1011.8
20260509123212 69 196 4.3 7.8 0.00 0.28 0.00 94 1012.1
20260509123207 69 195 3.5 7.0 0.00 0.28 0.00 94 1012.2
20260509123202 70 192 4.3 6.1 0.00 0.28 0.00 94 1012.1
20260509123156 70 206 5.2 7.8 0.00 0.28 0.00 93 1012.3
20260509123150 73 180 7.0 10.4 0.00 0.28 0.00 93 1012.3